<?xml version="1.0" encoding="UTF-8" standalone="no" ?>
<gpx xmlns="http://www.topografix.com/GPX/1/1" xmlns:xsi="http://www.w3.org/2001/XMLSchema-instance" xsi:schemaLocation="http://www.topografix.com/GPX/1/1 http://www.topografix.com/GPX/1/1/gpx.xsd" version="1.1" creator="VisuGPX - https://www.visugpx.com">
  <metadata>
    <name>SO-E-St Léger St Pazanne St Lumine St Philbert La Chevrolière Pont St Martin St Aignan</name>
    <desc><![CDATA[SO-E-St Léger St Pazanne St Lumine St Philbert La Chevrolière Pont St Martin St Aignan]]></desc>
  </metadata>
  <trk>
    <name><![CDATA[2021-02-14 12:55 +01:00]]></name>
    <trkseg>
      <trkpt lat="47.16784" lon="-1.62671">
        <ele>71</ele>
        <time>2021-02-14T11:55:30.976Z</time>
      </trkpt>
      <trkpt lat="47.16783" lon="-1.62654">
        <ele>54</ele>
        <time>2021-02-14T11:55:33.000Z</time>
      </trkpt>
      <trkpt lat="47.16775" lon="-1.62649">
        <ele>70</ele>
        <time>2021-02-14T11:56:35.000Z</time>
      </trkpt>
      <trkpt lat="47.16781" lon="-1.62665">
        <ele>75</ele>
        <time>2021-02-14T11:58:18.000Z</time>
      </trkpt>
      <trkpt lat="47.16776" lon="-1.62677">
        <ele>73</ele>
        <time>2021-02-14T11:58:20.000Z</time>
      </trkpt>
      <trkpt lat="47.16761" lon="-1.62677">
        <ele>75</ele>
        <time>2021-02-14T11:58:23.000Z</time>
      </trkpt>
      <trkpt lat="47.1675" lon="-1.62674">
        <ele>75</ele>
        <time>2021-02-14T11:58:25.000Z</time>
      </trkpt>
      <trkpt lat="47.16737" lon="-1.62681">
        <ele>74</ele>
        <time>2021-02-14T11:58:27.000Z</time>
      </trkpt>
      <trkpt lat="47.16726" lon="-1.62689">
        <ele>74</ele>
        <time>2021-02-14T11:58:29.000Z</time>
      </trkpt>
      <trkpt lat="47.16718" lon="-1.627">
        <ele>73</ele>
        <time>2021-02-14T11:58:31.000Z</time>
      </trkpt>
      <trkpt lat="47.16719" lon="-1.62715">
        <ele>73</ele>
        <time>2021-02-14T11:58:33.000Z</time>
      </trkpt>
      <trkpt lat="47.16729" lon="-1.62729">
        <ele>72</ele>
        <time>2021-02-14T11:58:35.000Z</time>
      </trkpt>
      <trkpt lat="47.16737" lon="-1.62743">
        <ele>72</ele>
        <time>2021-02-14T11:58:37.000Z</time>
      </trkpt>
      <trkpt lat="47.16746" lon="-1.62756">
        <ele>71</ele>
        <time>2021-02-14T11:58:39.000Z</time>
      </trkpt>
      <trkpt lat="47.16757" lon="-1.62767">
        <ele>72</ele>
        <time>2021-02-14T11:58:41.000Z</time>
      </trkpt>
      <trkpt lat="47.16769" lon="-1.62777">
        <ele>72</ele>
        <time>2021-02-14T11:58:43.000Z</time>
      </trkpt>
      <trkpt lat="47.1678" lon="-1.62787">
        <ele>72</ele>
        <time>2021-02-14T11:58:45.000Z</time>
      </trkpt>
      <trkpt lat="47.16792" lon="-1.62798">
        <ele>73</ele>
        <time>2021-02-14T11:58:47.000Z</time>
      </trkpt>
      <trkpt lat="47.16804" lon="-1.62807">
        <ele>74</ele>
        <time>2021-02-14T11:58:49.000Z</time>
      </trkpt>
      <trkpt lat="47.1682" lon="-1.62822">
        <ele>74</ele>
        <time>2021-02-14T11:58:52.000Z</time>
      </trkpt>
      <trkpt lat="47.16831" lon="-1.62834">
        <ele>74</ele>
        <time>2021-02-14T11:58:54.000Z</time>
      </trkpt>
      <trkpt lat="47.16842" lon="-1.62844">
        <ele>75</ele>
        <time>2021-02-14T11:58:56.000Z</time>
      </trkpt>
      <trkpt lat="47.16853" lon="-1.62855">
        <ele>76</ele>
        <time>2021-02-14T11:58:58.000Z</time>
      </trkpt>
      <trkpt lat="47.16864" lon="-1.62866">
        <ele>76</ele>
        <time>2021-02-14T11:59:00.000Z</time>
      </trkpt>
      <trkpt lat="47.16873" lon="-1.62879">
        <ele>77</ele>
        <time>2021-02-14T11:59:02.000Z</time>
      </trkpt>
      <trkpt lat="47.16881" lon="-1.62895">
        <ele>77</ele>
        <time>2021-02-14T11:59:04.000Z</time>
      </trkpt>
      <trkpt lat="47.16888" lon="-1.62923">
        <ele>76</ele>
        <time>2021-02-14T11:59:07.000Z</time>
      </trkpt>
      <trkpt lat="47.1689" lon="-1.62942">
        <ele>77</ele>
        <time>2021-02-14T11:59:09.000Z</time>
      </trkpt>
      <trkpt lat="47.1689" lon="-1.62961">
        <ele>77</ele>
        <time>2021-02-14T11:59:11.000Z</time>
      </trkpt>
      <trkpt lat="47.16888" lon="-1.62991">
        <ele>77</ele>
        <time>2021-02-14T11:59:14.000Z</time>
      </trkpt>
      <trkpt lat="47.16886" lon="-1.63021">
        <ele>76</ele>
        <time>2021-02-14T11:59:17.000Z</time>
      </trkpt>
      <trkpt lat="47.16885" lon="-1.6304">
        <ele>76</ele>
        <time>2021-02-14T11:59:19.000Z</time>
      </trkpt>
      <trkpt lat="47.16886" lon="-1.63059">
        <ele>76</ele>
        <time>2021-02-14T11:59:21.000Z</time>
      </trkpt>
      <trkpt lat="47.1689" lon="-1.63087">
        <ele>77</ele>
        <time>2021-02-14T11:59:24.000Z</time>
      </trkpt>
      <trkpt lat="47.16893" lon="-1.63106">
        <ele>77</ele>
        <time>2021-02-14T11:59:26.000Z</time>
      </trkpt>
      <trkpt lat="47.16897" lon="-1.63122">
        <ele>77</ele>
        <time>2021-02-14T11:59:28.000Z</time>
      </trkpt>
      <trkpt lat="47.16903" lon="-1.6314">
        <ele>77</ele>
        <time>2021-02-14T11:59:30.000Z</time>
      </trkpt>
      <trkpt lat="47.16909" lon="-1.63157">
        <ele>77</ele>
        <time>2021-02-14T11:59:32.000Z</time>
      </trkpt>
      <trkpt lat="47.16916" lon="-1.63172">
        <ele>77</ele>
        <time>2021-02-14T11:59:34.000Z</time>
      </trkpt>
      <trkpt lat="47.16923" lon="-1.63187">
        <ele>77</ele>
        <time>2021-02-14T11:59:36.000Z</time>
      </trkpt>
      <trkpt lat="47.16931" lon="-1.63201">
        <ele>77</ele>
        <time>2021-02-14T11:59:38.000Z</time>
      </trkpt>
      <trkpt lat="47.16944" lon="-1.63219">
        <ele>77</ele>
        <time>2021-02-14T11:59:41.000Z</time>
      </trkpt>
      <trkpt lat="47.16952" lon="-1.63229">
        <ele>78</ele>
        <time>2021-02-14T11:59:43.000Z</time>
      </trkpt>
      <trkpt lat="47.1696" lon="-1.63239">
        <ele>78</ele>
        <time>2021-02-14T11:59:45.000Z</time>
      </trkpt>
      <trkpt lat="47.16969" lon="-1.63252">
        <ele>78</ele>
        <time>2021-02-14T11:59:48.000Z</time>
      </trkpt>
      <trkpt lat="47.16965" lon="-1.63267">
        <ele>78</ele>
        <time>2021-02-14T11:59:50.000Z</time>
      </trkpt>
      <trkpt lat="47.16953" lon="-1.63287">
        <ele>79</ele>
        <time>2021-02-14T11:59:53.000Z</time>
      </trkpt>
      <trkpt lat="47.16945" lon="-1.63302">
        <ele>79</ele>
        <time>2021-02-14T11:59:55.000Z</time>
      </trkpt>
      <trkpt lat="47.16936" lon="-1.63317">
        <ele>79</ele>
        <time>2021-02-14T11:59:57.000Z</time>
      </trkpt>
      <trkpt lat="47.16927" lon="-1.6333">
        <ele>80</ele>
        <time>2021-02-14T11:59:59.000Z</time>
      </trkpt>
      <trkpt lat="47.16917" lon="-1.63342">
        <ele>80</ele>
        <time>2021-02-14T12:00:01.000Z</time>
      </trkpt>
      <trkpt lat="47.16908" lon="-1.63355">
        <ele>80</ele>
        <time>2021-02-14T12:00:03.000Z</time>
      </trkpt>
      <trkpt lat="47.16898" lon="-1.63368">
        <ele>81</ele>
        <time>2021-02-14T12:00:05.000Z</time>
      </trkpt>
      <trkpt lat="47.16889" lon="-1.63383">
        <ele>81</ele>
        <time>2021-02-14T12:00:07.000Z</time>
      </trkpt>
      <trkpt lat="47.16877" lon="-1.63404">
        <ele>82</ele>
        <time>2021-02-14T12:00:10.000Z</time>
      </trkpt>
      <trkpt lat="47.16868" lon="-1.63417">
        <ele>82</ele>
        <time>2021-02-14T12:00:12.000Z</time>
      </trkpt>
      <trkpt lat="47.1686" lon="-1.63432">
        <ele>82</ele>
        <time>2021-02-14T12:00:14.000Z</time>
      </trkpt>
      <trkpt lat="47.16852" lon="-1.63447">
        <ele>82</ele>
        <time>2021-02-14T12:00:16.000Z</time>
      </trkpt>
      <trkpt lat="47.16844" lon="-1.63461">
        <ele>81</ele>
        <time>2021-02-14T12:00:18.000Z</time>
      </trkpt>
      <trkpt lat="47.16836" lon="-1.63474">
        <ele>81</ele>
        <time>2021-02-14T12:00:20.000Z</time>
      </trkpt>
      <trkpt lat="47.16828" lon="-1.63488">
        <ele>81</ele>
        <time>2021-02-14T12:00:22.000Z</time>
      </trkpt>
      <trkpt lat="47.1682" lon="-1.63502">
        <ele>81</ele>
        <time>2021-02-14T12:00:24.000Z</time>
      </trkpt>
      <trkpt lat="47.16811" lon="-1.63516">
        <ele>81</ele>
        <time>2021-02-14T12:00:26.000Z</time>
      </trkpt>
      <trkpt lat="47.16803" lon="-1.63531">
        <ele>81</ele>
        <time>2021-02-14T12:00:28.000Z</time>
      </trkpt>
      <trkpt lat="47.16794" lon="-1.63545">
        <ele>81</ele>
        <time>2021-02-14T12:00:30.000Z</time>
      </trkpt>
      <trkpt lat="47.16786" lon="-1.63559">
        <ele>81</ele>
        <time>2021-02-14T12:00:32.000Z</time>
      </trkpt>
      <trkpt lat="47.16778" lon="-1.63573">
        <ele>81</ele>
        <time>2021-02-14T12:00:34.000Z</time>
      </trkpt>
      <trkpt lat="47.1677" lon="-1.63587">
        <ele>81</ele>
        <time>2021-02-14T12:00:36.000Z</time>
      </trkpt>
      <trkpt lat="47.16762" lon="-1.636">
        <ele>81</ele>
        <time>2021-02-14T12:00:38.000Z</time>
      </trkpt>
      <trkpt lat="47.16754" lon="-1.63613">
        <ele>81</ele>
        <time>2021-02-14T12:00:40.000Z</time>
      </trkpt>
      <trkpt lat="47.16747" lon="-1.63627">
        <ele>81</ele>
        <time>2021-02-14T12:00:42.000Z</time>
      </trkpt>
      <trkpt lat="47.16746" lon="-1.63642">
        <ele>80</ele>
        <time>2021-02-14T12:00:44.000Z</time>
      </trkpt>
      <trkpt lat="47.16758" lon="-1.63649">
        <ele>80</ele>
        <time>2021-02-14T12:00:46.000Z</time>
      </trkpt>
      <trkpt lat="47.16771" lon="-1.63652">
        <ele>80</ele>
        <time>2021-02-14T12:00:48.000Z</time>
      </trkpt>
      <trkpt lat="47.16783" lon="-1.63656">
        <ele>80</ele>
        <time>2021-02-14T12:00:50.000Z</time>
      </trkpt>
      <trkpt lat="47.16796" lon="-1.63661">
        <ele>80</ele>
        <time>2021-02-14T12:00:52.000Z</time>
      </trkpt>
      <trkpt lat="47.16808" lon="-1.63666">
        <ele>80</ele>
        <time>2021-02-14T12:00:54.000Z</time>
      </trkpt>
      <trkpt lat="47.16821" lon="-1.63671">
        <ele>80</ele>
        <time>2021-02-14T12:00:56.000Z</time>
      </trkpt>
      <trkpt lat="47.16834" lon="-1.63675">
        <ele>80</ele>
        <time>2021-02-14T12:00:58.000Z</time>
      </trkpt>
      <trkpt lat="47.16848" lon="-1.63681">
        <ele>80</ele>
        <time>2021-02-14T12:01:00.000Z</time>
      </trkpt>
      <trkpt lat="47.16861" lon="-1.63686">
        <ele>80</ele>
        <time>2021-02-14T12:01:02.000Z</time>
      </trkpt>
      <trkpt lat="47.16874" lon="-1.63691">
        <ele>79</ele>
        <time>2021-02-14T12:01:04.000Z</time>
      </trkpt>
      <trkpt lat="47.16887" lon="-1.63697">
        <ele>79</ele>
        <time>2021-02-14T12:01:06.000Z</time>
      </trkpt>
      <trkpt lat="47.169" lon="-1.63701">
        <ele>79</ele>
        <time>2021-02-14T12:01:08.000Z</time>
      </trkpt>
      <trkpt lat="47.16913" lon="-1.63706">
        <ele>79</ele>
        <time>2021-02-14T12:01:10.000Z</time>
      </trkpt>
      <trkpt lat="47.16927" lon="-1.63711">
        <ele>79</ele>
        <time>2021-02-14T12:01:12.000Z</time>
      </trkpt>
      <trkpt lat="47.1694" lon="-1.63716">
        <ele>79</ele>
        <time>2021-02-14T12:01:14.000Z</time>
      </trkpt>
      <trkpt lat="47.16953" lon="-1.63721">
        <ele>79</ele>
        <time>2021-02-14T12:01:16.000Z</time>
      </trkpt>
      <trkpt lat="47.16966" lon="-1.63726">
        <ele>79</ele>
        <time>2021-02-14T12:01:18.000Z</time>
      </trkpt>
      <trkpt lat="47.16979" lon="-1.63731">
        <ele>79</ele>
        <time>2021-02-14T12:01:20.000Z</time>
      </trkpt>
      <trkpt lat="47.16992" lon="-1.63734">
        <ele>80</ele>
        <time>2021-02-14T12:01:22.000Z</time>
      </trkpt>
      <trkpt lat="47.17006" lon="-1.63739">
        <ele>80</ele>
        <time>2021-02-14T12:01:24.000Z</time>
      </trkpt>
      <trkpt lat="47.17019" lon="-1.63744">
        <ele>80</ele>
        <time>2021-02-14T12:01:26.000Z</time>
      </trkpt>
      <trkpt lat="47.17031" lon="-1.63749">
        <ele>80</ele>
        <time>2021-02-14T12:01:28.000Z</time>
      </trkpt>
      <trkpt lat="47.17044" lon="-1.63754">
        <ele>80</ele>
        <time>2021-02-14T12:01:30.000Z</time>
      </trkpt>
      <trkpt lat="47.1706" lon="-1.63771">
        <ele>80</ele>
        <time>2021-02-14T12:01:33.000Z</time>
      </trkpt>
      <trkpt lat="47.17068" lon="-1.63787">
        <ele>80</ele>
        <time>2021-02-14T12:01:35.000Z</time>
      </trkpt>
      <trkpt lat="47.17074" lon="-1.63806">
        <ele>80</ele>
        <time>2021-02-14T12:01:37.000Z</time>
      </trkpt>
      <trkpt lat="47.1708" lon="-1.63825">
        <ele>79</ele>
        <time>2021-02-14T12:01:39.000Z</time>
      </trkpt>
      <trkpt lat="47.17086" lon="-1.63842">
        <ele>80</ele>
        <time>2021-02-14T12:01:41.000Z</time>
      </trkpt>
      <trkpt lat="47.17092" lon="-1.6386">
        <ele>79</ele>
        <time>2021-02-14T12:01:43.000Z</time>
      </trkpt>
      <trkpt lat="47.17098" lon="-1.63877">
        <ele>79</ele>
        <time>2021-02-14T12:01:45.000Z</time>
      </trkpt>
      <trkpt lat="47.17104" lon="-1.63894">
        <ele>79</ele>
        <time>2021-02-14T12:01:47.000Z</time>
      </trkpt>
      <trkpt lat="47.1711" lon="-1.63911">
        <ele>78</ele>
        <time>2021-02-14T12:01:49.000Z</time>
      </trkpt>
      <trkpt lat="47.17116" lon="-1.63927">
        <ele>78</ele>
        <time>2021-02-14T12:01:51.000Z</time>
      </trkpt>
      <trkpt lat="47.17124" lon="-1.63939">
        <ele>78</ele>
        <time>2021-02-14T12:01:53.000Z</time>
      </trkpt>
      <trkpt lat="47.17133" lon="-1.63944">
        <ele>79</ele>
        <time>2021-02-14T12:01:55.000Z</time>
      </trkpt>
      <trkpt lat="47.17137" lon="-1.63957">
        <ele>79</ele>
        <time>2021-02-14T12:01:57.000Z</time>
      </trkpt>
      <trkpt lat="47.17138" lon="-1.63975">
        <ele>79</ele>
        <time>2021-02-14T12:01:59.000Z</time>
      </trkpt>
      <trkpt lat="47.17138" lon="-1.63994">
        <ele>80</ele>
        <time>2021-02-14T12:02:01.000Z</time>
      </trkpt>
      <trkpt lat="47.17137" lon="-1.64013">
        <ele>79</ele>
        <time>2021-02-14T12:02:03.000Z</time>
      </trkpt>
      <trkpt lat="47.17135" lon="-1.64033">
        <ele>79</ele>
        <time>2021-02-14T12:02:05.000Z</time>
      </trkpt>
      <trkpt lat="47.17132" lon="-1.64053">
        <ele>79</ele>
        <time>2021-02-14T12:02:07.000Z</time>
      </trkpt>
      <trkpt lat="47.1713" lon="-1.64073">
        <ele>80</ele>
        <time>2021-02-14T12:02:09.000Z</time>
      </trkpt>
      <trkpt lat="47.17128" lon="-1.64094">
        <ele>80</ele>
        <time>2021-02-14T12:02:11.000Z</time>
      </trkpt>
      <trkpt lat="47.17126" lon="-1.64114">
        <ele>79</ele>
        <time>2021-02-14T12:02:13.000Z</time>
      </trkpt>
      <trkpt lat="47.17124" lon="-1.64133">
        <ele>80</ele>
        <time>2021-02-14T12:02:15.000Z</time>
      </trkpt>
      <trkpt lat="47.17123" lon="-1.64153">
        <ele>79</ele>
        <time>2021-02-14T12:02:17.000Z</time>
      </trkpt>
      <trkpt lat="47.17121" lon="-1.64173">
        <ele>79</ele>
        <time>2021-02-14T12:02:19.000Z</time>
      </trkpt>
      <trkpt lat="47.17118" lon="-1.64194">
        <ele>79</ele>
        <time>2021-02-14T12:02:21.000Z</time>
      </trkpt>
      <trkpt lat="47.17116" lon="-1.64215">
        <ele>79</ele>
        <time>2021-02-14T12:02:23.000Z</time>
      </trkpt>
      <trkpt lat="47.17114" lon="-1.64234">
        <ele>79</ele>
        <time>2021-02-14T12:02:25.000Z</time>
      </trkpt>
      <trkpt lat="47.17112" lon="-1.64254">
        <ele>79</ele>
        <time>2021-02-14T12:02:27.000Z</time>
      </trkpt>
      <trkpt lat="47.1711" lon="-1.64275">
        <ele>79</ele>
        <time>2021-02-14T12:02:29.000Z</time>
      </trkpt>
      <trkpt lat="47.17108" lon="-1.64295">
        <ele>79</ele>
        <time>2021-02-14T12:02:31.000Z</time>
      </trkpt>
      <trkpt lat="47.17106" lon="-1.64315">
        <ele>79</ele>
        <time>2021-02-14T12:02:33.000Z</time>
      </trkpt>
      <trkpt lat="47.17104" lon="-1.64335">
        <ele>79</ele>
        <time>2021-02-14T12:02:35.000Z</time>
      </trkpt>
      <trkpt lat="47.17102" lon="-1.64355">
        <ele>79</ele>
        <time>2021-02-14T12:02:37.000Z</time>
      </trkpt>
      <trkpt lat="47.171" lon="-1.64375">
        <ele>79</ele>
        <time>2021-02-14T12:02:39.000Z</time>
      </trkpt>
      <trkpt lat="47.17099" lon="-1.64395">
        <ele>79</ele>
        <time>2021-02-14T12:02:41.000Z</time>
      </trkpt>
      <trkpt lat="47.17097" lon="-1.64414">
        <ele>79</ele>
        <time>2021-02-14T12:02:43.000Z</time>
      </trkpt>
      <trkpt lat="47.17096" lon="-1.64435">
        <ele>79</ele>
        <time>2021-02-14T12:02:45.000Z</time>
      </trkpt>
      <trkpt lat="47.17095" lon="-1.64455">
        <ele>79</ele>
        <time>2021-02-14T12:02:47.000Z</time>
      </trkpt>
      <trkpt lat="47.17094" lon="-1.64475">
        <ele>79</ele>
        <time>2021-02-14T12:02:49.000Z</time>
      </trkpt>
      <trkpt lat="47.17093" lon="-1.64495">
        <ele>79</ele>
        <time>2021-02-14T12:02:51.000Z</time>
      </trkpt>
      <trkpt lat="47.17092" lon="-1.64517">
        <ele>79</ele>
        <time>2021-02-14T12:02:53.000Z</time>
      </trkpt>
      <trkpt lat="47.17091" lon="-1.64538">
        <ele>79</ele>
        <time>2021-02-14T12:02:55.000Z</time>
      </trkpt>
      <trkpt lat="47.1709" lon="-1.64559">
        <ele>78</ele>
        <time>2021-02-14T12:02:57.000Z</time>
      </trkpt>
      <trkpt lat="47.17089" lon="-1.64581">
        <ele>78</ele>
        <time>2021-02-14T12:02:59.000Z</time>
      </trkpt>
      <trkpt lat="47.17088" lon="-1.64602">
        <ele>78</ele>
        <time>2021-02-14T12:03:01.000Z</time>
      </trkpt>
      <trkpt lat="47.17088" lon="-1.64622">
        <ele>78</ele>
        <time>2021-02-14T12:03:03.000Z</time>
      </trkpt>
      <trkpt lat="47.17089" lon="-1.64642">
        <ele>78</ele>
        <time>2021-02-14T12:03:05.000Z</time>
      </trkpt>
      <trkpt lat="47.17089" lon="-1.64662">
        <ele>79</ele>
        <time>2021-02-14T12:03:07.000Z</time>
      </trkpt>
      <trkpt lat="47.17089" lon="-1.64683">
        <ele>79</ele>
        <time>2021-02-14T12:03:09.000Z</time>
      </trkpt>
      <trkpt lat="47.17089" lon="-1.64703">
        <ele>79</ele>
        <time>2021-02-14T12:03:11.000Z</time>
      </trkpt>
      <trkpt lat="47.17091" lon="-1.64723">
        <ele>80</ele>
        <time>2021-02-14T12:03:13.000Z</time>
      </trkpt>
      <trkpt lat="47.17091" lon="-1.64743">
        <ele>80</ele>
        <time>2021-02-14T12:03:15.000Z</time>
      </trkpt>
      <trkpt lat="47.17093" lon="-1.64763">
        <ele>80</ele>
        <time>2021-02-14T12:03:17.000Z</time>
      </trkpt>
      <trkpt lat="47.17095" lon="-1.6478">
        <ele>81</ele>
        <time>2021-02-14T12:03:19.000Z</time>
      </trkpt>
      <trkpt lat="47.17098" lon="-1.64799">
        <ele>81</ele>
        <time>2021-02-14T12:03:21.000Z</time>
      </trkpt>
      <trkpt lat="47.17101" lon="-1.6482">
        <ele>81</ele>
        <time>2021-02-14T12:03:23.000Z</time>
      </trkpt>
      <trkpt lat="47.17101" lon="-1.64844">
        <ele>80</ele>
        <time>2021-02-14T12:03:25.000Z</time>
      </trkpt>
      <trkpt lat="47.17101" lon="-1.64865">
        <ele>79</ele>
        <time>2021-02-14T12:03:27.000Z</time>
      </trkpt>
      <trkpt lat="47.17102" lon="-1.64887">
        <ele>79</ele>
        <time>2021-02-14T12:03:29.000Z</time>
      </trkpt>
      <trkpt lat="47.17103" lon="-1.64908">
        <ele>79</ele>
        <time>2021-02-14T12:03:31.000Z</time>
      </trkpt>
      <trkpt lat="47.17105" lon="-1.64929">
        <ele>78</ele>
        <time>2021-02-14T12:03:33.000Z</time>
      </trkpt>
      <trkpt lat="47.17106" lon="-1.6495">
        <ele>78</ele>
        <time>2021-02-14T12:03:35.000Z</time>
      </trkpt>
      <trkpt lat="47.17106" lon="-1.6497">
        <ele>77</ele>
        <time>2021-02-14T12:03:37.000Z</time>
      </trkpt>
      <trkpt lat="47.17108" lon="-1.64991">
        <ele>78</ele>
        <time>2021-02-14T12:03:39.000Z</time>
      </trkpt>
      <trkpt lat="47.17109" lon="-1.65011">
        <ele>78</ele>
        <time>2021-02-14T12:03:41.000Z</time>
      </trkpt>
      <trkpt lat="47.1711" lon="-1.65032">
        <ele>78</ele>
        <time>2021-02-14T12:03:43.000Z</time>
      </trkpt>
      <trkpt lat="47.17111" lon="-1.65052">
        <ele>78</ele>
        <time>2021-02-14T12:03:45.000Z</time>
      </trkpt>
      <trkpt lat="47.17113" lon="-1.65073">
        <ele>79</ele>
        <time>2021-02-14T12:03:47.000Z</time>
      </trkpt>
      <trkpt lat="47.17113" lon="-1.65093">
        <ele>79</ele>
        <time>2021-02-14T12:03:49.000Z</time>
      </trkpt>
      <trkpt lat="47.17115" lon="-1.65114">
        <ele>78</ele>
        <time>2021-02-14T12:03:51.000Z</time>
      </trkpt>
      <trkpt lat="47.17116" lon="-1.65134">
        <ele>78</ele>
        <time>2021-02-14T12:03:53.000Z</time>
      </trkpt>
      <trkpt lat="47.17117" lon="-1.65154">
        <ele>79</ele>
        <time>2021-02-14T12:03:55.000Z</time>
      </trkpt>
      <trkpt lat="47.17118" lon="-1.65174">
        <ele>78</ele>
        <time>2021-02-14T12:03:57.000Z</time>
      </trkpt>
      <trkpt lat="47.1712" lon="-1.65195">
        <ele>78</ele>
        <time>2021-02-14T12:03:59.000Z</time>
      </trkpt>
      <trkpt lat="47.17121" lon="-1.65215">
        <ele>77</ele>
        <time>2021-02-14T12:04:01.000Z</time>
      </trkpt>
      <trkpt lat="47.17122" lon="-1.65234">
        <ele>78</ele>
        <time>2021-02-14T12:04:03.000Z</time>
      </trkpt>
      <trkpt lat="47.17124" lon="-1.65253">
        <ele>79</ele>
        <time>2021-02-14T12:04:05.000Z</time>
      </trkpt>
      <trkpt lat="47.17128" lon="-1.65271">
        <ele>79</ele>
        <time>2021-02-14T12:04:07.000Z</time>
      </trkpt>
      <trkpt lat="47.17135" lon="-1.65289">
        <ele>79</ele>
        <time>2021-02-14T12:04:09.000Z</time>
      </trkpt>
      <trkpt lat="47.17138" lon="-1.65308">
        <ele>80</ele>
        <time>2021-02-14T12:04:11.000Z</time>
      </trkpt>
      <trkpt lat="47.17134" lon="-1.65326">
        <ele>80</ele>
        <time>2021-02-14T12:04:13.000Z</time>
      </trkpt>
      <trkpt lat="47.17125" lon="-1.65341">
        <ele>81</ele>
        <time>2021-02-14T12:04:15.000Z</time>
      </trkpt>
      <trkpt lat="47.17119" lon="-1.65357">
        <ele>81</ele>
        <time>2021-02-14T12:04:17.000Z</time>
      </trkpt>
      <trkpt lat="47.17119" lon="-1.65376">
        <ele>80</ele>
        <time>2021-02-14T12:04:19.000Z</time>
      </trkpt>
      <trkpt lat="47.17119" lon="-1.65395">
        <ele>81</ele>
        <time>2021-02-14T12:04:21.000Z</time>
      </trkpt>
      <trkpt lat="47.1712" lon="-1.65415">
        <ele>81</ele>
        <time>2021-02-14T12:04:23.000Z</time>
      </trkpt>
      <trkpt lat="47.1712" lon="-1.65433">
        <ele>81</ele>
        <time>2021-02-14T12:04:25.000Z</time>
      </trkpt>
      <trkpt lat="47.1712" lon="-1.65452">
        <ele>82</ele>
        <time>2021-02-14T12:04:27.000Z</time>
      </trkpt>
      <trkpt lat="47.17119" lon="-1.65469">
        <ele>82</ele>
        <time>2021-02-14T12:04:29.000Z</time>
      </trkpt>
      <trkpt lat="47.17115" lon="-1.65487">
        <ele>82</ele>
        <time>2021-02-14T12:04:31.000Z</time>
      </trkpt>
      <trkpt lat="47.17112" lon="-1.65504">
        <ele>83</ele>
        <time>2021-02-14T12:04:33.000Z</time>
      </trkpt>
      <trkpt lat="47.17106" lon="-1.6552">
        <ele>83</ele>
        <time>2021-02-14T12:04:35.000Z</time>
      </trkpt>
      <trkpt lat="47.171" lon="-1.65536">
        <ele>84</ele>
        <time>2021-02-14T12:04:37.000Z</time>
      </trkpt>
      <trkpt lat="47.17094" lon="-1.6555">
        <ele>84</ele>
        <time>2021-02-14T12:04:39.000Z</time>
      </trkpt>
      <trkpt lat="47.17086" lon="-1.65563">
        <ele>85</ele>
        <time>2021-02-14T12:04:41.000Z</time>
      </trkpt>
      <trkpt lat="47.17079" lon="-1.65577">
        <ele>85</ele>
        <time>2021-02-14T12:04:43.000Z</time>
      </trkpt>
      <trkpt lat="47.17071" lon="-1.6559">
        <ele>85</ele>
        <time>2021-02-14T12:04:45.000Z</time>
      </trkpt>
      <trkpt lat="47.17064" lon="-1.65604">
        <ele>85</ele>
        <time>2021-02-14T12:04:47.000Z</time>
      </trkpt>
      <trkpt lat="47.17056" lon="-1.65618">
        <ele>84</ele>
        <time>2021-02-14T12:04:49.000Z</time>
      </trkpt>
      <trkpt lat="47.17047" lon="-1.65631">
        <ele>85</ele>
        <time>2021-02-14T12:04:51.000Z</time>
      </trkpt>
      <trkpt lat="47.17039" lon="-1.65646">
        <ele>84</ele>
        <time>2021-02-14T12:04:53.000Z</time>
      </trkpt>
      <trkpt lat="47.17031" lon="-1.65663">
        <ele>83</ele>
        <time>2021-02-14T12:04:55.000Z</time>
      </trkpt>
      <trkpt lat="47.17023" lon="-1.65679">
        <ele>82</ele>
        <time>2021-02-14T12:04:57.000Z</time>
      </trkpt>
      <trkpt lat="47.17015" lon="-1.65697">
        <ele>82</ele>
        <time>2021-02-14T12:04:59.000Z</time>
      </trkpt>
      <trkpt lat="47.17009" lon="-1.65715">
        <ele>81</ele>
        <time>2021-02-14T12:05:01.000Z</time>
      </trkpt>
      <trkpt lat="47.17006" lon="-1.65734">
        <ele>81</ele>
        <time>2021-02-14T12:05:03.000Z</time>
      </trkpt>
      <trkpt lat="47.17002" lon="-1.65753">
        <ele>81</ele>
        <time>2021-02-14T12:05:05.000Z</time>
      </trkpt>
      <trkpt lat="47.16992" lon="-1.65767">
        <ele>81</ele>
        <time>2021-02-14T12:05:07.000Z</time>
      </trkpt>
      <trkpt lat="47.1698" lon="-1.65774">
        <ele>82</ele>
        <time>2021-02-14T12:05:09.000Z</time>
      </trkpt>
      <trkpt lat="47.16969" lon="-1.65782">
        <ele>82</ele>
        <time>2021-02-14T12:05:11.000Z</time>
      </trkpt>
      <trkpt lat="47.16959" lon="-1.65796">
        <ele>82</ele>
        <time>2021-02-14T12:05:13.000Z</time>
      </trkpt>
      <trkpt lat="47.1695" lon="-1.65813">
        <ele>81</ele>
        <time>2021-02-14T12:05:15.000Z</time>
      </trkpt>
      <trkpt lat="47.16941" lon="-1.65829">
        <ele>81</ele>
        <time>2021-02-14T12:05:17.000Z</time>
      </trkpt>
      <trkpt lat="47.16933" lon="-1.65846">
        <ele>81</ele>
        <time>2021-02-14T12:05:19.000Z</time>
      </trkpt>
      <trkpt lat="47.16925" lon="-1.65862">
        <ele>81</ele>
        <time>2021-02-14T12:05:21.000Z</time>
      </trkpt>
      <trkpt lat="47.16917" lon="-1.65878">
        <ele>81</ele>
        <time>2021-02-14T12:05:23.000Z</time>
      </trkpt>
      <trkpt lat="47.16908" lon="-1.65895">
        <ele>80</ele>
        <time>2021-02-14T12:05:25.000Z</time>
      </trkpt>
      <trkpt lat="47.16901" lon="-1.65912">
        <ele>80</ele>
        <time>2021-02-14T12:05:27.000Z</time>
      </trkpt>
      <trkpt lat="47.16892" lon="-1.65929">
        <ele>79</ele>
        <time>2021-02-14T12:05:29.000Z</time>
      </trkpt>
      <trkpt lat="47.16885" lon="-1.65947">
        <ele>79</ele>
        <time>2021-02-14T12:05:31.000Z</time>
      </trkpt>
      <trkpt lat="47.16877" lon="-1.65965">
        <ele>79</ele>
        <time>2021-02-14T12:05:33.000Z</time>
      </trkpt>
      <trkpt lat="47.1687" lon="-1.65984">
        <ele>79</ele>
        <time>2021-02-14T12:05:35.000Z</time>
      </trkpt>
      <trkpt lat="47.16864" lon="-1.66003">
        <ele>78</ele>
        <time>2021-02-14T12:05:37.000Z</time>
      </trkpt>
      <trkpt lat="47.16859" lon="-1.66023">
        <ele>77</ele>
        <time>2021-02-14T12:05:39.000Z</time>
      </trkpt>
      <trkpt lat="47.16855" lon="-1.66043">
        <ele>76</ele>
        <time>2021-02-14T12:05:41.000Z</time>
      </trkpt>
      <trkpt lat="47.16851" lon="-1.66063">
        <ele>77</ele>
        <time>2021-02-14T12:05:43.000Z</time>
      </trkpt>
      <trkpt lat="47.16849" lon="-1.66084">
        <ele>77</ele>
        <time>2021-02-14T12:05:45.000Z</time>
      </trkpt>
      <trkpt lat="47.16846" lon="-1.66104">
        <ele>77</ele>
        <time>2021-02-14T12:05:47.000Z</time>
      </trkpt>
      <trkpt lat="47.16845" lon="-1.66124">
        <ele>77</ele>
        <time>2021-02-14T12:05:49.000Z</time>
      </trkpt>
      <trkpt lat="47.16845" lon="-1.66145">
        <ele>77</ele>
        <time>2021-02-14T12:05:51.000Z</time>
      </trkpt>
      <trkpt lat="47.16845" lon="-1.66165">
        <ele>77</ele>
        <time>2021-02-14T12:05:53.000Z</time>
      </trkpt>
      <trkpt lat="47.16846" lon="-1.66185">
        <ele>76</ele>
        <time>2021-02-14T12:05:55.000Z</time>
      </trkpt>
      <trkpt lat="47.16847" lon="-1.66205">
        <ele>77</ele>
        <time>2021-02-14T12:05:57.000Z</time>
      </trkpt>
      <trkpt lat="47.16849" lon="-1.66225">
        <ele>77</ele>
        <time>2021-02-14T12:05:59.000Z</time>
      </trkpt>
      <trkpt lat="47.1685" lon="-1.66244">
        <ele>77</ele>
        <time>2021-02-14T12:06:01.000Z</time>
      </trkpt>
      <trkpt lat="47.16852" lon="-1.66264">
        <ele>77</ele>
        <time>2021-02-14T12:06:03.000Z</time>
      </trkpt>
      <trkpt lat="47.16853" lon="-1.66284">
        <ele>77</ele>
        <time>2021-02-14T12:06:05.000Z</time>
      </trkpt>
      <trkpt lat="47.16854" lon="-1.66304">
        <ele>77</ele>
        <time>2021-02-14T12:06:07.000Z</time>
      </trkpt>
      <trkpt lat="47.16855" lon="-1.66324">
        <ele>77</ele>
        <time>2021-02-14T12:06:09.000Z</time>
      </trkpt>
      <trkpt lat="47.16857" lon="-1.66343">
        <ele>78</ele>
        <time>2021-02-14T12:06:11.000Z</time>
      </trkpt>
      <trkpt lat="47.16859" lon="-1.66362">
        <ele>78</ele>
        <time>2021-02-14T12:06:13.000Z</time>
      </trkpt>
      <trkpt lat="47.16861" lon="-1.66382">
        <ele>78</ele>
        <time>2021-02-14T12:06:15.000Z</time>
      </trkpt>
      <trkpt lat="47.16864" lon="-1.66402">
        <ele>78</ele>
        <time>2021-02-14T12:06:17.000Z</time>
      </trkpt>
      <trkpt lat="47.16866" lon="-1.66421">
        <ele>78</ele>
        <time>2021-02-14T12:06:19.000Z</time>
      </trkpt>
      <trkpt lat="47.16869" lon="-1.6644">
        <ele>78</ele>
        <time>2021-02-14T12:06:21.000Z</time>
      </trkpt>
      <trkpt lat="47.16871" lon="-1.66459">
        <ele>78</ele>
        <time>2021-02-14T12:06:23.000Z</time>
      </trkpt>
      <trkpt lat="47.16873" lon="-1.66478">
        <ele>78</ele>
        <time>2021-02-14T12:06:25.000Z</time>
      </trkpt>
      <trkpt lat="47.16876" lon="-1.66497">
        <ele>79</ele>
        <time>2021-02-14T12:06:27.000Z</time>
      </trkpt>
      <trkpt lat="47.16878" lon="-1.66515">
        <ele>79</ele>
        <time>2021-02-14T12:06:29.000Z</time>
      </trkpt>
      <trkpt lat="47.16881" lon="-1.66534">
        <ele>79</ele>
        <time>2021-02-14T12:06:31.000Z</time>
      </trkpt>
      <trkpt lat="47.16883" lon="-1.66553">
        <ele>79</ele>
        <time>2021-02-14T12:06:33.000Z</time>
      </trkpt>
      <trkpt lat="47.16886" lon="-1.66572">
        <ele>78</ele>
        <time>2021-02-14T12:06:35.000Z</time>
      </trkpt>
      <trkpt lat="47.16888" lon="-1.66591">
        <ele>78</ele>
        <time>2021-02-14T12:06:37.000Z</time>
      </trkpt>
      <trkpt lat="47.16889" lon="-1.66611">
        <ele>78</ele>
        <time>2021-02-14T12:06:39.000Z</time>
      </trkpt>
      <trkpt lat="47.16892" lon="-1.6663">
        <ele>78</ele>
        <time>2021-02-14T12:06:41.000Z</time>
      </trkpt>
      <trkpt lat="47.16893" lon="-1.66649">
        <ele>78</ele>
        <time>2021-02-14T12:06:43.000Z</time>
      </trkpt>
      <trkpt lat="47.16892" lon="-1.66669">
        <ele>78</ele>
        <time>2021-02-14T12:06:45.000Z</time>
      </trkpt>
      <trkpt lat="47.1689" lon="-1.66688">
        <ele>78</ele>
        <time>2021-02-14T12:06:47.000Z</time>
      </trkpt>
      <trkpt lat="47.16886" lon="-1.66708">
        <ele>78</ele>
        <time>2021-02-14T12:06:49.000Z</time>
      </trkpt>
      <trkpt lat="47.16881" lon="-1.66726">
        <ele>78</ele>
        <time>2021-02-14T12:06:51.000Z</time>
      </trkpt>
      <trkpt lat="47.16874" lon="-1.66745">
        <ele>78</ele>
        <time>2021-02-14T12:06:53.000Z</time>
      </trkpt>
      <trkpt lat="47.16866" lon="-1.66761">
        <ele>79</ele>
        <time>2021-02-14T12:06:55.000Z</time>
      </trkpt>
      <trkpt lat="47.16857" lon="-1.66778">
        <ele>78</ele>
        <time>2021-02-14T12:06:57.000Z</time>
      </trkpt>
      <trkpt lat="47.16848" lon="-1.66795">
        <ele>78</ele>
        <time>2021-02-14T12:06:59.000Z</time>
      </trkpt>
      <trkpt lat="47.1684" lon="-1.66811">
        <ele>78</ele>
        <time>2021-02-14T12:07:01.000Z</time>
      </trkpt>
      <trkpt lat="47.16832" lon="-1.66828">
        <ele>77</ele>
        <time>2021-02-14T12:07:03.000Z</time>
      </trkpt>
      <trkpt lat="47.16824" lon="-1.66844">
        <ele>78</ele>
        <time>2021-02-14T12:07:05.000Z</time>
      </trkpt>
      <trkpt lat="47.16815" lon="-1.6686">
        <ele>77</ele>
        <time>2021-02-14T12:07:07.000Z</time>
      </trkpt>
      <trkpt lat="47.16806" lon="-1.66876">
        <ele>77</ele>
        <time>2021-02-14T12:07:09.000Z</time>
      </trkpt>
      <trkpt lat="47.16797" lon="-1.6689">
        <ele>77</ele>
        <time>2021-02-14T12:07:11.000Z</time>
      </trkpt>
      <trkpt lat="47.16786" lon="-1.66901">
        <ele>77</ele>
        <time>2021-02-14T12:07:13.000Z</time>
      </trkpt>
      <trkpt lat="47.16774" lon="-1.66909">
        <ele>77</ele>
        <time>2021-02-14T12:07:15.000Z</time>
      </trkpt>
      <trkpt lat="47.16761" lon="-1.66916">
        <ele>76</ele>
        <time>2021-02-14T12:07:17.000Z</time>
      </trkpt>
      <trkpt lat="47.16749" lon="-1.66921">
        <ele>76</ele>
        <time>2021-02-14T12:07:19.000Z</time>
      </trkpt>
      <trkpt lat="47.16736" lon="-1.66925">
        <ele>76</ele>
        <time>2021-02-14T12:07:21.000Z</time>
      </trkpt>
      <trkpt lat="47.16724" lon="-1.66929">
        <ele>76</ele>
        <time>2021-02-14T12:07:23.000Z</time>
      </trkpt>
      <trkpt lat="47.16711" lon="-1.66933">
        <ele>75</ele>
        <time>2021-02-14T12:07:25.000Z</time>
      </trkpt>
      <trkpt lat="47.16699" lon="-1.66938">
        <ele>75</ele>
        <time>2021-02-14T12:07:27.000Z</time>
      </trkpt>
      <trkpt lat="47.16688" lon="-1.66946">
        <ele>74</ele>
        <time>2021-02-14T12:07:29.000Z</time>
      </trkpt>
      <trkpt lat="47.16679" lon="-1.66958">
        <ele>74</ele>
        <time>2021-02-14T12:07:31.000Z</time>
      </trkpt>
      <trkpt lat="47.16671" lon="-1.66975">
        <ele>74</ele>
        <time>2021-02-14T12:07:33.000Z</time>
      </trkpt>
      <trkpt lat="47.16665" lon="-1.66993">
        <ele>74</ele>
        <time>2021-02-14T12:07:35.000Z</time>
      </trkpt>
      <trkpt lat="47.1666" lon="-1.67012">
        <ele>75</ele>
        <time>2021-02-14T12:07:37.000Z</time>
      </trkpt>
      <trkpt lat="47.16656" lon="-1.67031">
        <ele>74</ele>
        <time>2021-02-14T12:07:39.000Z</time>
      </trkpt>
      <trkpt lat="47.16651" lon="-1.67049">
        <ele>75</ele>
        <time>2021-02-14T12:07:41.000Z</time>
      </trkpt>
      <trkpt lat="47.16647" lon="-1.67068">
        <ele>76</ele>
        <time>2021-02-14T12:07:43.000Z</time>
      </trkpt>
      <trkpt lat="47.16643" lon="-1.67087">
        <ele>75</ele>
        <time>2021-02-14T12:07:45.000Z</time>
      </trkpt>
      <trkpt lat="47.16639" lon="-1.67106">
        <ele>76</ele>
        <time>2021-02-14T12:07:47.000Z</time>
      </trkpt>
      <trkpt lat="47.16635" lon="-1.67124">
        <ele>76</ele>
        <time>2021-02-14T12:07:49.000Z</time>
      </trkpt>
      <trkpt lat="47.16632" lon="-1.67143">
        <ele>76</ele>
        <time>2021-02-14T12:07:51.000Z</time>
      </trkpt>
      <trkpt lat="47.16628" lon="-1.67162">
        <ele>76</ele>
        <time>2021-02-14T12:07:53.000Z</time>
      </trkpt>
      <trkpt lat="47.16625" lon="-1.6718">
        <ele>75</ele>
        <time>2021-02-14T12:07:55.000Z</time>
      </trkpt>
      <trkpt lat="47.16621" lon="-1.67198">
        <ele>75</ele>
        <time>2021-02-14T12:07:57.000Z</time>
      </trkpt>
      <trkpt lat="47.16617" lon="-1.67214">
        <ele>75</ele>
        <time>2021-02-14T12:07:59.000Z</time>
      </trkpt>
      <trkpt lat="47.16614" lon="-1.6723">
        <ele>75</ele>
        <time>2021-02-14T12:08:01.000Z</time>
      </trkpt>
      <trkpt lat="47.16612" lon="-1.67243">
        <ele>75</ele>
        <time>2021-02-14T12:08:03.000Z</time>
      </trkpt>
      <trkpt lat="47.16609" lon="-1.67257">
        <ele>75</ele>
        <time>2021-02-14T12:08:08.000Z</time>
      </trkpt>
      <trkpt lat="47.16603" lon="-1.67275">
        <ele>76</ele>
        <time>2021-02-14T12:08:14.000Z</time>
      </trkpt>
      <trkpt lat="47.16597" lon="-1.67288">
        <ele>76</ele>
        <time>2021-02-14T12:08:16.000Z</time>
      </trkpt>
      <trkpt lat="47.16591" lon="-1.67302">
        <ele>77</ele>
        <time>2021-02-14T12:08:18.000Z</time>
      </trkpt>
      <trkpt lat="47.16584" lon="-1.67317">
        <ele>78</ele>
        <time>2021-02-14T12:08:20.000Z</time>
      </trkpt>
      <trkpt lat="47.16576" lon="-1.67333">
        <ele>78</ele>
        <time>2021-02-14T12:08:22.000Z</time>
      </trkpt>
      <trkpt lat="47.16569" lon="-1.6735">
        <ele>78</ele>
        <time>2021-02-14T12:08:24.000Z</time>
      </trkpt>
      <trkpt lat="47.16561" lon="-1.67366">
        <ele>77</ele>
        <time>2021-02-14T12:08:26.000Z</time>
      </trkpt>
      <trkpt lat="47.16551" lon="-1.6738">
        <ele>77</ele>
        <time>2021-02-14T12:08:28.000Z</time>
      </trkpt>
      <trkpt lat="47.16542" lon="-1.67394">
        <ele>76</ele>
        <time>2021-02-14T12:08:30.000Z</time>
      </trkpt>
      <trkpt lat="47.16533" lon="-1.67408">
        <ele>77</ele>
        <time>2021-02-14T12:08:32.000Z</time>
      </trkpt>
      <trkpt lat="47.16524" lon="-1.67421">
        <ele>77</ele>
        <time>2021-02-14T12:08:34.000Z</time>
      </trkpt>
      <trkpt lat="47.16515" lon="-1.67434">
        <ele>77</ele>
        <time>2021-02-14T12:08:36.000Z</time>
      </trkpt>
      <trkpt lat="47.16507" lon="-1.67448">
        <ele>77</ele>
        <time>2021-02-14T12:08:38.000Z</time>
      </trkpt>
      <trkpt lat="47.16499" lon="-1.67463">
        <ele>76</ele>
        <time>2021-02-14T12:08:40.000Z</time>
      </trkpt>
      <trkpt lat="47.16492" lon="-1.67477">
        <ele>76</ele>
        <time>2021-02-14T12:08:42.000Z</time>
      </trkpt>
      <trkpt lat="47.16484" lon="-1.67491">
        <ele>75</ele>
        <time>2021-02-14T12:08:44.000Z</time>
      </trkpt>
      <trkpt lat="47.16476" lon="-1.67505">
        <ele>75</ele>
        <time>2021-02-14T12:08:46.000Z</time>
      </trkpt>
      <trkpt lat="47.16468" lon="-1.6752">
        <ele>75</ele>
        <time>2021-02-14T12:08:48.000Z</time>
      </trkpt>
      <trkpt lat="47.1646" lon="-1.67534">
        <ele>75</ele>
        <time>2021-02-14T12:08:50.000Z</time>
      </trkpt>
      <trkpt lat="47.16452" lon="-1.67548">
        <ele>75</ele>
        <time>2021-02-14T12:08:52.000Z</time>
      </trkpt>
      <trkpt lat="47.16444" lon="-1.67561">
        <ele>75</ele>
        <time>2021-02-14T12:08:54.000Z</time>
      </trkpt>
      <trkpt lat="47.16436" lon="-1.67576">
        <ele>75</ele>
        <time>2021-02-14T12:08:56.000Z</time>
      </trkpt>
      <trkpt lat="47.16429" lon="-1.67592">
        <ele>75</ele>
        <time>2021-02-14T12:08:58.000Z</time>
      </trkpt>
      <trkpt lat="47.16422" lon="-1.67607">
        <ele>75</ele>
        <time>2021-02-14T12:09:00.000Z</time>
      </trkpt>
      <trkpt lat="47.16415" lon="-1.67623">
        <ele>75</ele>
        <time>2021-02-14T12:09:02.000Z</time>
      </trkpt>
      <trkpt lat="47.16407" lon="-1.67638">
        <ele>75</ele>
        <time>2021-02-14T12:09:04.000Z</time>
      </trkpt>
      <trkpt lat="47.164" lon="-1.67653">
        <ele>75</ele>
        <time>2021-02-14T12:09:06.000Z</time>
      </trkpt>
      <trkpt lat="47.16392" lon="-1.67669">
        <ele>75</ele>
        <time>2021-02-14T12:09:08.000Z</time>
      </trkpt>
      <trkpt lat="47.16385" lon="-1.67684">
        <ele>75</ele>
        <time>2021-02-14T12:09:10.000Z</time>
      </trkpt>
      <trkpt lat="47.16377" lon="-1.67699">
        <ele>76</ele>
        <time>2021-02-14T12:09:12.000Z</time>
      </trkpt>
      <trkpt lat="47.16368" lon="-1.67713">
        <ele>75</ele>
        <time>2021-02-14T12:09:14.000Z</time>
      </trkpt>
      <trkpt lat="47.16361" lon="-1.67728">
        <ele>76</ele>
        <time>2021-02-14T12:09:16.000Z</time>
      </trkpt>
      <trkpt lat="47.16353" lon="-1.67742">
        <ele>75</ele>
        <time>2021-02-14T12:09:18.000Z</time>
      </trkpt>
      <trkpt lat="47.16347" lon="-1.67757">
        <ele>76</ele>
        <time>2021-02-14T12:09:20.000Z</time>
      </trkpt>
      <trkpt lat="47.16339" lon="-1.67771">
        <ele>76</ele>
        <time>2021-02-14T12:09:22.000Z</time>
      </trkpt>
      <trkpt lat="47.1633" lon="-1.67785">
        <ele>76</ele>
        <time>2021-02-14T12:09:24.000Z</time>
      </trkpt>
      <trkpt lat="47.16322" lon="-1.678">
        <ele>76</ele>
        <time>2021-02-14T12:09:26.000Z</time>
      </trkpt>
      <trkpt lat="47.16313" lon="-1.67813">
        <ele>76</ele>
        <time>2021-02-14T12:09:28.000Z</time>
      </trkpt>
      <trkpt lat="47.16304" lon="-1.67827">
        <ele>76</ele>
        <time>2021-02-14T12:09:30.000Z</time>
      </trkpt>
      <trkpt lat="47.16297" lon="-1.6784">
        <ele>76</ele>
        <time>2021-02-14T12:09:32.000Z</time>
      </trkpt>
      <trkpt lat="47.16289" lon="-1.67855">
        <ele>77</ele>
        <time>2021-02-14T12:09:34.000Z</time>
      </trkpt>
      <trkpt lat="47.16281" lon="-1.67869">
        <ele>78</ele>
        <time>2021-02-14T12:09:36.000Z</time>
      </trkpt>
      <trkpt lat="47.16274" lon="-1.67884">
        <ele>78</ele>
        <time>2021-02-14T12:09:38.000Z</time>
      </trkpt>
      <trkpt lat="47.16267" lon="-1.67898">
        <ele>78</ele>
        <time>2021-02-14T12:09:40.000Z</time>
      </trkpt>
      <trkpt lat="47.16261" lon="-1.67913">
        <ele>79</ele>
        <time>2021-02-14T12:09:42.000Z</time>
      </trkpt>
      <trkpt lat="47.16252" lon="-1.67926">
        <ele>79</ele>
        <time>2021-02-14T12:09:44.000Z</time>
      </trkpt>
      <trkpt lat="47.16244" lon="-1.67939">
        <ele>79</ele>
        <time>2021-02-14T12:09:46.000Z</time>
      </trkpt>
      <trkpt lat="47.16236" lon="-1.67952">
        <ele>79</ele>
        <time>2021-02-14T12:09:48.000Z</time>
      </trkpt>
      <trkpt lat="47.16228" lon="-1.67965">
        <ele>79</ele>
        <time>2021-02-14T12:09:50.000Z</time>
      </trkpt>
      <trkpt lat="47.16222" lon="-1.67981">
        <ele>79</ele>
        <time>2021-02-14T12:09:52.000Z</time>
      </trkpt>
      <trkpt lat="47.16217" lon="-1.67995">
        <ele>78</ele>
        <time>2021-02-14T12:09:54.000Z</time>
      </trkpt>
      <trkpt lat="47.16205" lon="-1.68002">
        <ele>77</ele>
        <time>2021-02-14T12:09:56.000Z</time>
      </trkpt>
      <trkpt lat="47.16194" lon="-1.68012">
        <ele>77</ele>
        <time>2021-02-14T12:09:58.000Z</time>
      </trkpt>
      <trkpt lat="47.16185" lon="-1.68025">
        <ele>77</ele>
        <time>2021-02-14T12:10:00.000Z</time>
      </trkpt>
      <trkpt lat="47.16176" lon="-1.68037">
        <ele>77</ele>
        <time>2021-02-14T12:10:02.000Z</time>
      </trkpt>
      <trkpt lat="47.16168" lon="-1.68049">
        <ele>77</ele>
        <time>2021-02-14T12:10:04.000Z</time>
      </trkpt>
      <trkpt lat="47.1616" lon="-1.68061">
        <ele>77</ele>
        <time>2021-02-14T12:10:06.000Z</time>
      </trkpt>
      <trkpt lat="47.16153" lon="-1.68074">
        <ele>77</ele>
        <time>2021-02-14T12:10:08.000Z</time>
      </trkpt>
      <trkpt lat="47.16146" lon="-1.68089">
        <ele>77</ele>
        <time>2021-02-14T12:10:10.000Z</time>
      </trkpt>
      <trkpt lat="47.16141" lon="-1.68105">
        <ele>78</ele>
        <time>2021-02-14T12:10:12.000Z</time>
      </trkpt>
      <trkpt lat="47.16136" lon="-1.68122">
        <ele>77</ele>
        <time>2021-02-14T12:10:14.000Z</time>
      </trkpt>
      <trkpt lat="47.16132" lon="-1.68139">
        <ele>77</ele>
        <time>2021-02-14T12:10:16.000Z</time>
      </trkpt>
      <trkpt lat="47.16128" lon="-1.68156">
        <ele>77</ele>
        <time>2021-02-14T12:10:18.000Z</time>
      </trkpt>
      <trkpt lat="47.16124" lon="-1.68172">
        <ele>77</ele>
        <time>2021-02-14T12:10:20.000Z</time>
      </trkpt>
      <trkpt lat="47.1612" lon="-1.68188">
        <ele>77</ele>
        <time>2021-02-14T12:10:22.000Z</time>
      </trkpt>
      <trkpt lat="47.16117" lon="-1.68206">
        <ele>77</ele>
        <time>2021-02-14T12:10:24.000Z</time>
      </trkpt>
      <trkpt lat="47.16114" lon="-1.68223">
        <ele>76</ele>
        <time>2021-02-14T12:10:26.000Z</time>
      </trkpt>
      <trkpt lat="47.1611" lon="-1.68239">
        <ele>76</ele>
        <time>2021-02-14T12:10:28.000Z</time>
      </trkpt>
      <trkpt lat="47.16106" lon="-1.68256">
        <ele>76</ele>
        <time>2021-02-14T12:10:30.000Z</time>
      </trkpt>
      <trkpt lat="47.16102" lon="-1.68277">
        <ele>75</ele>
        <time>2021-02-14T12:10:32.000Z</time>
      </trkpt>
      <trkpt lat="47.16099" lon="-1.683">
        <ele>75</ele>
        <time>2021-02-14T12:10:34.000Z</time>
      </trkpt>
      <trkpt lat="47.16095" lon="-1.68323">
        <ele>73</ele>
        <time>2021-02-14T12:10:36.000Z</time>
      </trkpt>
      <trkpt lat="47.16091" lon="-1.68344">
        <ele>73</ele>
        <time>2021-02-14T12:10:38.000Z</time>
      </trkpt>
      <trkpt lat="47.16087" lon="-1.68364">
        <ele>73</ele>
        <time>2021-02-14T12:10:40.000Z</time>
      </trkpt>
      <trkpt lat="47.16083" lon="-1.68383">
        <ele>73</ele>
        <time>2021-02-14T12:10:42.000Z</time>
      </trkpt>
      <trkpt lat="47.16079" lon="-1.68403">
        <ele>73</ele>
        <time>2021-02-14T12:10:44.000Z</time>
      </trkpt>
      <trkpt lat="47.16075" lon="-1.68422">
        <ele>73</ele>
        <time>2021-02-14T12:10:46.000Z</time>
      </trkpt>
      <trkpt lat="47.16071" lon="-1.68441">
        <ele>73</ele>
        <time>2021-02-14T12:10:48.000Z</time>
      </trkpt>
      <trkpt lat="47.16067" lon="-1.6846">
        <ele>73</ele>
        <time>2021-02-14T12:10:50.000Z</time>
      </trkpt>
      <trkpt lat="47.16064" lon="-1.68479">
        <ele>73</ele>
        <time>2021-02-14T12:10:52.000Z</time>
      </trkpt>
      <trkpt lat="47.1606" lon="-1.68498">
        <ele>73</ele>
        <time>2021-02-14T12:10:54.000Z</time>
      </trkpt>
      <trkpt lat="47.16058" lon="-1.68518">
        <ele>72</ele>
        <time>2021-02-14T12:10:56.000Z</time>
      </trkpt>
      <trkpt lat="47.16055" lon="-1.68537">
        <ele>72</ele>
        <time>2021-02-14T12:10:58.000Z</time>
      </trkpt>
      <trkpt lat="47.16052" lon="-1.68556">
        <ele>72</ele>
        <time>2021-02-14T12:11:00.000Z</time>
      </trkpt>
      <trkpt lat="47.16049" lon="-1.68575">
        <ele>72</ele>
        <time>2021-02-14T12:11:02.000Z</time>
      </trkpt>
      <trkpt lat="47.16047" lon="-1.68594">
        <ele>72</ele>
        <time>2021-02-14T12:11:04.000Z</time>
      </trkpt>
      <trkpt lat="47.16045" lon="-1.68614">
        <ele>71</ele>
        <time>2021-02-14T12:11:06.000Z</time>
      </trkpt>
      <trkpt lat="47.16044" lon="-1.68634">
        <ele>71</ele>
        <time>2021-02-14T12:11:08.000Z</time>
      </trkpt>
      <trkpt lat="47.16043" lon="-1.68654">
        <ele>71</ele>
        <time>2021-02-14T12:11:10.000Z</time>
      </trkpt>
      <trkpt lat="47.16043" lon="-1.68674">
        <ele>71</ele>
        <time>2021-02-14T12:11:12.000Z</time>
      </trkpt>
      <trkpt lat="47.16044" lon="-1.68694">
        <ele>71</ele>
        <time>2021-02-14T12:11:14.000Z</time>
      </trkpt>
      <trkpt lat="47.16046" lon="-1.68712">
        <ele>71</ele>
        <time>2021-02-14T12:11:16.000Z</time>
      </trkpt>
      <trkpt lat="47.16049" lon="-1.68731">
        <ele>72</ele>
        <time>2021-02-14T12:11:18.000Z</time>
      </trkpt>
      <trkpt lat="47.16052" lon="-1.68749">
        <ele>73</ele>
        <time>2021-02-14T12:11:20.000Z</time>
      </trkpt>
      <trkpt lat="47.16056" lon="-1.68766">
        <ele>73</ele>
        <time>2021-02-14T12:11:22.000Z</time>
      </trkpt>
      <trkpt lat="47.1606" lon="-1.68782">
        <ele>73</ele>
        <time>2021-02-14T12:11:24.000Z</time>
      </trkpt>
      <trkpt lat="47.16065" lon="-1.68799">
        <ele>74</ele>
        <time>2021-02-14T12:11:26.000Z</time>
      </trkpt>
      <trkpt lat="47.1607" lon="-1.68816">
        <ele>75</ele>
        <time>2021-02-14T12:11:28.000Z</time>
      </trkpt>
      <trkpt lat="47.16075" lon="-1.68833">
        <ele>75</ele>
        <time>2021-02-14T12:11:30.000Z</time>
      </trkpt>
      <trkpt lat="47.1608" lon="-1.68852">
        <ele>75</ele>
        <time>2021-02-14T12:11:32.000Z</time>
      </trkpt>
      <trkpt lat="47.16085" lon="-1.6887">
        <ele>74</ele>
        <time>2021-02-14T12:11:34.000Z</time>
      </trkpt>
      <trkpt lat="47.1609" lon="-1.68887">
        <ele>74</ele>
        <time>2021-02-14T12:11:36.000Z</time>
      </trkpt>
      <trkpt lat="47.16095" lon="-1.68905">
        <ele>74</ele>
        <time>2021-02-14T12:11:38.000Z</time>
      </trkpt>
      <trkpt lat="47.16101" lon="-1.68924">
        <ele>74</ele>
        <time>2021-02-14T12:11:40.000Z</time>
      </trkpt>
      <trkpt lat="47.16107" lon="-1.68943">
        <ele>74</ele>
        <time>2021-02-14T12:11:42.000Z</time>
      </trkpt>
      <trkpt lat="47.16113" lon="-1.68963">
        <ele>73</ele>
        <time>2021-02-14T12:11:44.000Z</time>
      </trkpt>
      <trkpt lat="47.16118" lon="-1.68984">
        <ele>73</ele>
        <time>2021-02-14T12:11:46.000Z</time>
      </trkpt>
      <trkpt lat="47.16124" lon="-1.69004">
        <ele>72</ele>
        <time>2021-02-14T12:11:48.000Z</time>
      </trkpt>
      <trkpt lat="47.16129" lon="-1.69026">
        <ele>72</ele>
        <time>2021-02-14T12:11:50.000Z</time>
      </trkpt>
      <trkpt lat="47.16134" lon="-1.69048">
        <ele>72</ele>
        <time>2021-02-14T12:11:52.000Z</time>
      </trkpt>
      <trkpt lat="47.16138" lon="-1.69069">
        <ele>71</ele>
        <time>2021-02-14T12:11:54.000Z</time>
      </trkpt>
      <trkpt lat="47.16141" lon="-1.69092">
        <ele>70</ele>
        <time>2021-02-14T12:11:56.000Z</time>
      </trkpt>
      <trkpt lat="47.16143" lon="-1.69114">
        <ele>70</ele>
        <time>2021-02-14T12:11:58.000Z</time>
      </trkpt>
      <trkpt lat="47.16144" lon="-1.69138">
        <ele>70</ele>
        <time>2021-02-14T12:12:00.000Z</time>
      </trkpt>
      <trkpt lat="47.16144" lon="-1.69161">
        <ele>70</ele>
        <time>2021-02-14T12:12:02.000Z</time>
      </trkpt>
      <trkpt lat="47.16144" lon="-1.69185">
        <ele>69</ele>
        <time>2021-02-14T12:12:04.000Z</time>
      </trkpt>
      <trkpt lat="47.16143" lon="-1.6921">
        <ele>70</ele>
        <time>2021-02-14T12:12:06.000Z</time>
      </trkpt>
      <trkpt lat="47.16141" lon="-1.69235">
        <ele>70</ele>
        <time>2021-02-14T12:12:08.000Z</time>
      </trkpt>
      <trkpt lat="47.16139" lon="-1.69258">
        <ele>70</ele>
        <time>2021-02-14T12:12:10.000Z</time>
      </trkpt>
      <trkpt lat="47.16136" lon="-1.69281">
        <ele>69</ele>
        <time>2021-02-14T12:12:12.000Z</time>
      </trkpt>
      <trkpt lat="47.16132" lon="-1.69303">
        <ele>69</ele>
        <time>2021-02-14T12:12:14.000Z</time>
      </trkpt>
      <trkpt lat="47.16129" lon="-1.69324">
        <ele>69</ele>
        <time>2021-02-14T12:12:16.000Z</time>
      </trkpt>
      <trkpt lat="47.16125" lon="-1.69345">
        <ele>69</ele>
        <time>2021-02-14T12:12:18.000Z</time>
      </trkpt>
      <trkpt lat="47.16122" lon="-1.69366">
        <ele>69</ele>
        <time>2021-02-14T12:12:20.000Z</time>
      </trkpt>
      <trkpt lat="47.1612" lon="-1.69387">
        <ele>69</ele>
        <time>2021-02-14T12:12:22.000Z</time>
      </trkpt>
      <trkpt lat="47.16118" lon="-1.69408">
        <ele>69</ele>
        <time>2021-02-14T12:12:24.000Z</time>
      </trkpt>
      <trkpt lat="47.16116" lon="-1.69429">
        <ele>69</ele>
        <time>2021-02-14T12:12:26.000Z</time>
      </trkpt>
      <trkpt lat="47.16115" lon="-1.69449">
        <ele>69</ele>
        <time>2021-02-14T12:12:28.000Z</time>
      </trkpt>
      <trkpt lat="47.16113" lon="-1.69469">
        <ele>69</ele>
        <time>2021-02-14T12:12:30.000Z</time>
      </trkpt>
      <trkpt lat="47.16112" lon="-1.69489">
        <ele>69</ele>
        <time>2021-02-14T12:12:32.000Z</time>
      </trkpt>
      <trkpt lat="47.1611" lon="-1.69509">
        <ele>69</ele>
        <time>2021-02-14T12:12:34.000Z</time>
      </trkpt>
      <trkpt lat="47.16108" lon="-1.6953">
        <ele>70</ele>
        <time>2021-02-14T12:12:36.000Z</time>
      </trkpt>
      <trkpt lat="47.16107" lon="-1.6955">
        <ele>70</ele>
        <time>2021-02-14T12:12:38.000Z</time>
      </trkpt>
      <trkpt lat="47.16106" lon="-1.6957">
        <ele>70</ele>
        <time>2021-02-14T12:12:40.000Z</time>
      </trkpt>
      <trkpt lat="47.16104" lon="-1.69591">
        <ele>70</ele>
        <time>2021-02-14T12:12:42.000Z</time>
      </trkpt>
      <trkpt lat="47.16103" lon="-1.69611">
        <ele>70</ele>
        <time>2021-02-14T12:12:44.000Z</time>
      </trkpt>
      <trkpt lat="47.16102" lon="-1.69631">
        <ele>71</ele>
        <time>2021-02-14T12:12:46.000Z</time>
      </trkpt>
      <trkpt lat="47.16101" lon="-1.69651">
        <ele>71</ele>
        <time>2021-02-14T12:12:48.000Z</time>
      </trkpt>
      <trkpt lat="47.161" lon="-1.69671">
        <ele>72</ele>
        <time>2021-02-14T12:12:50.000Z</time>
      </trkpt>
      <trkpt lat="47.16099" lon="-1.69691">
        <ele>72</ele>
        <time>2021-02-14T12:12:52.000Z</time>
      </trkpt>
      <trkpt lat="47.16097" lon="-1.69711">
        <ele>72</ele>
        <time>2021-02-14T12:12:54.000Z</time>
      </trkpt>
      <trkpt lat="47.16095" lon="-1.69732">
        <ele>72</ele>
        <time>2021-02-14T12:12:56.000Z</time>
      </trkpt>
      <trkpt lat="47.16094" lon="-1.69753">
        <ele>71</ele>
        <time>2021-02-14T12:12:58.000Z</time>
      </trkpt>
      <trkpt lat="47.16092" lon="-1.69773">
        <ele>72</ele>
        <time>2021-02-14T12:13:00.000Z</time>
      </trkpt>
      <trkpt lat="47.16091" lon="-1.69792">
        <ele>72</ele>
        <time>2021-02-14T12:13:02.000Z</time>
      </trkpt>
      <trkpt lat="47.1609" lon="-1.69813">
        <ele>71</ele>
        <time>2021-02-14T12:13:04.000Z</time>
      </trkpt>
      <trkpt lat="47.16088" lon="-1.69834">
        <ele>71</ele>
        <time>2021-02-14T12:13:06.000Z</time>
      </trkpt>
      <trkpt lat="47.16087" lon="-1.69853">
        <ele>72</ele>
        <time>2021-02-14T12:13:08.000Z</time>
      </trkpt>
      <trkpt lat="47.16086" lon="-1.69873">
        <ele>72</ele>
        <time>2021-02-14T12:13:10.000Z</time>
      </trkpt>
      <trkpt lat="47.16085" lon="-1.69894">
        <ele>72</ele>
        <time>2021-02-14T12:13:12.000Z</time>
      </trkpt>
      <trkpt lat="47.16084" lon="-1.69914">
        <ele>72</ele>
        <time>2021-02-14T12:13:14.000Z</time>
      </trkpt>
      <trkpt lat="47.16083" lon="-1.69934">
        <ele>72</ele>
        <time>2021-02-14T12:13:16.000Z</time>
      </trkpt>
      <trkpt lat="47.16081" lon="-1.69955">
        <ele>72</ele>
        <time>2021-02-14T12:13:18.000Z</time>
      </trkpt>
      <trkpt lat="47.1608" lon="-1.69974">
        <ele>71</ele>
        <time>2021-02-14T12:13:20.000Z</time>
      </trkpt>
      <trkpt lat="47.16079" lon="-1.69995">
        <ele>71</ele>
        <time>2021-02-14T12:13:22.000Z</time>
      </trkpt>
      <trkpt lat="47.16077" lon="-1.70014">
        <ele>71</ele>
        <time>2021-02-14T12:13:24.000Z</time>
      </trkpt>
      <trkpt lat="47.16076" lon="-1.70034">
        <ele>70</ele>
        <time>2021-02-14T12:13:26.000Z</time>
      </trkpt>
      <trkpt lat="47.16074" lon="-1.70054">
        <ele>70</ele>
        <time>2021-02-14T12:13:28.000Z</time>
      </trkpt>
      <trkpt lat="47.16073" lon="-1.70075">
        <ele>70</ele>
        <time>2021-02-14T12:13:30.000Z</time>
      </trkpt>
      <trkpt lat="47.1607" lon="-1.70096">
        <ele>71</ele>
        <time>2021-02-14T12:13:32.000Z</time>
      </trkpt>
      <trkpt lat="47.16067" lon="-1.70116">
        <ele>72</ele>
        <time>2021-02-14T12:13:34.000Z</time>
      </trkpt>
      <trkpt lat="47.16063" lon="-1.70136">
        <ele>72</ele>
        <time>2021-02-14T12:13:36.000Z</time>
      </trkpt>
      <trkpt lat="47.16056" lon="-1.70154">
        <ele>73</ele>
        <time>2021-02-14T12:13:38.000Z</time>
      </trkpt>
      <trkpt lat="47.1605" lon="-1.70172">
        <ele>72</ele>
        <time>2021-02-14T12:13:40.000Z</time>
      </trkpt>
      <trkpt lat="47.16043" lon="-1.70189">
        <ele>72</ele>
        <time>2021-02-14T12:13:42.000Z</time>
      </trkpt>
      <trkpt lat="47.16035" lon="-1.70206">
        <ele>73</ele>
        <time>2021-02-14T12:13:44.000Z</time>
      </trkpt>
      <trkpt lat="47.16028" lon="-1.70223">
        <ele>73</ele>
        <time>2021-02-14T12:13:46.000Z</time>
      </trkpt>
      <trkpt lat="47.16021" lon="-1.7024">
        <ele>73</ele>
        <time>2021-02-14T12:13:48.000Z</time>
      </trkpt>
      <trkpt lat="47.16013" lon="-1.70257">
        <ele>72</ele>
        <time>2021-02-14T12:13:50.000Z</time>
      </trkpt>
      <trkpt lat="47.16004" lon="-1.70275">
        <ele>72</ele>
        <time>2021-02-14T12:13:52.000Z</time>
      </trkpt>
      <trkpt lat="47.15997" lon="-1.70292">
        <ele>72</ele>
        <time>2021-02-14T12:13:54.000Z</time>
      </trkpt>
      <trkpt lat="47.15989" lon="-1.70309">
        <ele>72</ele>
        <time>2021-02-14T12:13:56.000Z</time>
      </trkpt>
      <trkpt lat="47.15981" lon="-1.70327">
        <ele>71</ele>
        <time>2021-02-14T12:13:58.000Z</time>
      </trkpt>
      <trkpt lat="47.15973" lon="-1.70344">
        <ele>70</ele>
        <time>2021-02-14T12:14:00.000Z</time>
      </trkpt>
      <trkpt lat="47.15965" lon="-1.70363">
        <ele>70</ele>
        <time>2021-02-14T12:14:02.000Z</time>
      </trkpt>
      <trkpt lat="47.15958" lon="-1.7038">
        <ele>69</ele>
        <time>2021-02-14T12:14:04.000Z</time>
      </trkpt>
      <trkpt lat="47.15951" lon="-1.70398">
        <ele>68</ele>
        <time>2021-02-14T12:14:06.000Z</time>
      </trkpt>
      <trkpt lat="47.15943" lon="-1.70415">
        <ele>68</ele>
        <time>2021-02-14T12:14:08.000Z</time>
      </trkpt>
      <trkpt lat="47.15935" lon="-1.70432">
        <ele>67</ele>
        <time>2021-02-14T12:14:10.000Z</time>
      </trkpt>
      <trkpt lat="47.15927" lon="-1.70449">
        <ele>68</ele>
        <time>2021-02-14T12:14:12.000Z</time>
      </trkpt>
      <trkpt lat="47.15919" lon="-1.70466">
        <ele>68</ele>
        <time>2021-02-14T12:14:14.000Z</time>
      </trkpt>
      <trkpt lat="47.1591" lon="-1.70483">
        <ele>67</ele>
        <time>2021-02-14T12:14:16.000Z</time>
      </trkpt>
      <trkpt lat="47.15901" lon="-1.705">
        <ele>68</ele>
        <time>2021-02-14T12:14:18.000Z</time>
      </trkpt>
      <trkpt lat="47.15893" lon="-1.70518">
        <ele>68</ele>
        <time>2021-02-14T12:14:20.000Z</time>
      </trkpt>
      <trkpt lat="47.15888" lon="-1.70537">
        <ele>68</ele>
        <time>2021-02-14T12:14:22.000Z</time>
      </trkpt>
      <trkpt lat="47.15882" lon="-1.70556">
        <ele>68</ele>
        <time>2021-02-14T12:14:24.000Z</time>
      </trkpt>
      <trkpt lat="47.15877" lon="-1.70575">
        <ele>68</ele>
        <time>2021-02-14T12:14:26.000Z</time>
      </trkpt>
      <trkpt lat="47.15872" lon="-1.70593">
        <ele>68</ele>
        <time>2021-02-14T12:14:28.000Z</time>
      </trkpt>
      <trkpt lat="47.15866" lon="-1.70612">
        <ele>68</ele>
        <time>2021-02-14T12:14:30.000Z</time>
      </trkpt>
      <trkpt lat="47.15861" lon="-1.7063">
        <ele>69</ele>
        <time>2021-02-14T12:14:32.000Z</time>
      </trkpt>
      <trkpt lat="47.15856" lon="-1.70648">
        <ele>69</ele>
        <time>2021-02-14T12:14:34.000Z</time>
      </trkpt>
      <trkpt lat="47.15849" lon="-1.70666">
        <ele>69</ele>
        <time>2021-02-14T12:14:36.000Z</time>
      </trkpt>
      <trkpt lat="47.15842" lon="-1.70683">
        <ele>69</ele>
        <time>2021-02-14T12:14:38.000Z</time>
      </trkpt>
      <trkpt lat="47.15834" lon="-1.70698">
        <ele>69</ele>
        <time>2021-02-14T12:14:40.000Z</time>
      </trkpt>
      <trkpt lat="47.15827" lon="-1.70714">
        <ele>69</ele>
        <time>2021-02-14T12:14:42.000Z</time>
      </trkpt>
      <trkpt lat="47.15819" lon="-1.70731">
        <ele>69</ele>
        <time>2021-02-14T12:14:44.000Z</time>
      </trkpt>
      <trkpt lat="47.15813" lon="-1.70747">
        <ele>70</ele>
        <time>2021-02-14T12:14:46.000Z</time>
      </trkpt>
      <trkpt lat="47.15805" lon="-1.70762">
        <ele>70</ele>
        <time>2021-02-14T12:14:48.000Z</time>
      </trkpt>
      <trkpt lat="47.15798" lon="-1.70779">
        <ele>70</ele>
        <time>2021-02-14T12:14:50.000Z</time>
      </trkpt>
      <trkpt lat="47.15791" lon="-1.70794">
        <ele>70</ele>
        <time>2021-02-14T12:14:52.000Z</time>
      </trkpt>
      <trkpt lat="47.15783" lon="-1.7081">
        <ele>70</ele>
        <time>2021-02-14T12:14:54.000Z</time>
      </trkpt>
      <trkpt lat="47.15775" lon="-1.70826">
        <ele>70</ele>
        <time>2021-02-14T12:14:56.000Z</time>
      </trkpt>
      <trkpt lat="47.15767" lon="-1.70841">
        <ele>70</ele>
        <time>2021-02-14T12:14:58.000Z</time>
      </trkpt>
      <trkpt lat="47.15759" lon="-1.70856">
        <ele>71</ele>
        <time>2021-02-14T12:15:00.000Z</time>
      </trkpt>
      <trkpt lat="47.15751" lon="-1.70872">
        <ele>71</ele>
        <time>2021-02-14T12:15:02.000Z</time>
      </trkpt>
      <trkpt lat="47.15742" lon="-1.70887">
        <ele>71</ele>
        <time>2021-02-14T12:15:04.000Z</time>
      </trkpt>
      <trkpt lat="47.15733" lon="-1.70902">
        <ele>71</ele>
        <time>2021-02-14T12:15:06.000Z</time>
      </trkpt>
      <trkpt lat="47.15725" lon="-1.70916">
        <ele>71</ele>
        <time>2021-02-14T12:15:08.000Z</time>
      </trkpt>
      <trkpt lat="47.15717" lon="-1.70931">
        <ele>71</ele>
        <time>2021-02-14T12:15:10.000Z</time>
      </trkpt>
      <trkpt lat="47.15709" lon="-1.70946">
        <ele>71</ele>
        <time>2021-02-14T12:15:12.000Z</time>
      </trkpt>
      <trkpt lat="47.15702" lon="-1.70962">
        <ele>71</ele>
        <time>2021-02-14T12:15:14.000Z</time>
      </trkpt>
      <trkpt lat="47.15695" lon="-1.70977">
        <ele>71</ele>
        <time>2021-02-14T12:15:16.000Z</time>
      </trkpt>
      <trkpt lat="47.15688" lon="-1.70993">
        <ele>71</ele>
        <time>2021-02-14T12:15:18.000Z</time>
      </trkpt>
      <trkpt lat="47.15681" lon="-1.71008">
        <ele>71</ele>
        <time>2021-02-14T12:15:20.000Z</time>
      </trkpt>
      <trkpt lat="47.15675" lon="-1.71022">
        <ele>71</ele>
        <time>2021-02-14T12:15:22.000Z</time>
      </trkpt>
      <trkpt lat="47.15669" lon="-1.71036">
        <ele>70</ele>
        <time>2021-02-14T12:15:24.000Z</time>
      </trkpt>
      <trkpt lat="47.15663" lon="-1.71048">
        <ele>71</ele>
        <time>2021-02-14T12:15:26.000Z</time>
      </trkpt>
      <trkpt lat="47.15657" lon="-1.71059">
        <ele>71</ele>
        <time>2021-02-14T12:15:28.000Z</time>
      </trkpt>
      <trkpt lat="47.15648" lon="-1.71068">
        <ele>71</ele>
        <time>2021-02-14T12:15:30.000Z</time>
      </trkpt>
      <trkpt lat="47.15637" lon="-1.71074">
        <ele>71</ele>
        <time>2021-02-14T12:15:32.000Z</time>
      </trkpt>
      <trkpt lat="47.15628" lon="-1.71088">
        <ele>70</ele>
        <time>2021-02-14T12:15:34.000Z</time>
      </trkpt>
      <trkpt lat="47.1562" lon="-1.71103">
        <ele>71</ele>
        <time>2021-02-14T12:15:36.000Z</time>
      </trkpt>
      <trkpt lat="47.15611" lon="-1.71118">
        <ele>71</ele>
        <time>2021-02-14T12:15:38.000Z</time>
      </trkpt>
      <trkpt lat="47.15603" lon="-1.71134">
        <ele>71</ele>
        <time>2021-02-14T12:15:40.000Z</time>
      </trkpt>
      <trkpt lat="47.15595" lon="-1.71149">
        <ele>72</ele>
        <time>2021-02-14T12:15:42.000Z</time>
      </trkpt>
      <trkpt lat="47.15586" lon="-1.71163">
        <ele>72</ele>
        <time>2021-02-14T12:15:44.000Z</time>
      </trkpt>
      <trkpt lat="47.15578" lon="-1.71177">
        <ele>73</ele>
        <time>2021-02-14T12:15:46.000Z</time>
      </trkpt>
      <trkpt lat="47.1557" lon="-1.71192">
        <ele>72</ele>
        <time>2021-02-14T12:15:48.000Z</time>
      </trkpt>
      <trkpt lat="47.15561" lon="-1.71206">
        <ele>73</ele>
        <time>2021-02-14T12:15:50.000Z</time>
      </trkpt>
      <trkpt lat="47.15553" lon="-1.71222">
        <ele>73</ele>
        <time>2021-02-14T12:15:52.000Z</time>
      </trkpt>
      <trkpt lat="47.15547" lon="-1.71238">
        <ele>73</ele>
        <time>2021-02-14T12:15:54.000Z</time>
      </trkpt>
      <trkpt lat="47.1554" lon="-1.71254">
        <ele>73</ele>
        <time>2021-02-14T12:15:56.000Z</time>
      </trkpt>
      <trkpt lat="47.15533" lon="-1.7127">
        <ele>73</ele>
        <time>2021-02-14T12:15:58.000Z</time>
      </trkpt>
      <trkpt lat="47.15526" lon="-1.71286">
        <ele>73</ele>
        <time>2021-02-14T12:16:00.000Z</time>
      </trkpt>
      <trkpt lat="47.15518" lon="-1.71302">
        <ele>73</ele>
        <time>2021-02-14T12:16:02.000Z</time>
      </trkpt>
      <trkpt lat="47.1551" lon="-1.71318">
        <ele>73</ele>
        <time>2021-02-14T12:16:04.000Z</time>
      </trkpt>
      <trkpt lat="47.15502" lon="-1.71333">
        <ele>72</ele>
        <time>2021-02-14T12:16:06.000Z</time>
      </trkpt>
      <trkpt lat="47.15493" lon="-1.71348">
        <ele>72</ele>
        <time>2021-02-14T12:16:08.000Z</time>
      </trkpt>
      <trkpt lat="47.15484" lon="-1.71362">
        <ele>73</ele>
        <time>2021-02-14T12:16:10.000Z</time>
      </trkpt>
      <trkpt lat="47.15474" lon="-1.71376">
        <ele>72</ele>
        <time>2021-02-14T12:16:12.000Z</time>
      </trkpt>
      <trkpt lat="47.15464" lon="-1.71388">
        <ele>72</ele>
        <time>2021-02-14T12:16:14.000Z</time>
      </trkpt>
      <trkpt lat="47.15453" lon="-1.714">
        <ele>73</ele>
        <time>2021-02-14T12:16:16.000Z</time>
      </trkpt>
      <trkpt lat="47.15442" lon="-1.7141">
        <ele>73</ele>
        <time>2021-02-14T12:16:18.000Z</time>
      </trkpt>
      <trkpt lat="47.15432" lon="-1.71421">
        <ele>73</ele>
        <time>2021-02-14T12:16:20.000Z</time>
      </trkpt>
      <trkpt lat="47.15421" lon="-1.71431">
        <ele>73</ele>
        <time>2021-02-14T12:16:22.000Z</time>
      </trkpt>
      <trkpt lat="47.1541" lon="-1.71441">
        <ele>73</ele>
        <time>2021-02-14T12:16:24.000Z</time>
      </trkpt>
      <trkpt lat="47.15399" lon="-1.71451">
        <ele>72</ele>
        <time>2021-02-14T12:16:26.000Z</time>
      </trkpt>
      <trkpt lat="47.15388" lon="-1.7146">
        <ele>72</ele>
        <time>2021-02-14T12:16:28.000Z</time>
      </trkpt>
      <trkpt lat="47.15377" lon="-1.7147">
        <ele>72</ele>
        <time>2021-02-14T12:16:30.000Z</time>
      </trkpt>
      <trkpt lat="47.15366" lon="-1.71479">
        <ele>72</ele>
        <time>2021-02-14T12:16:32.000Z</time>
      </trkpt>
      <trkpt lat="47.15355" lon="-1.7149">
        <ele>71</ele>
        <time>2021-02-14T12:16:34.000Z</time>
      </trkpt>
      <trkpt lat="47.15344" lon="-1.71502">
        <ele>71</ele>
        <time>2021-02-14T12:16:36.000Z</time>
      </trkpt>
      <trkpt lat="47.15333" lon="-1.71513">
        <ele>71</ele>
        <time>2021-02-14T12:16:38.000Z</time>
      </trkpt>
      <trkpt lat="47.15323" lon="-1.71524">
        <ele>71</ele>
        <time>2021-02-14T12:16:40.000Z</time>
      </trkpt>
      <trkpt lat="47.15313" lon="-1.71536">
        <ele>70</ele>
        <time>2021-02-14T12:16:42.000Z</time>
      </trkpt>
      <trkpt lat="47.15302" lon="-1.71547">
        <ele>70</ele>
        <time>2021-02-14T12:16:44.000Z</time>
      </trkpt>
      <trkpt lat="47.15292" lon="-1.71559">
        <ele>70</ele>
        <time>2021-02-14T12:16:46.000Z</time>
      </trkpt>
      <trkpt lat="47.15281" lon="-1.7157">
        <ele>69</ele>
        <time>2021-02-14T12:16:48.000Z</time>
      </trkpt>
      <trkpt lat="47.15271" lon="-1.71582">
        <ele>68</ele>
        <time>2021-02-14T12:16:50.000Z</time>
      </trkpt>
      <trkpt lat="47.1526" lon="-1.71594">
        <ele>68</ele>
        <time>2021-02-14T12:16:52.000Z</time>
      </trkpt>
      <trkpt lat="47.15251" lon="-1.71607">
        <ele>68</ele>
        <time>2021-02-14T12:16:54.000Z</time>
      </trkpt>
      <trkpt lat="47.15242" lon="-1.7162">
        <ele>68</ele>
        <time>2021-02-14T12:16:56.000Z</time>
      </trkpt>
      <trkpt lat="47.15229" lon="-1.71623">
        <ele>69</ele>
        <time>2021-02-14T12:16:58.000Z</time>
      </trkpt>
      <trkpt lat="47.15217" lon="-1.71615">
        <ele>69</ele>
        <time>2021-02-14T12:17:00.000Z</time>
      </trkpt>
      <trkpt lat="47.15207" lon="-1.71607">
        <ele>69</ele>
        <time>2021-02-14T12:17:02.000Z</time>
      </trkpt>
      <trkpt lat="47.15197" lon="-1.716">
        <ele>69</ele>
        <time>2021-02-14T12:17:04.000Z</time>
      </trkpt>
      <trkpt lat="47.15186" lon="-1.71592">
        <ele>69</ele>
        <time>2021-02-14T12:17:06.000Z</time>
      </trkpt>
      <trkpt lat="47.15176" lon="-1.71585">
        <ele>69</ele>
        <time>2021-02-14T12:17:08.000Z</time>
      </trkpt>
      <trkpt lat="47.15166" lon="-1.71577">
        <ele>70</ele>
        <time>2021-02-14T12:17:10.000Z</time>
      </trkpt>
      <trkpt lat="47.15155" lon="-1.71569">
        <ele>70</ele>
        <time>2021-02-14T12:17:12.000Z</time>
      </trkpt>
      <trkpt lat="47.15144" lon="-1.7156">
        <ele>70</ele>
        <time>2021-02-14T12:17:14.000Z</time>
      </trkpt>
      <trkpt lat="47.15134" lon="-1.71552">
        <ele>70</ele>
        <time>2021-02-14T12:17:16.000Z</time>
      </trkpt>
      <trkpt lat="47.15124" lon="-1.71543">
        <ele>70</ele>
        <time>2021-02-14T12:17:18.000Z</time>
      </trkpt>
      <trkpt lat="47.15113" lon="-1.71535">
        <ele>70</ele>
        <time>2021-02-14T12:17:20.000Z</time>
      </trkpt>
      <trkpt lat="47.15103" lon="-1.71527">
        <ele>70</ele>
        <time>2021-02-14T12:17:22.000Z</time>
      </trkpt>
      <trkpt lat="47.15093" lon="-1.71517">
        <ele>70</ele>
        <time>2021-02-14T12:17:24.000Z</time>
      </trkpt>
      <trkpt lat="47.15083" lon="-1.71507">
        <ele>70</ele>
        <time>2021-02-14T12:17:26.000Z</time>
      </trkpt>
      <trkpt lat="47.15074" lon="-1.71497">
        <ele>70</ele>
        <time>2021-02-14T12:17:28.000Z</time>
      </trkpt>
      <trkpt lat="47.15064" lon="-1.71486">
        <ele>70</ele>
        <time>2021-02-14T12:17:30.000Z</time>
      </trkpt>
      <trkpt lat="47.15055" lon="-1.71477">
        <ele>70</ele>
        <time>2021-02-14T12:17:32.000Z</time>
      </trkpt>
      <trkpt lat="47.15045" lon="-1.71467">
        <ele>70</ele>
        <time>2021-02-14T12:17:34.000Z</time>
      </trkpt>
      <trkpt lat="47.15036" lon="-1.71458">
        <ele>70</ele>
        <time>2021-02-14T12:17:36.000Z</time>
      </trkpt>
      <trkpt lat="47.15027" lon="-1.71449">
        <ele>70</ele>
        <time>2021-02-14T12:17:38.000Z</time>
      </trkpt>
      <trkpt lat="47.15018" lon="-1.7144">
        <ele>70</ele>
        <time>2021-02-14T12:17:40.000Z</time>
      </trkpt>
      <trkpt lat="47.15009" lon="-1.71432">
        <ele>70</ele>
        <time>2021-02-14T12:17:42.000Z</time>
      </trkpt>
      <trkpt lat="47.15" lon="-1.71422">
        <ele>70</ele>
        <time>2021-02-14T12:17:44.000Z</time>
      </trkpt>
      <trkpt lat="47.14991" lon="-1.71414">
        <ele>71</ele>
        <time>2021-02-14T12:17:46.000Z</time>
      </trkpt>
      <trkpt lat="47.14981" lon="-1.71404">
        <ele>70</ele>
        <time>2021-02-14T12:17:48.000Z</time>
      </trkpt>
      <trkpt lat="47.14971" lon="-1.71394">
        <ele>71</ele>
        <time>2021-02-14T12:17:50.000Z</time>
      </trkpt>
      <trkpt lat="47.14962" lon="-1.71386">
        <ele>71</ele>
        <time>2021-02-14T12:17:52.000Z</time>
      </trkpt>
      <trkpt lat="47.14953" lon="-1.71376">
        <ele>71</ele>
        <time>2021-02-14T12:17:54.000Z</time>
      </trkpt>
      <trkpt lat="47.14944" lon="-1.71366">
        <ele>72</ele>
        <time>2021-02-14T12:17:56.000Z</time>
      </trkpt>
      <trkpt lat="47.14935" lon="-1.71356">
        <ele>72</ele>
        <time>2021-02-14T12:17:58.000Z</time>
      </trkpt>
      <trkpt lat="47.14927" lon="-1.71345">
        <ele>72</ele>
        <time>2021-02-14T12:18:00.000Z</time>
      </trkpt>
      <trkpt lat="47.14918" lon="-1.71334">
        <ele>72</ele>
        <time>2021-02-14T12:18:02.000Z</time>
      </trkpt>
      <trkpt lat="47.1491" lon="-1.71323">
        <ele>72</ele>
        <time>2021-02-14T12:18:04.000Z</time>
      </trkpt>
      <trkpt lat="47.14901" lon="-1.71312">
        <ele>73</ele>
        <time>2021-02-14T12:18:06.000Z</time>
      </trkpt>
      <trkpt lat="47.14893" lon="-1.71302">
        <ele>73</ele>
        <time>2021-02-14T12:18:08.000Z</time>
      </trkpt>
      <trkpt lat="47.14884" lon="-1.71293">
        <ele>73</ele>
        <time>2021-02-14T12:18:10.000Z</time>
      </trkpt>
      <trkpt lat="47.14874" lon="-1.71285">
        <ele>73</ele>
        <time>2021-02-14T12:18:12.000Z</time>
      </trkpt>
      <trkpt lat="47.14865" lon="-1.71276">
        <ele>73</ele>
        <time>2021-02-14T12:18:14.000Z</time>
      </trkpt>
      <trkpt lat="47.14856" lon="-1.71266">
        <ele>74</ele>
        <time>2021-02-14T12:18:16.000Z</time>
      </trkpt>
      <trkpt lat="47.14849" lon="-1.71253">
        <ele>74</ele>
        <time>2021-02-14T12:18:18.000Z</time>
      </trkpt>
      <trkpt lat="47.14842" lon="-1.71239">
        <ele>74</ele>
        <time>2021-02-14T12:18:20.000Z</time>
      </trkpt>
      <trkpt lat="47.14837" lon="-1.71225">
        <ele>73</ele>
        <time>2021-02-14T12:18:22.000Z</time>
      </trkpt>
      <trkpt lat="47.14831" lon="-1.71209">
        <ele>73</ele>
        <time>2021-02-14T12:18:24.000Z</time>
      </trkpt>
      <trkpt lat="47.14826" lon="-1.71194">
        <ele>74</ele>
        <time>2021-02-14T12:18:26.000Z</time>
      </trkpt>
      <trkpt lat="47.14821" lon="-1.71179">
        <ele>74</ele>
        <time>2021-02-14T12:18:28.000Z</time>
      </trkpt>
      <trkpt lat="47.14815" lon="-1.71163">
        <ele>73</ele>
        <time>2021-02-14T12:18:30.000Z</time>
      </trkpt>
      <trkpt lat="47.14809" lon="-1.71148">
        <ele>74</ele>
        <time>2021-02-14T12:18:32.000Z</time>
      </trkpt>
      <trkpt lat="47.14803" lon="-1.71131">
        <ele>73</ele>
        <time>2021-02-14T12:18:34.000Z</time>
      </trkpt>
      <trkpt lat="47.14796" lon="-1.71116">
        <ele>73</ele>
        <time>2021-02-14T12:18:36.000Z</time>
      </trkpt>
      <trkpt lat="47.14788" lon="-1.71102">
        <ele>73</ele>
        <time>2021-02-14T12:18:38.000Z</time>
      </trkpt>
      <trkpt lat="47.14782" lon="-1.71087">
        <ele>73</ele>
        <time>2021-02-14T12:18:40.000Z</time>
      </trkpt>
      <trkpt lat="47.14775" lon="-1.71073">
        <ele>72</ele>
        <time>2021-02-14T12:18:42.000Z</time>
      </trkpt>
      <trkpt lat="47.1477" lon="-1.71057">
        <ele>72</ele>
        <time>2021-02-14T12:18:44.000Z</time>
      </trkpt>
      <trkpt lat="47.14765" lon="-1.71041">
        <ele>72</ele>
        <time>2021-02-14T12:18:46.000Z</time>
      </trkpt>
      <trkpt lat="47.1476" lon="-1.71025">
        <ele>72</ele>
        <time>2021-02-14T12:18:48.000Z</time>
      </trkpt>
      <trkpt lat="47.14756" lon="-1.71008">
        <ele>72</ele>
        <time>2021-02-14T12:18:50.000Z</time>
      </trkpt>
      <trkpt lat="47.14752" lon="-1.70992">
        <ele>72</ele>
        <time>2021-02-14T12:18:52.000Z</time>
      </trkpt>
      <trkpt lat="47.14745" lon="-1.7098">
        <ele>71</ele>
        <time>2021-02-14T12:18:54.000Z</time>
      </trkpt>
      <trkpt lat="47.14734" lon="-1.70982">
        <ele>72</ele>
        <time>2021-02-14T12:18:56.000Z</time>
      </trkpt>
      <trkpt lat="47.14725" lon="-1.70996">
        <ele>72</ele>
        <time>2021-02-14T12:18:58.000Z</time>
      </trkpt>
      <trkpt lat="47.14717" lon="-1.71009">
        <ele>71</ele>
        <time>2021-02-14T12:19:00.000Z</time>
      </trkpt>
      <trkpt lat="47.14712" lon="-1.71025">
        <ele>71</ele>
        <time>2021-02-14T12:19:02.000Z</time>
      </trkpt>
      <trkpt lat="47.14711" lon="-1.71043">
        <ele>71</ele>
        <time>2021-02-14T12:19:04.000Z</time>
      </trkpt>
      <trkpt lat="47.14713" lon="-1.71061">
        <ele>70</ele>
        <time>2021-02-14T12:19:06.000Z</time>
      </trkpt>
      <trkpt lat="47.14715" lon="-1.71079">
        <ele>70</ele>
        <time>2021-02-14T12:19:08.000Z</time>
      </trkpt>
      <trkpt lat="47.14718" lon="-1.71097">
        <ele>70</ele>
        <time>2021-02-14T12:19:10.000Z</time>
      </trkpt>
      <trkpt lat="47.1472" lon="-1.71114">
        <ele>70</ele>
        <time>2021-02-14T12:19:12.000Z</time>
      </trkpt>
      <trkpt lat="47.14722" lon="-1.71132">
        <ele>70</ele>
        <time>2021-02-14T12:19:14.000Z</time>
      </trkpt>
      <trkpt lat="47.14724" lon="-1.71149">
        <ele>70</ele>
        <time>2021-02-14T12:19:16.000Z</time>
      </trkpt>
      <trkpt lat="47.14728" lon="-1.71167">
        <ele>70</ele>
        <time>2021-02-14T12:19:18.000Z</time>
      </trkpt>
      <trkpt lat="47.14731" lon="-1.71184">
        <ele>70</ele>
        <time>2021-02-14T12:19:20.000Z</time>
      </trkpt>
      <trkpt lat="47.14735" lon="-1.71201">
        <ele>71</ele>
        <time>2021-02-14T12:19:22.000Z</time>
      </trkpt>
      <trkpt lat="47.14739" lon="-1.71217">
        <ele>71</ele>
        <time>2021-02-14T12:19:24.000Z</time>
      </trkpt>
      <trkpt lat="47.14743" lon="-1.71233">
        <ele>71</ele>
        <time>2021-02-14T12:19:26.000Z</time>
      </trkpt>
      <trkpt lat="47.14748" lon="-1.71248">
        <ele>71</ele>
        <time>2021-02-14T12:19:28.000Z</time>
      </trkpt>
      <trkpt lat="47.14751" lon="-1.71265">
        <ele>71</ele>
        <time>2021-02-14T12:19:30.000Z</time>
      </trkpt>
      <trkpt lat="47.14755" lon="-1.71283">
        <ele>71</ele>
        <time>2021-02-14T12:19:32.000Z</time>
      </trkpt>
      <trkpt lat="47.14759" lon="-1.71301">
        <ele>71</ele>
        <time>2021-02-14T12:19:34.000Z</time>
      </trkpt>
      <trkpt lat="47.14763" lon="-1.71318">
        <ele>71</ele>
        <time>2021-02-14T12:19:36.000Z</time>
      </trkpt>
      <trkpt lat="47.14766" lon="-1.71336">
        <ele>71</ele>
        <time>2021-02-14T12:19:38.000Z</time>
      </trkpt>
      <trkpt lat="47.14769" lon="-1.71355">
        <ele>71</ele>
        <time>2021-02-14T12:19:40.000Z</time>
      </trkpt>
      <trkpt lat="47.14772" lon="-1.71372">
        <ele>71</ele>
        <time>2021-02-14T12:19:42.000Z</time>
      </trkpt>
      <trkpt lat="47.14774" lon="-1.7139">
        <ele>72</ele>
        <time>2021-02-14T12:19:44.000Z</time>
      </trkpt>
      <trkpt lat="47.14777" lon="-1.71408">
        <ele>72</ele>
        <time>2021-02-14T12:19:46.000Z</time>
      </trkpt>
      <trkpt lat="47.1478" lon="-1.71426">
        <ele>71</ele>
        <time>2021-02-14T12:19:48.000Z</time>
      </trkpt>
      <trkpt lat="47.14782" lon="-1.71443">
        <ele>71</ele>
        <time>2021-02-14T12:19:50.000Z</time>
      </trkpt>
      <trkpt lat="47.14785" lon="-1.71461">
        <ele>71</ele>
        <time>2021-02-14T12:19:52.000Z</time>
      </trkpt>
      <trkpt lat="47.14788" lon="-1.71478">
        <ele>71</ele>
        <time>2021-02-14T12:19:54.000Z</time>
      </trkpt>
      <trkpt lat="47.1479" lon="-1.71497">
        <ele>72</ele>
        <time>2021-02-14T12:19:56.000Z</time>
      </trkpt>
      <trkpt lat="47.14792" lon="-1.71516">
        <ele>71</ele>
        <time>2021-02-14T12:19:58.000Z</time>
      </trkpt>
      <trkpt lat="47.14793" lon="-1.71534">
        <ele>72</ele>
        <time>2021-02-14T12:20:00.000Z</time>
      </trkpt>
      <trkpt lat="47.14792" lon="-1.71552">
        <ele>72</ele>
        <time>2021-02-14T12:20:02.000Z</time>
      </trkpt>
      <trkpt lat="47.14791" lon="-1.7157">
        <ele>72</ele>
        <time>2021-02-14T12:20:04.000Z</time>
      </trkpt>
      <trkpt lat="47.14789" lon="-1.71589">
        <ele>72</ele>
        <time>2021-02-14T12:20:06.000Z</time>
      </trkpt>
      <trkpt lat="47.14786" lon="-1.71607">
        <ele>72</ele>
        <time>2021-02-14T12:20:08.000Z</time>
      </trkpt>
      <trkpt lat="47.14784" lon="-1.71626">
        <ele>73</ele>
        <time>2021-02-14T12:20:10.000Z</time>
      </trkpt>
      <trkpt lat="47.14781" lon="-1.71643">
        <ele>73</ele>
        <time>2021-02-14T12:20:12.000Z</time>
      </trkpt>
      <trkpt lat="47.14778" lon="-1.71661">
        <ele>73</ele>
        <time>2021-02-14T12:20:14.000Z</time>
      </trkpt>
      <trkpt lat="47.14776" lon="-1.71679">
        <ele>73</ele>
        <time>2021-02-14T12:20:16.000Z</time>
      </trkpt>
      <trkpt lat="47.14773" lon="-1.71696">
        <ele>74</ele>
        <time>2021-02-14T12:20:18.000Z</time>
      </trkpt>
      <trkpt lat="47.1477" lon="-1.71712">
        <ele>74</ele>
        <time>2021-02-14T12:20:20.000Z</time>
      </trkpt>
      <trkpt lat="47.14767" lon="-1.71729">
        <ele>74</ele>
        <time>2021-02-14T12:20:22.000Z</time>
      </trkpt>
      <trkpt lat="47.14764" lon="-1.71746">
        <ele>74</ele>
        <time>2021-02-14T12:20:24.000Z</time>
      </trkpt>
      <trkpt lat="47.14761" lon="-1.71763">
        <ele>74</ele>
        <time>2021-02-14T12:20:26.000Z</time>
      </trkpt>
      <trkpt lat="47.14755" lon="-1.71779">
        <ele>74</ele>
        <time>2021-02-14T12:20:28.000Z</time>
      </trkpt>
      <trkpt lat="47.14748" lon="-1.71793">
        <ele>74</ele>
        <time>2021-02-14T12:20:30.000Z</time>
      </trkpt>
      <trkpt lat="47.14739" lon="-1.71805">
        <ele>74</ele>
        <time>2021-02-14T12:20:32.000Z</time>
      </trkpt>
      <trkpt lat="47.14729" lon="-1.71815">
        <ele>74</ele>
        <time>2021-02-14T12:20:34.000Z</time>
      </trkpt>
      <trkpt lat="47.14718" lon="-1.71823">
        <ele>74</ele>
        <time>2021-02-14T12:20:36.000Z</time>
      </trkpt>
      <trkpt lat="47.14706" lon="-1.71829">
        <ele>74</ele>
        <time>2021-02-14T12:20:38.000Z</time>
      </trkpt>
      <trkpt lat="47.14694" lon="-1.71835">
        <ele>74</ele>
        <time>2021-02-14T12:20:40.000Z</time>
      </trkpt>
      <trkpt lat="47.14682" lon="-1.71841">
        <ele>74</ele>
        <time>2021-02-14T12:20:42.000Z</time>
      </trkpt>
      <trkpt lat="47.1467" lon="-1.71847">
        <ele>74</ele>
        <time>2021-02-14T12:20:44.000Z</time>
      </trkpt>
      <trkpt lat="47.14658" lon="-1.71851">
        <ele>73</ele>
        <time>2021-02-14T12:20:46.000Z</time>
      </trkpt>
      <trkpt lat="47.14645" lon="-1.71855">
        <ele>73</ele>
        <time>2021-02-14T12:20:48.000Z</time>
      </trkpt>
      <trkpt lat="47.14633" lon="-1.71855">
        <ele>73</ele>
        <time>2021-02-14T12:20:50.000Z</time>
      </trkpt>
      <trkpt lat="47.1462" lon="-1.71855">
        <ele>73</ele>
        <time>2021-02-14T12:20:52.000Z</time>
      </trkpt>
      <trkpt lat="47.14608" lon="-1.71853">
        <ele>73</ele>
        <time>2021-02-14T12:20:54.000Z</time>
      </trkpt>
      <trkpt lat="47.14595" lon="-1.71849">
        <ele>73</ele>
        <time>2021-02-14T12:20:56.000Z</time>
      </trkpt>
      <trkpt lat="47.14583" lon="-1.71843">
        <ele>73</ele>
        <time>2021-02-14T12:20:58.000Z</time>
      </trkpt>
      <trkpt lat="47.14571" lon="-1.71838">
        <ele>73</ele>
        <time>2021-02-14T12:21:00.000Z</time>
      </trkpt>
      <trkpt lat="47.14559" lon="-1.71832">
        <ele>73</ele>
        <time>2021-02-14T12:21:02.000Z</time>
      </trkpt>
      <trkpt lat="47.14548" lon="-1.71826">
        <ele>73</ele>
        <time>2021-02-14T12:21:04.000Z</time>
      </trkpt>
      <trkpt lat="47.14536" lon="-1.71821">
        <ele>73</ele>
        <time>2021-02-14T12:21:06.000Z</time>
      </trkpt>
      <trkpt lat="47.14523" lon="-1.71815">
        <ele>73</ele>
        <time>2021-02-14T12:21:08.000Z</time>
      </trkpt>
      <trkpt lat="47.14511" lon="-1.71809">
        <ele>73</ele>
        <time>2021-02-14T12:21:10.000Z</time>
      </trkpt>
      <trkpt lat="47.14499" lon="-1.71804">
        <ele>73</ele>
        <time>2021-02-14T12:21:12.000Z</time>
      </trkpt>
      <trkpt lat="47.14487" lon="-1.71799">
        <ele>73</ele>
        <time>2021-02-14T12:21:14.000Z</time>
      </trkpt>
      <trkpt lat="47.14476" lon="-1.71793">
        <ele>72</ele>
        <time>2021-02-14T12:21:16.000Z</time>
      </trkpt>
      <trkpt lat="47.14464" lon="-1.71787">
        <ele>72</ele>
        <time>2021-02-14T12:21:18.000Z</time>
      </trkpt>
      <trkpt lat="47.14452" lon="-1.71783">
        <ele>72</ele>
        <time>2021-02-14T12:21:20.000Z</time>
      </trkpt>
      <trkpt lat="47.14439" lon="-1.7178">
        <ele>72</ele>
        <time>2021-02-14T12:21:22.000Z</time>
      </trkpt>
      <trkpt lat="47.14427" lon="-1.71779">
        <ele>72</ele>
        <time>2021-02-14T12:21:24.000Z</time>
      </trkpt>
      <trkpt lat="47.14414" lon="-1.7178">
        <ele>72</ele>
        <time>2021-02-14T12:21:26.000Z</time>
      </trkpt>
      <trkpt lat="47.14401" lon="-1.71781">
        <ele>72</ele>
        <time>2021-02-14T12:21:28.000Z</time>
      </trkpt>
      <trkpt lat="47.14388" lon="-1.71784">
        <ele>72</ele>
        <time>2021-02-14T12:21:30.000Z</time>
      </trkpt>
      <trkpt lat="47.14375" lon="-1.71789">
        <ele>72</ele>
        <time>2021-02-14T12:21:32.000Z</time>
      </trkpt>
      <trkpt lat="47.14362" lon="-1.71793">
        <ele>72</ele>
        <time>2021-02-14T12:21:34.000Z</time>
      </trkpt>
      <trkpt lat="47.1435" lon="-1.71798">
        <ele>72</ele>
        <time>2021-02-14T12:21:36.000Z</time>
      </trkpt>
      <trkpt lat="47.14337" lon="-1.71802">
        <ele>72</ele>
        <time>2021-02-14T12:21:38.000Z</time>
      </trkpt>
      <trkpt lat="47.14324" lon="-1.71807">
        <ele>71</ele>
        <time>2021-02-14T12:21:40.000Z</time>
      </trkpt>
      <trkpt lat="47.14311" lon="-1.71811">
        <ele>71</ele>
        <time>2021-02-14T12:21:42.000Z</time>
      </trkpt>
      <trkpt lat="47.14297" lon="-1.71815">
        <ele>71</ele>
        <time>2021-02-14T12:21:44.000Z</time>
      </trkpt>
      <trkpt lat="47.14284" lon="-1.7182">
        <ele>70</ele>
        <time>2021-02-14T12:21:46.000Z</time>
      </trkpt>
      <trkpt lat="47.14271" lon="-1.71824">
        <ele>70</ele>
        <time>2021-02-14T12:21:48.000Z</time>
      </trkpt>
      <trkpt lat="47.14257" lon="-1.71829">
        <ele>70</ele>
        <time>2021-02-14T12:21:50.000Z</time>
      </trkpt>
      <trkpt lat="47.14244" lon="-1.71833">
        <ele>69</ele>
        <time>2021-02-14T12:21:52.000Z</time>
      </trkpt>
      <trkpt lat="47.14231" lon="-1.71837">
        <ele>69</ele>
        <time>2021-02-14T12:21:54.000Z</time>
      </trkpt>
      <trkpt lat="47.14217" lon="-1.71842">
        <ele>69</ele>
        <time>2021-02-14T12:21:56.000Z</time>
      </trkpt>
      <trkpt lat="47.14204" lon="-1.71846">
        <ele>69</ele>
        <time>2021-02-14T12:21:58.000Z</time>
      </trkpt>
      <trkpt lat="47.14191" lon="-1.7185">
        <ele>68</ele>
        <time>2021-02-14T12:22:00.000Z</time>
      </trkpt>
      <trkpt lat="47.14178" lon="-1.71855">
        <ele>68</ele>
        <time>2021-02-14T12:22:02.000Z</time>
      </trkpt>
      <trkpt lat="47.14165" lon="-1.71859">
        <ele>67</ele>
        <time>2021-02-14T12:22:04.000Z</time>
      </trkpt>
      <trkpt lat="47.14151" lon="-1.71864">
        <ele>67</ele>
        <time>2021-02-14T12:22:06.000Z</time>
      </trkpt>
      <trkpt lat="47.14137" lon="-1.71868">
        <ele>66</ele>
        <time>2021-02-14T12:22:08.000Z</time>
      </trkpt>
      <trkpt lat="47.14123" lon="-1.71873">
        <ele>65</ele>
        <time>2021-02-14T12:22:10.000Z</time>
      </trkpt>
      <trkpt lat="47.14108" lon="-1.71878">
        <ele>65</ele>
        <time>2021-02-14T12:22:12.000Z</time>
      </trkpt>
      <trkpt lat="47.14093" lon="-1.71883">
        <ele>64</ele>
        <time>2021-02-14T12:22:14.000Z</time>
      </trkpt>
      <trkpt lat="47.14078" lon="-1.71888">
        <ele>63</ele>
        <time>2021-02-14T12:22:16.000Z</time>
      </trkpt>
      <trkpt lat="47.14062" lon="-1.71893">
        <ele>63</ele>
        <time>2021-02-14T12:22:18.000Z</time>
      </trkpt>
      <trkpt lat="47.14047" lon="-1.71898">
        <ele>62</ele>
        <time>2021-02-14T12:22:20.000Z</time>
      </trkpt>
      <trkpt lat="47.14033" lon="-1.71903">
        <ele>61</ele>
        <time>2021-02-14T12:22:22.000Z</time>
      </trkpt>
      <trkpt lat="47.14019" lon="-1.71907">
        <ele>60</ele>
        <time>2021-02-14T12:22:24.000Z</time>
      </trkpt>
      <trkpt lat="47.14003" lon="-1.71904">
        <ele>59</ele>
        <time>2021-02-14T12:22:26.000Z</time>
      </trkpt>
      <trkpt lat="47.13986" lon="-1.719">
        <ele>58</ele>
        <time>2021-02-14T12:22:28.000Z</time>
      </trkpt>
      <trkpt lat="47.13972" lon="-1.71904">
        <ele>58</ele>
        <time>2021-02-14T12:22:30.000Z</time>
      </trkpt>
      <trkpt lat="47.13967" lon="-1.71923">
        <ele>57</ele>
        <time>2021-02-14T12:22:32.000Z</time>
      </trkpt>
      <trkpt lat="47.13968" lon="-1.71944">
        <ele>57</ele>
        <time>2021-02-14T12:22:34.000Z</time>
      </trkpt>
      <trkpt lat="47.13962" lon="-1.71962">
        <ele>58</ele>
        <time>2021-02-14T12:22:36.000Z</time>
      </trkpt>
      <trkpt lat="47.13951" lon="-1.71972">
        <ele>57</ele>
        <time>2021-02-14T12:22:38.000Z</time>
      </trkpt>
      <trkpt lat="47.13939" lon="-1.7198">
        <ele>58</ele>
        <time>2021-02-14T12:22:40.000Z</time>
      </trkpt>
      <trkpt lat="47.13927" lon="-1.71985">
        <ele>58</ele>
        <time>2021-02-14T12:22:42.000Z</time>
      </trkpt>
      <trkpt lat="47.13915" lon="-1.71991">
        <ele>59</ele>
        <time>2021-02-14T12:22:44.000Z</time>
      </trkpt>
      <trkpt lat="47.13904" lon="-1.71997">
        <ele>59</ele>
        <time>2021-02-14T12:22:46.000Z</time>
      </trkpt>
      <trkpt lat="47.13893" lon="-1.72003">
        <ele>60</ele>
        <time>2021-02-14T12:22:48.000Z</time>
      </trkpt>
      <trkpt lat="47.13883" lon="-1.72012">
        <ele>60</ele>
        <time>2021-02-14T12:22:50.000Z</time>
      </trkpt>
      <trkpt lat="47.13873" lon="-1.72021">
        <ele>60</ele>
        <time>2021-02-14T12:22:52.000Z</time>
      </trkpt>
      <trkpt lat="47.13865" lon="-1.72033">
        <ele>60</ele>
        <time>2021-02-14T12:22:54.000Z</time>
      </trkpt>
      <trkpt lat="47.13857" lon="-1.72045">
        <ele>60</ele>
        <time>2021-02-14T12:22:56.000Z</time>
      </trkpt>
      <trkpt lat="47.13849" lon="-1.72058">
        <ele>60</ele>
        <time>2021-02-14T12:22:58.000Z</time>
      </trkpt>
      <trkpt lat="47.13842" lon="-1.7207">
        <ele>61</ele>
        <time>2021-02-14T12:23:00.000Z</time>
      </trkpt>
      <trkpt lat="47.13834" lon="-1.72082">
        <ele>61</ele>
        <time>2021-02-14T12:23:02.000Z</time>
      </trkpt>
      <trkpt lat="47.13827" lon="-1.72094">
        <ele>61</ele>
        <time>2021-02-14T12:23:04.000Z</time>
      </trkpt>
      <trkpt lat="47.13821" lon="-1.72106">
        <ele>62</ele>
        <time>2021-02-14T12:23:06.000Z</time>
      </trkpt>
      <trkpt lat="47.13813" lon="-1.72117">
        <ele>62</ele>
        <time>2021-02-14T12:23:08.000Z</time>
      </trkpt>
      <trkpt lat="47.13806" lon="-1.7213">
        <ele>62</ele>
        <time>2021-02-14T12:23:10.000Z</time>
      </trkpt>
      <trkpt lat="47.13799" lon="-1.72141">
        <ele>62</ele>
        <time>2021-02-14T12:23:12.000Z</time>
      </trkpt>
      <trkpt lat="47.13792" lon="-1.72153">
        <ele>63</ele>
        <time>2021-02-14T12:23:14.000Z</time>
      </trkpt>
      <trkpt lat="47.13784" lon="-1.72165">
        <ele>63</ele>
        <time>2021-02-14T12:23:16.000Z</time>
      </trkpt>
      <trkpt lat="47.13778" lon="-1.72177">
        <ele>63</ele>
        <time>2021-02-14T12:23:18.000Z</time>
      </trkpt>
      <trkpt lat="47.1377" lon="-1.72189">
        <ele>63</ele>
        <time>2021-02-14T12:23:20.000Z</time>
      </trkpt>
      <trkpt lat="47.13763" lon="-1.72202">
        <ele>64</ele>
        <time>2021-02-14T12:23:22.000Z</time>
      </trkpt>
      <trkpt lat="47.13756" lon="-1.72214">
        <ele>64</ele>
        <time>2021-02-14T12:23:24.000Z</time>
      </trkpt>
      <trkpt lat="47.1375" lon="-1.72226">
        <ele>65</ele>
        <time>2021-02-14T12:23:26.000Z</time>
      </trkpt>
      <trkpt lat="47.13745" lon="-1.72239">
        <ele>65</ele>
        <time>2021-02-14T12:23:28.000Z</time>
      </trkpt>
      <trkpt lat="47.13741" lon="-1.72254">
        <ele>65</ele>
        <time>2021-02-14T12:23:30.000Z</time>
      </trkpt>
      <trkpt lat="47.13738" lon="-1.72269">
        <ele>65</ele>
        <time>2021-02-14T12:23:32.000Z</time>
      </trkpt>
      <trkpt lat="47.13735" lon="-1.72284">
        <ele>66</ele>
        <time>2021-02-14T12:23:34.000Z</time>
      </trkpt>
      <trkpt lat="47.13733" lon="-1.723">
        <ele>67</ele>
        <time>2021-02-14T12:23:36.000Z</time>
      </trkpt>
      <trkpt lat="47.13731" lon="-1.72316">
        <ele>67</ele>
        <time>2021-02-14T12:23:38.000Z</time>
      </trkpt>
      <trkpt lat="47.13729" lon="-1.72332">
        <ele>68</ele>
        <time>2021-02-14T12:23:40.000Z</time>
      </trkpt>
      <trkpt lat="47.13727" lon="-1.72348">
        <ele>68</ele>
        <time>2021-02-14T12:23:42.000Z</time>
      </trkpt>
      <trkpt lat="47.13724" lon="-1.72363">
        <ele>69</ele>
        <time>2021-02-14T12:23:44.000Z</time>
      </trkpt>
      <trkpt lat="47.1372" lon="-1.72378">
        <ele>70</ele>
        <time>2021-02-14T12:23:46.000Z</time>
      </trkpt>
      <trkpt lat="47.13716" lon="-1.72394">
        <ele>70</ele>
        <time>2021-02-14T12:23:48.000Z</time>
      </trkpt>
      <trkpt lat="47.13712" lon="-1.72408">
        <ele>70</ele>
        <time>2021-02-14T12:23:50.000Z</time>
      </trkpt>
      <trkpt lat="47.13709" lon="-1.72424">
        <ele>71</ele>
        <time>2021-02-14T12:23:52.000Z</time>
      </trkpt>
      <trkpt lat="47.13705" lon="-1.72439">
        <ele>71</ele>
        <time>2021-02-14T12:23:54.000Z</time>
      </trkpt>
      <trkpt lat="47.137" lon="-1.72453">
        <ele>72</ele>
        <time>2021-02-14T12:23:56.000Z</time>
      </trkpt>
      <trkpt lat="47.13696" lon="-1.72468">
        <ele>72</ele>
        <time>2021-02-14T12:23:58.000Z</time>
      </trkpt>
      <trkpt lat="47.13692" lon="-1.72484">
        <ele>71</ele>
        <time>2021-02-14T12:24:00.000Z</time>
      </trkpt>
      <trkpt lat="47.13688" lon="-1.725">
        <ele>72</ele>
        <time>2021-02-14T12:24:02.000Z</time>
      </trkpt>
      <trkpt lat="47.13685" lon="-1.72516">
        <ele>72</ele>
        <time>2021-02-14T12:24:04.000Z</time>
      </trkpt>
      <trkpt lat="47.13683" lon="-1.72534">
        <ele>72</ele>
        <time>2021-02-14T12:24:06.000Z</time>
      </trkpt>
      <trkpt lat="47.13681" lon="-1.72551">
        <ele>71</ele>
        <time>2021-02-14T12:24:08.000Z</time>
      </trkpt>
      <trkpt lat="47.1368" lon="-1.72568">
        <ele>72</ele>
        <time>2021-02-14T12:24:10.000Z</time>
      </trkpt>
      <trkpt lat="47.13679" lon="-1.72585">
        <ele>72</ele>
        <time>2021-02-14T12:24:12.000Z</time>
      </trkpt>
      <trkpt lat="47.13679" lon="-1.72601">
        <ele>71</ele>
        <time>2021-02-14T12:24:14.000Z</time>
      </trkpt>
      <trkpt lat="47.13678" lon="-1.72617">
        <ele>71</ele>
        <time>2021-02-14T12:24:16.000Z</time>
      </trkpt>
      <trkpt lat="47.13676" lon="-1.72633">
        <ele>71</ele>
        <time>2021-02-14T12:24:18.000Z</time>
      </trkpt>
      <trkpt lat="47.13673" lon="-1.72649">
        <ele>71</ele>
        <time>2021-02-14T12:24:20.000Z</time>
      </trkpt>
      <trkpt lat="47.13669" lon="-1.72666">
        <ele>71</ele>
        <time>2021-02-14T12:24:22.000Z</time>
      </trkpt>
      <trkpt lat="47.13667" lon="-1.72683">
        <ele>71</ele>
        <time>2021-02-14T12:24:24.000Z</time>
      </trkpt>
      <trkpt lat="47.13665" lon="-1.72699">
        <ele>70</ele>
        <time>2021-02-14T12:24:26.000Z</time>
      </trkpt>
      <trkpt lat="47.13663" lon="-1.72716">
        <ele>70</ele>
        <time>2021-02-14T12:24:28.000Z</time>
      </trkpt>
      <trkpt lat="47.13661" lon="-1.72732">
        <ele>70</ele>
        <time>2021-02-14T12:24:30.000Z</time>
      </trkpt>
      <trkpt lat="47.1366" lon="-1.72749">
        <ele>71</ele>
        <time>2021-02-14T12:24:32.000Z</time>
      </trkpt>
      <trkpt lat="47.13659" lon="-1.72766">
        <ele>71</ele>
        <time>2021-02-14T12:24:34.000Z</time>
      </trkpt>
      <trkpt lat="47.13657" lon="-1.72784">
        <ele>71</ele>
        <time>2021-02-14T12:24:36.000Z</time>
      </trkpt>
      <trkpt lat="47.13657" lon="-1.72802">
        <ele>71</ele>
        <time>2021-02-14T12:24:38.000Z</time>
      </trkpt>
      <trkpt lat="47.13656" lon="-1.7282">
        <ele>70</ele>
        <time>2021-02-14T12:24:40.000Z</time>
      </trkpt>
      <trkpt lat="47.13655" lon="-1.72838">
        <ele>71</ele>
        <time>2021-02-14T12:24:42.000Z</time>
      </trkpt>
      <trkpt lat="47.13653" lon="-1.72858">
        <ele>70</ele>
        <time>2021-02-14T12:24:44.000Z</time>
      </trkpt>
      <trkpt lat="47.1365" lon="-1.72879">
        <ele>69</ele>
        <time>2021-02-14T12:24:46.000Z</time>
      </trkpt>
      <trkpt lat="47.13648" lon="-1.729">
        <ele>68</ele>
        <time>2021-02-14T12:24:48.000Z</time>
      </trkpt>
      <trkpt lat="47.13646" lon="-1.72925">
        <ele>67</ele>
        <time>2021-02-14T12:24:50.000Z</time>
      </trkpt>
      <trkpt lat="47.13645" lon="-1.72938">
        <ele>67</ele>
        <time>2021-02-14T12:24:51.000Z</time>
      </trkpt>
      <trkpt lat="47.13643" lon="-1.72964">
        <ele>65</ele>
        <time>2021-02-14T12:24:53.000Z</time>
      </trkpt>
      <trkpt lat="47.13642" lon="-1.72977">
        <ele>65</ele>
        <time>2021-02-14T12:24:54.000Z</time>
      </trkpt>
      <trkpt lat="47.13641" lon="-1.72991">
        <ele>64</ele>
        <time>2021-02-14T12:24:55.000Z</time>
      </trkpt>
      <trkpt lat="47.1364" lon="-1.73005">
        <ele>64</ele>
        <time>2021-02-14T12:24:56.000Z</time>
      </trkpt>
      <trkpt lat="47.13637" lon="-1.73019">
        <ele>64</ele>
        <time>2021-02-14T12:24:57.000Z</time>
      </trkpt>
      <trkpt lat="47.13633" lon="-1.73032">
        <ele>63</ele>
        <time>2021-02-14T12:24:58.000Z</time>
      </trkpt>
      <trkpt lat="47.13628" lon="-1.73043">
        <ele>63</ele>
        <time>2021-02-14T12:24:59.000Z</time>
      </trkpt>
      <trkpt lat="47.1362" lon="-1.73052">
        <ele>63</ele>
        <time>2021-02-14T12:25:00.000Z</time>
      </trkpt>
      <trkpt lat="47.13612" lon="-1.73058">
        <ele>62</ele>
        <time>2021-02-14T12:25:01.000Z</time>
      </trkpt>
      <trkpt lat="47.13604" lon="-1.73065">
        <ele>62</ele>
        <time>2021-02-14T12:25:02.000Z</time>
      </trkpt>
      <trkpt lat="47.13589" lon="-1.73078">
        <ele>62</ele>
        <time>2021-02-14T12:25:04.000Z</time>
      </trkpt>
      <trkpt lat="47.13575" lon="-1.7309">
        <ele>62</ele>
        <time>2021-02-14T12:25:06.000Z</time>
      </trkpt>
      <trkpt lat="47.13563" lon="-1.73104">
        <ele>62</ele>
        <time>2021-02-14T12:25:08.000Z</time>
      </trkpt>
      <trkpt lat="47.13551" lon="-1.73116">
        <ele>62</ele>
        <time>2021-02-14T12:25:10.000Z</time>
      </trkpt>
      <trkpt lat="47.13539" lon="-1.73129">
        <ele>62</ele>
        <time>2021-02-14T12:25:12.000Z</time>
      </trkpt>
      <trkpt lat="47.13526" lon="-1.73142">
        <ele>61</ele>
        <time>2021-02-14T12:25:14.000Z</time>
      </trkpt>
      <trkpt lat="47.13516" lon="-1.73159">
        <ele>60</ele>
        <time>2021-02-14T12:25:16.000Z</time>
      </trkpt>
      <trkpt lat="47.13511" lon="-1.73181">
        <ele>59</ele>
        <time>2021-02-14T12:25:18.000Z</time>
      </trkpt>
      <trkpt lat="47.13509" lon="-1.73203">
        <ele>59</ele>
        <time>2021-02-14T12:25:20.000Z</time>
      </trkpt>
      <trkpt lat="47.13507" lon="-1.73226">
        <ele>59</ele>
        <time>2021-02-14T12:25:22.000Z</time>
      </trkpt>
      <trkpt lat="47.13505" lon="-1.7325">
        <ele>58</ele>
        <time>2021-02-14T12:25:24.000Z</time>
      </trkpt>
      <trkpt lat="47.13502" lon="-1.73273">
        <ele>58</ele>
        <time>2021-02-14T12:25:26.000Z</time>
      </trkpt>
      <trkpt lat="47.13502" lon="-1.73296">
        <ele>57</ele>
        <time>2021-02-14T12:25:28.000Z</time>
      </trkpt>
      <trkpt lat="47.13506" lon="-1.73318">
        <ele>57</ele>
        <time>2021-02-14T12:25:30.000Z</time>
      </trkpt>
      <trkpt lat="47.13512" lon="-1.73339">
        <ele>58</ele>
        <time>2021-02-14T12:25:32.000Z</time>
      </trkpt>
      <trkpt lat="47.13517" lon="-1.73358">
        <ele>58</ele>
        <time>2021-02-14T12:25:34.000Z</time>
      </trkpt>
      <trkpt lat="47.13524" lon="-1.73375">
        <ele>59</ele>
        <time>2021-02-14T12:25:36.000Z</time>
      </trkpt>
      <trkpt lat="47.13531" lon="-1.73391">
        <ele>59</ele>
        <time>2021-02-14T12:25:38.000Z</time>
      </trkpt>
      <trkpt lat="47.13537" lon="-1.73408">
        <ele>59</ele>
        <time>2021-02-14T12:25:40.000Z</time>
      </trkpt>
      <trkpt lat="47.13542" lon="-1.73426">
        <ele>59</ele>
        <time>2021-02-14T12:25:42.000Z</time>
      </trkpt>
      <trkpt lat="47.13548" lon="-1.73444">
        <ele>59</ele>
        <time>2021-02-14T12:25:44.000Z</time>
      </trkpt>
      <trkpt lat="47.13553" lon="-1.73464">
        <ele>59</ele>
        <time>2021-02-14T12:25:46.000Z</time>
      </trkpt>
      <trkpt lat="47.13559" lon="-1.73483">
        <ele>59</ele>
        <time>2021-02-14T12:25:48.000Z</time>
      </trkpt>
      <trkpt lat="47.13564" lon="-1.73502">
        <ele>59</ele>
        <time>2021-02-14T12:25:50.000Z</time>
      </trkpt>
      <trkpt lat="47.1357" lon="-1.7352">
        <ele>59</ele>
        <time>2021-02-14T12:25:52.000Z</time>
      </trkpt>
      <trkpt lat="47.13575" lon="-1.73541">
        <ele>59</ele>
        <time>2021-02-14T12:25:54.000Z</time>
      </trkpt>
      <trkpt lat="47.1358" lon="-1.7356">
        <ele>60</ele>
        <time>2021-02-14T12:25:56.000Z</time>
      </trkpt>
      <trkpt lat="47.13587" lon="-1.73578">
        <ele>59</ele>
        <time>2021-02-14T12:25:58.000Z</time>
      </trkpt>
      <trkpt lat="47.13593" lon="-1.73596">
        <ele>60</ele>
        <time>2021-02-14T12:26:00.000Z</time>
      </trkpt>
      <trkpt lat="47.13601" lon="-1.73613">
        <ele>60</ele>
        <time>2021-02-14T12:26:02.000Z</time>
      </trkpt>
      <trkpt lat="47.13608" lon="-1.73631">
        <ele>61</ele>
        <time>2021-02-14T12:26:04.000Z</time>
      </trkpt>
      <trkpt lat="47.13615" lon="-1.73649">
        <ele>61</ele>
        <time>2021-02-14T12:26:06.000Z</time>
      </trkpt>
      <trkpt lat="47.13621" lon="-1.73668">
        <ele>61</ele>
        <time>2021-02-14T12:26:08.000Z</time>
      </trkpt>
      <trkpt lat="47.13627" lon="-1.73688">
        <ele>61</ele>
        <time>2021-02-14T12:26:10.000Z</time>
      </trkpt>
      <trkpt lat="47.13632" lon="-1.73707">
        <ele>60</ele>
        <time>2021-02-14T12:26:12.000Z</time>
      </trkpt>
      <trkpt lat="47.13635" lon="-1.73728">
        <ele>60</ele>
        <time>2021-02-14T12:26:14.000Z</time>
      </trkpt>
      <trkpt lat="47.13637" lon="-1.73749">
        <ele>59</ele>
        <time>2021-02-14T12:26:16.000Z</time>
      </trkpt>
      <trkpt lat="47.13639" lon="-1.73772">
        <ele>59</ele>
        <time>2021-02-14T12:26:18.000Z</time>
      </trkpt>
      <trkpt lat="47.1364" lon="-1.73797">
        <ele>58</ele>
        <time>2021-02-14T12:26:20.000Z</time>
      </trkpt>
      <trkpt lat="47.13642" lon="-1.7382">
        <ele>58</ele>
        <time>2021-02-14T12:26:22.000Z</time>
      </trkpt>
      <trkpt lat="47.13642" lon="-1.73843">
        <ele>57</ele>
        <time>2021-02-14T12:26:24.000Z</time>
      </trkpt>
      <trkpt lat="47.13644" lon="-1.73866">
        <ele>57</ele>
        <time>2021-02-14T12:26:26.000Z</time>
      </trkpt>
      <trkpt lat="47.13645" lon="-1.73886">
        <ele>58</ele>
        <time>2021-02-14T12:26:28.000Z</time>
      </trkpt>
      <trkpt lat="47.13646" lon="-1.73906">
        <ele>58</ele>
        <time>2021-02-14T12:26:30.000Z</time>
      </trkpt>
      <trkpt lat="47.13647" lon="-1.73923">
        <ele>59</ele>
        <time>2021-02-14T12:26:32.000Z</time>
      </trkpt>
      <trkpt lat="47.13648" lon="-1.7394">
        <ele>59</ele>
        <time>2021-02-14T12:26:34.000Z</time>
      </trkpt>
      <trkpt lat="47.13649" lon="-1.73958">
        <ele>60</ele>
        <time>2021-02-14T12:26:36.000Z</time>
      </trkpt>
      <trkpt lat="47.1365" lon="-1.73975">
        <ele>61</ele>
        <time>2021-02-14T12:26:38.000Z</time>
      </trkpt>
      <trkpt lat="47.13648" lon="-1.73992">
        <ele>61</ele>
        <time>2021-02-14T12:26:40.000Z</time>
      </trkpt>
      <trkpt lat="47.13647" lon="-1.74009">
        <ele>62</ele>
        <time>2021-02-14T12:26:42.000Z</time>
      </trkpt>
      <trkpt lat="47.13645" lon="-1.74027">
        <ele>63</ele>
        <time>2021-02-14T12:26:44.000Z</time>
      </trkpt>
      <trkpt lat="47.13644" lon="-1.74045">
        <ele>64</ele>
        <time>2021-02-14T12:26:46.000Z</time>
      </trkpt>
      <trkpt lat="47.13642" lon="-1.74063">
        <ele>64</ele>
        <time>2021-02-14T12:26:48.000Z</time>
      </trkpt>
      <trkpt lat="47.13641" lon="-1.74081">
        <ele>64</ele>
        <time>2021-02-14T12:26:50.000Z</time>
      </trkpt>
      <trkpt lat="47.13642" lon="-1.74098">
        <ele>64</ele>
        <time>2021-02-14T12:26:52.000Z</time>
      </trkpt>
      <trkpt lat="47.13643" lon="-1.74116">
        <ele>64</ele>
        <time>2021-02-14T12:26:54.000Z</time>
      </trkpt>
      <trkpt lat="47.13645" lon="-1.74134">
        <ele>64</ele>
        <time>2021-02-14T12:26:56.000Z</time>
      </trkpt>
      <trkpt lat="47.13648" lon="-1.74151">
        <ele>64</ele>
        <time>2021-02-14T12:26:58.000Z</time>
      </trkpt>
      <trkpt lat="47.13652" lon="-1.74169">
        <ele>64</ele>
        <time>2021-02-14T12:27:00.000Z</time>
      </trkpt>
      <trkpt lat="47.13656" lon="-1.74185">
        <ele>64</ele>
        <time>2021-02-14T12:27:02.000Z</time>
      </trkpt>
      <trkpt lat="47.1366" lon="-1.74203">
        <ele>64</ele>
        <time>2021-02-14T12:27:04.000Z</time>
      </trkpt>
      <trkpt lat="47.13664" lon="-1.7422">
        <ele>64</ele>
        <time>2021-02-14T12:27:06.000Z</time>
      </trkpt>
      <trkpt lat="47.13668" lon="-1.74238">
        <ele>64</ele>
        <time>2021-02-14T12:27:08.000Z</time>
      </trkpt>
      <trkpt lat="47.13673" lon="-1.74255">
        <ele>63</ele>
        <time>2021-02-14T12:27:10.000Z</time>
      </trkpt>
      <trkpt lat="47.13678" lon="-1.74273">
        <ele>63</ele>
        <time>2021-02-14T12:27:12.000Z</time>
      </trkpt>
      <trkpt lat="47.13685" lon="-1.74291">
        <ele>62</ele>
        <time>2021-02-14T12:27:14.000Z</time>
      </trkpt>
      <trkpt lat="47.13692" lon="-1.7431">
        <ele>62</ele>
        <time>2021-02-14T12:27:16.000Z</time>
      </trkpt>
      <trkpt lat="47.13697" lon="-1.74332">
        <ele>62</ele>
        <time>2021-02-14T12:27:18.000Z</time>
      </trkpt>
      <trkpt lat="47.13697" lon="-1.74355">
        <ele>61</ele>
        <time>2021-02-14T12:27:20.000Z</time>
      </trkpt>
      <trkpt lat="47.13697" lon="-1.74381">
        <ele>60</ele>
        <time>2021-02-14T12:27:22.000Z</time>
      </trkpt>
      <trkpt lat="47.13697" lon="-1.74408">
        <ele>59</ele>
        <time>2021-02-14T12:27:24.000Z</time>
      </trkpt>
      <trkpt lat="47.13698" lon="-1.74421">
        <ele>59</ele>
        <time>2021-02-14T12:27:25.000Z</time>
      </trkpt>
      <trkpt lat="47.13696" lon="-1.74447">
        <ele>58</ele>
        <time>2021-02-14T12:27:27.000Z</time>
      </trkpt>
      <trkpt lat="47.13692" lon="-1.74459">
        <ele>57</ele>
        <time>2021-02-14T12:27:28.000Z</time>
      </trkpt>
      <trkpt lat="47.13685" lon="-1.74469">
        <ele>57</ele>
        <time>2021-02-14T12:27:29.000Z</time>
      </trkpt>
      <trkpt lat="47.13678" lon="-1.74477">
        <ele>57</ele>
        <time>2021-02-14T12:27:30.000Z</time>
      </trkpt>
      <trkpt lat="47.1367" lon="-1.74485">
        <ele>56</ele>
        <time>2021-02-14T12:27:31.000Z</time>
      </trkpt>
      <trkpt lat="47.13663" lon="-1.74493">
        <ele>56</ele>
        <time>2021-02-14T12:27:32.000Z</time>
      </trkpt>
      <trkpt lat="47.1365" lon="-1.74507">
        <ele>56</ele>
        <time>2021-02-14T12:27:34.000Z</time>
      </trkpt>
      <trkpt lat="47.13637" lon="-1.74518">
        <ele>55</ele>
        <time>2021-02-14T12:27:36.000Z</time>
      </trkpt>
      <trkpt lat="47.13625" lon="-1.74528">
        <ele>56</ele>
        <time>2021-02-14T12:27:38.000Z</time>
      </trkpt>
      <trkpt lat="47.13615" lon="-1.7454">
        <ele>56</ele>
        <time>2021-02-14T12:27:40.000Z</time>
      </trkpt>
      <trkpt lat="47.13604" lon="-1.74551">
        <ele>55</ele>
        <time>2021-02-14T12:27:42.000Z</time>
      </trkpt>
      <trkpt lat="47.13592" lon="-1.74565">
        <ele>54</ele>
        <time>2021-02-14T12:27:44.000Z</time>
      </trkpt>
      <trkpt lat="47.13579" lon="-1.74578">
        <ele>54</ele>
        <time>2021-02-14T12:27:46.000Z</time>
      </trkpt>
      <trkpt lat="47.13566" lon="-1.74592">
        <ele>53</ele>
        <time>2021-02-14T12:27:48.000Z</time>
      </trkpt>
      <trkpt lat="47.13554" lon="-1.74605">
        <ele>54</ele>
        <time>2021-02-14T12:27:50.000Z</time>
      </trkpt>
      <trkpt lat="47.13541" lon="-1.74617">
        <ele>53</ele>
        <time>2021-02-14T12:27:52.000Z</time>
      </trkpt>
      <trkpt lat="47.13529" lon="-1.74629">
        <ele>54</ele>
        <time>2021-02-14T12:27:54.000Z</time>
      </trkpt>
      <trkpt lat="47.13519" lon="-1.74639">
        <ele>54</ele>
        <time>2021-02-14T12:27:56.000Z</time>
      </trkpt>
      <trkpt lat="47.13508" lon="-1.74648">
        <ele>54</ele>
        <time>2021-02-14T12:27:58.000Z</time>
      </trkpt>
      <trkpt lat="47.135" lon="-1.74659">
        <ele>55</ele>
        <time>2021-02-14T12:28:00.000Z</time>
      </trkpt>
      <trkpt lat="47.13494" lon="-1.74672">
        <ele>54</ele>
        <time>2021-02-14T12:28:02.000Z</time>
      </trkpt>
      <trkpt lat="47.1349" lon="-1.74685">
        <ele>55</ele>
        <time>2021-02-14T12:28:04.000Z</time>
      </trkpt>
      <trkpt lat="47.13486" lon="-1.74699">
        <ele>56</ele>
        <time>2021-02-14T12:28:06.000Z</time>
      </trkpt>
      <trkpt lat="47.13481" lon="-1.74713">
        <ele>57</ele>
        <time>2021-02-14T12:28:08.000Z</time>
      </trkpt>
      <trkpt lat="47.13474" lon="-1.74725">
        <ele>57</ele>
        <time>2021-02-14T12:28:10.000Z</time>
      </trkpt>
      <trkpt lat="47.13466" lon="-1.74736">
        <ele>58</ele>
        <time>2021-02-14T12:28:12.000Z</time>
      </trkpt>
      <trkpt lat="47.13457" lon="-1.74744">
        <ele>58</ele>
        <time>2021-02-14T12:28:14.000Z</time>
      </trkpt>
      <trkpt lat="47.13449" lon="-1.74751">
        <ele>59</ele>
        <time>2021-02-14T12:28:16.000Z</time>
      </trkpt>
      <trkpt lat="47.13439" lon="-1.74758">
        <ele>59</ele>
        <time>2021-02-14T12:28:18.000Z</time>
      </trkpt>
      <trkpt lat="47.13431" lon="-1.74764">
        <ele>59</ele>
        <time>2021-02-14T12:28:20.000Z</time>
      </trkpt>
      <trkpt lat="47.13422" lon="-1.74771">
        <ele>59</ele>
        <time>2021-02-14T12:28:22.000Z</time>
      </trkpt>
      <trkpt lat="47.13413" lon="-1.74779">
        <ele>59</ele>
        <time>2021-02-14T12:28:24.000Z</time>
      </trkpt>
      <trkpt lat="47.13406" lon="-1.74788">
        <ele>60</ele>
        <time>2021-02-14T12:28:26.000Z</time>
      </trkpt>
      <trkpt lat="47.13399" lon="-1.74798">
        <ele>61</ele>
        <time>2021-02-14T12:28:28.000Z</time>
      </trkpt>
      <trkpt lat="47.13392" lon="-1.74808">
        <ele>61</ele>
        <time>2021-02-14T12:28:30.000Z</time>
      </trkpt>
      <trkpt lat="47.13385" lon="-1.74819">
        <ele>62</ele>
        <time>2021-02-14T12:28:32.000Z</time>
      </trkpt>
      <trkpt lat="47.13381" lon="-1.74832">
        <ele>62</ele>
        <time>2021-02-14T12:28:34.000Z</time>
      </trkpt>
      <trkpt lat="47.13377" lon="-1.74847">
        <ele>62</ele>
        <time>2021-02-14T12:28:36.000Z</time>
      </trkpt>
      <trkpt lat="47.13374" lon="-1.74861">
        <ele>62</ele>
        <time>2021-02-14T12:28:38.000Z</time>
      </trkpt>
      <trkpt lat="47.13371" lon="-1.74876">
        <ele>62</ele>
        <time>2021-02-14T12:28:40.000Z</time>
      </trkpt>
      <trkpt lat="47.13367" lon="-1.7489">
        <ele>63</ele>
        <time>2021-02-14T12:28:42.000Z</time>
      </trkpt>
      <trkpt lat="47.13361" lon="-1.74905">
        <ele>63</ele>
        <time>2021-02-14T12:28:44.000Z</time>
      </trkpt>
      <trkpt lat="47.13357" lon="-1.74919">
        <ele>63</ele>
        <time>2021-02-14T12:28:46.000Z</time>
      </trkpt>
      <trkpt lat="47.13351" lon="-1.74933">
        <ele>63</ele>
        <time>2021-02-14T12:28:48.000Z</time>
      </trkpt>
      <trkpt lat="47.13345" lon="-1.74946">
        <ele>63</ele>
        <time>2021-02-14T12:28:50.000Z</time>
      </trkpt>
      <trkpt lat="47.1334" lon="-1.7496">
        <ele>64</ele>
        <time>2021-02-14T12:28:52.000Z</time>
      </trkpt>
      <trkpt lat="47.13334" lon="-1.74972">
        <ele>65</ele>
        <time>2021-02-14T12:28:54.000Z</time>
      </trkpt>
      <trkpt lat="47.13327" lon="-1.74983">
        <ele>65</ele>
        <time>2021-02-14T12:28:56.000Z</time>
      </trkpt>
      <trkpt lat="47.1332" lon="-1.74993">
        <ele>64</ele>
        <time>2021-02-14T12:28:58.000Z</time>
      </trkpt>
      <trkpt lat="47.13311" lon="-1.75003">
        <ele>64</ele>
        <time>2021-02-14T12:29:00.000Z</time>
      </trkpt>
      <trkpt lat="47.13302" lon="-1.75011">
        <ele>64</ele>
        <time>2021-02-14T12:29:02.000Z</time>
      </trkpt>
      <trkpt lat="47.13293" lon="-1.75019">
        <ele>65</ele>
        <time>2021-02-14T12:29:04.000Z</time>
      </trkpt>
      <trkpt lat="47.13285" lon="-1.75025">
        <ele>65</ele>
        <time>2021-02-14T12:29:06.000Z</time>
      </trkpt>
      <trkpt lat="47.13276" lon="-1.75032">
        <ele>65</ele>
        <time>2021-02-14T12:29:08.000Z</time>
      </trkpt>
      <trkpt lat="47.13267" lon="-1.75039">
        <ele>65</ele>
        <time>2021-02-14T12:29:10.000Z</time>
      </trkpt>
      <trkpt lat="47.13258" lon="-1.75045">
        <ele>65</ele>
        <time>2021-02-14T12:29:12.000Z</time>
      </trkpt>
      <trkpt lat="47.13249" lon="-1.75052">
        <ele>66</ele>
        <time>2021-02-14T12:29:14.000Z</time>
      </trkpt>
      <trkpt lat="47.1324" lon="-1.7506">
        <ele>66</ele>
        <time>2021-02-14T12:29:16.000Z</time>
      </trkpt>
      <trkpt lat="47.13232" lon="-1.75068">
        <ele>67</ele>
        <time>2021-02-14T12:29:18.000Z</time>
      </trkpt>
      <trkpt lat="47.13224" lon="-1.75077">
        <ele>67</ele>
        <time>2021-02-14T12:29:20.000Z</time>
      </trkpt>
      <trkpt lat="47.13217" lon="-1.75086">
        <ele>68</ele>
        <time>2021-02-14T12:29:22.000Z</time>
      </trkpt>
      <trkpt lat="47.1321" lon="-1.75097">
        <ele>68</ele>
        <time>2021-02-14T12:29:24.000Z</time>
      </trkpt>
      <trkpt lat="47.13204" lon="-1.75108">
        <ele>68</ele>
        <time>2021-02-14T12:29:26.000Z</time>
      </trkpt>
      <trkpt lat="47.13198" lon="-1.75118">
        <ele>68</ele>
        <time>2021-02-14T12:29:28.000Z</time>
      </trkpt>
      <trkpt lat="47.13192" lon="-1.75129">
        <ele>68</ele>
        <time>2021-02-14T12:29:30.000Z</time>
      </trkpt>
      <trkpt lat="47.13185" lon="-1.75141">
        <ele>68</ele>
        <time>2021-02-14T12:29:32.000Z</time>
      </trkpt>
      <trkpt lat="47.13179" lon="-1.75154">
        <ele>68</ele>
        <time>2021-02-14T12:29:34.000Z</time>
      </trkpt>
      <trkpt lat="47.13173" lon="-1.75167">
        <ele>69</ele>
        <time>2021-02-14T12:29:36.000Z</time>
      </trkpt>
      <trkpt lat="47.13168" lon="-1.7518">
        <ele>69</ele>
        <time>2021-02-14T12:29:38.000Z</time>
      </trkpt>
      <trkpt lat="47.13164" lon="-1.75194">
        <ele>69</ele>
        <time>2021-02-14T12:29:40.000Z</time>
      </trkpt>
      <trkpt lat="47.1316" lon="-1.75209">
        <ele>69</ele>
        <time>2021-02-14T12:29:42.000Z</time>
      </trkpt>
      <trkpt lat="47.13157" lon="-1.75223">
        <ele>69</ele>
        <time>2021-02-14T12:29:44.000Z</time>
      </trkpt>
      <trkpt lat="47.13154" lon="-1.75238">
        <ele>69</ele>
        <time>2021-02-14T12:29:46.000Z</time>
      </trkpt>
      <trkpt lat="47.13152" lon="-1.75253">
        <ele>69</ele>
        <time>2021-02-14T12:29:48.000Z</time>
      </trkpt>
      <trkpt lat="47.1315" lon="-1.75268">
        <ele>70</ele>
        <time>2021-02-14T12:29:50.000Z</time>
      </trkpt>
      <trkpt lat="47.13149" lon="-1.75283">
        <ele>70</ele>
        <time>2021-02-14T12:29:52.000Z</time>
      </trkpt>
      <trkpt lat="47.13148" lon="-1.75298">
        <ele>70</ele>
        <time>2021-02-14T12:29:54.000Z</time>
      </trkpt>
      <trkpt lat="47.13143" lon="-1.75311">
        <ele>70</ele>
        <time>2021-02-14T12:29:56.000Z</time>
      </trkpt>
      <trkpt lat="47.13139" lon="-1.75325">
        <ele>70</ele>
        <time>2021-02-14T12:29:58.000Z</time>
      </trkpt>
      <trkpt lat="47.13135" lon="-1.7534">
        <ele>71</ele>
        <time>2021-02-14T12:30:00.000Z</time>
      </trkpt>
      <trkpt lat="47.13132" lon="-1.75354">
        <ele>72</ele>
        <time>2021-02-14T12:30:02.000Z</time>
      </trkpt>
      <trkpt lat="47.13129" lon="-1.75368">
        <ele>72</ele>
        <time>2021-02-14T12:30:04.000Z</time>
      </trkpt>
      <trkpt lat="47.13126" lon="-1.75382">
        <ele>72</ele>
        <time>2021-02-14T12:30:06.000Z</time>
      </trkpt>
      <trkpt lat="47.13123" lon="-1.75396">
        <ele>73</ele>
        <time>2021-02-14T12:30:08.000Z</time>
      </trkpt>
      <trkpt lat="47.13119" lon="-1.75409">
        <ele>73</ele>
        <time>2021-02-14T12:30:10.000Z</time>
      </trkpt>
      <trkpt lat="47.13116" lon="-1.75423">
        <ele>73</ele>
        <time>2021-02-14T12:30:12.000Z</time>
      </trkpt>
      <trkpt lat="47.13115" lon="-1.75436">
        <ele>74</ele>
        <time>2021-02-14T12:30:14.000Z</time>
      </trkpt>
      <trkpt lat="47.13113" lon="-1.75451">
        <ele>74</ele>
        <time>2021-02-14T12:30:16.000Z</time>
      </trkpt>
      <trkpt lat="47.13109" lon="-1.75465">
        <ele>75</ele>
        <time>2021-02-14T12:30:18.000Z</time>
      </trkpt>
      <trkpt lat="47.13109" lon="-1.7548">
        <ele>75</ele>
        <time>2021-02-14T12:30:20.000Z</time>
      </trkpt>
      <trkpt lat="47.13108" lon="-1.75495">
        <ele>76</ele>
        <time>2021-02-14T12:30:22.000Z</time>
      </trkpt>
      <trkpt lat="47.13106" lon="-1.7551">
        <ele>76</ele>
        <time>2021-02-14T12:30:24.000Z</time>
      </trkpt>
      <trkpt lat="47.13103" lon="-1.75524">
        <ele>76</ele>
        <time>2021-02-14T12:30:26.000Z</time>
      </trkpt>
      <trkpt lat="47.131" lon="-1.75539">
        <ele>76</ele>
        <time>2021-02-14T12:30:28.000Z</time>
      </trkpt>
      <trkpt lat="47.13098" lon="-1.75555">
        <ele>76</ele>
        <time>2021-02-14T12:30:30.000Z</time>
      </trkpt>
      <trkpt lat="47.13095" lon="-1.7557">
        <ele>77</ele>
        <time>2021-02-14T12:30:32.000Z</time>
      </trkpt>
      <trkpt lat="47.13092" lon="-1.75586">
        <ele>76</ele>
        <time>2021-02-14T12:30:34.000Z</time>
      </trkpt>
      <trkpt lat="47.13089" lon="-1.75602">
        <ele>76</ele>
        <time>2021-02-14T12:30:36.000Z</time>
      </trkpt>
      <trkpt lat="47.13086" lon="-1.75618">
        <ele>76</ele>
        <time>2021-02-14T12:30:38.000Z</time>
      </trkpt>
      <trkpt lat="47.13084" lon="-1.75635">
        <ele>76</ele>
        <time>2021-02-14T12:30:40.000Z</time>
      </trkpt>
      <trkpt lat="47.13081" lon="-1.75653">
        <ele>76</ele>
        <time>2021-02-14T12:30:42.000Z</time>
      </trkpt>
      <trkpt lat="47.13077" lon="-1.7567">
        <ele>76</ele>
        <time>2021-02-14T12:30:44.000Z</time>
      </trkpt>
      <trkpt lat="47.13074" lon="-1.75687">
        <ele>76</ele>
        <time>2021-02-14T12:30:46.000Z</time>
      </trkpt>
      <trkpt lat="47.1307" lon="-1.75704">
        <ele>76</ele>
        <time>2021-02-14T12:30:48.000Z</time>
      </trkpt>
      <trkpt lat="47.13065" lon="-1.7572">
        <ele>76</ele>
        <time>2021-02-14T12:30:50.000Z</time>
      </trkpt>
      <trkpt lat="47.13059" lon="-1.75735">
        <ele>77</ele>
        <time>2021-02-14T12:30:52.000Z</time>
      </trkpt>
      <trkpt lat="47.13052" lon="-1.7575">
        <ele>77</ele>
        <time>2021-02-14T12:30:54.000Z</time>
      </trkpt>
      <trkpt lat="47.13045" lon="-1.75763">
        <ele>77</ele>
        <time>2021-02-14T12:30:56.000Z</time>
      </trkpt>
      <trkpt lat="47.13036" lon="-1.75776">
        <ele>77</ele>
        <time>2021-02-14T12:30:58.000Z</time>
      </trkpt>
      <trkpt lat="47.13028" lon="-1.75788">
        <ele>77</ele>
        <time>2021-02-14T12:31:00.000Z</time>
      </trkpt>
      <trkpt lat="47.1302" lon="-1.75801">
        <ele>78</ele>
        <time>2021-02-14T12:31:02.000Z</time>
      </trkpt>
      <trkpt lat="47.13013" lon="-1.75814">
        <ele>78</ele>
        <time>2021-02-14T12:31:04.000Z</time>
      </trkpt>
      <trkpt lat="47.13008" lon="-1.75829">
        <ele>78</ele>
        <time>2021-02-14T12:31:06.000Z</time>
      </trkpt>
      <trkpt lat="47.13008" lon="-1.75846">
        <ele>78</ele>
        <time>2021-02-14T12:31:08.000Z</time>
      </trkpt>
      <trkpt lat="47.1301" lon="-1.75864">
        <ele>78</ele>
        <time>2021-02-14T12:31:10.000Z</time>
      </trkpt>
      <trkpt lat="47.1301" lon="-1.75881">
        <ele>79</ele>
        <time>2021-02-14T12:31:12.000Z</time>
      </trkpt>
      <trkpt lat="47.13008" lon="-1.75898">
        <ele>79</ele>
        <time>2021-02-14T12:31:14.000Z</time>
      </trkpt>
      <trkpt lat="47.13004" lon="-1.75916">
        <ele>80</ele>
        <time>2021-02-14T12:31:16.000Z</time>
      </trkpt>
      <trkpt lat="47.13" lon="-1.75933">
        <ele>80</ele>
        <time>2021-02-14T12:31:18.000Z</time>
      </trkpt>
      <trkpt lat="47.12997" lon="-1.75949">
        <ele>81</ele>
        <time>2021-02-14T12:31:20.000Z</time>
      </trkpt>
      <trkpt lat="47.12994" lon="-1.75967">
        <ele>81</ele>
        <time>2021-02-14T12:31:22.000Z</time>
      </trkpt>
      <trkpt lat="47.12991" lon="-1.75986">
        <ele>81</ele>
        <time>2021-02-14T12:31:24.000Z</time>
      </trkpt>
      <trkpt lat="47.12989" lon="-1.76004">
        <ele>81</ele>
        <time>2021-02-14T12:31:26.000Z</time>
      </trkpt>
      <trkpt lat="47.12987" lon="-1.76022">
        <ele>81</ele>
        <time>2021-02-14T12:31:28.000Z</time>
      </trkpt>
      <trkpt lat="47.12986" lon="-1.7604">
        <ele>81</ele>
        <time>2021-02-14T12:31:30.000Z</time>
      </trkpt>
      <trkpt lat="47.12985" lon="-1.76059">
        <ele>81</ele>
        <time>2021-02-14T12:31:32.000Z</time>
      </trkpt>
      <trkpt lat="47.12985" lon="-1.76077">
        <ele>81</ele>
        <time>2021-02-14T12:31:34.000Z</time>
      </trkpt>
      <trkpt lat="47.12986" lon="-1.76095">
        <ele>81</ele>
        <time>2021-02-14T12:31:36.000Z</time>
      </trkpt>
      <trkpt lat="47.12988" lon="-1.76112">
        <ele>81</ele>
        <time>2021-02-14T12:31:38.000Z</time>
      </trkpt>
      <trkpt lat="47.12991" lon="-1.76129">
        <ele>81</ele>
        <time>2021-02-14T12:31:40.000Z</time>
      </trkpt>
      <trkpt lat="47.12995" lon="-1.76146">
        <ele>81</ele>
        <time>2021-02-14T12:31:42.000Z</time>
      </trkpt>
      <trkpt lat="47.13" lon="-1.76163">
        <ele>81</ele>
        <time>2021-02-14T12:31:44.000Z</time>
      </trkpt>
      <trkpt lat="47.13005" lon="-1.76181">
        <ele>81</ele>
        <time>2021-02-14T12:31:46.000Z</time>
      </trkpt>
      <trkpt lat="47.1301" lon="-1.76198">
        <ele>81</ele>
        <time>2021-02-14T12:31:48.000Z</time>
      </trkpt>
      <trkpt lat="47.13014" lon="-1.76217">
        <ele>81</ele>
        <time>2021-02-14T12:31:50.000Z</time>
      </trkpt>
      <trkpt lat="47.13018" lon="-1.76235">
        <ele>81</ele>
        <time>2021-02-14T12:31:52.000Z</time>
      </trkpt>
      <trkpt lat="47.13023" lon="-1.76253">
        <ele>81</ele>
        <time>2021-02-14T12:31:54.000Z</time>
      </trkpt>
      <trkpt lat="47.13027" lon="-1.76271">
        <ele>81</ele>
        <time>2021-02-14T12:31:56.000Z</time>
      </trkpt>
      <trkpt lat="47.13031" lon="-1.76289">
        <ele>80</ele>
        <time>2021-02-14T12:31:58.000Z</time>
      </trkpt>
      <trkpt lat="47.13035" lon="-1.76308">
        <ele>80</ele>
        <time>2021-02-14T12:32:00.000Z</time>
      </trkpt>
      <trkpt lat="47.13038" lon="-1.76327">
        <ele>79</ele>
        <time>2021-02-14T12:32:02.000Z</time>
      </trkpt>
      <trkpt lat="47.13042" lon="-1.76347">
        <ele>79</ele>
        <time>2021-02-14T12:32:04.000Z</time>
      </trkpt>
      <trkpt lat="47.13046" lon="-1.76367">
        <ele>80</ele>
        <time>2021-02-14T12:32:06.000Z</time>
      </trkpt>
      <trkpt lat="47.13049" lon="-1.76387">
        <ele>80</ele>
        <time>2021-02-14T12:32:08.000Z</time>
      </trkpt>
      <trkpt lat="47.13052" lon="-1.76407">
        <ele>80</ele>
        <time>2021-02-14T12:32:10.000Z</time>
      </trkpt>
      <trkpt lat="47.13053" lon="-1.76427">
        <ele>80</ele>
        <time>2021-02-14T12:32:12.000Z</time>
      </trkpt>
      <trkpt lat="47.13054" lon="-1.76447">
        <ele>80</ele>
        <time>2021-02-14T12:32:14.000Z</time>
      </trkpt>
      <trkpt lat="47.13054" lon="-1.76467">
        <ele>80</ele>
        <time>2021-02-14T12:32:16.000Z</time>
      </trkpt>
      <trkpt lat="47.13055" lon="-1.76488">
        <ele>79</ele>
        <time>2021-02-14T12:32:18.000Z</time>
      </trkpt>
      <trkpt lat="47.13056" lon="-1.7651">
        <ele>79</ele>
        <time>2021-02-14T12:32:20.000Z</time>
      </trkpt>
      <trkpt lat="47.13058" lon="-1.76531">
        <ele>79</ele>
        <time>2021-02-14T12:32:22.000Z</time>
      </trkpt>
      <trkpt lat="47.13058" lon="-1.76554">
        <ele>79</ele>
        <time>2021-02-14T12:32:24.000Z</time>
      </trkpt>
      <trkpt lat="47.1306" lon="-1.76576">
        <ele>79</ele>
        <time>2021-02-14T12:32:26.000Z</time>
      </trkpt>
      <trkpt lat="47.13062" lon="-1.76597">
        <ele>79</ele>
        <time>2021-02-14T12:32:28.000Z</time>
      </trkpt>
      <trkpt lat="47.13064" lon="-1.76619">
        <ele>79</ele>
        <time>2021-02-14T12:32:30.000Z</time>
      </trkpt>
      <trkpt lat="47.13066" lon="-1.76641">
        <ele>78</ele>
        <time>2021-02-14T12:32:32.000Z</time>
      </trkpt>
      <trkpt lat="47.13069" lon="-1.76662">
        <ele>78</ele>
        <time>2021-02-14T12:32:34.000Z</time>
      </trkpt>
      <trkpt lat="47.1307" lon="-1.76683">
        <ele>79</ele>
        <time>2021-02-14T12:32:36.000Z</time>
      </trkpt>
      <trkpt lat="47.13068" lon="-1.76704">
        <ele>79</ele>
        <time>2021-02-14T12:32:38.000Z</time>
      </trkpt>
      <trkpt lat="47.13066" lon="-1.76725">
        <ele>79</ele>
        <time>2021-02-14T12:32:40.000Z</time>
      </trkpt>
      <trkpt lat="47.13063" lon="-1.76746">
        <ele>79</ele>
        <time>2021-02-14T12:32:42.000Z</time>
      </trkpt>
      <trkpt lat="47.13061" lon="-1.76767">
        <ele>79</ele>
        <time>2021-02-14T12:32:44.000Z</time>
      </trkpt>
      <trkpt lat="47.13058" lon="-1.76788">
        <ele>80</ele>
        <time>2021-02-14T12:32:46.000Z</time>
      </trkpt>
      <trkpt lat="47.13056" lon="-1.76809">
        <ele>80</ele>
        <time>2021-02-14T12:32:48.000Z</time>
      </trkpt>
      <trkpt lat="47.13053" lon="-1.7683">
        <ele>80</ele>
        <time>2021-02-14T12:32:50.000Z</time>
      </trkpt>
      <trkpt lat="47.1305" lon="-1.76851">
        <ele>80</ele>
        <time>2021-02-14T12:32:52.000Z</time>
      </trkpt>
      <trkpt lat="47.13048" lon="-1.76872">
        <ele>80</ele>
        <time>2021-02-14T12:32:54.000Z</time>
      </trkpt>
      <trkpt lat="47.13046" lon="-1.76893">
        <ele>80</ele>
        <time>2021-02-14T12:32:56.000Z</time>
      </trkpt>
      <trkpt lat="47.13044" lon="-1.76914">
        <ele>80</ele>
        <time>2021-02-14T12:32:58.000Z</time>
      </trkpt>
      <trkpt lat="47.13042" lon="-1.76934">
        <ele>80</ele>
        <time>2021-02-14T12:33:00.000Z</time>
      </trkpt>
      <trkpt lat="47.13041" lon="-1.76955">
        <ele>80</ele>
        <time>2021-02-14T12:33:02.000Z</time>
      </trkpt>
      <trkpt lat="47.1304" lon="-1.76976">
        <ele>80</ele>
        <time>2021-02-14T12:33:04.000Z</time>
      </trkpt>
      <trkpt lat="47.13038" lon="-1.76996">
        <ele>80</ele>
        <time>2021-02-14T12:33:06.000Z</time>
      </trkpt>
      <trkpt lat="47.13037" lon="-1.77016">
        <ele>81</ele>
        <time>2021-02-14T12:33:08.000Z</time>
      </trkpt>
      <trkpt lat="47.13036" lon="-1.77036">
        <ele>81</ele>
        <time>2021-02-14T12:33:10.000Z</time>
      </trkpt>
      <trkpt lat="47.13035" lon="-1.77056">
        <ele>81</ele>
        <time>2021-02-14T12:33:12.000Z</time>
      </trkpt>
      <trkpt lat="47.13033" lon="-1.77076">
        <ele>81</ele>
        <time>2021-02-14T12:33:14.000Z</time>
      </trkpt>
      <trkpt lat="47.1303" lon="-1.77095">
        <ele>81</ele>
        <time>2021-02-14T12:33:16.000Z</time>
      </trkpt>
      <trkpt lat="47.13028" lon="-1.77115">
        <ele>81</ele>
        <time>2021-02-14T12:33:18.000Z</time>
      </trkpt>
      <trkpt lat="47.13026" lon="-1.77135">
        <ele>81</ele>
        <time>2021-02-14T12:33:20.000Z</time>
      </trkpt>
      <trkpt lat="47.13023" lon="-1.77154">
        <ele>81</ele>
        <time>2021-02-14T12:33:22.000Z</time>
      </trkpt>
      <trkpt lat="47.13019" lon="-1.77173">
        <ele>82</ele>
        <time>2021-02-14T12:33:24.000Z</time>
      </trkpt>
      <trkpt lat="47.13014" lon="-1.77192">
        <ele>82</ele>
        <time>2021-02-14T12:33:26.000Z</time>
      </trkpt>
      <trkpt lat="47.1301" lon="-1.77211">
        <ele>82</ele>
        <time>2021-02-14T12:33:28.000Z</time>
      </trkpt>
      <trkpt lat="47.13005" lon="-1.7723">
        <ele>82</ele>
        <time>2021-02-14T12:33:30.000Z</time>
      </trkpt>
      <trkpt lat="47.13" lon="-1.77249">
        <ele>82</ele>
        <time>2021-02-14T12:33:32.000Z</time>
      </trkpt>
      <trkpt lat="47.12994" lon="-1.77267">
        <ele>82</ele>
        <time>2021-02-14T12:33:34.000Z</time>
      </trkpt>
      <trkpt lat="47.12988" lon="-1.77285">
        <ele>82</ele>
        <time>2021-02-14T12:33:36.000Z</time>
      </trkpt>
      <trkpt lat="47.12982" lon="-1.77302">
        <ele>82</ele>
        <time>2021-02-14T12:33:38.000Z</time>
      </trkpt>
      <trkpt lat="47.12975" lon="-1.7732">
        <ele>81</ele>
        <time>2021-02-14T12:33:40.000Z</time>
      </trkpt>
      <trkpt lat="47.12968" lon="-1.77338">
        <ele>81</ele>
        <time>2021-02-14T12:33:42.000Z</time>
      </trkpt>
      <trkpt lat="47.12962" lon="-1.77355">
        <ele>82</ele>
        <time>2021-02-14T12:33:44.000Z</time>
      </trkpt>
      <trkpt lat="47.12955" lon="-1.77372">
        <ele>82</ele>
        <time>2021-02-14T12:33:46.000Z</time>
      </trkpt>
      <trkpt lat="47.12947" lon="-1.77389">
        <ele>82</ele>
        <time>2021-02-14T12:33:48.000Z</time>
      </trkpt>
      <trkpt lat="47.12941" lon="-1.77406">
        <ele>82</ele>
        <time>2021-02-14T12:33:50.000Z</time>
      </trkpt>
      <trkpt lat="47.12935" lon="-1.77423">
        <ele>82</ele>
        <time>2021-02-14T12:33:52.000Z</time>
      </trkpt>
      <trkpt lat="47.12928" lon="-1.7744">
        <ele>82</ele>
        <time>2021-02-14T12:33:54.000Z</time>
      </trkpt>
      <trkpt lat="47.12922" lon="-1.77458">
        <ele>82</ele>
        <time>2021-02-14T12:33:56.000Z</time>
      </trkpt>
      <trkpt lat="47.12917" lon="-1.77476">
        <ele>81</ele>
        <time>2021-02-14T12:33:58.000Z</time>
      </trkpt>
      <trkpt lat="47.12912" lon="-1.77493">
        <ele>81</ele>
        <time>2021-02-14T12:34:00.000Z</time>
      </trkpt>
      <trkpt lat="47.12907" lon="-1.77511">
        <ele>81</ele>
        <time>2021-02-14T12:34:02.000Z</time>
      </trkpt>
      <trkpt lat="47.12902" lon="-1.77529">
        <ele>81</ele>
        <time>2021-02-14T12:34:04.000Z</time>
      </trkpt>
      <trkpt lat="47.12898" lon="-1.77547">
        <ele>81</ele>
        <time>2021-02-14T12:34:06.000Z</time>
      </trkpt>
      <trkpt lat="47.12893" lon="-1.77566">
        <ele>81</ele>
        <time>2021-02-14T12:34:08.000Z</time>
      </trkpt>
      <trkpt lat="47.12889" lon="-1.77584">
        <ele>82</ele>
        <time>2021-02-14T12:34:10.000Z</time>
      </trkpt>
      <trkpt lat="47.12884" lon="-1.77603">
        <ele>82</ele>
        <time>2021-02-14T12:34:12.000Z</time>
      </trkpt>
      <trkpt lat="47.12879" lon="-1.77622">
        <ele>82</ele>
        <time>2021-02-14T12:34:14.000Z</time>
      </trkpt>
      <trkpt lat="47.12875" lon="-1.77639">
        <ele>83</ele>
        <time>2021-02-14T12:34:16.000Z</time>
      </trkpt>
      <trkpt lat="47.1287" lon="-1.77657">
        <ele>83</ele>
        <time>2021-02-14T12:34:18.000Z</time>
      </trkpt>
      <trkpt lat="47.12866" lon="-1.77675">
        <ele>83</ele>
        <time>2021-02-14T12:34:20.000Z</time>
      </trkpt>
      <trkpt lat="47.12861" lon="-1.77694">
        <ele>83</ele>
        <time>2021-02-14T12:34:22.000Z</time>
      </trkpt>
      <trkpt lat="47.12857" lon="-1.77713">
        <ele>83</ele>
        <time>2021-02-14T12:34:24.000Z</time>
      </trkpt>
      <trkpt lat="47.12852" lon="-1.77732">
        <ele>83</ele>
        <time>2021-02-14T12:34:26.000Z</time>
      </trkpt>
      <trkpt lat="47.12846" lon="-1.77751">
        <ele>83</ele>
        <time>2021-02-14T12:34:28.000Z</time>
      </trkpt>
      <trkpt lat="47.1284" lon="-1.7777">
        <ele>82</ele>
        <time>2021-02-14T12:34:30.000Z</time>
      </trkpt>
      <trkpt lat="47.12834" lon="-1.77788">
        <ele>82</ele>
        <time>2021-02-14T12:34:32.000Z</time>
      </trkpt>
      <trkpt lat="47.12827" lon="-1.77805">
        <ele>82</ele>
        <time>2021-02-14T12:34:34.000Z</time>
      </trkpt>
      <trkpt lat="47.12821" lon="-1.77823">
        <ele>81</ele>
        <time>2021-02-14T12:34:36.000Z</time>
      </trkpt>
      <trkpt lat="47.12814" lon="-1.77839">
        <ele>81</ele>
        <time>2021-02-14T12:34:38.000Z</time>
      </trkpt>
      <trkpt lat="47.12807" lon="-1.77857">
        <ele>81</ele>
        <time>2021-02-14T12:34:40.000Z</time>
      </trkpt>
      <trkpt lat="47.12801" lon="-1.77875">
        <ele>81</ele>
        <time>2021-02-14T12:34:42.000Z</time>
      </trkpt>
      <trkpt lat="47.12795" lon="-1.77893">
        <ele>81</ele>
        <time>2021-02-14T12:34:44.000Z</time>
      </trkpt>
      <trkpt lat="47.1279" lon="-1.77911">
        <ele>81</ele>
        <time>2021-02-14T12:34:46.000Z</time>
      </trkpt>
      <trkpt lat="47.12785" lon="-1.77928">
        <ele>81</ele>
        <time>2021-02-14T12:34:48.000Z</time>
      </trkpt>
      <trkpt lat="47.12779" lon="-1.77948">
        <ele>81</ele>
        <time>2021-02-14T12:34:50.000Z</time>
      </trkpt>
      <trkpt lat="47.12773" lon="-1.77967">
        <ele>80</ele>
        <time>2021-02-14T12:34:52.000Z</time>
      </trkpt>
      <trkpt lat="47.12768" lon="-1.77986">
        <ele>80</ele>
        <time>2021-02-14T12:34:54.000Z</time>
      </trkpt>
      <trkpt lat="47.12762" lon="-1.78005">
        <ele>80</ele>
        <time>2021-02-14T12:34:56.000Z</time>
      </trkpt>
      <trkpt lat="47.12757" lon="-1.78024">
        <ele>80</ele>
        <time>2021-02-14T12:34:58.000Z</time>
      </trkpt>
      <trkpt lat="47.12751" lon="-1.78043">
        <ele>80</ele>
        <time>2021-02-14T12:35:00.000Z</time>
      </trkpt>
      <trkpt lat="47.12743" lon="-1.78059">
        <ele>80</ele>
        <time>2021-02-14T12:35:02.000Z</time>
      </trkpt>
      <trkpt lat="47.12733" lon="-1.78075">
        <ele>81</ele>
        <time>2021-02-14T12:35:04.000Z</time>
      </trkpt>
      <trkpt lat="47.12723" lon="-1.78089">
        <ele>81</ele>
        <time>2021-02-14T12:35:06.000Z</time>
      </trkpt>
      <trkpt lat="47.12713" lon="-1.78103">
        <ele>81</ele>
        <time>2021-02-14T12:35:08.000Z</time>
      </trkpt>
      <trkpt lat="47.12703" lon="-1.78117">
        <ele>81</ele>
        <time>2021-02-14T12:35:10.000Z</time>
      </trkpt>
      <trkpt lat="47.12694" lon="-1.7813">
        <ele>81</ele>
        <time>2021-02-14T12:35:12.000Z</time>
      </trkpt>
      <trkpt lat="47.12684" lon="-1.78144">
        <ele>80</ele>
        <time>2021-02-14T12:35:14.000Z</time>
      </trkpt>
      <trkpt lat="47.12673" lon="-1.78158">
        <ele>80</ele>
        <time>2021-02-14T12:35:16.000Z</time>
      </trkpt>
      <trkpt lat="47.12663" lon="-1.78171">
        <ele>80</ele>
        <time>2021-02-14T12:35:18.000Z</time>
      </trkpt>
      <trkpt lat="47.12653" lon="-1.78184">
        <ele>80</ele>
        <time>2021-02-14T12:35:20.000Z</time>
      </trkpt>
      <trkpt lat="47.12643" lon="-1.78198">
        <ele>79</ele>
        <time>2021-02-14T12:35:22.000Z</time>
      </trkpt>
      <trkpt lat="47.12634" lon="-1.78213">
        <ele>80</ele>
        <time>2021-02-14T12:35:24.000Z</time>
      </trkpt>
      <trkpt lat="47.12627" lon="-1.78229">
        <ele>79</ele>
        <time>2021-02-14T12:35:26.000Z</time>
      </trkpt>
      <trkpt lat="47.1262" lon="-1.78247">
        <ele>79</ele>
        <time>2021-02-14T12:35:28.000Z</time>
      </trkpt>
      <trkpt lat="47.12616" lon="-1.78266">
        <ele>80</ele>
        <time>2021-02-14T12:35:30.000Z</time>
      </trkpt>
      <trkpt lat="47.12611" lon="-1.78285">
        <ele>80</ele>
        <time>2021-02-14T12:35:32.000Z</time>
      </trkpt>
      <trkpt lat="47.12608" lon="-1.78305">
        <ele>79</ele>
        <time>2021-02-14T12:35:34.000Z</time>
      </trkpt>
      <trkpt lat="47.12604" lon="-1.78325">
        <ele>80</ele>
        <time>2021-02-14T12:35:36.000Z</time>
      </trkpt>
      <trkpt lat="47.12599" lon="-1.78344">
        <ele>79</ele>
        <time>2021-02-14T12:35:38.000Z</time>
      </trkpt>
      <trkpt lat="47.12594" lon="-1.78363">
        <ele>79</ele>
        <time>2021-02-14T12:35:40.000Z</time>
      </trkpt>
      <trkpt lat="47.12589" lon="-1.78383">
        <ele>79</ele>
        <time>2021-02-14T12:35:42.000Z</time>
      </trkpt>
      <trkpt lat="47.12585" lon="-1.78403">
        <ele>79</ele>
        <time>2021-02-14T12:35:44.000Z</time>
      </trkpt>
      <trkpt lat="47.1258" lon="-1.78422">
        <ele>78</ele>
        <time>2021-02-14T12:35:46.000Z</time>
      </trkpt>
      <trkpt lat="47.12575" lon="-1.78443">
        <ele>78</ele>
        <time>2021-02-14T12:35:48.000Z</time>
      </trkpt>
      <trkpt lat="47.1257" lon="-1.78462">
        <ele>78</ele>
        <time>2021-02-14T12:35:50.000Z</time>
      </trkpt>
      <trkpt lat="47.12565" lon="-1.78482">
        <ele>78</ele>
        <time>2021-02-14T12:35:52.000Z</time>
      </trkpt>
      <trkpt lat="47.1256" lon="-1.78502">
        <ele>78</ele>
        <time>2021-02-14T12:35:54.000Z</time>
      </trkpt>
      <trkpt lat="47.12556" lon="-1.78523">
        <ele>78</ele>
        <time>2021-02-14T12:35:56.000Z</time>
      </trkpt>
      <trkpt lat="47.12551" lon="-1.78543">
        <ele>78</ele>
        <time>2021-02-14T12:35:58.000Z</time>
      </trkpt>
      <trkpt lat="47.12546" lon="-1.78563">
        <ele>78</ele>
        <time>2021-02-14T12:36:00.000Z</time>
      </trkpt>
      <trkpt lat="47.12541" lon="-1.78584">
        <ele>77</ele>
        <time>2021-02-14T12:36:02.000Z</time>
      </trkpt>
      <trkpt lat="47.12536" lon="-1.78604">
        <ele>77</ele>
        <time>2021-02-14T12:36:04.000Z</time>
      </trkpt>
      <trkpt lat="47.1253" lon="-1.78624">
        <ele>77</ele>
        <time>2021-02-14T12:36:06.000Z</time>
      </trkpt>
      <trkpt lat="47.12525" lon="-1.78643">
        <ele>77</ele>
        <time>2021-02-14T12:36:08.000Z</time>
      </trkpt>
      <trkpt lat="47.12518" lon="-1.78661">
        <ele>77</ele>
        <time>2021-02-14T12:36:10.000Z</time>
      </trkpt>
      <trkpt lat="47.12512" lon="-1.78679">
        <ele>77</ele>
        <time>2021-02-14T12:36:12.000Z</time>
      </trkpt>
      <trkpt lat="47.12505" lon="-1.78697">
        <ele>77</ele>
        <time>2021-02-14T12:36:14.000Z</time>
      </trkpt>
      <trkpt lat="47.12499" lon="-1.78716">
        <ele>77</ele>
        <time>2021-02-14T12:36:16.000Z</time>
      </trkpt>
      <trkpt lat="47.12494" lon="-1.78736">
        <ele>77</ele>
        <time>2021-02-14T12:36:18.000Z</time>
      </trkpt>
      <trkpt lat="47.12489" lon="-1.78756">
        <ele>77</ele>
        <time>2021-02-14T12:36:20.000Z</time>
      </trkpt>
      <trkpt lat="47.12484" lon="-1.78776">
        <ele>77</ele>
        <time>2021-02-14T12:36:22.000Z</time>
      </trkpt>
      <trkpt lat="47.1248" lon="-1.78795">
        <ele>77</ele>
        <time>2021-02-14T12:36:24.000Z</time>
      </trkpt>
      <trkpt lat="47.12476" lon="-1.78815">
        <ele>76</ele>
        <time>2021-02-14T12:36:26.000Z</time>
      </trkpt>
      <trkpt lat="47.12472" lon="-1.78835">
        <ele>77</ele>
        <time>2021-02-14T12:36:28.000Z</time>
      </trkpt>
      <trkpt lat="47.12469" lon="-1.78856">
        <ele>77</ele>
        <time>2021-02-14T12:36:30.000Z</time>
      </trkpt>
      <trkpt lat="47.12468" lon="-1.78876">
        <ele>77</ele>
        <time>2021-02-14T12:36:32.000Z</time>
      </trkpt>
      <trkpt lat="47.12466" lon="-1.78896">
        <ele>77</ele>
        <time>2021-02-14T12:36:34.000Z</time>
      </trkpt>
      <trkpt lat="47.12464" lon="-1.78916">
        <ele>76</ele>
        <time>2021-02-14T12:36:36.000Z</time>
      </trkpt>
      <trkpt lat="47.1246" lon="-1.78936">
        <ele>77</ele>
        <time>2021-02-14T12:36:38.000Z</time>
      </trkpt>
      <trkpt lat="47.12455" lon="-1.78955">
        <ele>76</ele>
        <time>2021-02-14T12:36:40.000Z</time>
      </trkpt>
      <trkpt lat="47.12451" lon="-1.78975">
        <ele>77</ele>
        <time>2021-02-14T12:36:42.000Z</time>
      </trkpt>
      <trkpt lat="47.12446" lon="-1.78994">
        <ele>76</ele>
        <time>2021-02-14T12:36:44.000Z</time>
      </trkpt>
      <trkpt lat="47.12441" lon="-1.79013">
        <ele>77</ele>
        <time>2021-02-14T12:36:46.000Z</time>
      </trkpt>
      <trkpt lat="47.12436" lon="-1.79032">
        <ele>76</ele>
        <time>2021-02-14T12:36:48.000Z</time>
      </trkpt>
      <trkpt lat="47.12432" lon="-1.79051">
        <ele>76</ele>
        <time>2021-02-14T12:36:50.000Z</time>
      </trkpt>
      <trkpt lat="47.12428" lon="-1.7907">
        <ele>76</ele>
        <time>2021-02-14T12:36:52.000Z</time>
      </trkpt>
      <trkpt lat="47.12424" lon="-1.79088">
        <ele>76</ele>
        <time>2021-02-14T12:36:54.000Z</time>
      </trkpt>
      <trkpt lat="47.12421" lon="-1.79107">
        <ele>76</ele>
        <time>2021-02-14T12:36:56.000Z</time>
      </trkpt>
      <trkpt lat="47.12418" lon="-1.79126">
        <ele>76</ele>
        <time>2021-02-14T12:36:58.000Z</time>
      </trkpt>
      <trkpt lat="47.12417" lon="-1.79146">
        <ele>76</ele>
        <time>2021-02-14T12:37:00.000Z</time>
      </trkpt>
      <trkpt lat="47.12418" lon="-1.79166">
        <ele>76</ele>
        <time>2021-02-14T12:37:02.000Z</time>
      </trkpt>
      <trkpt lat="47.1242" lon="-1.79185">
        <ele>77</ele>
        <time>2021-02-14T12:37:04.000Z</time>
      </trkpt>
      <trkpt lat="47.12422" lon="-1.79205">
        <ele>77</ele>
        <time>2021-02-14T12:37:06.000Z</time>
      </trkpt>
      <trkpt lat="47.12424" lon="-1.79226">
        <ele>77</ele>
        <time>2021-02-14T12:37:08.000Z</time>
      </trkpt>
      <trkpt lat="47.12424" lon="-1.79247">
        <ele>77</ele>
        <time>2021-02-14T12:37:10.000Z</time>
      </trkpt>
      <trkpt lat="47.12421" lon="-1.79266">
        <ele>77</ele>
        <time>2021-02-14T12:37:12.000Z</time>
      </trkpt>
      <trkpt lat="47.12416" lon="-1.79285">
        <ele>76</ele>
        <time>2021-02-14T12:37:14.000Z</time>
      </trkpt>
      <trkpt lat="47.12408" lon="-1.79303">
        <ele>76</ele>
        <time>2021-02-14T12:37:16.000Z</time>
      </trkpt>
      <trkpt lat="47.12401" lon="-1.79319">
        <ele>76</ele>
        <time>2021-02-14T12:37:18.000Z</time>
      </trkpt>
      <trkpt lat="47.12393" lon="-1.79336">
        <ele>77</ele>
        <time>2021-02-14T12:37:20.000Z</time>
      </trkpt>
      <trkpt lat="47.12385" lon="-1.79352">
        <ele>76</ele>
        <time>2021-02-14T12:37:22.000Z</time>
      </trkpt>
      <trkpt lat="47.12377" lon="-1.79367">
        <ele>77</ele>
        <time>2021-02-14T12:37:24.000Z</time>
      </trkpt>
      <trkpt lat="47.1237" lon="-1.79385">
        <ele>77</ele>
        <time>2021-02-14T12:37:26.000Z</time>
      </trkpt>
      <trkpt lat="47.12363" lon="-1.79403">
        <ele>77</ele>
        <time>2021-02-14T12:37:28.000Z</time>
      </trkpt>
      <trkpt lat="47.12357" lon="-1.79421">
        <ele>76</ele>
        <time>2021-02-14T12:37:30.000Z</time>
      </trkpt>
      <trkpt lat="47.12352" lon="-1.7944">
        <ele>76</ele>
        <time>2021-02-14T12:37:32.000Z</time>
      </trkpt>
      <trkpt lat="47.12348" lon="-1.7946">
        <ele>76</ele>
        <time>2021-02-14T12:37:34.000Z</time>
      </trkpt>
      <trkpt lat="47.12345" lon="-1.79479">
        <ele>76</ele>
        <time>2021-02-14T12:37:36.000Z</time>
      </trkpt>
      <trkpt lat="47.1234" lon="-1.79509">
        <ele>75</ele>
        <time>2021-02-14T12:37:39.000Z</time>
      </trkpt>
      <trkpt lat="47.12338" lon="-1.79528">
        <ele>76</ele>
        <time>2021-02-14T12:37:41.000Z</time>
      </trkpt>
      <trkpt lat="47.12336" lon="-1.79547">
        <ele>76</ele>
        <time>2021-02-14T12:37:43.000Z</time>
      </trkpt>
      <trkpt lat="47.12332" lon="-1.79565">
        <ele>76</ele>
        <time>2021-02-14T12:37:45.000Z</time>
      </trkpt>
      <trkpt lat="47.12327" lon="-1.79583">
        <ele>76</ele>
        <time>2021-02-14T12:37:47.000Z</time>
      </trkpt>
      <trkpt lat="47.12316" lon="-1.79594">
        <ele>76</ele>
        <time>2021-02-14T12:37:49.000Z</time>
      </trkpt>
      <trkpt lat="47.12303" lon="-1.79596">
        <ele>76</ele>
        <time>2021-02-14T12:37:51.000Z</time>
      </trkpt>
      <trkpt lat="47.12289" lon="-1.79595">
        <ele>76</ele>
        <time>2021-02-14T12:37:53.000Z</time>
      </trkpt>
      <trkpt lat="47.12277" lon="-1.79595">
        <ele>76</ele>
        <time>2021-02-14T12:37:55.000Z</time>
      </trkpt>
      <trkpt lat="47.12264" lon="-1.79595">
        <ele>76</ele>
        <time>2021-02-14T12:37:57.000Z</time>
      </trkpt>
      <trkpt lat="47.12251" lon="-1.79594">
        <ele>77</ele>
        <time>2021-02-14T12:37:59.000Z</time>
      </trkpt>
      <trkpt lat="47.12238" lon="-1.79594">
        <ele>77</ele>
        <time>2021-02-14T12:38:01.000Z</time>
      </trkpt>
      <trkpt lat="47.12225" lon="-1.79595">
        <ele>77</ele>
        <time>2021-02-14T12:38:03.000Z</time>
      </trkpt>
      <trkpt lat="47.12213" lon="-1.79595">
        <ele>77</ele>
        <time>2021-02-14T12:38:05.000Z</time>
      </trkpt>
      <trkpt lat="47.12194" lon="-1.79594">
        <ele>77</ele>
        <time>2021-02-14T12:38:08.000Z</time>
      </trkpt>
      <trkpt lat="47.12182" lon="-1.79594">
        <ele>77</ele>
        <time>2021-02-14T12:38:10.000Z</time>
      </trkpt>
      <trkpt lat="47.12169" lon="-1.79594">
        <ele>77</ele>
        <time>2021-02-14T12:38:12.000Z</time>
      </trkpt>
      <trkpt lat="47.12157" lon="-1.79593">
        <ele>77</ele>
        <time>2021-02-14T12:38:14.000Z</time>
      </trkpt>
      <trkpt lat="47.12145" lon="-1.79595">
        <ele>77</ele>
        <time>2021-02-14T12:38:16.000Z</time>
      </trkpt>
      <trkpt lat="47.12133" lon="-1.79595">
        <ele>76</ele>
        <time>2021-02-14T12:38:18.000Z</time>
      </trkpt>
      <trkpt lat="47.1212" lon="-1.79596">
        <ele>76</ele>
        <time>2021-02-14T12:38:20.000Z</time>
      </trkpt>
      <trkpt lat="47.121" lon="-1.796">
        <ele>75</ele>
        <time>2021-02-14T12:38:23.000Z</time>
      </trkpt>
      <trkpt lat="47.12088" lon="-1.79607">
        <ele>75</ele>
        <time>2021-02-14T12:38:25.000Z</time>
      </trkpt>
      <trkpt lat="47.12077" lon="-1.79617">
        <ele>74</ele>
        <time>2021-02-14T12:38:27.000Z</time>
      </trkpt>
      <trkpt lat="47.12065" lon="-1.79629">
        <ele>74</ele>
        <time>2021-02-14T12:38:29.000Z</time>
      </trkpt>
      <trkpt lat="47.12054" lon="-1.7964">
        <ele>75</ele>
        <time>2021-02-14T12:38:31.000Z</time>
      </trkpt>
      <trkpt lat="47.12043" lon="-1.79652">
        <ele>75</ele>
        <time>2021-02-14T12:38:33.000Z</time>
      </trkpt>
      <trkpt lat="47.12032" lon="-1.79663">
        <ele>74</ele>
        <time>2021-02-14T12:38:35.000Z</time>
      </trkpt>
      <trkpt lat="47.12021" lon="-1.79674">
        <ele>74</ele>
        <time>2021-02-14T12:38:37.000Z</time>
      </trkpt>
      <trkpt lat="47.1201" lon="-1.79685">
        <ele>73</ele>
        <time>2021-02-14T12:38:39.000Z</time>
      </trkpt>
      <trkpt lat="47.11999" lon="-1.79696">
        <ele>73</ele>
        <time>2021-02-14T12:38:41.000Z</time>
      </trkpt>
      <trkpt lat="47.11988" lon="-1.79707">
        <ele>73</ele>
        <time>2021-02-14T12:38:43.000Z</time>
      </trkpt>
      <trkpt lat="47.11978" lon="-1.79719">
        <ele>73</ele>
        <time>2021-02-14T12:38:45.000Z</time>
      </trkpt>
      <trkpt lat="47.11967" lon="-1.79731">
        <ele>73</ele>
        <time>2021-02-14T12:38:47.000Z</time>
      </trkpt>
      <trkpt lat="47.11957" lon="-1.79744">
        <ele>73</ele>
        <time>2021-02-14T12:38:49.000Z</time>
      </trkpt>
      <trkpt lat="47.11947" lon="-1.79757">
        <ele>72</ele>
        <time>2021-02-14T12:38:51.000Z</time>
      </trkpt>
      <trkpt lat="47.11937" lon="-1.7977">
        <ele>72</ele>
        <time>2021-02-14T12:38:53.000Z</time>
      </trkpt>
      <trkpt lat="47.11926" lon="-1.79783">
        <ele>72</ele>
        <time>2021-02-14T12:38:55.000Z</time>
      </trkpt>
      <trkpt lat="47.11911" lon="-1.79802">
        <ele>71</ele>
        <time>2021-02-14T12:38:58.000Z</time>
      </trkpt>
      <trkpt lat="47.119" lon="-1.79816">
        <ele>71</ele>
        <time>2021-02-14T12:39:00.000Z</time>
      </trkpt>
      <trkpt lat="47.11889" lon="-1.79828">
        <ele>71</ele>
        <time>2021-02-14T12:39:02.000Z</time>
      </trkpt>
      <trkpt lat="47.11878" lon="-1.7984">
        <ele>71</ele>
        <time>2021-02-14T12:39:04.000Z</time>
      </trkpt>
      <trkpt lat="47.11867" lon="-1.79852">
        <ele>71</ele>
        <time>2021-02-14T12:39:06.000Z</time>
      </trkpt>
      <trkpt lat="47.11856" lon="-1.79864">
        <ele>71</ele>
        <time>2021-02-14T12:39:08.000Z</time>
      </trkpt>
      <trkpt lat="47.11845" lon="-1.79876">
        <ele>70</ele>
        <time>2021-02-14T12:39:10.000Z</time>
      </trkpt>
      <trkpt lat="47.11834" lon="-1.79888">
        <ele>71</ele>
        <time>2021-02-14T12:39:12.000Z</time>
      </trkpt>
      <trkpt lat="47.11824" lon="-1.79899">
        <ele>71</ele>
        <time>2021-02-14T12:39:14.000Z</time>
      </trkpt>
      <trkpt lat="47.11814" lon="-1.79911">
        <ele>70</ele>
        <time>2021-02-14T12:39:16.000Z</time>
      </trkpt>
      <trkpt lat="47.11804" lon="-1.79922">
        <ele>70</ele>
        <time>2021-02-14T12:39:18.000Z</time>
      </trkpt>
      <trkpt lat="47.11789" lon="-1.79937">
        <ele>71</ele>
        <time>2021-02-14T12:39:21.000Z</time>
      </trkpt>
      <trkpt lat="47.11781" lon="-1.79948">
        <ele>70</ele>
        <time>2021-02-14T12:39:23.000Z</time>
      </trkpt>
      <trkpt lat="47.11773" lon="-1.79956">
        <ele>70</ele>
        <time>2021-02-14T12:39:25.000Z</time>
      </trkpt>
      <trkpt lat="47.11766" lon="-1.79969">
        <ele>71</ele>
        <time>2021-02-14T12:39:28.000Z</time>
      </trkpt>
      <trkpt lat="47.11754" lon="-1.79978">
        <ele>71</ele>
        <time>2021-02-14T12:39:31.000Z</time>
      </trkpt>
      <trkpt lat="47.11741" lon="-1.79976">
        <ele>70</ele>
        <time>2021-02-14T12:39:33.000Z</time>
      </trkpt>
      <trkpt lat="47.11728" lon="-1.79973">
        <ele>71</ele>
        <time>2021-02-14T12:39:35.000Z</time>
      </trkpt>
      <trkpt lat="47.11715" lon="-1.79971">
        <ele>71</ele>
        <time>2021-02-14T12:39:37.000Z</time>
      </trkpt>
      <trkpt lat="47.11703" lon="-1.79969">
        <ele>71</ele>
        <time>2021-02-14T12:39:39.000Z</time>
      </trkpt>
      <trkpt lat="47.1169" lon="-1.79968">
        <ele>71</ele>
        <time>2021-02-14T12:39:41.000Z</time>
      </trkpt>
      <trkpt lat="47.11677" lon="-1.79966">
        <ele>71</ele>
        <time>2021-02-14T12:39:43.000Z</time>
      </trkpt>
      <trkpt lat="47.11664" lon="-1.79964">
        <ele>71</ele>
        <time>2021-02-14T12:39:45.000Z</time>
      </trkpt>
      <trkpt lat="47.11651" lon="-1.79962">
        <ele>71</ele>
        <time>2021-02-14T12:39:47.000Z</time>
      </trkpt>
      <trkpt lat="47.11639" lon="-1.79961">
        <ele>71</ele>
        <time>2021-02-14T12:39:49.000Z</time>
      </trkpt>
      <trkpt lat="47.11626" lon="-1.79959">
        <ele>71</ele>
        <time>2021-02-14T12:39:51.000Z</time>
      </trkpt>
      <trkpt lat="47.11614" lon="-1.79957">
        <ele>71</ele>
        <time>2021-02-14T12:39:53.000Z</time>
      </trkpt>
      <trkpt lat="47.11596" lon="-1.79954">
        <ele>71</ele>
        <time>2021-02-14T12:39:56.000Z</time>
      </trkpt>
      <trkpt lat="47.11583" lon="-1.79953">
        <ele>71</ele>
        <time>2021-02-14T12:39:58.000Z</time>
      </trkpt>
      <trkpt lat="47.1157" lon="-1.79953">
        <ele>71</ele>
        <time>2021-02-14T12:40:00.000Z</time>
      </trkpt>
      <trkpt lat="47.11558" lon="-1.79957">
        <ele>71</ele>
        <time>2021-02-14T12:40:02.000Z</time>
      </trkpt>
      <trkpt lat="47.11546" lon="-1.79963">
        <ele>71</ele>
        <time>2021-02-14T12:40:04.000Z</time>
      </trkpt>
      <trkpt lat="47.11535" lon="-1.79972">
        <ele>71</ele>
        <time>2021-02-14T12:40:06.000Z</time>
      </trkpt>
      <trkpt lat="47.11525" lon="-1.79982">
        <ele>70</ele>
        <time>2021-02-14T12:40:08.000Z</time>
      </trkpt>
      <trkpt lat="47.11515" lon="-1.79993">
        <ele>70</ele>
        <time>2021-02-14T12:40:10.000Z</time>
      </trkpt>
      <trkpt lat="47.11505" lon="-1.80005">
        <ele>69</ele>
        <time>2021-02-14T12:40:12.000Z</time>
      </trkpt>
      <trkpt lat="47.11495" lon="-1.80018">
        <ele>70</ele>
        <time>2021-02-14T12:40:14.000Z</time>
      </trkpt>
      <trkpt lat="47.11486" lon="-1.80031">
        <ele>70</ele>
        <time>2021-02-14T12:40:16.000Z</time>
      </trkpt>
      <trkpt lat="47.11476" lon="-1.80044">
        <ele>69</ele>
        <time>2021-02-14T12:40:18.000Z</time>
      </trkpt>
      <trkpt lat="47.11467" lon="-1.80057">
        <ele>69</ele>
        <time>2021-02-14T12:40:20.000Z</time>
      </trkpt>
      <trkpt lat="47.11457" lon="-1.80069">
        <ele>69</ele>
        <time>2021-02-14T12:40:22.000Z</time>
      </trkpt>
      <trkpt lat="47.11448" lon="-1.80082">
        <ele>69</ele>
        <time>2021-02-14T12:40:24.000Z</time>
      </trkpt>
      <trkpt lat="47.11438" lon="-1.80095">
        <ele>69</ele>
        <time>2021-02-14T12:40:26.000Z</time>
      </trkpt>
      <trkpt lat="47.11428" lon="-1.80108">
        <ele>69</ele>
        <time>2021-02-14T12:40:28.000Z</time>
      </trkpt>
      <trkpt lat="47.11414" lon="-1.80128">
        <ele>68</ele>
        <time>2021-02-14T12:40:31.000Z</time>
      </trkpt>
      <trkpt lat="47.11403" lon="-1.80141">
        <ele>68</ele>
        <time>2021-02-14T12:40:33.000Z</time>
      </trkpt>
      <trkpt lat="47.11394" lon="-1.80154">
        <ele>68</ele>
        <time>2021-02-14T12:40:35.000Z</time>
      </trkpt>
      <trkpt lat="47.11385" lon="-1.80168">
        <ele>68</ele>
        <time>2021-02-14T12:40:37.000Z</time>
      </trkpt>
      <trkpt lat="47.11374" lon="-1.80181">
        <ele>68</ele>
        <time>2021-02-14T12:40:39.000Z</time>
      </trkpt>
      <trkpt lat="47.11363" lon="-1.80194">
        <ele>67</ele>
        <time>2021-02-14T12:40:41.000Z</time>
      </trkpt>
      <trkpt lat="47.11353" lon="-1.80208">
        <ele>67</ele>
        <time>2021-02-14T12:40:43.000Z</time>
      </trkpt>
      <trkpt lat="47.11343" lon="-1.80223">
        <ele>67</ele>
        <time>2021-02-14T12:40:45.000Z</time>
      </trkpt>
      <trkpt lat="47.11333" lon="-1.80237">
        <ele>66</ele>
        <time>2021-02-14T12:40:47.000Z</time>
      </trkpt>
      <trkpt lat="47.11323" lon="-1.80251">
        <ele>66</ele>
        <time>2021-02-14T12:40:49.000Z</time>
      </trkpt>
      <trkpt lat="47.11312" lon="-1.80265">
        <ele>66</ele>
        <time>2021-02-14T12:40:51.000Z</time>
      </trkpt>
      <trkpt lat="47.11302" lon="-1.80279">
        <ele>66</ele>
        <time>2021-02-14T12:40:53.000Z</time>
      </trkpt>
      <trkpt lat="47.11291" lon="-1.80293">
        <ele>66</ele>
        <time>2021-02-14T12:40:55.000Z</time>
      </trkpt>
      <trkpt lat="47.11281" lon="-1.80308">
        <ele>65</ele>
        <time>2021-02-14T12:40:57.000Z</time>
      </trkpt>
      <trkpt lat="47.11272" lon="-1.80323">
        <ele>65</ele>
        <time>2021-02-14T12:40:59.000Z</time>
      </trkpt>
      <trkpt lat="47.11261" lon="-1.80336">
        <ele>64</ele>
        <time>2021-02-14T12:41:01.000Z</time>
      </trkpt>
      <trkpt lat="47.1125" lon="-1.8035">
        <ele>64</ele>
        <time>2021-02-14T12:41:03.000Z</time>
      </trkpt>
      <trkpt lat="47.11239" lon="-1.80363">
        <ele>64</ele>
        <time>2021-02-14T12:41:05.000Z</time>
      </trkpt>
      <trkpt lat="47.11229" lon="-1.80376">
        <ele>64</ele>
        <time>2021-02-14T12:41:07.000Z</time>
      </trkpt>
      <trkpt lat="47.11219" lon="-1.80389">
        <ele>64</ele>
        <time>2021-02-14T12:41:09.000Z</time>
      </trkpt>
      <trkpt lat="47.11208" lon="-1.80401">
        <ele>64</ele>
        <time>2021-02-14T12:41:11.000Z</time>
      </trkpt>
      <trkpt lat="47.11197" lon="-1.80412">
        <ele>64</ele>
        <time>2021-02-14T12:41:13.000Z</time>
      </trkpt>
      <trkpt lat="47.11186" lon="-1.80423">
        <ele>64</ele>
        <time>2021-02-14T12:41:15.000Z</time>
      </trkpt>
      <trkpt lat="47.11175" lon="-1.80432">
        <ele>64</ele>
        <time>2021-02-14T12:41:17.000Z</time>
      </trkpt>
      <trkpt lat="47.11163" lon="-1.8044">
        <ele>64</ele>
        <time>2021-02-14T12:41:19.000Z</time>
      </trkpt>
      <trkpt lat="47.11152" lon="-1.80448">
        <ele>64</ele>
        <time>2021-02-14T12:41:21.000Z</time>
      </trkpt>
      <trkpt lat="47.1114" lon="-1.80455">
        <ele>64</ele>
        <time>2021-02-14T12:41:23.000Z</time>
      </trkpt>
      <trkpt lat="47.11128" lon="-1.80463">
        <ele>64</ele>
        <time>2021-02-14T12:41:25.000Z</time>
      </trkpt>
      <trkpt lat="47.11117" lon="-1.8047">
        <ele>64</ele>
        <time>2021-02-14T12:41:27.000Z</time>
      </trkpt>
      <trkpt lat="47.11105" lon="-1.80479">
        <ele>64</ele>
        <time>2021-02-14T12:41:29.000Z</time>
      </trkpt>
      <trkpt lat="47.11092" lon="-1.80487">
        <ele>64</ele>
        <time>2021-02-14T12:41:31.000Z</time>
      </trkpt>
      <trkpt lat="47.11081" lon="-1.80495">
        <ele>65</ele>
        <time>2021-02-14T12:41:33.000Z</time>
      </trkpt>
      <trkpt lat="47.11064" lon="-1.80506">
        <ele>65</ele>
        <time>2021-02-14T12:41:36.000Z</time>
      </trkpt>
      <trkpt lat="47.11054" lon="-1.80513">
        <ele>65</ele>
        <time>2021-02-14T12:41:38.000Z</time>
      </trkpt>
      <trkpt lat="47.11042" lon="-1.8052">
        <ele>65</ele>
        <time>2021-02-14T12:41:40.000Z</time>
      </trkpt>
      <trkpt lat="47.11031" lon="-1.80527">
        <ele>65</ele>
        <time>2021-02-14T12:41:42.000Z</time>
      </trkpt>
      <trkpt lat="47.11019" lon="-1.80535">
        <ele>65</ele>
        <time>2021-02-14T12:41:44.000Z</time>
      </trkpt>
      <trkpt lat="47.11008" lon="-1.80542">
        <ele>65</ele>
        <time>2021-02-14T12:41:46.000Z</time>
      </trkpt>
      <trkpt lat="47.10997" lon="-1.80549">
        <ele>65</ele>
        <time>2021-02-14T12:41:48.000Z</time>
      </trkpt>
      <trkpt lat="47.10986" lon="-1.80557">
        <ele>65</ele>
        <time>2021-02-14T12:41:50.000Z</time>
      </trkpt>
      <trkpt lat="47.10975" lon="-1.80565">
        <ele>65</ele>
        <time>2021-02-14T12:41:52.000Z</time>
      </trkpt>
      <trkpt lat="47.10964" lon="-1.80573">
        <ele>64</ele>
        <time>2021-02-14T12:41:54.000Z</time>
      </trkpt>
      <trkpt lat="47.10953" lon="-1.80581">
        <ele>64</ele>
        <time>2021-02-14T12:41:56.000Z</time>
      </trkpt>
      <trkpt lat="47.10941" lon="-1.80588">
        <ele>64</ele>
        <time>2021-02-14T12:41:58.000Z</time>
      </trkpt>
      <trkpt lat="47.1093" lon="-1.80595">
        <ele>64</ele>
        <time>2021-02-14T12:42:00.000Z</time>
      </trkpt>
      <trkpt lat="47.10919" lon="-1.80603">
        <ele>64</ele>
        <time>2021-02-14T12:42:02.000Z</time>
      </trkpt>
      <trkpt lat="47.10908" lon="-1.8061">
        <ele>64</ele>
        <time>2021-02-14T12:42:04.000Z</time>
      </trkpt>
      <trkpt lat="47.10896" lon="-1.80617">
        <ele>64</ele>
        <time>2021-02-14T12:42:06.000Z</time>
      </trkpt>
      <trkpt lat="47.10884" lon="-1.80624">
        <ele>63</ele>
        <time>2021-02-14T12:42:08.000Z</time>
      </trkpt>
      <trkpt lat="47.10873" lon="-1.80632">
        <ele>64</ele>
        <time>2021-02-14T12:42:10.000Z</time>
      </trkpt>
      <trkpt lat="47.10861" lon="-1.80637">
        <ele>64</ele>
        <time>2021-02-14T12:42:12.000Z</time>
      </trkpt>
      <trkpt lat="47.10849" lon="-1.80643">
        <ele>64</ele>
        <time>2021-02-14T12:42:14.000Z</time>
      </trkpt>
      <trkpt lat="47.10837" lon="-1.80647">
        <ele>64</ele>
        <time>2021-02-14T12:42:16.000Z</time>
      </trkpt>
      <trkpt lat="47.10825" lon="-1.80652">
        <ele>63</ele>
        <time>2021-02-14T12:42:18.000Z</time>
      </trkpt>
      <trkpt lat="47.10812" lon="-1.80657">
        <ele>63</ele>
        <time>2021-02-14T12:42:20.000Z</time>
      </trkpt>
      <trkpt lat="47.10799" lon="-1.80662">
        <ele>63</ele>
        <time>2021-02-14T12:42:22.000Z</time>
      </trkpt>
      <trkpt lat="47.10786" lon="-1.80667">
        <ele>63</ele>
        <time>2021-02-14T12:42:24.000Z</time>
      </trkpt>
      <trkpt lat="47.10773" lon="-1.80671">
        <ele>63</ele>
        <time>2021-02-14T12:42:26.000Z</time>
      </trkpt>
      <trkpt lat="47.10761" lon="-1.80675">
        <ele>62</ele>
        <time>2021-02-14T12:42:28.000Z</time>
      </trkpt>
      <trkpt lat="47.10748" lon="-1.80678">
        <ele>62</ele>
        <time>2021-02-14T12:42:30.000Z</time>
      </trkpt>
      <trkpt lat="47.10735" lon="-1.80681">
        <ele>63</ele>
        <time>2021-02-14T12:42:32.000Z</time>
      </trkpt>
      <trkpt lat="47.10723" lon="-1.80683">
        <ele>62</ele>
        <time>2021-02-14T12:42:34.000Z</time>
      </trkpt>
      <trkpt lat="47.1071" lon="-1.80685">
        <ele>62</ele>
        <time>2021-02-14T12:42:36.000Z</time>
      </trkpt>
      <trkpt lat="47.10697" lon="-1.80687">
        <ele>62</ele>
        <time>2021-02-14T12:42:38.000Z</time>
      </trkpt>
      <trkpt lat="47.10684" lon="-1.80688">
        <ele>63</ele>
        <time>2021-02-14T12:42:40.000Z</time>
      </trkpt>
      <trkpt lat="47.10672" lon="-1.80689">
        <ele>63</ele>
        <time>2021-02-14T12:42:42.000Z</time>
      </trkpt>
      <trkpt lat="47.10659" lon="-1.8069">
        <ele>63</ele>
        <time>2021-02-14T12:42:44.000Z</time>
      </trkpt>
      <trkpt lat="47.10646" lon="-1.80692">
        <ele>63</ele>
        <time>2021-02-14T12:42:46.000Z</time>
      </trkpt>
      <trkpt lat="47.10634" lon="-1.80694">
        <ele>63</ele>
        <time>2021-02-14T12:42:48.000Z</time>
      </trkpt>
      <trkpt lat="47.10621" lon="-1.80697">
        <ele>63</ele>
        <time>2021-02-14T12:42:50.000Z</time>
      </trkpt>
      <trkpt lat="47.10609" lon="-1.80702">
        <ele>63</ele>
        <time>2021-02-14T12:42:52.000Z</time>
      </trkpt>
      <trkpt lat="47.10596" lon="-1.80707">
        <ele>63</ele>
        <time>2021-02-14T12:42:54.000Z</time>
      </trkpt>
      <trkpt lat="47.10585" lon="-1.80715">
        <ele>62</ele>
        <time>2021-02-14T12:42:56.000Z</time>
      </trkpt>
      <trkpt lat="47.10574" lon="-1.80725">
        <ele>62</ele>
        <time>2021-02-14T12:42:58.000Z</time>
      </trkpt>
      <trkpt lat="47.10563" lon="-1.80735">
        <ele>62</ele>
        <time>2021-02-14T12:43:00.000Z</time>
      </trkpt>
      <trkpt lat="47.10553" lon="-1.80747">
        <ele>62</ele>
        <time>2021-02-14T12:43:02.000Z</time>
      </trkpt>
      <trkpt lat="47.10543" lon="-1.80758">
        <ele>62</ele>
        <time>2021-02-14T12:43:04.000Z</time>
      </trkpt>
      <trkpt lat="47.10534" lon="-1.8077">
        <ele>62</ele>
        <time>2021-02-14T12:43:06.000Z</time>
      </trkpt>
      <trkpt lat="47.10524" lon="-1.80782">
        <ele>62</ele>
        <time>2021-02-14T12:43:08.000Z</time>
      </trkpt>
      <trkpt lat="47.10516" lon="-1.80796">
        <ele>61</ele>
        <time>2021-02-14T12:43:10.000Z</time>
      </trkpt>
      <trkpt lat="47.10505" lon="-1.80808">
        <ele>61</ele>
        <time>2021-02-14T12:43:12.000Z</time>
      </trkpt>
      <trkpt lat="47.10493" lon="-1.80816">
        <ele>60</ele>
        <time>2021-02-14T12:43:14.000Z</time>
      </trkpt>
      <trkpt lat="47.10482" lon="-1.80828">
        <ele>60</ele>
        <time>2021-02-14T12:43:16.000Z</time>
      </trkpt>
      <trkpt lat="47.10472" lon="-1.80841">
        <ele>60</ele>
        <time>2021-02-14T12:43:18.000Z</time>
      </trkpt>
      <trkpt lat="47.10464" lon="-1.80856">
        <ele>60</ele>
        <time>2021-02-14T12:43:20.000Z</time>
      </trkpt>
      <trkpt lat="47.10455" lon="-1.8087">
        <ele>61</ele>
        <time>2021-02-14T12:43:22.000Z</time>
      </trkpt>
      <trkpt lat="47.10446" lon="-1.80885">
        <ele>61</ele>
        <time>2021-02-14T12:43:24.000Z</time>
      </trkpt>
      <trkpt lat="47.10438" lon="-1.80899">
        <ele>61</ele>
        <time>2021-02-14T12:43:26.000Z</time>
      </trkpt>
      <trkpt lat="47.1043" lon="-1.80912">
        <ele>61</ele>
        <time>2021-02-14T12:43:28.000Z</time>
      </trkpt>
      <trkpt lat="47.10422" lon="-1.80926">
        <ele>61</ele>
        <time>2021-02-14T12:43:30.000Z</time>
      </trkpt>
      <trkpt lat="47.10414" lon="-1.80938">
        <ele>61</ele>
        <time>2021-02-14T12:43:32.000Z</time>
      </trkpt>
      <trkpt lat="47.10406" lon="-1.8095">
        <ele>61</ele>
        <time>2021-02-14T12:43:34.000Z</time>
      </trkpt>
      <trkpt lat="47.10399" lon="-1.80962">
        <ele>61</ele>
        <time>2021-02-14T12:43:36.000Z</time>
      </trkpt>
      <trkpt lat="47.10391" lon="-1.80973">
        <ele>61</ele>
        <time>2021-02-14T12:43:38.000Z</time>
      </trkpt>
      <trkpt lat="47.10385" lon="-1.80984">
        <ele>61</ele>
        <time>2021-02-14T12:43:40.000Z</time>
      </trkpt>
      <trkpt lat="47.10379" lon="-1.80995">
        <ele>62</ele>
        <time>2021-02-14T12:43:42.000Z</time>
      </trkpt>
      <trkpt lat="47.10374" lon="-1.81009">
        <ele>62</ele>
        <time>2021-02-14T12:43:44.000Z</time>
      </trkpt>
      <trkpt lat="47.10371" lon="-1.81023">
        <ele>62</ele>
        <time>2021-02-14T12:43:46.000Z</time>
      </trkpt>
      <trkpt lat="47.10366" lon="-1.81034">
        <ele>62</ele>
        <time>2021-02-14T12:43:48.000Z</time>
      </trkpt>
      <trkpt lat="47.10359" lon="-1.81044">
        <ele>62</ele>
        <time>2021-02-14T12:43:50.000Z</time>
      </trkpt>
      <trkpt lat="47.10349" lon="-1.81036">
        <ele>62</ele>
        <time>2021-02-14T12:43:52.000Z</time>
      </trkpt>
      <trkpt lat="47.10339" lon="-1.81022">
        <ele>62</ele>
        <time>2021-02-14T12:43:54.000Z</time>
      </trkpt>
      <trkpt lat="47.10329" lon="-1.8101">
        <ele>63</ele>
        <time>2021-02-14T12:43:56.000Z</time>
      </trkpt>
      <trkpt lat="47.10318" lon="-1.81004">
        <ele>62</ele>
        <time>2021-02-14T12:43:58.000Z</time>
      </trkpt>
      <trkpt lat="47.10307" lon="-1.81002">
        <ele>62</ele>
        <time>2021-02-14T12:44:00.000Z</time>
      </trkpt>
      <trkpt lat="47.10296" lon="-1.81003">
        <ele>61</ele>
        <time>2021-02-14T12:44:02.000Z</time>
      </trkpt>
      <trkpt lat="47.10283" lon="-1.81">
        <ele>60</ele>
        <time>2021-02-14T12:44:04.000Z</time>
      </trkpt>
      <trkpt lat="47.10271" lon="-1.80999">
        <ele>60</ele>
        <time>2021-02-14T12:44:06.000Z</time>
      </trkpt>
      <trkpt lat="47.10259" lon="-1.81002">
        <ele>60</ele>
        <time>2021-02-14T12:44:08.000Z</time>
      </trkpt>
      <trkpt lat="47.10247" lon="-1.81004">
        <ele>60</ele>
        <time>2021-02-14T12:44:10.000Z</time>
      </trkpt>
      <trkpt lat="47.10233" lon="-1.81007">
        <ele>60</ele>
        <time>2021-02-14T12:44:12.000Z</time>
      </trkpt>
      <trkpt lat="47.10219" lon="-1.81007">
        <ele>61</ele>
        <time>2021-02-14T12:44:14.000Z</time>
      </trkpt>
      <trkpt lat="47.10207" lon="-1.81002">
        <ele>61</ele>
        <time>2021-02-14T12:44:16.000Z</time>
      </trkpt>
      <trkpt lat="47.10194" lon="-1.80997">
        <ele>61</ele>
        <time>2021-02-14T12:44:18.000Z</time>
      </trkpt>
      <trkpt lat="47.10182" lon="-1.80991">
        <ele>60</ele>
        <time>2021-02-14T12:44:20.000Z</time>
      </trkpt>
      <trkpt lat="47.1017" lon="-1.80986">
        <ele>60</ele>
        <time>2021-02-14T12:44:22.000Z</time>
      </trkpt>
      <trkpt lat="47.10158" lon="-1.8098">
        <ele>59</ele>
        <time>2021-02-14T12:44:24.000Z</time>
      </trkpt>
      <trkpt lat="47.10148" lon="-1.80974">
        <ele>59</ele>
        <time>2021-02-14T12:44:26.000Z</time>
      </trkpt>
      <trkpt lat="47.10138" lon="-1.80971">
        <ele>58</ele>
        <time>2021-02-14T12:44:28.000Z</time>
      </trkpt>
      <trkpt lat="47.10128" lon="-1.80969">
        <ele>58</ele>
        <time>2021-02-14T12:44:30.000Z</time>
      </trkpt>
      <trkpt lat="47.10116" lon="-1.80969">
        <ele>58</ele>
        <time>2021-02-14T12:44:32.000Z</time>
      </trkpt>
      <trkpt lat="47.10104" lon="-1.80969">
        <ele>58</ele>
        <time>2021-02-14T12:44:34.000Z</time>
      </trkpt>
      <trkpt lat="47.10093" lon="-1.8097">
        <ele>58</ele>
        <time>2021-02-14T12:44:36.000Z</time>
      </trkpt>
      <trkpt lat="47.10081" lon="-1.8097">
        <ele>58</ele>
        <time>2021-02-14T12:44:38.000Z</time>
      </trkpt>
      <trkpt lat="47.1007" lon="-1.80969">
        <ele>57</ele>
        <time>2021-02-14T12:44:40.000Z</time>
      </trkpt>
      <trkpt lat="47.10059" lon="-1.80971">
        <ele>58</ele>
        <time>2021-02-14T12:44:42.000Z</time>
      </trkpt>
      <trkpt lat="47.10048" lon="-1.80971">
        <ele>58</ele>
        <time>2021-02-14T12:44:44.000Z</time>
      </trkpt>
      <trkpt lat="47.10036" lon="-1.80972">
        <ele>58</ele>
        <time>2021-02-14T12:44:46.000Z</time>
      </trkpt>
      <trkpt lat="47.10024" lon="-1.80974">
        <ele>58</ele>
        <time>2021-02-14T12:44:48.000Z</time>
      </trkpt>
      <trkpt lat="47.10012" lon="-1.80974">
        <ele>58</ele>
        <time>2021-02-14T12:44:50.000Z</time>
      </trkpt>
      <trkpt lat="47.10001" lon="-1.80975">
        <ele>59</ele>
        <time>2021-02-14T12:44:52.000Z</time>
      </trkpt>
      <trkpt lat="47.0999" lon="-1.80975">
        <ele>59</ele>
        <time>2021-02-14T12:44:54.000Z</time>
      </trkpt>
      <trkpt lat="47.09978" lon="-1.80976">
        <ele>59</ele>
        <time>2021-02-14T12:44:56.000Z</time>
      </trkpt>
      <trkpt lat="47.09966" lon="-1.80976">
        <ele>60</ele>
        <time>2021-02-14T12:44:58.000Z</time>
      </trkpt>
      <trkpt lat="47.09955" lon="-1.80977">
        <ele>60</ele>
        <time>2021-02-14T12:45:00.000Z</time>
      </trkpt>
      <trkpt lat="47.09944" lon="-1.80979">
        <ele>61</ele>
        <time>2021-02-14T12:45:02.000Z</time>
      </trkpt>
      <trkpt lat="47.09932" lon="-1.80981">
        <ele>61</ele>
        <time>2021-02-14T12:45:04.000Z</time>
      </trkpt>
      <trkpt lat="47.0992" lon="-1.80982">
        <ele>61</ele>
        <time>2021-02-14T12:45:06.000Z</time>
      </trkpt>
      <trkpt lat="47.09909" lon="-1.80983">
        <ele>62</ele>
        <time>2021-02-14T12:45:08.000Z</time>
      </trkpt>
      <trkpt lat="47.09896" lon="-1.80983">
        <ele>62</ele>
        <time>2021-02-14T12:45:10.000Z</time>
      </trkpt>
      <trkpt lat="47.09884" lon="-1.80984">
        <ele>63</ele>
        <time>2021-02-14T12:45:12.000Z</time>
      </trkpt>
      <trkpt lat="47.09873" lon="-1.80984">
        <ele>63</ele>
        <time>2021-02-14T12:45:14.000Z</time>
      </trkpt>
      <trkpt lat="47.09861" lon="-1.80984">
        <ele>64</ele>
        <time>2021-02-14T12:45:16.000Z</time>
      </trkpt>
      <trkpt lat="47.0985" lon="-1.80985">
        <ele>64</ele>
        <time>2021-02-14T12:45:18.000Z</time>
      </trkpt>
      <trkpt lat="47.09839" lon="-1.80985">
        <ele>64</ele>
        <time>2021-02-14T12:45:20.000Z</time>
      </trkpt>
      <trkpt lat="47.09828" lon="-1.80985">
        <ele>63</ele>
        <time>2021-02-14T12:45:22.000Z</time>
      </trkpt>
      <trkpt lat="47.09818" lon="-1.80987">
        <ele>63</ele>
        <time>2021-02-14T12:45:24.000Z</time>
      </trkpt>
      <trkpt lat="47.09807" lon="-1.80988">
        <ele>63</ele>
        <time>2021-02-14T12:45:26.000Z</time>
      </trkpt>
      <trkpt lat="47.09797" lon="-1.80989">
        <ele>63</ele>
        <time>2021-02-14T12:45:28.000Z</time>
      </trkpt>
      <trkpt lat="47.09787" lon="-1.80988">
        <ele>63</ele>
        <time>2021-02-14T12:45:30.000Z</time>
      </trkpt>
      <trkpt lat="47.09776" lon="-1.80987">
        <ele>63</ele>
        <time>2021-02-14T12:45:32.000Z</time>
      </trkpt>
      <trkpt lat="47.09765" lon="-1.80985">
        <ele>63</ele>
        <time>2021-02-14T12:45:34.000Z</time>
      </trkpt>
      <trkpt lat="47.09754" lon="-1.80982">
        <ele>63</ele>
        <time>2021-02-14T12:45:36.000Z</time>
      </trkpt>
      <trkpt lat="47.09743" lon="-1.80979">
        <ele>63</ele>
        <time>2021-02-14T12:45:38.000Z</time>
      </trkpt>
      <trkpt lat="47.09732" lon="-1.80976">
        <ele>63</ele>
        <time>2021-02-14T12:45:40.000Z</time>
      </trkpt>
      <trkpt lat="47.09721" lon="-1.80973">
        <ele>63</ele>
        <time>2021-02-14T12:45:42.000Z</time>
      </trkpt>
      <trkpt lat="47.0971" lon="-1.80971">
        <ele>62</ele>
        <time>2021-02-14T12:45:44.000Z</time>
      </trkpt>
      <trkpt lat="47.09699" lon="-1.8097">
        <ele>62</ele>
        <time>2021-02-14T12:45:46.000Z</time>
      </trkpt>
      <trkpt lat="47.09688" lon="-1.80967">
        <ele>62</ele>
        <time>2021-02-14T12:45:48.000Z</time>
      </trkpt>
      <trkpt lat="47.09677" lon="-1.80965">
        <ele>62</ele>
        <time>2021-02-14T12:45:50.000Z</time>
      </trkpt>
      <trkpt lat="47.09666" lon="-1.80962">
        <ele>61</ele>
        <time>2021-02-14T12:45:52.000Z</time>
      </trkpt>
      <trkpt lat="47.09655" lon="-1.8096">
        <ele>61</ele>
        <time>2021-02-14T12:45:54.000Z</time>
      </trkpt>
      <trkpt lat="47.09643" lon="-1.80958">
        <ele>61</ele>
        <time>2021-02-14T12:45:56.000Z</time>
      </trkpt>
      <trkpt lat="47.09632" lon="-1.80955">
        <ele>61</ele>
        <time>2021-02-14T12:45:58.000Z</time>
      </trkpt>
      <trkpt lat="47.09621" lon="-1.80952">
        <ele>61</ele>
        <time>2021-02-14T12:46:00.000Z</time>
      </trkpt>
      <trkpt lat="47.0961" lon="-1.8095">
        <ele>61</ele>
        <time>2021-02-14T12:46:02.000Z</time>
      </trkpt>
      <trkpt lat="47.09599" lon="-1.80948">
        <ele>60</ele>
        <time>2021-02-14T12:46:04.000Z</time>
      </trkpt>
      <trkpt lat="47.09587" lon="-1.80943">
        <ele>60</ele>
        <time>2021-02-14T12:46:06.000Z</time>
      </trkpt>
      <trkpt lat="47.09576" lon="-1.8094">
        <ele>60</ele>
        <time>2021-02-14T12:46:08.000Z</time>
      </trkpt>
      <trkpt lat="47.09564" lon="-1.80938">
        <ele>60</ele>
        <time>2021-02-14T12:46:10.000Z</time>
      </trkpt>
      <trkpt lat="47.09553" lon="-1.80935">
        <ele>60</ele>
        <time>2021-02-14T12:46:12.000Z</time>
      </trkpt>
      <trkpt lat="47.09541" lon="-1.80933">
        <ele>60</ele>
        <time>2021-02-14T12:46:14.000Z</time>
      </trkpt>
      <trkpt lat="47.0953" lon="-1.8093">
        <ele>60</ele>
        <time>2021-02-14T12:46:16.000Z</time>
      </trkpt>
      <trkpt lat="47.09519" lon="-1.80927">
        <ele>60</ele>
        <time>2021-02-14T12:46:18.000Z</time>
      </trkpt>
      <trkpt lat="47.09507" lon="-1.80925">
        <ele>60</ele>
        <time>2021-02-14T12:46:20.000Z</time>
      </trkpt>
      <trkpt lat="47.09496" lon="-1.80924">
        <ele>59</ele>
        <time>2021-02-14T12:46:22.000Z</time>
      </trkpt>
      <trkpt lat="47.09485" lon="-1.80925">
        <ele>59</ele>
        <time>2021-02-14T12:46:24.000Z</time>
      </trkpt>
      <trkpt lat="47.09474" lon="-1.8093">
        <ele>59</ele>
        <time>2021-02-14T12:46:26.000Z</time>
      </trkpt>
      <trkpt lat="47.09462" lon="-1.80936">
        <ele>59</ele>
        <time>2021-02-14T12:46:28.000Z</time>
      </trkpt>
      <trkpt lat="47.09452" lon="-1.80941">
        <ele>60</ele>
        <time>2021-02-14T12:46:30.000Z</time>
      </trkpt>
      <trkpt lat="47.09441" lon="-1.80948">
        <ele>60</ele>
        <time>2021-02-14T12:46:32.000Z</time>
      </trkpt>
      <trkpt lat="47.09431" lon="-1.80955">
        <ele>59</ele>
        <time>2021-02-14T12:46:34.000Z</time>
      </trkpt>
      <trkpt lat="47.0942" lon="-1.80962">
        <ele>59</ele>
        <time>2021-02-14T12:46:36.000Z</time>
      </trkpt>
      <trkpt lat="47.09409" lon="-1.80968">
        <ele>59</ele>
        <time>2021-02-14T12:46:38.000Z</time>
      </trkpt>
      <trkpt lat="47.09397" lon="-1.80975">
        <ele>59</ele>
        <time>2021-02-14T12:46:40.000Z</time>
      </trkpt>
      <trkpt lat="47.09386" lon="-1.80982">
        <ele>58</ele>
        <time>2021-02-14T12:46:42.000Z</time>
      </trkpt>
      <trkpt lat="47.09374" lon="-1.80989">
        <ele>57</ele>
        <time>2021-02-14T12:46:44.000Z</time>
      </trkpt>
      <trkpt lat="47.09362" lon="-1.80996">
        <ele>57</ele>
        <time>2021-02-14T12:46:46.000Z</time>
      </trkpt>
      <trkpt lat="47.09351" lon="-1.81003">
        <ele>56</ele>
        <time>2021-02-14T12:46:48.000Z</time>
      </trkpt>
      <trkpt lat="47.09339" lon="-1.8101">
        <ele>56</ele>
        <time>2021-02-14T12:46:50.000Z</time>
      </trkpt>
      <trkpt lat="47.09327" lon="-1.81017">
        <ele>55</ele>
        <time>2021-02-14T12:46:52.000Z</time>
      </trkpt>
      <trkpt lat="47.09315" lon="-1.81024">
        <ele>55</ele>
        <time>2021-02-14T12:46:54.000Z</time>
      </trkpt>
      <trkpt lat="47.09303" lon="-1.81032">
        <ele>55</ele>
        <time>2021-02-14T12:46:56.000Z</time>
      </trkpt>
      <trkpt lat="47.09292" lon="-1.81039">
        <ele>55</ele>
        <time>2021-02-14T12:46:58.000Z</time>
      </trkpt>
      <trkpt lat="47.0928" lon="-1.81046">
        <ele>54</ele>
        <time>2021-02-14T12:47:00.000Z</time>
      </trkpt>
      <trkpt lat="47.09267" lon="-1.81052">
        <ele>54</ele>
        <time>2021-02-14T12:47:02.000Z</time>
      </trkpt>
      <trkpt lat="47.09256" lon="-1.8106">
        <ele>54</ele>
        <time>2021-02-14T12:47:04.000Z</time>
      </trkpt>
      <trkpt lat="47.09245" lon="-1.81067">
        <ele>54</ele>
        <time>2021-02-14T12:47:06.000Z</time>
      </trkpt>
      <trkpt lat="47.09235" lon="-1.81076">
        <ele>54</ele>
        <time>2021-02-14T12:47:08.000Z</time>
      </trkpt>
      <trkpt lat="47.09228" lon="-1.81085">
        <ele>54</ele>
        <time>2021-02-14T12:47:10.000Z</time>
      </trkpt>
      <trkpt lat="47.09215" lon="-1.81084">
        <ele>54</ele>
        <time>2021-02-14T12:47:13.000Z</time>
      </trkpt>
      <trkpt lat="47.09204" lon="-1.81077">
        <ele>54</ele>
        <time>2021-02-14T12:47:15.000Z</time>
      </trkpt>
      <trkpt lat="47.09194" lon="-1.81068">
        <ele>54</ele>
        <time>2021-02-14T12:47:17.000Z</time>
      </trkpt>
      <trkpt lat="47.09184" lon="-1.8106">
        <ele>54</ele>
        <time>2021-02-14T12:47:19.000Z</time>
      </trkpt>
      <trkpt lat="47.09174" lon="-1.81052">
        <ele>55</ele>
        <time>2021-02-14T12:47:21.000Z</time>
      </trkpt>
      <trkpt lat="47.09164" lon="-1.81045">
        <ele>55</ele>
        <time>2021-02-14T12:47:23.000Z</time>
      </trkpt>
      <trkpt lat="47.09154" lon="-1.81038">
        <ele>55</ele>
        <time>2021-02-14T12:47:25.000Z</time>
      </trkpt>
      <trkpt lat="47.09144" lon="-1.8103">
        <ele>56</ele>
        <time>2021-02-14T12:47:27.000Z</time>
      </trkpt>
      <trkpt lat="47.09134" lon="-1.81022">
        <ele>56</ele>
        <time>2021-02-14T12:47:29.000Z</time>
      </trkpt>
      <trkpt lat="47.09124" lon="-1.81015">
        <ele>56</ele>
        <time>2021-02-14T12:47:31.000Z</time>
      </trkpt>
      <trkpt lat="47.09115" lon="-1.81008">
        <ele>56</ele>
        <time>2021-02-14T12:47:33.000Z</time>
      </trkpt>
      <trkpt lat="47.09105" lon="-1.81001">
        <ele>56</ele>
        <time>2021-02-14T12:47:35.000Z</time>
      </trkpt>
      <trkpt lat="47.09095" lon="-1.80993">
        <ele>56</ele>
        <time>2021-02-14T12:47:37.000Z</time>
      </trkpt>
      <trkpt lat="47.09085" lon="-1.80986">
        <ele>57</ele>
        <time>2021-02-14T12:47:39.000Z</time>
      </trkpt>
      <trkpt lat="47.09075" lon="-1.80979">
        <ele>56</ele>
        <time>2021-02-14T12:47:41.000Z</time>
      </trkpt>
      <trkpt lat="47.09065" lon="-1.80972">
        <ele>57</ele>
        <time>2021-02-14T12:47:43.000Z</time>
      </trkpt>
      <trkpt lat="47.09056" lon="-1.80965">
        <ele>57</ele>
        <time>2021-02-14T12:47:45.000Z</time>
      </trkpt>
      <trkpt lat="47.09046" lon="-1.80957">
        <ele>58</ele>
        <time>2021-02-14T12:47:47.000Z</time>
      </trkpt>
      <trkpt lat="47.09036" lon="-1.8095">
        <ele>57</ele>
        <time>2021-02-14T12:47:49.000Z</time>
      </trkpt>
      <trkpt lat="47.09027" lon="-1.80942">
        <ele>57</ele>
        <time>2021-02-14T12:47:51.000Z</time>
      </trkpt>
      <trkpt lat="47.09016" lon="-1.80935">
        <ele>57</ele>
        <time>2021-02-14T12:47:53.000Z</time>
      </trkpt>
      <trkpt lat="47.09007" lon="-1.80927">
        <ele>57</ele>
        <time>2021-02-14T12:47:55.000Z</time>
      </trkpt>
      <trkpt lat="47.08996" lon="-1.8092">
        <ele>57</ele>
        <time>2021-02-14T12:47:57.000Z</time>
      </trkpt>
      <trkpt lat="47.08986" lon="-1.80913">
        <ele>57</ele>
        <time>2021-02-14T12:47:59.000Z</time>
      </trkpt>
      <trkpt lat="47.08977" lon="-1.80906">
        <ele>57</ele>
        <time>2021-02-14T12:48:01.000Z</time>
      </trkpt>
      <trkpt lat="47.08967" lon="-1.80898">
        <ele>58</ele>
        <time>2021-02-14T12:48:03.000Z</time>
      </trkpt>
      <trkpt lat="47.08957" lon="-1.80892">
        <ele>58</ele>
        <time>2021-02-14T12:48:05.000Z</time>
      </trkpt>
      <trkpt lat="47.08948" lon="-1.80885">
        <ele>58</ele>
        <time>2021-02-14T12:48:07.000Z</time>
      </trkpt>
      <trkpt lat="47.08939" lon="-1.80877">
        <ele>58</ele>
        <time>2021-02-14T12:48:09.000Z</time>
      </trkpt>
      <trkpt lat="47.08929" lon="-1.80868">
        <ele>58</ele>
        <time>2021-02-14T12:48:11.000Z</time>
      </trkpt>
      <trkpt lat="47.08921" lon="-1.80858">
        <ele>59</ele>
        <time>2021-02-14T12:48:13.000Z</time>
      </trkpt>
      <trkpt lat="47.08912" lon="-1.80846">
        <ele>59</ele>
        <time>2021-02-14T12:48:15.000Z</time>
      </trkpt>
      <trkpt lat="47.08905" lon="-1.80834">
        <ele>59</ele>
        <time>2021-02-14T12:48:17.000Z</time>
      </trkpt>
      <trkpt lat="47.08898" lon="-1.80821">
        <ele>59</ele>
        <time>2021-02-14T12:48:19.000Z</time>
      </trkpt>
      <trkpt lat="47.08891" lon="-1.80808">
        <ele>60</ele>
        <time>2021-02-14T12:48:21.000Z</time>
      </trkpt>
      <trkpt lat="47.08884" lon="-1.80795">
        <ele>60</ele>
        <time>2021-02-14T12:48:23.000Z</time>
      </trkpt>
      <trkpt lat="47.08876" lon="-1.80783">
        <ele>60</ele>
        <time>2021-02-14T12:48:25.000Z</time>
      </trkpt>
      <trkpt lat="47.08869" lon="-1.80772">
        <ele>60</ele>
        <time>2021-02-14T12:48:27.000Z</time>
      </trkpt>
      <trkpt lat="47.08862" lon="-1.8076">
        <ele>61</ele>
        <time>2021-02-14T12:48:29.000Z</time>
      </trkpt>
      <trkpt lat="47.08856" lon="-1.80748">
        <ele>61</ele>
        <time>2021-02-14T12:48:31.000Z</time>
      </trkpt>
      <trkpt lat="47.08849" lon="-1.80736">
        <ele>62</ele>
        <time>2021-02-14T12:48:33.000Z</time>
      </trkpt>
      <trkpt lat="47.08842" lon="-1.80724">
        <ele>62</ele>
        <time>2021-02-14T12:48:35.000Z</time>
      </trkpt>
      <trkpt lat="47.08835" lon="-1.80712">
        <ele>62</ele>
        <time>2021-02-14T12:48:37.000Z</time>
      </trkpt>
      <trkpt lat="47.08828" lon="-1.80698">
        <ele>62</ele>
        <time>2021-02-14T12:48:39.000Z</time>
      </trkpt>
      <trkpt lat="47.08822" lon="-1.80686">
        <ele>62</ele>
        <time>2021-02-14T12:48:41.000Z</time>
      </trkpt>
      <trkpt lat="47.08815" lon="-1.80674">
        <ele>62</ele>
        <time>2021-02-14T12:48:43.000Z</time>
      </trkpt>
      <trkpt lat="47.08808" lon="-1.80662">
        <ele>62</ele>
        <time>2021-02-14T12:48:45.000Z</time>
      </trkpt>
      <trkpt lat="47.08802" lon="-1.8065">
        <ele>61</ele>
        <time>2021-02-14T12:48:47.000Z</time>
      </trkpt>
      <trkpt lat="47.08795" lon="-1.80639">
        <ele>61</ele>
        <time>2021-02-14T12:48:49.000Z</time>
      </trkpt>
      <trkpt lat="47.08789" lon="-1.80628">
        <ele>62</ele>
        <time>2021-02-14T12:48:51.000Z</time>
      </trkpt>
      <trkpt lat="47.08782" lon="-1.80618">
        <ele>61</ele>
        <time>2021-02-14T12:48:53.000Z</time>
      </trkpt>
      <trkpt lat="47.08775" lon="-1.80608">
        <ele>61</ele>
        <time>2021-02-14T12:48:55.000Z</time>
      </trkpt>
      <trkpt lat="47.08768" lon="-1.80599">
        <ele>62</ele>
        <time>2021-02-14T12:48:57.000Z</time>
      </trkpt>
      <trkpt lat="47.0876" lon="-1.80591">
        <ele>62</ele>
        <time>2021-02-14T12:48:59.000Z</time>
      </trkpt>
      <trkpt lat="47.08752" lon="-1.80585">
        <ele>62</ele>
        <time>2021-02-14T12:49:01.000Z</time>
      </trkpt>
      <trkpt lat="47.08744" lon="-1.80578">
        <ele>63</ele>
        <time>2021-02-14T12:49:03.000Z</time>
      </trkpt>
      <trkpt lat="47.08736" lon="-1.80571">
        <ele>63</ele>
        <time>2021-02-14T12:49:05.000Z</time>
      </trkpt>
      <trkpt lat="47.08727" lon="-1.80563">
        <ele>63</ele>
        <time>2021-02-14T12:49:07.000Z</time>
      </trkpt>
      <trkpt lat="47.08718" lon="-1.80557">
        <ele>64</ele>
        <time>2021-02-14T12:49:09.000Z</time>
      </trkpt>
      <trkpt lat="47.08709" lon="-1.8055">
        <ele>64</ele>
        <time>2021-02-14T12:49:11.000Z</time>
      </trkpt>
      <trkpt lat="47.087" lon="-1.80544">
        <ele>64</ele>
        <time>2021-02-14T12:49:13.000Z</time>
      </trkpt>
      <trkpt lat="47.08691" lon="-1.80537">
        <ele>64</ele>
        <time>2021-02-14T12:49:15.000Z</time>
      </trkpt>
      <trkpt lat="47.08682" lon="-1.80531">
        <ele>64</ele>
        <time>2021-02-14T12:49:17.000Z</time>
      </trkpt>
      <trkpt lat="47.08673" lon="-1.80525">
        <ele>65</ele>
        <time>2021-02-14T12:49:19.000Z</time>
      </trkpt>
      <trkpt lat="47.08663" lon="-1.8052">
        <ele>65</ele>
        <time>2021-02-14T12:49:21.000Z</time>
      </trkpt>
      <trkpt lat="47.08654" lon="-1.80516">
        <ele>66</ele>
        <time>2021-02-14T12:49:23.000Z</time>
      </trkpt>
      <trkpt lat="47.08645" lon="-1.80512">
        <ele>66</ele>
        <time>2021-02-14T12:49:25.000Z</time>
      </trkpt>
      <trkpt lat="47.08636" lon="-1.80509">
        <ele>66</ele>
        <time>2021-02-14T12:49:27.000Z</time>
      </trkpt>
      <trkpt lat="47.08627" lon="-1.80506">
        <ele>66</ele>
        <time>2021-02-14T12:49:29.000Z</time>
      </trkpt>
      <trkpt lat="47.08617" lon="-1.80504">
        <ele>66</ele>
        <time>2021-02-14T12:49:31.000Z</time>
      </trkpt>
      <trkpt lat="47.08607" lon="-1.80502">
        <ele>66</ele>
        <time>2021-02-14T12:49:33.000Z</time>
      </trkpt>
      <trkpt lat="47.08597" lon="-1.80499">
        <ele>67</ele>
        <time>2021-02-14T12:49:35.000Z</time>
      </trkpt>
      <trkpt lat="47.08587" lon="-1.80496">
        <ele>66</ele>
        <time>2021-02-14T12:49:37.000Z</time>
      </trkpt>
      <trkpt lat="47.08577" lon="-1.80494">
        <ele>67</ele>
        <time>2021-02-14T12:49:39.000Z</time>
      </trkpt>
      <trkpt lat="47.08568" lon="-1.80492">
        <ele>67</ele>
        <time>2021-02-14T12:49:41.000Z</time>
      </trkpt>
      <trkpt lat="47.08558" lon="-1.80491">
        <ele>67</ele>
        <time>2021-02-14T12:49:43.000Z</time>
      </trkpt>
      <trkpt lat="47.08549" lon="-1.80488">
        <ele>68</ele>
        <time>2021-02-14T12:49:45.000Z</time>
      </trkpt>
      <trkpt lat="47.0854" lon="-1.80486">
        <ele>68</ele>
        <time>2021-02-14T12:49:47.000Z</time>
      </trkpt>
      <trkpt lat="47.0853" lon="-1.80483">
        <ele>68</ele>
        <time>2021-02-14T12:49:49.000Z</time>
      </trkpt>
      <trkpt lat="47.0852" lon="-1.8048">
        <ele>68</ele>
        <time>2021-02-14T12:49:51.000Z</time>
      </trkpt>
      <trkpt lat="47.08511" lon="-1.80477">
        <ele>68</ele>
        <time>2021-02-14T12:49:53.000Z</time>
      </trkpt>
      <trkpt lat="47.08501" lon="-1.80475">
        <ele>68</ele>
        <time>2021-02-14T12:49:55.000Z</time>
      </trkpt>
      <trkpt lat="47.0849" lon="-1.80472">
        <ele>69</ele>
        <time>2021-02-14T12:49:57.000Z</time>
      </trkpt>
      <trkpt lat="47.08479" lon="-1.80471">
        <ele>69</ele>
        <time>2021-02-14T12:49:59.000Z</time>
      </trkpt>
      <trkpt lat="47.08469" lon="-1.8047">
        <ele>70</ele>
        <time>2021-02-14T12:50:01.000Z</time>
      </trkpt>
      <trkpt lat="47.08459" lon="-1.80468">
        <ele>70</ele>
        <time>2021-02-14T12:50:03.000Z</time>
      </trkpt>
      <trkpt lat="47.08449" lon="-1.80468">
        <ele>69</ele>
        <time>2021-02-14T12:50:05.000Z</time>
      </trkpt>
      <trkpt lat="47.08438" lon="-1.80468">
        <ele>70</ele>
        <time>2021-02-14T12:50:07.000Z</time>
      </trkpt>
      <trkpt lat="47.08428" lon="-1.80469">
        <ele>70</ele>
        <time>2021-02-14T12:50:09.000Z</time>
      </trkpt>
      <trkpt lat="47.08418" lon="-1.80469">
        <ele>69</ele>
        <time>2021-02-14T12:50:11.000Z</time>
      </trkpt>
      <trkpt lat="47.08407" lon="-1.80469">
        <ele>70</ele>
        <time>2021-02-14T12:50:13.000Z</time>
      </trkpt>
      <trkpt lat="47.08397" lon="-1.80469">
        <ele>70</ele>
        <time>2021-02-14T12:50:15.000Z</time>
      </trkpt>
      <trkpt lat="47.08387" lon="-1.80469">
        <ele>70</ele>
        <time>2021-02-14T12:50:17.000Z</time>
      </trkpt>
      <trkpt lat="47.08376" lon="-1.80469">
        <ele>70</ele>
        <time>2021-02-14T12:50:19.000Z</time>
      </trkpt>
      <trkpt lat="47.08366" lon="-1.80469">
        <ele>70</ele>
        <time>2021-02-14T12:50:21.000Z</time>
      </trkpt>
      <trkpt lat="47.08356" lon="-1.8047">
        <ele>70</ele>
        <time>2021-02-14T12:50:23.000Z</time>
      </trkpt>
      <trkpt lat="47.08345" lon="-1.8047">
        <ele>70</ele>
        <time>2021-02-14T12:50:25.000Z</time>
      </trkpt>
      <trkpt lat="47.08334" lon="-1.80472">
        <ele>70</ele>
        <time>2021-02-14T12:50:27.000Z</time>
      </trkpt>
      <trkpt lat="47.08324" lon="-1.80474">
        <ele>70</ele>
        <time>2021-02-14T12:50:29.000Z</time>
      </trkpt>
      <trkpt lat="47.08313" lon="-1.80476">
        <ele>70</ele>
        <time>2021-02-14T12:50:31.000Z</time>
      </trkpt>
      <trkpt lat="47.08303" lon="-1.80479">
        <ele>69</ele>
        <time>2021-02-14T12:50:33.000Z</time>
      </trkpt>
      <trkpt lat="47.08293" lon="-1.80483">
        <ele>69</ele>
        <time>2021-02-14T12:50:35.000Z</time>
      </trkpt>
      <trkpt lat="47.08282" lon="-1.80487">
        <ele>69</ele>
        <time>2021-02-14T12:50:37.000Z</time>
      </trkpt>
      <trkpt lat="47.0827" lon="-1.80491">
        <ele>69</ele>
        <time>2021-02-14T12:50:39.000Z</time>
      </trkpt>
      <trkpt lat="47.08259" lon="-1.80495">
        <ele>69</ele>
        <time>2021-02-14T12:50:41.000Z</time>
      </trkpt>
      <trkpt lat="47.08247" lon="-1.80499">
        <ele>69</ele>
        <time>2021-02-14T12:50:43.000Z</time>
      </trkpt>
      <trkpt lat="47.08236" lon="-1.80502">
        <ele>68</ele>
        <time>2021-02-14T12:50:45.000Z</time>
      </trkpt>
      <trkpt lat="47.08224" lon="-1.80507">
        <ele>68</ele>
        <time>2021-02-14T12:50:47.000Z</time>
      </trkpt>
      <trkpt lat="47.08212" lon="-1.80512">
        <ele>68</ele>
        <time>2021-02-14T12:50:49.000Z</time>
      </trkpt>
      <trkpt lat="47.08201" lon="-1.80517">
        <ele>67</ele>
        <time>2021-02-14T12:50:51.000Z</time>
      </trkpt>
      <trkpt lat="47.08189" lon="-1.80523">
        <ele>67</ele>
        <time>2021-02-14T12:50:53.000Z</time>
      </trkpt>
      <trkpt lat="47.08177" lon="-1.80528">
        <ele>66</ele>
        <time>2021-02-14T12:50:55.000Z</time>
      </trkpt>
      <trkpt lat="47.08164" lon="-1.80534">
        <ele>66</ele>
        <time>2021-02-14T12:50:57.000Z</time>
      </trkpt>
      <trkpt lat="47.08152" lon="-1.80539">
        <ele>66</ele>
        <time>2021-02-14T12:50:59.000Z</time>
      </trkpt>
      <trkpt lat="47.08139" lon="-1.80544">
        <ele>65</ele>
        <time>2021-02-14T12:51:01.000Z</time>
      </trkpt>
      <trkpt lat="47.08125" lon="-1.80548">
        <ele>65</ele>
        <time>2021-02-14T12:51:03.000Z</time>
      </trkpt>
      <trkpt lat="47.08112" lon="-1.80552">
        <ele>64</ele>
        <time>2021-02-14T12:51:05.000Z</time>
      </trkpt>
      <trkpt lat="47.08098" lon="-1.80555">
        <ele>64</ele>
        <time>2021-02-14T12:51:07.000Z</time>
      </trkpt>
      <trkpt lat="47.08085" lon="-1.80559">
        <ele>63</ele>
        <time>2021-02-14T12:51:09.000Z</time>
      </trkpt>
      <trkpt lat="47.08071" lon="-1.80563">
        <ele>63</ele>
        <time>2021-02-14T12:51:11.000Z</time>
      </trkpt>
      <trkpt lat="47.08057" lon="-1.80566">
        <ele>63</ele>
        <time>2021-02-14T12:51:13.000Z</time>
      </trkpt>
      <trkpt lat="47.08044" lon="-1.8057">
        <ele>63</ele>
        <time>2021-02-14T12:51:15.000Z</time>
      </trkpt>
      <trkpt lat="47.08031" lon="-1.80574">
        <ele>63</ele>
        <time>2021-02-14T12:51:17.000Z</time>
      </trkpt>
      <trkpt lat="47.08017" lon="-1.80578">
        <ele>62</ele>
        <time>2021-02-14T12:51:19.000Z</time>
      </trkpt>
      <trkpt lat="47.08005" lon="-1.80579">
        <ele>62</ele>
        <time>2021-02-14T12:51:21.000Z</time>
      </trkpt>
      <trkpt lat="47.07992" lon="-1.8058">
        <ele>62</ele>
        <time>2021-02-14T12:51:23.000Z</time>
      </trkpt>
      <trkpt lat="47.0798" lon="-1.8058">
        <ele>62</ele>
        <time>2021-02-14T12:51:25.000Z</time>
      </trkpt>
      <trkpt lat="47.07968" lon="-1.80579">
        <ele>62</ele>
        <time>2021-02-14T12:51:27.000Z</time>
      </trkpt>
      <trkpt lat="47.07957" lon="-1.80577">
        <ele>62</ele>
        <time>2021-02-14T12:51:29.000Z</time>
      </trkpt>
      <trkpt lat="47.07947" lon="-1.8057">
        <ele>62</ele>
        <time>2021-02-14T12:51:31.000Z</time>
      </trkpt>
      <trkpt lat="47.07938" lon="-1.8056">
        <ele>63</ele>
        <time>2021-02-14T12:51:33.000Z</time>
      </trkpt>
      <trkpt lat="47.07931" lon="-1.80547">
        <ele>63</ele>
        <time>2021-02-14T12:51:35.000Z</time>
      </trkpt>
      <trkpt lat="47.07924" lon="-1.80532">
        <ele>63</ele>
        <time>2021-02-14T12:51:37.000Z</time>
      </trkpt>
      <trkpt lat="47.07918" lon="-1.80518">
        <ele>63</ele>
        <time>2021-02-14T12:51:39.000Z</time>
      </trkpt>
      <trkpt lat="47.07911" lon="-1.80502">
        <ele>63</ele>
        <time>2021-02-14T12:51:41.000Z</time>
      </trkpt>
      <trkpt lat="47.07905" lon="-1.80486">
        <ele>63</ele>
        <time>2021-02-14T12:51:43.000Z</time>
      </trkpt>
      <trkpt lat="47.07901" lon="-1.80469">
        <ele>62</ele>
        <time>2021-02-14T12:51:45.000Z</time>
      </trkpt>
      <trkpt lat="47.07899" lon="-1.80452">
        <ele>62</ele>
        <time>2021-02-14T12:51:47.000Z</time>
      </trkpt>
      <trkpt lat="47.07898" lon="-1.80434">
        <ele>61</ele>
        <time>2021-02-14T12:51:49.000Z</time>
      </trkpt>
      <trkpt lat="47.07898" lon="-1.80416">
        <ele>61</ele>
        <time>2021-02-14T12:51:51.000Z</time>
      </trkpt>
      <trkpt lat="47.07899" lon="-1.80398">
        <ele>61</ele>
        <time>2021-02-14T12:51:53.000Z</time>
      </trkpt>
      <trkpt lat="47.079" lon="-1.80381">
        <ele>62</ele>
        <time>2021-02-14T12:51:55.000Z</time>
      </trkpt>
      <trkpt lat="47.07901" lon="-1.80363">
        <ele>61</ele>
        <time>2021-02-14T12:51:57.000Z</time>
      </trkpt>
      <trkpt lat="47.07901" lon="-1.80345">
        <ele>61</ele>
        <time>2021-02-14T12:51:59.000Z</time>
      </trkpt>
      <trkpt lat="47.07901" lon="-1.80328">
        <ele>61</ele>
        <time>2021-02-14T12:52:01.000Z</time>
      </trkpt>
      <trkpt lat="47.07901" lon="-1.8031">
        <ele>61</ele>
        <time>2021-02-14T12:52:03.000Z</time>
      </trkpt>
      <trkpt lat="47.07901" lon="-1.80292">
        <ele>61</ele>
        <time>2021-02-14T12:52:05.000Z</time>
      </trkpt>
      <trkpt lat="47.07902" lon="-1.80275">
        <ele>62</ele>
        <time>2021-02-14T12:52:07.000Z</time>
      </trkpt>
      <trkpt lat="47.07902" lon="-1.80259">
        <ele>62</ele>
        <time>2021-02-14T12:52:09.000Z</time>
      </trkpt>
      <trkpt lat="47.07902" lon="-1.80243">
        <ele>62</ele>
        <time>2021-02-14T12:52:11.000Z</time>
      </trkpt>
      <trkpt lat="47.07902" lon="-1.80225">
        <ele>63</ele>
        <time>2021-02-14T12:52:13.000Z</time>
      </trkpt>
      <trkpt lat="47.07901" lon="-1.80208">
        <ele>63</ele>
        <time>2021-02-14T12:52:15.000Z</time>
      </trkpt>
      <trkpt lat="47.07901" lon="-1.80191">
        <ele>63</ele>
        <time>2021-02-14T12:52:17.000Z</time>
      </trkpt>
      <trkpt lat="47.07901" lon="-1.80173">
        <ele>62</ele>
        <time>2021-02-14T12:52:19.000Z</time>
      </trkpt>
      <trkpt lat="47.079" lon="-1.80157">
        <ele>63</ele>
        <time>2021-02-14T12:52:21.000Z</time>
      </trkpt>
      <trkpt lat="47.079" lon="-1.8014">
        <ele>62</ele>
        <time>2021-02-14T12:52:23.000Z</time>
      </trkpt>
      <trkpt lat="47.079" lon="-1.80123">
        <ele>62</ele>
        <time>2021-02-14T12:52:25.000Z</time>
      </trkpt>
      <trkpt lat="47.07899" lon="-1.80107">
        <ele>62</ele>
        <time>2021-02-14T12:52:27.000Z</time>
      </trkpt>
      <trkpt lat="47.07899" lon="-1.8009">
        <ele>63</ele>
        <time>2021-02-14T12:52:29.000Z</time>
      </trkpt>
      <trkpt lat="47.07899" lon="-1.80074">
        <ele>62</ele>
        <time>2021-02-14T12:52:31.000Z</time>
      </trkpt>
      <trkpt lat="47.07898" lon="-1.80057">
        <ele>62</ele>
        <time>2021-02-14T12:52:33.000Z</time>
      </trkpt>
      <trkpt lat="47.07897" lon="-1.80041">
        <ele>62</ele>
        <time>2021-02-14T12:52:35.000Z</time>
      </trkpt>
      <trkpt lat="47.07895" lon="-1.80025">
        <ele>62</ele>
        <time>2021-02-14T12:52:37.000Z</time>
      </trkpt>
      <trkpt lat="47.07891" lon="-1.8001">
        <ele>62</ele>
        <time>2021-02-14T12:52:39.000Z</time>
      </trkpt>
      <trkpt lat="47.07888" lon="-1.79994">
        <ele>63</ele>
        <time>2021-02-14T12:52:41.000Z</time>
      </trkpt>
      <trkpt lat="47.07892" lon="-1.79979">
        <ele>63</ele>
        <time>2021-02-14T12:52:43.000Z</time>
      </trkpt>
      <trkpt lat="47.07899" lon="-1.79965">
        <ele>63</ele>
        <time>2021-02-14T12:52:45.000Z</time>
      </trkpt>
      <trkpt lat="47.07903" lon="-1.79947">
        <ele>63</ele>
        <time>2021-02-14T12:52:47.000Z</time>
      </trkpt>
      <trkpt lat="47.07907" lon="-1.7993">
        <ele>63</ele>
        <time>2021-02-14T12:52:49.000Z</time>
      </trkpt>
      <trkpt lat="47.07912" lon="-1.79913">
        <ele>63</ele>
        <time>2021-02-14T12:52:51.000Z</time>
      </trkpt>
      <trkpt lat="47.07917" lon="-1.79897">
        <ele>63</ele>
        <time>2021-02-14T12:52:53.000Z</time>
      </trkpt>
      <trkpt lat="47.07923" lon="-1.79881">
        <ele>63</ele>
        <time>2021-02-14T12:52:55.000Z</time>
      </trkpt>
      <trkpt lat="47.07929" lon="-1.79865">
        <ele>63</ele>
        <time>2021-02-14T12:52:57.000Z</time>
      </trkpt>
      <trkpt lat="47.07935" lon="-1.7985">
        <ele>63</ele>
        <time>2021-02-14T12:52:59.000Z</time>
      </trkpt>
      <trkpt lat="47.07941" lon="-1.79834">
        <ele>63</ele>
        <time>2021-02-14T12:53:01.000Z</time>
      </trkpt>
      <trkpt lat="47.07947" lon="-1.79818">
        <ele>63</ele>
        <time>2021-02-14T12:53:03.000Z</time>
      </trkpt>
      <trkpt lat="47.07952" lon="-1.79801">
        <ele>63</ele>
        <time>2021-02-14T12:53:05.000Z</time>
      </trkpt>
      <trkpt lat="47.07955" lon="-1.79784">
        <ele>63</ele>
        <time>2021-02-14T12:53:07.000Z</time>
      </trkpt>
      <trkpt lat="47.07957" lon="-1.79767">
        <ele>63</ele>
        <time>2021-02-14T12:53:09.000Z</time>
      </trkpt>
      <trkpt lat="47.07959" lon="-1.79751">
        <ele>63</ele>
        <time>2021-02-14T12:53:11.000Z</time>
      </trkpt>
      <trkpt lat="47.0796" lon="-1.79734">
        <ele>64</ele>
        <time>2021-02-14T12:53:13.000Z</time>
      </trkpt>
      <trkpt lat="47.07962" lon="-1.79717">
        <ele>64</ele>
        <time>2021-02-14T12:53:15.000Z</time>
      </trkpt>
      <trkpt lat="47.07963" lon="-1.79701">
        <ele>65</ele>
        <time>2021-02-14T12:53:17.000Z</time>
      </trkpt>
      <trkpt lat="47.07964" lon="-1.79684">
        <ele>65</ele>
        <time>2021-02-14T12:53:19.000Z</time>
      </trkpt>
      <trkpt lat="47.07965" lon="-1.79666">
        <ele>65</ele>
        <time>2021-02-14T12:53:21.000Z</time>
      </trkpt>
      <trkpt lat="47.07966" lon="-1.79649">
        <ele>65</ele>
        <time>2021-02-14T12:53:23.000Z</time>
      </trkpt>
      <trkpt lat="47.07965" lon="-1.79632">
        <ele>65</ele>
        <time>2021-02-14T12:53:25.000Z</time>
      </trkpt>
      <trkpt lat="47.07965" lon="-1.79615">
        <ele>65</ele>
        <time>2021-02-14T12:53:27.000Z</time>
      </trkpt>
      <trkpt lat="47.07964" lon="-1.79598">
        <ele>65</ele>
        <time>2021-02-14T12:53:29.000Z</time>
      </trkpt>
      <trkpt lat="47.07963" lon="-1.79581">
        <ele>65</ele>
        <time>2021-02-14T12:53:31.000Z</time>
      </trkpt>
      <trkpt lat="47.07961" lon="-1.79564">
        <ele>64</ele>
        <time>2021-02-14T12:53:33.000Z</time>
      </trkpt>
      <trkpt lat="47.07959" lon="-1.79546">
        <ele>64</ele>
        <time>2021-02-14T12:53:35.000Z</time>
      </trkpt>
      <trkpt lat="47.07956" lon="-1.79529">
        <ele>64</ele>
        <time>2021-02-14T12:53:37.000Z</time>
      </trkpt>
      <trkpt lat="47.07952" lon="-1.79512">
        <ele>64</ele>
        <time>2021-02-14T12:53:39.000Z</time>
      </trkpt>
      <trkpt lat="47.07948" lon="-1.79495">
        <ele>63</ele>
        <time>2021-02-14T12:53:41.000Z</time>
      </trkpt>
      <trkpt lat="47.07944" lon="-1.79478">
        <ele>63</ele>
        <time>2021-02-14T12:53:43.000Z</time>
      </trkpt>
      <trkpt lat="47.07939" lon="-1.79462">
        <ele>63</ele>
        <time>2021-02-14T12:53:45.000Z</time>
      </trkpt>
      <trkpt lat="47.07935" lon="-1.79444">
        <ele>62</ele>
        <time>2021-02-14T12:53:47.000Z</time>
      </trkpt>
      <trkpt lat="47.0793" lon="-1.79428">
        <ele>62</ele>
        <time>2021-02-14T12:53:49.000Z</time>
      </trkpt>
      <trkpt lat="47.07926" lon="-1.79411">
        <ele>62</ele>
        <time>2021-02-14T12:53:51.000Z</time>
      </trkpt>
      <trkpt lat="47.07922" lon="-1.79394">
        <ele>62</ele>
        <time>2021-02-14T12:53:53.000Z</time>
      </trkpt>
      <trkpt lat="47.07917" lon="-1.79377">
        <ele>61</ele>
        <time>2021-02-14T12:53:55.000Z</time>
      </trkpt>
      <trkpt lat="47.07912" lon="-1.79359">
        <ele>61</ele>
        <time>2021-02-14T12:53:57.000Z</time>
      </trkpt>
      <trkpt lat="47.07908" lon="-1.79341">
        <ele>60</ele>
        <time>2021-02-14T12:53:59.000Z</time>
      </trkpt>
      <trkpt lat="47.07903" lon="-1.79323">
        <ele>60</ele>
        <time>2021-02-14T12:54:01.000Z</time>
      </trkpt>
      <trkpt lat="47.07898" lon="-1.79306">
        <ele>60</ele>
        <time>2021-02-14T12:54:03.000Z</time>
      </trkpt>
      <trkpt lat="47.07894" lon="-1.79288">
        <ele>59</ele>
        <time>2021-02-14T12:54:05.000Z</time>
      </trkpt>
      <trkpt lat="47.07889" lon="-1.7927">
        <ele>58</ele>
        <time>2021-02-14T12:54:07.000Z</time>
      </trkpt>
      <trkpt lat="47.07885" lon="-1.79253">
        <ele>58</ele>
        <time>2021-02-14T12:54:09.000Z</time>
      </trkpt>
      <trkpt lat="47.0788" lon="-1.79234">
        <ele>57</ele>
        <time>2021-02-14T12:54:11.000Z</time>
      </trkpt>
      <trkpt lat="47.07875" lon="-1.79216">
        <ele>57</ele>
        <time>2021-02-14T12:54:13.000Z</time>
      </trkpt>
      <trkpt lat="47.0787" lon="-1.79198">
        <ele>56</ele>
        <time>2021-02-14T12:54:15.000Z</time>
      </trkpt>
      <trkpt lat="47.07865" lon="-1.79179">
        <ele>56</ele>
        <time>2021-02-14T12:54:17.000Z</time>
      </trkpt>
      <trkpt lat="47.0786" lon="-1.79159">
        <ele>56</ele>
        <time>2021-02-14T12:54:19.000Z</time>
      </trkpt>
      <trkpt lat="47.07854" lon="-1.7914">
        <ele>55</ele>
        <time>2021-02-14T12:54:21.000Z</time>
      </trkpt>
      <trkpt lat="47.07849" lon="-1.79121">
        <ele>55</ele>
        <time>2021-02-14T12:54:23.000Z</time>
      </trkpt>
      <trkpt lat="47.07844" lon="-1.79101">
        <ele>54</ele>
        <time>2021-02-14T12:54:25.000Z</time>
      </trkpt>
      <trkpt lat="47.0784" lon="-1.79083">
        <ele>55</ele>
        <time>2021-02-14T12:54:27.000Z</time>
      </trkpt>
      <trkpt lat="47.07836" lon="-1.79066">
        <ele>54</ele>
        <time>2021-02-14T12:54:29.000Z</time>
      </trkpt>
      <trkpt lat="47.07831" lon="-1.79048">
        <ele>54</ele>
        <time>2021-02-14T12:54:31.000Z</time>
      </trkpt>
      <trkpt lat="47.07827" lon="-1.79031">
        <ele>54</ele>
        <time>2021-02-14T12:54:33.000Z</time>
      </trkpt>
      <trkpt lat="47.07822" lon="-1.79015">
        <ele>54</ele>
        <time>2021-02-14T12:54:35.000Z</time>
      </trkpt>
      <trkpt lat="47.07818" lon="-1.78998">
        <ele>54</ele>
        <time>2021-02-14T12:54:37.000Z</time>
      </trkpt>
      <trkpt lat="47.07813" lon="-1.78982">
        <ele>54</ele>
        <time>2021-02-14T12:54:39.000Z</time>
      </trkpt>
      <trkpt lat="47.07809" lon="-1.78965">
        <ele>54</ele>
        <time>2021-02-14T12:54:41.000Z</time>
      </trkpt>
      <trkpt lat="47.07805" lon="-1.7895">
        <ele>54</ele>
        <time>2021-02-14T12:54:43.000Z</time>
      </trkpt>
      <trkpt lat="47.07802" lon="-1.78936">
        <ele>54</ele>
        <time>2021-02-14T12:54:45.000Z</time>
      </trkpt>
      <trkpt lat="47.07798" lon="-1.78923">
        <ele>55</ele>
        <time>2021-02-14T12:54:47.000Z</time>
      </trkpt>
      <trkpt lat="47.07794" lon="-1.78908">
        <ele>56</ele>
        <time>2021-02-14T12:54:49.000Z</time>
      </trkpt>
      <trkpt lat="47.07791" lon="-1.78895">
        <ele>56</ele>
        <time>2021-02-14T12:54:51.000Z</time>
      </trkpt>
      <trkpt lat="47.07787" lon="-1.78881">
        <ele>57</ele>
        <time>2021-02-14T12:54:53.000Z</time>
      </trkpt>
      <trkpt lat="47.07784" lon="-1.78866">
        <ele>57</ele>
        <time>2021-02-14T12:54:55.000Z</time>
      </trkpt>
      <trkpt lat="47.0778" lon="-1.78852">
        <ele>58</ele>
        <time>2021-02-14T12:54:57.000Z</time>
      </trkpt>
      <trkpt lat="47.07777" lon="-1.78839">
        <ele>58</ele>
        <time>2021-02-14T12:54:59.000Z</time>
      </trkpt>
      <trkpt lat="47.07774" lon="-1.78826">
        <ele>59</ele>
        <time>2021-02-14T12:55:01.000Z</time>
      </trkpt>
      <trkpt lat="47.0777" lon="-1.78813">
        <ele>59</ele>
        <time>2021-02-14T12:55:03.000Z</time>
      </trkpt>
      <trkpt lat="47.07766" lon="-1.788">
        <ele>59</ele>
        <time>2021-02-14T12:55:05.000Z</time>
      </trkpt>
      <trkpt lat="47.07763" lon="-1.78788">
        <ele>60</ele>
        <time>2021-02-14T12:55:07.000Z</time>
      </trkpt>
      <trkpt lat="47.07759" lon="-1.78775">
        <ele>60</ele>
        <time>2021-02-14T12:55:09.000Z</time>
      </trkpt>
      <trkpt lat="47.07754" lon="-1.78762">
        <ele>61</ele>
        <time>2021-02-14T12:55:11.000Z</time>
      </trkpt>
      <trkpt lat="47.0775" lon="-1.7875">
        <ele>61</ele>
        <time>2021-02-14T12:55:13.000Z</time>
      </trkpt>
      <trkpt lat="47.07745" lon="-1.78738">
        <ele>62</ele>
        <time>2021-02-14T12:55:15.000Z</time>
      </trkpt>
      <trkpt lat="47.07739" lon="-1.78727">
        <ele>62</ele>
        <time>2021-02-14T12:55:17.000Z</time>
      </trkpt>
      <trkpt lat="47.07734" lon="-1.78716">
        <ele>63</ele>
        <time>2021-02-14T12:55:19.000Z</time>
      </trkpt>
      <trkpt lat="47.07729" lon="-1.78705">
        <ele>63</ele>
        <time>2021-02-14T12:55:21.000Z</time>
      </trkpt>
      <trkpt lat="47.07723" lon="-1.78694">
        <ele>64</ele>
        <time>2021-02-14T12:55:23.000Z</time>
      </trkpt>
      <trkpt lat="47.07718" lon="-1.78683">
        <ele>64</ele>
        <time>2021-02-14T12:55:25.000Z</time>
      </trkpt>
      <trkpt lat="47.07712" lon="-1.78672">
        <ele>65</ele>
        <time>2021-02-14T12:55:27.000Z</time>
      </trkpt>
      <trkpt lat="47.07707" lon="-1.78661">
        <ele>65</ele>
        <time>2021-02-14T12:55:29.000Z</time>
      </trkpt>
      <trkpt lat="47.07702" lon="-1.7865">
        <ele>65</ele>
        <time>2021-02-14T12:55:31.000Z</time>
      </trkpt>
      <trkpt lat="47.07697" lon="-1.78638">
        <ele>65</ele>
        <time>2021-02-14T12:55:33.000Z</time>
      </trkpt>
      <trkpt lat="47.07689" lon="-1.78622">
        <ele>66</ele>
        <time>2021-02-14T12:55:36.000Z</time>
      </trkpt>
      <trkpt lat="47.07684" lon="-1.78612">
        <ele>66</ele>
        <time>2021-02-14T12:55:38.000Z</time>
      </trkpt>
      <trkpt lat="47.07679" lon="-1.78601">
        <ele>66</ele>
        <time>2021-02-14T12:55:40.000Z</time>
      </trkpt>
      <trkpt lat="47.07674" lon="-1.78589">
        <ele>67</ele>
        <time>2021-02-14T12:55:42.000Z</time>
      </trkpt>
      <trkpt lat="47.07669" lon="-1.78577">
        <ele>66</ele>
        <time>2021-02-14T12:55:44.000Z</time>
      </trkpt>
      <trkpt lat="47.07664" lon="-1.78565">
        <ele>66</ele>
        <time>2021-02-14T12:55:46.000Z</time>
      </trkpt>
      <trkpt lat="47.0766" lon="-1.78553">
        <ele>67</ele>
        <time>2021-02-14T12:55:48.000Z</time>
      </trkpt>
      <trkpt lat="47.07656" lon="-1.7854">
        <ele>67</ele>
        <time>2021-02-14T12:55:50.000Z</time>
      </trkpt>
      <trkpt lat="47.07652" lon="-1.78528">
        <ele>67</ele>
        <time>2021-02-14T12:55:52.000Z</time>
      </trkpt>
      <trkpt lat="47.07649" lon="-1.78515">
        <ele>67</ele>
        <time>2021-02-14T12:55:54.000Z</time>
      </trkpt>
      <trkpt lat="47.07646" lon="-1.78501">
        <ele>67</ele>
        <time>2021-02-14T12:55:56.000Z</time>
      </trkpt>
      <trkpt lat="47.07642" lon="-1.78488">
        <ele>67</ele>
        <time>2021-02-14T12:55:58.000Z</time>
      </trkpt>
      <trkpt lat="47.07638" lon="-1.78475">
        <ele>66</ele>
        <time>2021-02-14T12:56:00.000Z</time>
      </trkpt>
      <trkpt lat="47.07633" lon="-1.78462">
        <ele>66</ele>
        <time>2021-02-14T12:56:02.000Z</time>
      </trkpt>
      <trkpt lat="47.07629" lon="-1.78448">
        <ele>66</ele>
        <time>2021-02-14T12:56:04.000Z</time>
      </trkpt>
      <trkpt lat="47.07624" lon="-1.78435">
        <ele>66</ele>
        <time>2021-02-14T12:56:06.000Z</time>
      </trkpt>
      <trkpt lat="47.07618" lon="-1.78423">
        <ele>66</ele>
        <time>2021-02-14T12:56:08.000Z</time>
      </trkpt>
      <trkpt lat="47.07612" lon="-1.78411">
        <ele>66</ele>
        <time>2021-02-14T12:56:10.000Z</time>
      </trkpt>
      <trkpt lat="47.07606" lon="-1.78399">
        <ele>66</ele>
        <time>2021-02-14T12:56:12.000Z</time>
      </trkpt>
      <trkpt lat="47.076" lon="-1.78387">
        <ele>66</ele>
        <time>2021-02-14T12:56:14.000Z</time>
      </trkpt>
      <trkpt lat="47.07593" lon="-1.78375">
        <ele>66</ele>
        <time>2021-02-14T12:56:16.000Z</time>
      </trkpt>
      <trkpt lat="47.07587" lon="-1.78363">
        <ele>66</ele>
        <time>2021-02-14T12:56:18.000Z</time>
      </trkpt>
      <trkpt lat="47.07581" lon="-1.78352">
        <ele>66</ele>
        <time>2021-02-14T12:56:20.000Z</time>
      </trkpt>
      <trkpt lat="47.07575" lon="-1.7834">
        <ele>66</ele>
        <time>2021-02-14T12:56:22.000Z</time>
      </trkpt>
      <trkpt lat="47.07569" lon="-1.78329">
        <ele>66</ele>
        <time>2021-02-14T12:56:24.000Z</time>
      </trkpt>
      <trkpt lat="47.07563" lon="-1.78317">
        <ele>65</ele>
        <time>2021-02-14T12:56:26.000Z</time>
      </trkpt>
      <trkpt lat="47.07556" lon="-1.78306">
        <ele>65</ele>
        <time>2021-02-14T12:56:28.000Z</time>
      </trkpt>
      <trkpt lat="47.0755" lon="-1.78294">
        <ele>65</ele>
        <time>2021-02-14T12:56:30.000Z</time>
      </trkpt>
      <trkpt lat="47.07544" lon="-1.78282">
        <ele>65</ele>
        <time>2021-02-14T12:56:32.000Z</time>
      </trkpt>
      <trkpt lat="47.07538" lon="-1.7827">
        <ele>65</ele>
        <time>2021-02-14T12:56:34.000Z</time>
      </trkpt>
      <trkpt lat="47.07532" lon="-1.78259">
        <ele>66</ele>
        <time>2021-02-14T12:56:36.000Z</time>
      </trkpt>
      <trkpt lat="47.07525" lon="-1.78247">
        <ele>65</ele>
        <time>2021-02-14T12:56:38.000Z</time>
      </trkpt>
      <trkpt lat="47.07518" lon="-1.78234">
        <ele>66</ele>
        <time>2021-02-14T12:56:40.000Z</time>
      </trkpt>
      <trkpt lat="47.07512" lon="-1.78223">
        <ele>66</ele>
        <time>2021-02-14T12:56:42.000Z</time>
      </trkpt>
      <trkpt lat="47.07504" lon="-1.7821">
        <ele>65</ele>
        <time>2021-02-14T12:56:44.000Z</time>
      </trkpt>
      <trkpt lat="47.07497" lon="-1.78198">
        <ele>65</ele>
        <time>2021-02-14T12:56:46.000Z</time>
      </trkpt>
      <trkpt lat="47.07489" lon="-1.78187">
        <ele>65</ele>
        <time>2021-02-14T12:56:48.000Z</time>
      </trkpt>
      <trkpt lat="47.07481" lon="-1.78176">
        <ele>65</ele>
        <time>2021-02-14T12:56:50.000Z</time>
      </trkpt>
      <trkpt lat="47.07473" lon="-1.78166">
        <ele>66</ele>
        <time>2021-02-14T12:56:52.000Z</time>
      </trkpt>
      <trkpt lat="47.07465" lon="-1.78158">
        <ele>66</ele>
        <time>2021-02-14T12:56:54.000Z</time>
      </trkpt>
      <trkpt lat="47.07457" lon="-1.78149">
        <ele>66</ele>
        <time>2021-02-14T12:56:56.000Z</time>
      </trkpt>
      <trkpt lat="47.07448" lon="-1.78142">
        <ele>66</ele>
        <time>2021-02-14T12:56:58.000Z</time>
      </trkpt>
      <trkpt lat="47.07439" lon="-1.78134">
        <ele>66</ele>
        <time>2021-02-14T12:57:00.000Z</time>
      </trkpt>
      <trkpt lat="47.07431" lon="-1.78127">
        <ele>67</ele>
        <time>2021-02-14T12:57:02.000Z</time>
      </trkpt>
      <trkpt lat="47.07422" lon="-1.78119">
        <ele>67</ele>
        <time>2021-02-14T12:57:04.000Z</time>
      </trkpt>
      <trkpt lat="47.07413" lon="-1.78112">
        <ele>67</ele>
        <time>2021-02-14T12:57:06.000Z</time>
      </trkpt>
      <trkpt lat="47.07405" lon="-1.78103">
        <ele>67</ele>
        <time>2021-02-14T12:57:08.000Z</time>
      </trkpt>
      <trkpt lat="47.07397" lon="-1.78094">
        <ele>67</ele>
        <time>2021-02-14T12:57:10.000Z</time>
      </trkpt>
      <trkpt lat="47.07389" lon="-1.78085">
        <ele>68</ele>
        <time>2021-02-14T12:57:12.000Z</time>
      </trkpt>
      <trkpt lat="47.07381" lon="-1.78076">
        <ele>67</ele>
        <time>2021-02-14T12:57:14.000Z</time>
      </trkpt>
      <trkpt lat="47.07373" lon="-1.78067">
        <ele>67</ele>
        <time>2021-02-14T12:57:16.000Z</time>
      </trkpt>
      <trkpt lat="47.07365" lon="-1.78057">
        <ele>67</ele>
        <time>2021-02-14T12:57:18.000Z</time>
      </trkpt>
      <trkpt lat="47.07358" lon="-1.78047">
        <ele>67</ele>
        <time>2021-02-14T12:57:20.000Z</time>
      </trkpt>
      <trkpt lat="47.0735" lon="-1.78038">
        <ele>67</ele>
        <time>2021-02-14T12:57:22.000Z</time>
      </trkpt>
      <trkpt lat="47.07341" lon="-1.78027">
        <ele>67</ele>
        <time>2021-02-14T12:57:24.000Z</time>
      </trkpt>
      <trkpt lat="47.07332" lon="-1.78016">
        <ele>67</ele>
        <time>2021-02-14T12:57:26.000Z</time>
      </trkpt>
      <trkpt lat="47.07324" lon="-1.78007">
        <ele>67</ele>
        <time>2021-02-14T12:57:28.000Z</time>
      </trkpt>
      <trkpt lat="47.07316" lon="-1.77997">
        <ele>66</ele>
        <time>2021-02-14T12:57:30.000Z</time>
      </trkpt>
      <trkpt lat="47.07309" lon="-1.77989">
        <ele>66</ele>
        <time>2021-02-14T12:57:32.000Z</time>
      </trkpt>
      <trkpt lat="47.07301" lon="-1.7798">
        <ele>66</ele>
        <time>2021-02-14T12:57:34.000Z</time>
      </trkpt>
      <trkpt lat="47.07294" lon="-1.77971">
        <ele>66</ele>
        <time>2021-02-14T12:57:36.000Z</time>
      </trkpt>
      <trkpt lat="47.07285" lon="-1.77962">
        <ele>66</ele>
        <time>2021-02-14T12:57:38.000Z</time>
      </trkpt>
      <trkpt lat="47.07276" lon="-1.77952">
        <ele>66</ele>
        <time>2021-02-14T12:57:40.000Z</time>
      </trkpt>
      <trkpt lat="47.07269" lon="-1.77942">
        <ele>67</ele>
        <time>2021-02-14T12:57:42.000Z</time>
      </trkpt>
      <trkpt lat="47.0726" lon="-1.77932">
        <ele>67</ele>
        <time>2021-02-14T12:57:44.000Z</time>
      </trkpt>
      <trkpt lat="47.07252" lon="-1.77922">
        <ele>67</ele>
        <time>2021-02-14T12:57:46.000Z</time>
      </trkpt>
      <trkpt lat="47.07244" lon="-1.77913">
        <ele>68</ele>
        <time>2021-02-14T12:57:48.000Z</time>
      </trkpt>
      <trkpt lat="47.07236" lon="-1.77903">
        <ele>69</ele>
        <time>2021-02-14T12:57:50.000Z</time>
      </trkpt>
      <trkpt lat="47.07227" lon="-1.77893">
        <ele>68</ele>
        <time>2021-02-14T12:57:52.000Z</time>
      </trkpt>
      <trkpt lat="47.07219" lon="-1.77883">
        <ele>68</ele>
        <time>2021-02-14T12:57:54.000Z</time>
      </trkpt>
      <trkpt lat="47.07211" lon="-1.77872">
        <ele>68</ele>
        <time>2021-02-14T12:57:56.000Z</time>
      </trkpt>
      <trkpt lat="47.07202" lon="-1.77862">
        <ele>68</ele>
        <time>2021-02-14T12:57:58.000Z</time>
      </trkpt>
      <trkpt lat="47.07194" lon="-1.7785">
        <ele>69</ele>
        <time>2021-02-14T12:58:00.000Z</time>
      </trkpt>
      <trkpt lat="47.07185" lon="-1.7784">
        <ele>69</ele>
        <time>2021-02-14T12:58:02.000Z</time>
      </trkpt>
      <trkpt lat="47.07177" lon="-1.7783">
        <ele>69</ele>
        <time>2021-02-14T12:58:04.000Z</time>
      </trkpt>
      <trkpt lat="47.07169" lon="-1.7782">
        <ele>69</ele>
        <time>2021-02-14T12:58:06.000Z</time>
      </trkpt>
      <trkpt lat="47.0716" lon="-1.77809">
        <ele>69</ele>
        <time>2021-02-14T12:58:08.000Z</time>
      </trkpt>
      <trkpt lat="47.07152" lon="-1.77798">
        <ele>69</ele>
        <time>2021-02-14T12:58:10.000Z</time>
      </trkpt>
      <trkpt lat="47.07145" lon="-1.77787">
        <ele>69</ele>
        <time>2021-02-14T12:58:12.000Z</time>
      </trkpt>
      <trkpt lat="47.07137" lon="-1.77774">
        <ele>69</ele>
        <time>2021-02-14T12:58:14.000Z</time>
      </trkpt>
      <trkpt lat="47.07131" lon="-1.77761">
        <ele>70</ele>
        <time>2021-02-14T12:58:16.000Z</time>
      </trkpt>
      <trkpt lat="47.07124" lon="-1.77749">
        <ele>69</ele>
        <time>2021-02-14T12:58:18.000Z</time>
      </trkpt>
      <trkpt lat="47.07118" lon="-1.77736">
        <ele>69</ele>
        <time>2021-02-14T12:58:20.000Z</time>
      </trkpt>
      <trkpt lat="47.07113" lon="-1.77721">
        <ele>69</ele>
        <time>2021-02-14T12:58:22.000Z</time>
      </trkpt>
      <trkpt lat="47.07107" lon="-1.77707">
        <ele>69</ele>
        <time>2021-02-14T12:58:24.000Z</time>
      </trkpt>
      <trkpt lat="47.07102" lon="-1.77694">
        <ele>69</ele>
        <time>2021-02-14T12:58:26.000Z</time>
      </trkpt>
      <trkpt lat="47.07097" lon="-1.77679">
        <ele>69</ele>
        <time>2021-02-14T12:58:28.000Z</time>
      </trkpt>
      <trkpt lat="47.07091" lon="-1.77665">
        <ele>69</ele>
        <time>2021-02-14T12:58:30.000Z</time>
      </trkpt>
      <trkpt lat="47.07085" lon="-1.77652">
        <ele>69</ele>
        <time>2021-02-14T12:58:32.000Z</time>
      </trkpt>
      <trkpt lat="47.0708" lon="-1.77638">
        <ele>69</ele>
        <time>2021-02-14T12:58:34.000Z</time>
      </trkpt>
      <trkpt lat="47.07075" lon="-1.77624">
        <ele>69</ele>
        <time>2021-02-14T12:58:36.000Z</time>
      </trkpt>
      <trkpt lat="47.07069" lon="-1.7761">
        <ele>69</ele>
        <time>2021-02-14T12:58:38.000Z</time>
      </trkpt>
      <trkpt lat="47.07064" lon="-1.77596">
        <ele>69</ele>
        <time>2021-02-14T12:58:40.000Z</time>
      </trkpt>
      <trkpt lat="47.07058" lon="-1.77582">
        <ele>69</ele>
        <time>2021-02-14T12:58:42.000Z</time>
      </trkpt>
      <trkpt lat="47.07053" lon="-1.77568">
        <ele>69</ele>
        <time>2021-02-14T12:58:44.000Z</time>
      </trkpt>
      <trkpt lat="47.07047" lon="-1.77554">
        <ele>70</ele>
        <time>2021-02-14T12:58:46.000Z</time>
      </trkpt>
      <trkpt lat="47.07042" lon="-1.7754">
        <ele>70</ele>
        <time>2021-02-14T12:58:48.000Z</time>
      </trkpt>
      <trkpt lat="47.07037" lon="-1.77526">
        <ele>71</ele>
        <time>2021-02-14T12:58:50.000Z</time>
      </trkpt>
      <trkpt lat="47.07032" lon="-1.77513">
        <ele>71</ele>
        <time>2021-02-14T12:58:52.000Z</time>
      </trkpt>
      <trkpt lat="47.07026" lon="-1.77499">
        <ele>71</ele>
        <time>2021-02-14T12:58:54.000Z</time>
      </trkpt>
      <trkpt lat="47.0702" lon="-1.77486">
        <ele>71</ele>
        <time>2021-02-14T12:58:56.000Z</time>
      </trkpt>
      <trkpt lat="47.07014" lon="-1.77471">
        <ele>71</ele>
        <time>2021-02-14T12:58:58.000Z</time>
      </trkpt>
      <trkpt lat="47.07007" lon="-1.77457">
        <ele>71</ele>
        <time>2021-02-14T12:59:00.000Z</time>
      </trkpt>
      <trkpt lat="47.07" lon="-1.77445">
        <ele>71</ele>
        <time>2021-02-14T12:59:02.000Z</time>
      </trkpt>
      <trkpt lat="47.06994" lon="-1.77432">
        <ele>70</ele>
        <time>2021-02-14T12:59:04.000Z</time>
      </trkpt>
      <trkpt lat="47.06986" lon="-1.77419">
        <ele>71</ele>
        <time>2021-02-14T12:59:06.000Z</time>
      </trkpt>
      <trkpt lat="47.06978" lon="-1.77408">
        <ele>71</ele>
        <time>2021-02-14T12:59:08.000Z</time>
      </trkpt>
      <trkpt lat="47.06971" lon="-1.77396">
        <ele>71</ele>
        <time>2021-02-14T12:59:10.000Z</time>
      </trkpt>
      <trkpt lat="47.06962" lon="-1.77384">
        <ele>71</ele>
        <time>2021-02-14T12:59:12.000Z</time>
      </trkpt>
      <trkpt lat="47.06954" lon="-1.77373">
        <ele>71</ele>
        <time>2021-02-14T12:59:14.000Z</time>
      </trkpt>
      <trkpt lat="47.06946" lon="-1.77362">
        <ele>71</ele>
        <time>2021-02-14T12:59:16.000Z</time>
      </trkpt>
      <trkpt lat="47.06938" lon="-1.77351">
        <ele>71</ele>
        <time>2021-02-14T12:59:18.000Z</time>
      </trkpt>
      <trkpt lat="47.0693" lon="-1.7734">
        <ele>71</ele>
        <time>2021-02-14T12:59:20.000Z</time>
      </trkpt>
      <trkpt lat="47.06921" lon="-1.7733">
        <ele>71</ele>
        <time>2021-02-14T12:59:22.000Z</time>
      </trkpt>
      <trkpt lat="47.06914" lon="-1.77319">
        <ele>71</ele>
        <time>2021-02-14T12:59:24.000Z</time>
      </trkpt>
      <trkpt lat="47.06906" lon="-1.77308">
        <ele>72</ele>
        <time>2021-02-14T12:59:26.000Z</time>
      </trkpt>
      <trkpt lat="47.06898" lon="-1.77297">
        <ele>72</ele>
        <time>2021-02-14T12:59:28.000Z</time>
      </trkpt>
      <trkpt lat="47.0689" lon="-1.77286">
        <ele>72</ele>
        <time>2021-02-14T12:59:30.000Z</time>
      </trkpt>
      <trkpt lat="47.06882" lon="-1.77275">
        <ele>72</ele>
        <time>2021-02-14T12:59:32.000Z</time>
      </trkpt>
      <trkpt lat="47.06874" lon="-1.77263">
        <ele>72</ele>
        <time>2021-02-14T12:59:34.000Z</time>
      </trkpt>
      <trkpt lat="47.06866" lon="-1.77253">
        <ele>72</ele>
        <time>2021-02-14T12:59:36.000Z</time>
      </trkpt>
      <trkpt lat="47.06858" lon="-1.77241">
        <ele>72</ele>
        <time>2021-02-14T12:59:38.000Z</time>
      </trkpt>
      <trkpt lat="47.0685" lon="-1.7723">
        <ele>72</ele>
        <time>2021-02-14T12:59:40.000Z</time>
      </trkpt>
      <trkpt lat="47.06842" lon="-1.77219">
        <ele>72</ele>
        <time>2021-02-14T12:59:42.000Z</time>
      </trkpt>
      <trkpt lat="47.06835" lon="-1.77209">
        <ele>73</ele>
        <time>2021-02-14T12:59:44.000Z</time>
      </trkpt>
      <trkpt lat="47.06827" lon="-1.77198">
        <ele>73</ele>
        <time>2021-02-14T12:59:46.000Z</time>
      </trkpt>
      <trkpt lat="47.06819" lon="-1.77186">
        <ele>73</ele>
        <time>2021-02-14T12:59:48.000Z</time>
      </trkpt>
      <trkpt lat="47.06812" lon="-1.77173">
        <ele>73</ele>
        <time>2021-02-14T12:59:50.000Z</time>
      </trkpt>
      <trkpt lat="47.06806" lon="-1.77163">
        <ele>74</ele>
        <time>2021-02-14T12:59:52.000Z</time>
      </trkpt>
      <trkpt lat="47.06798" lon="-1.77152">
        <ele>74</ele>
        <time>2021-02-14T12:59:54.000Z</time>
      </trkpt>
      <trkpt lat="47.06791" lon="-1.77139">
        <ele>73</ele>
        <time>2021-02-14T12:59:56.000Z</time>
      </trkpt>
      <trkpt lat="47.06784" lon="-1.77128">
        <ele>74</ele>
        <time>2021-02-14T12:59:58.000Z</time>
      </trkpt>
      <trkpt lat="47.06777" lon="-1.77117">
        <ele>74</ele>
        <time>2021-02-14T13:00:00.000Z</time>
      </trkpt>
      <trkpt lat="47.0677" lon="-1.77105">
        <ele>74</ele>
        <time>2021-02-14T13:00:02.000Z</time>
      </trkpt>
      <trkpt lat="47.06763" lon="-1.77093">
        <ele>74</ele>
        <time>2021-02-14T13:00:04.000Z</time>
      </trkpt>
      <trkpt lat="47.06756" lon="-1.77082">
        <ele>74</ele>
        <time>2021-02-14T13:00:06.000Z</time>
      </trkpt>
      <trkpt lat="47.06749" lon="-1.7707">
        <ele>74</ele>
        <time>2021-02-14T13:00:08.000Z</time>
      </trkpt>
      <trkpt lat="47.06742" lon="-1.77058">
        <ele>74</ele>
        <time>2021-02-14T13:00:10.000Z</time>
      </trkpt>
      <trkpt lat="47.06736" lon="-1.77046">
        <ele>74</ele>
        <time>2021-02-14T13:00:12.000Z</time>
      </trkpt>
      <trkpt lat="47.06729" lon="-1.77034">
        <ele>74</ele>
        <time>2021-02-14T13:00:14.000Z</time>
      </trkpt>
      <trkpt lat="47.06722" lon="-1.77023">
        <ele>75</ele>
        <time>2021-02-14T13:00:16.000Z</time>
      </trkpt>
      <trkpt lat="47.06715" lon="-1.77012">
        <ele>75</ele>
        <time>2021-02-14T13:00:18.000Z</time>
      </trkpt>
      <trkpt lat="47.06707" lon="-1.76999">
        <ele>75</ele>
        <time>2021-02-14T13:00:20.000Z</time>
      </trkpt>
      <trkpt lat="47.067" lon="-1.76987">
        <ele>75</ele>
        <time>2021-02-14T13:00:22.000Z</time>
      </trkpt>
      <trkpt lat="47.06694" lon="-1.76975">
        <ele>75</ele>
        <time>2021-02-14T13:00:24.000Z</time>
      </trkpt>
      <trkpt lat="47.06687" lon="-1.76964">
        <ele>75</ele>
        <time>2021-02-14T13:00:26.000Z</time>
      </trkpt>
      <trkpt lat="47.0668" lon="-1.76952">
        <ele>75</ele>
        <time>2021-02-14T13:00:28.000Z</time>
      </trkpt>
      <trkpt lat="47.06673" lon="-1.76941">
        <ele>75</ele>
        <time>2021-02-14T13:00:30.000Z</time>
      </trkpt>
      <trkpt lat="47.06666" lon="-1.7693">
        <ele>75</ele>
        <time>2021-02-14T13:00:32.000Z</time>
      </trkpt>
      <trkpt lat="47.0666" lon="-1.76919">
        <ele>75</ele>
        <time>2021-02-14T13:00:34.000Z</time>
      </trkpt>
      <trkpt lat="47.06653" lon="-1.76909">
        <ele>75</ele>
        <time>2021-02-14T13:00:36.000Z</time>
      </trkpt>
      <trkpt lat="47.06647" lon="-1.76898">
        <ele>75</ele>
        <time>2021-02-14T13:00:38.000Z</time>
      </trkpt>
      <trkpt lat="47.0664" lon="-1.76886">
        <ele>76</ele>
        <time>2021-02-14T13:00:40.000Z</time>
      </trkpt>
      <trkpt lat="47.06633" lon="-1.76875">
        <ele>76</ele>
        <time>2021-02-14T13:00:42.000Z</time>
      </trkpt>
      <trkpt lat="47.06627" lon="-1.76864">
        <ele>76</ele>
        <time>2021-02-14T13:00:44.000Z</time>
      </trkpt>
      <trkpt lat="47.0662" lon="-1.76853">
        <ele>77</ele>
        <time>2021-02-14T13:00:46.000Z</time>
      </trkpt>
      <trkpt lat="47.06613" lon="-1.76842">
        <ele>77</ele>
        <time>2021-02-14T13:00:48.000Z</time>
      </trkpt>
      <trkpt lat="47.06607" lon="-1.76831">
        <ele>77</ele>
        <time>2021-02-14T13:00:50.000Z</time>
      </trkpt>
      <trkpt lat="47.066" lon="-1.7682">
        <ele>78</ele>
        <time>2021-02-14T13:00:52.000Z</time>
      </trkpt>
      <trkpt lat="47.06594" lon="-1.76809">
        <ele>78</ele>
        <time>2021-02-14T13:00:54.000Z</time>
      </trkpt>
      <trkpt lat="47.06587" lon="-1.76798">
        <ele>78</ele>
        <time>2021-02-14T13:00:56.000Z</time>
      </trkpt>
      <trkpt lat="47.06581" lon="-1.76787">
        <ele>79</ele>
        <time>2021-02-14T13:00:58.000Z</time>
      </trkpt>
      <trkpt lat="47.06575" lon="-1.76777">
        <ele>79</ele>
        <time>2021-02-14T13:01:00.000Z</time>
      </trkpt>
      <trkpt lat="47.06568" lon="-1.76766">
        <ele>79</ele>
        <time>2021-02-14T13:01:02.000Z</time>
      </trkpt>
      <trkpt lat="47.06562" lon="-1.76754">
        <ele>78</ele>
        <time>2021-02-14T13:01:04.000Z</time>
      </trkpt>
      <trkpt lat="47.06556" lon="-1.76744">
        <ele>79</ele>
        <time>2021-02-14T13:01:06.000Z</time>
      </trkpt>
      <trkpt lat="47.06549" lon="-1.76733">
        <ele>78</ele>
        <time>2021-02-14T13:01:08.000Z</time>
      </trkpt>
      <trkpt lat="47.06543" lon="-1.76722">
        <ele>79</ele>
        <time>2021-02-14T13:01:10.000Z</time>
      </trkpt>
      <trkpt lat="47.06536" lon="-1.76711">
        <ele>78</ele>
        <time>2021-02-14T13:01:12.000Z</time>
      </trkpt>
      <trkpt lat="47.06529" lon="-1.767">
        <ele>78</ele>
        <time>2021-02-14T13:01:14.000Z</time>
      </trkpt>
      <trkpt lat="47.06523" lon="-1.76689">
        <ele>78</ele>
        <time>2021-02-14T13:01:16.000Z</time>
      </trkpt>
      <trkpt lat="47.06517" lon="-1.76678">
        <ele>78</ele>
        <time>2021-02-14T13:01:18.000Z</time>
      </trkpt>
      <trkpt lat="47.06511" lon="-1.76666">
        <ele>78</ele>
        <time>2021-02-14T13:01:20.000Z</time>
      </trkpt>
      <trkpt lat="47.06504" lon="-1.76655">
        <ele>77</ele>
        <time>2021-02-14T13:01:22.000Z</time>
      </trkpt>
      <trkpt lat="47.06497" lon="-1.76643">
        <ele>77</ele>
        <time>2021-02-14T13:01:24.000Z</time>
      </trkpt>
      <trkpt lat="47.0649" lon="-1.76631">
        <ele>77</ele>
        <time>2021-02-14T13:01:26.000Z</time>
      </trkpt>
      <trkpt lat="47.06483" lon="-1.76618">
        <ele>77</ele>
        <time>2021-02-14T13:01:28.000Z</time>
      </trkpt>
      <trkpt lat="47.06476" lon="-1.76606">
        <ele>77</ele>
        <time>2021-02-14T13:01:30.000Z</time>
      </trkpt>
      <trkpt lat="47.06469" lon="-1.76592">
        <ele>77</ele>
        <time>2021-02-14T13:01:32.000Z</time>
      </trkpt>
      <trkpt lat="47.06463" lon="-1.76579">
        <ele>77</ele>
        <time>2021-02-14T13:01:34.000Z</time>
      </trkpt>
      <trkpt lat="47.06457" lon="-1.76564">
        <ele>76</ele>
        <time>2021-02-14T13:01:36.000Z</time>
      </trkpt>
      <trkpt lat="47.06451" lon="-1.76551">
        <ele>76</ele>
        <time>2021-02-14T13:01:38.000Z</time>
      </trkpt>
      <trkpt lat="47.06446" lon="-1.76536">
        <ele>76</ele>
        <time>2021-02-14T13:01:40.000Z</time>
      </trkpt>
      <trkpt lat="47.0644" lon="-1.76521">
        <ele>76</ele>
        <time>2021-02-14T13:01:42.000Z</time>
      </trkpt>
      <trkpt lat="47.06434" lon="-1.76507">
        <ele>76</ele>
        <time>2021-02-14T13:01:44.000Z</time>
      </trkpt>
      <trkpt lat="47.06428" lon="-1.76493">
        <ele>76</ele>
        <time>2021-02-14T13:01:46.000Z</time>
      </trkpt>
      <trkpt lat="47.06422" lon="-1.76478">
        <ele>76</ele>
        <time>2021-02-14T13:01:48.000Z</time>
      </trkpt>
      <trkpt lat="47.06416" lon="-1.76464">
        <ele>77</ele>
        <time>2021-02-14T13:01:50.000Z</time>
      </trkpt>
      <trkpt lat="47.0641" lon="-1.7645">
        <ele>77</ele>
        <time>2021-02-14T13:01:52.000Z</time>
      </trkpt>
      <trkpt lat="47.06402" lon="-1.76437">
        <ele>76</ele>
        <time>2021-02-14T13:01:54.000Z</time>
      </trkpt>
      <trkpt lat="47.06394" lon="-1.76426">
        <ele>76</ele>
        <time>2021-02-14T13:01:56.000Z</time>
      </trkpt>
      <trkpt lat="47.06385" lon="-1.76417">
        <ele>76</ele>
        <time>2021-02-14T13:01:58.000Z</time>
      </trkpt>
      <trkpt lat="47.06375" lon="-1.76408">
        <ele>76</ele>
        <time>2021-02-14T13:02:00.000Z</time>
      </trkpt>
      <trkpt lat="47.06365" lon="-1.76402">
        <ele>76</ele>
        <time>2021-02-14T13:02:02.000Z</time>
      </trkpt>
      <trkpt lat="47.06355" lon="-1.76397">
        <ele>76</ele>
        <time>2021-02-14T13:02:04.000Z</time>
      </trkpt>
      <trkpt lat="47.06344" lon="-1.76392">
        <ele>76</ele>
        <time>2021-02-14T13:02:06.000Z</time>
      </trkpt>
      <trkpt lat="47.06333" lon="-1.76388">
        <ele>76</ele>
        <time>2021-02-14T13:02:08.000Z</time>
      </trkpt>
      <trkpt lat="47.06323" lon="-1.76383">
        <ele>76</ele>
        <time>2021-02-14T13:02:10.000Z</time>
      </trkpt>
      <trkpt lat="47.06314" lon="-1.76376">
        <ele>76</ele>
        <time>2021-02-14T13:02:12.000Z</time>
      </trkpt>
      <trkpt lat="47.06306" lon="-1.76365">
        <ele>76</ele>
        <time>2021-02-14T13:02:14.000Z</time>
      </trkpt>
      <trkpt lat="47.06301" lon="-1.76355">
        <ele>77</ele>
        <time>2021-02-14T13:02:16.000Z</time>
      </trkpt>
      <trkpt lat="47.06296" lon="-1.76338">
        <ele>76</ele>
        <time>2021-02-14T13:02:19.000Z</time>
      </trkpt>
      <trkpt lat="47.06294" lon="-1.76323">
        <ele>76</ele>
        <time>2021-02-14T13:02:21.000Z</time>
      </trkpt>
      <trkpt lat="47.06294" lon="-1.76306">
        <ele>76</ele>
        <time>2021-02-14T13:02:23.000Z</time>
      </trkpt>
      <trkpt lat="47.06296" lon="-1.76289">
        <ele>77</ele>
        <time>2021-02-14T13:02:25.000Z</time>
      </trkpt>
      <trkpt lat="47.06299" lon="-1.76272">
        <ele>77</ele>
        <time>2021-02-14T13:02:27.000Z</time>
      </trkpt>
      <trkpt lat="47.06299" lon="-1.76256">
        <ele>77</ele>
        <time>2021-02-14T13:02:29.000Z</time>
      </trkpt>
      <trkpt lat="47.06298" lon="-1.76238">
        <ele>77</ele>
        <time>2021-02-14T13:02:31.000Z</time>
      </trkpt>
      <trkpt lat="47.06296" lon="-1.76221">
        <ele>77</ele>
        <time>2021-02-14T13:02:33.000Z</time>
      </trkpt>
      <trkpt lat="47.06293" lon="-1.76205">
        <ele>76</ele>
        <time>2021-02-14T13:02:35.000Z</time>
      </trkpt>
      <trkpt lat="47.06289" lon="-1.7619">
        <ele>77</ele>
        <time>2021-02-14T13:02:37.000Z</time>
      </trkpt>
      <trkpt lat="47.06283" lon="-1.76175">
        <ele>76</ele>
        <time>2021-02-14T13:02:39.000Z</time>
      </trkpt>
      <trkpt lat="47.06276" lon="-1.7616">
        <ele>77</ele>
        <time>2021-02-14T13:02:41.000Z</time>
      </trkpt>
      <trkpt lat="47.06269" lon="-1.76147">
        <ele>76</ele>
        <time>2021-02-14T13:02:43.000Z</time>
      </trkpt>
      <trkpt lat="47.0626" lon="-1.76135">
        <ele>76</ele>
        <time>2021-02-14T13:02:45.000Z</time>
      </trkpt>
      <trkpt lat="47.06252" lon="-1.76125">
        <ele>76</ele>
        <time>2021-02-14T13:02:47.000Z</time>
      </trkpt>
      <trkpt lat="47.06242" lon="-1.76114">
        <ele>76</ele>
        <time>2021-02-14T13:02:49.000Z</time>
      </trkpt>
      <trkpt lat="47.06233" lon="-1.76106">
        <ele>76</ele>
        <time>2021-02-14T13:02:51.000Z</time>
      </trkpt>
      <trkpt lat="47.06223" lon="-1.76095">
        <ele>75</ele>
        <time>2021-02-14T13:02:53.000Z</time>
      </trkpt>
      <trkpt lat="47.06214" lon="-1.76083">
        <ele>75</ele>
        <time>2021-02-14T13:02:55.000Z</time>
      </trkpt>
      <trkpt lat="47.06202" lon="-1.7607">
        <ele>75</ele>
        <time>2021-02-14T13:02:57.000Z</time>
      </trkpt>
      <trkpt lat="47.06191" lon="-1.76058">
        <ele>75</ele>
        <time>2021-02-14T13:02:59.000Z</time>
      </trkpt>
      <trkpt lat="47.06181" lon="-1.76047">
        <ele>76</ele>
        <time>2021-02-14T13:03:01.000Z</time>
      </trkpt>
      <trkpt lat="47.06171" lon="-1.76034">
        <ele>76</ele>
        <time>2021-02-14T13:03:03.000Z</time>
      </trkpt>
      <trkpt lat="47.06161" lon="-1.7602">
        <ele>77</ele>
        <time>2021-02-14T13:03:05.000Z</time>
      </trkpt>
      <trkpt lat="47.0615" lon="-1.76006">
        <ele>76</ele>
        <time>2021-02-14T13:03:07.000Z</time>
      </trkpt>
      <trkpt lat="47.0614" lon="-1.75994">
        <ele>75</ele>
        <time>2021-02-14T13:03:09.000Z</time>
      </trkpt>
      <trkpt lat="47.0613" lon="-1.75982">
        <ele>74</ele>
        <time>2021-02-14T13:03:11.000Z</time>
      </trkpt>
      <trkpt lat="47.06119" lon="-1.7597">
        <ele>73</ele>
        <time>2021-02-14T13:03:13.000Z</time>
      </trkpt>
      <trkpt lat="47.0611" lon="-1.75957">
        <ele>73</ele>
        <time>2021-02-14T13:03:15.000Z</time>
      </trkpt>
      <trkpt lat="47.06099" lon="-1.75945">
        <ele>73</ele>
        <time>2021-02-14T13:03:17.000Z</time>
      </trkpt>
      <trkpt lat="47.06089" lon="-1.75934">
        <ele>72</ele>
        <time>2021-02-14T13:03:19.000Z</time>
      </trkpt>
      <trkpt lat="47.06079" lon="-1.75923">
        <ele>72</ele>
        <time>2021-02-14T13:03:21.000Z</time>
      </trkpt>
      <trkpt lat="47.06069" lon="-1.7591">
        <ele>72</ele>
        <time>2021-02-14T13:03:23.000Z</time>
      </trkpt>
      <trkpt lat="47.06058" lon="-1.75897">
        <ele>72</ele>
        <time>2021-02-14T13:03:25.000Z</time>
      </trkpt>
      <trkpt lat="47.06047" lon="-1.75884">
        <ele>72</ele>
        <time>2021-02-14T13:03:27.000Z</time>
      </trkpt>
      <trkpt lat="47.06037" lon="-1.75872">
        <ele>72</ele>
        <time>2021-02-14T13:03:29.000Z</time>
      </trkpt>
      <trkpt lat="47.06027" lon="-1.7586">
        <ele>71</ele>
        <time>2021-02-14T13:03:31.000Z</time>
      </trkpt>
      <trkpt lat="47.06017" lon="-1.75848">
        <ele>71</ele>
        <time>2021-02-14T13:03:33.000Z</time>
      </trkpt>
      <trkpt lat="47.06008" lon="-1.75837">
        <ele>72</ele>
        <time>2021-02-14T13:03:35.000Z</time>
      </trkpt>
      <trkpt lat="47.05997" lon="-1.75825">
        <ele>72</ele>
        <time>2021-02-14T13:03:37.000Z</time>
      </trkpt>
      <trkpt lat="47.05987" lon="-1.75811">
        <ele>71</ele>
        <time>2021-02-14T13:03:39.000Z</time>
      </trkpt>
      <trkpt lat="47.05977" lon="-1.75799">
        <ele>71</ele>
        <time>2021-02-14T13:03:41.000Z</time>
      </trkpt>
      <trkpt lat="47.05967" lon="-1.75786">
        <ele>71</ele>
        <time>2021-02-14T13:03:43.000Z</time>
      </trkpt>
      <trkpt lat="47.05958" lon="-1.75773">
        <ele>71</ele>
        <time>2021-02-14T13:03:45.000Z</time>
      </trkpt>
      <trkpt lat="47.0595" lon="-1.75758">
        <ele>71</ele>
        <time>2021-02-14T13:03:47.000Z</time>
      </trkpt>
      <trkpt lat="47.05943" lon="-1.75742">
        <ele>71</ele>
        <time>2021-02-14T13:03:49.000Z</time>
      </trkpt>
      <trkpt lat="47.05936" lon="-1.75725">
        <ele>71</ele>
        <time>2021-02-14T13:03:51.000Z</time>
      </trkpt>
      <trkpt lat="47.0593" lon="-1.75708">
        <ele>71</ele>
        <time>2021-02-14T13:03:53.000Z</time>
      </trkpt>
      <trkpt lat="47.05924" lon="-1.75692">
        <ele>71</ele>
        <time>2021-02-14T13:03:55.000Z</time>
      </trkpt>
      <trkpt lat="47.05918" lon="-1.75676">
        <ele>71</ele>
        <time>2021-02-14T13:03:57.000Z</time>
      </trkpt>
      <trkpt lat="47.05913" lon="-1.75658">
        <ele>71</ele>
        <time>2021-02-14T13:03:59.000Z</time>
      </trkpt>
      <trkpt lat="47.05907" lon="-1.75642">
        <ele>71</ele>
        <time>2021-02-14T13:04:01.000Z</time>
      </trkpt>
      <trkpt lat="47.05902" lon="-1.75625">
        <ele>70</ele>
        <time>2021-02-14T13:04:03.000Z</time>
      </trkpt>
      <trkpt lat="47.05896" lon="-1.75609">
        <ele>70</ele>
        <time>2021-02-14T13:04:05.000Z</time>
      </trkpt>
      <trkpt lat="47.0589" lon="-1.75592">
        <ele>70</ele>
        <time>2021-02-14T13:04:07.000Z</time>
      </trkpt>
      <trkpt lat="47.05885" lon="-1.75576">
        <ele>70</ele>
        <time>2021-02-14T13:04:09.000Z</time>
      </trkpt>
      <trkpt lat="47.05879" lon="-1.75559">
        <ele>70</ele>
        <time>2021-02-14T13:04:11.000Z</time>
      </trkpt>
      <trkpt lat="47.05873" lon="-1.75543">
        <ele>70</ele>
        <time>2021-02-14T13:04:13.000Z</time>
      </trkpt>
      <trkpt lat="47.05868" lon="-1.75525">
        <ele>69</ele>
        <time>2021-02-14T13:04:15.000Z</time>
      </trkpt>
      <trkpt lat="47.05863" lon="-1.7551">
        <ele>69</ele>
        <time>2021-02-14T13:04:17.000Z</time>
      </trkpt>
      <trkpt lat="47.05857" lon="-1.75494">
        <ele>70</ele>
        <time>2021-02-14T13:04:19.000Z</time>
      </trkpt>
      <trkpt lat="47.05852" lon="-1.75477">
        <ele>69</ele>
        <time>2021-02-14T13:04:21.000Z</time>
      </trkpt>
      <trkpt lat="47.05846" lon="-1.75461">
        <ele>69</ele>
        <time>2021-02-14T13:04:23.000Z</time>
      </trkpt>
      <trkpt lat="47.0584" lon="-1.75446">
        <ele>69</ele>
        <time>2021-02-14T13:04:25.000Z</time>
      </trkpt>
      <trkpt lat="47.05834" lon="-1.7543">
        <ele>69</ele>
        <time>2021-02-14T13:04:27.000Z</time>
      </trkpt>
      <trkpt lat="47.05829" lon="-1.75416">
        <ele>69</ele>
        <time>2021-02-14T13:04:29.000Z</time>
      </trkpt>
      <trkpt lat="47.05822" lon="-1.75401">
        <ele>69</ele>
        <time>2021-02-14T13:04:31.000Z</time>
      </trkpt>
      <trkpt lat="47.05817" lon="-1.75385">
        <ele>69</ele>
        <time>2021-02-14T13:04:33.000Z</time>
      </trkpt>
      <trkpt lat="47.0581" lon="-1.75371">
        <ele>69</ele>
        <time>2021-02-14T13:04:35.000Z</time>
      </trkpt>
      <trkpt lat="47.05804" lon="-1.75356">
        <ele>69</ele>
        <time>2021-02-14T13:04:37.000Z</time>
      </trkpt>
      <trkpt lat="47.05797" lon="-1.75341">
        <ele>68</ele>
        <time>2021-02-14T13:04:39.000Z</time>
      </trkpt>
      <trkpt lat="47.05791" lon="-1.75326">
        <ele>68</ele>
        <time>2021-02-14T13:04:41.000Z</time>
      </trkpt>
      <trkpt lat="47.05784" lon="-1.75311">
        <ele>68</ele>
        <time>2021-02-14T13:04:43.000Z</time>
      </trkpt>
      <trkpt lat="47.05777" lon="-1.75296">
        <ele>69</ele>
        <time>2021-02-14T13:04:45.000Z</time>
      </trkpt>
      <trkpt lat="47.05771" lon="-1.75282">
        <ele>68</ele>
        <time>2021-02-14T13:04:47.000Z</time>
      </trkpt>
      <trkpt lat="47.05764" lon="-1.75267">
        <ele>68</ele>
        <time>2021-02-14T13:04:49.000Z</time>
      </trkpt>
      <trkpt lat="47.05757" lon="-1.75253">
        <ele>68</ele>
        <time>2021-02-14T13:04:51.000Z</time>
      </trkpt>
      <trkpt lat="47.05751" lon="-1.75238">
        <ele>68</ele>
        <time>2021-02-14T13:04:53.000Z</time>
      </trkpt>
      <trkpt lat="47.05745" lon="-1.75223">
        <ele>68</ele>
        <time>2021-02-14T13:04:55.000Z</time>
      </trkpt>
      <trkpt lat="47.05738" lon="-1.75209">
        <ele>67</ele>
        <time>2021-02-14T13:04:57.000Z</time>
      </trkpt>
      <trkpt lat="47.05731" lon="-1.75194">
        <ele>67</ele>
        <time>2021-02-14T13:04:59.000Z</time>
      </trkpt>
      <trkpt lat="47.05724" lon="-1.75179">
        <ele>67</ele>
        <time>2021-02-14T13:05:01.000Z</time>
      </trkpt>
      <trkpt lat="47.05718" lon="-1.75163">
        <ele>67</ele>
        <time>2021-02-14T13:05:03.000Z</time>
      </trkpt>
      <trkpt lat="47.05711" lon="-1.75148">
        <ele>66</ele>
        <time>2021-02-14T13:05:05.000Z</time>
      </trkpt>
      <trkpt lat="47.05705" lon="-1.75133">
        <ele>65</ele>
        <time>2021-02-14T13:05:07.000Z</time>
      </trkpt>
      <trkpt lat="47.05698" lon="-1.75118">
        <ele>65</ele>
        <time>2021-02-14T13:05:09.000Z</time>
      </trkpt>
      <trkpt lat="47.05691" lon="-1.75103">
        <ele>65</ele>
        <time>2021-02-14T13:05:11.000Z</time>
      </trkpt>
      <trkpt lat="47.05682" lon="-1.75089">
        <ele>65</ele>
        <time>2021-02-14T13:05:13.000Z</time>
      </trkpt>
      <trkpt lat="47.05672" lon="-1.75075">
        <ele>64</ele>
        <time>2021-02-14T13:05:15.000Z</time>
      </trkpt>
      <trkpt lat="47.05661" lon="-1.75061">
        <ele>63</ele>
        <time>2021-02-14T13:05:17.000Z</time>
      </trkpt>
      <trkpt lat="47.05649" lon="-1.75048">
        <ele>62</ele>
        <time>2021-02-14T13:05:19.000Z</time>
      </trkpt>
      <trkpt lat="47.05637" lon="-1.75035">
        <ele>62</ele>
        <time>2021-02-14T13:05:21.000Z</time>
      </trkpt>
      <trkpt lat="47.05624" lon="-1.75023">
        <ele>61</ele>
        <time>2021-02-14T13:05:23.000Z</time>
      </trkpt>
      <trkpt lat="47.05611" lon="-1.7501">
        <ele>60</ele>
        <time>2021-02-14T13:05:25.000Z</time>
      </trkpt>
      <trkpt lat="47.05598" lon="-1.74997">
        <ele>60</ele>
        <time>2021-02-14T13:05:27.000Z</time>
      </trkpt>
      <trkpt lat="47.05585" lon="-1.74984">
        <ele>59</ele>
        <time>2021-02-14T13:05:29.000Z</time>
      </trkpt>
      <trkpt lat="47.05572" lon="-1.74972">
        <ele>58</ele>
        <time>2021-02-14T13:05:31.000Z</time>
      </trkpt>
      <trkpt lat="47.05559" lon="-1.74958">
        <ele>58</ele>
        <time>2021-02-14T13:05:33.000Z</time>
      </trkpt>
      <trkpt lat="47.05546" lon="-1.74946">
        <ele>58</ele>
        <time>2021-02-14T13:05:35.000Z</time>
      </trkpt>
      <trkpt lat="47.05533" lon="-1.74932">
        <ele>57</ele>
        <time>2021-02-14T13:05:37.000Z</time>
      </trkpt>
      <trkpt lat="47.05519" lon="-1.74919">
        <ele>56</ele>
        <time>2021-02-14T13:05:39.000Z</time>
      </trkpt>
      <trkpt lat="47.05506" lon="-1.74906">
        <ele>56</ele>
        <time>2021-02-14T13:05:41.000Z</time>
      </trkpt>
      <trkpt lat="47.05493" lon="-1.74894">
        <ele>56</ele>
        <time>2021-02-14T13:05:43.000Z</time>
      </trkpt>
      <trkpt lat="47.0548" lon="-1.74882">
        <ele>55</ele>
        <time>2021-02-14T13:05:45.000Z</time>
      </trkpt>
      <trkpt lat="47.05467" lon="-1.74872">
        <ele>55</ele>
        <time>2021-02-14T13:05:47.000Z</time>
      </trkpt>
      <trkpt lat="47.05455" lon="-1.7486">
        <ele>55</ele>
        <time>2021-02-14T13:05:49.000Z</time>
      </trkpt>
      <trkpt lat="47.05444" lon="-1.74851">
        <ele>55</ele>
        <time>2021-02-14T13:05:51.000Z</time>
      </trkpt>
      <trkpt lat="47.05431" lon="-1.74842">
        <ele>55</ele>
        <time>2021-02-14T13:05:53.000Z</time>
      </trkpt>
      <trkpt lat="47.05419" lon="-1.74832">
        <ele>54</ele>
        <time>2021-02-14T13:05:55.000Z</time>
      </trkpt>
      <trkpt lat="47.05408" lon="-1.74823">
        <ele>54</ele>
        <time>2021-02-14T13:05:57.000Z</time>
      </trkpt>
      <trkpt lat="47.05397" lon="-1.74813">
        <ele>54</ele>
        <time>2021-02-14T13:05:59.000Z</time>
      </trkpt>
      <trkpt lat="47.05386" lon="-1.74804">
        <ele>54</ele>
        <time>2021-02-14T13:06:01.000Z</time>
      </trkpt>
      <trkpt lat="47.05374" lon="-1.74795">
        <ele>54</ele>
        <time>2021-02-14T13:06:03.000Z</time>
      </trkpt>
      <trkpt lat="47.05363" lon="-1.74784">
        <ele>54</ele>
        <time>2021-02-14T13:06:05.000Z</time>
      </trkpt>
      <trkpt lat="47.05353" lon="-1.74772">
        <ele>54</ele>
        <time>2021-02-14T13:06:07.000Z</time>
      </trkpt>
      <trkpt lat="47.05344" lon="-1.7476">
        <ele>54</ele>
        <time>2021-02-14T13:06:09.000Z</time>
      </trkpt>
      <trkpt lat="47.05336" lon="-1.74746">
        <ele>54</ele>
        <time>2021-02-14T13:06:11.000Z</time>
      </trkpt>
      <trkpt lat="47.05328" lon="-1.74732">
        <ele>54</ele>
        <time>2021-02-14T13:06:13.000Z</time>
      </trkpt>
      <trkpt lat="47.05321" lon="-1.74719">
        <ele>55</ele>
        <time>2021-02-14T13:06:15.000Z</time>
      </trkpt>
      <trkpt lat="47.05314" lon="-1.74704">
        <ele>55</ele>
        <time>2021-02-14T13:06:17.000Z</time>
      </trkpt>
      <trkpt lat="47.05307" lon="-1.74689">
        <ele>55</ele>
        <time>2021-02-14T13:06:19.000Z</time>
      </trkpt>
      <trkpt lat="47.05301" lon="-1.74675">
        <ele>55</ele>
        <time>2021-02-14T13:06:21.000Z</time>
      </trkpt>
      <trkpt lat="47.05294" lon="-1.74662">
        <ele>56</ele>
        <time>2021-02-14T13:06:23.000Z</time>
      </trkpt>
      <trkpt lat="47.05288" lon="-1.74648">
        <ele>56</ele>
        <time>2021-02-14T13:06:25.000Z</time>
      </trkpt>
      <trkpt lat="47.05282" lon="-1.74635">
        <ele>56</ele>
        <time>2021-02-14T13:06:27.000Z</time>
      </trkpt>
      <trkpt lat="47.05276" lon="-1.74621">
        <ele>56</ele>
        <time>2021-02-14T13:06:29.000Z</time>
      </trkpt>
      <trkpt lat="47.0527" lon="-1.74608">
        <ele>56</ele>
        <time>2021-02-14T13:06:31.000Z</time>
      </trkpt>
      <trkpt lat="47.05264" lon="-1.74594">
        <ele>57</ele>
        <time>2021-02-14T13:06:33.000Z</time>
      </trkpt>
      <trkpt lat="47.05259" lon="-1.74581">
        <ele>57</ele>
        <time>2021-02-14T13:06:35.000Z</time>
      </trkpt>
      <trkpt lat="47.05253" lon="-1.74568">
        <ele>57</ele>
        <time>2021-02-14T13:06:37.000Z</time>
      </trkpt>
      <trkpt lat="47.05247" lon="-1.74555">
        <ele>57</ele>
        <time>2021-02-14T13:06:39.000Z</time>
      </trkpt>
      <trkpt lat="47.05242" lon="-1.74542">
        <ele>57</ele>
        <time>2021-02-14T13:06:41.000Z</time>
      </trkpt>
      <trkpt lat="47.05238" lon="-1.7453">
        <ele>57</ele>
        <time>2021-02-14T13:06:43.000Z</time>
      </trkpt>
      <trkpt lat="47.05233" lon="-1.74518">
        <ele>57</ele>
        <time>2021-02-14T13:06:45.000Z</time>
      </trkpt>
      <trkpt lat="47.0523" lon="-1.74505">
        <ele>57</ele>
        <time>2021-02-14T13:06:47.000Z</time>
      </trkpt>
      <trkpt lat="47.05227" lon="-1.74492">
        <ele>57</ele>
        <time>2021-02-14T13:06:49.000Z</time>
      </trkpt>
      <trkpt lat="47.05224" lon="-1.74479">
        <ele>57</ele>
        <time>2021-02-14T13:06:51.000Z</time>
      </trkpt>
      <trkpt lat="47.05222" lon="-1.74465">
        <ele>58</ele>
        <time>2021-02-14T13:06:53.000Z</time>
      </trkpt>
      <trkpt lat="47.05222" lon="-1.74451">
        <ele>58</ele>
        <time>2021-02-14T13:06:55.000Z</time>
      </trkpt>
      <trkpt lat="47.05222" lon="-1.74438">
        <ele>58</ele>
        <time>2021-02-14T13:06:57.000Z</time>
      </trkpt>
      <trkpt lat="47.05222" lon="-1.74424">
        <ele>58</ele>
        <time>2021-02-14T13:06:59.000Z</time>
      </trkpt>
      <trkpt lat="47.05222" lon="-1.7441">
        <ele>59</ele>
        <time>2021-02-14T13:07:01.000Z</time>
      </trkpt>
      <trkpt lat="47.05222" lon="-1.74391">
        <ele>60</ele>
        <time>2021-02-14T13:07:04.000Z</time>
      </trkpt>
      <trkpt lat="47.05223" lon="-1.74371">
        <ele>60</ele>
        <time>2021-02-14T13:07:07.000Z</time>
      </trkpt>
      <trkpt lat="47.05223" lon="-1.74352">
        <ele>61</ele>
        <time>2021-02-14T13:07:10.000Z</time>
      </trkpt>
      <trkpt lat="47.05222" lon="-1.74333">
        <ele>62</ele>
        <time>2021-02-14T13:07:13.000Z</time>
      </trkpt>
      <trkpt lat="47.05222" lon="-1.74319">
        <ele>63</ele>
        <time>2021-02-14T13:07:15.000Z</time>
      </trkpt>
      <trkpt lat="47.05222" lon="-1.74306">
        <ele>64</ele>
        <time>2021-02-14T13:07:17.000Z</time>
      </trkpt>
      <trkpt lat="47.05223" lon="-1.74292">
        <ele>64</ele>
        <time>2021-02-14T13:07:19.000Z</time>
      </trkpt>
      <trkpt lat="47.05223" lon="-1.74278">
        <ele>65</ele>
        <time>2021-02-14T13:07:21.000Z</time>
      </trkpt>
      <trkpt lat="47.05223" lon="-1.74264">
        <ele>65</ele>
        <time>2021-02-14T13:07:23.000Z</time>
      </trkpt>
      <trkpt lat="47.05223" lon="-1.7425">
        <ele>65</ele>
        <time>2021-02-14T13:07:25.000Z</time>
      </trkpt>
      <trkpt lat="47.05224" lon="-1.74236">
        <ele>66</ele>
        <time>2021-02-14T13:07:27.000Z</time>
      </trkpt>
      <trkpt lat="47.05224" lon="-1.74223">
        <ele>66</ele>
        <time>2021-02-14T13:07:29.000Z</time>
      </trkpt>
      <trkpt lat="47.05224" lon="-1.74202">
        <ele>67</ele>
        <time>2021-02-14T13:07:32.000Z</time>
      </trkpt>
      <trkpt lat="47.05224" lon="-1.74187">
        <ele>67</ele>
        <time>2021-02-14T13:07:34.000Z</time>
      </trkpt>
      <trkpt lat="47.05225" lon="-1.74172">
        <ele>67</ele>
        <time>2021-02-14T13:07:36.000Z</time>
      </trkpt>
      <trkpt lat="47.05226" lon="-1.74158">
        <ele>68</ele>
        <time>2021-02-14T13:07:38.000Z</time>
      </trkpt>
      <trkpt lat="47.05226" lon="-1.74143">
        <ele>68</ele>
        <time>2021-02-14T13:07:40.000Z</time>
      </trkpt>
      <trkpt lat="47.05227" lon="-1.74129">
        <ele>68</ele>
        <time>2021-02-14T13:07:42.000Z</time>
      </trkpt>
      <trkpt lat="47.05227" lon="-1.74114">
        <ele>68</ele>
        <time>2021-02-14T13:07:44.000Z</time>
      </trkpt>
      <trkpt lat="47.05227" lon="-1.741">
        <ele>68</ele>
        <time>2021-02-14T13:07:46.000Z</time>
      </trkpt>
      <trkpt lat="47.05228" lon="-1.74085">
        <ele>68</ele>
        <time>2021-02-14T13:07:48.000Z</time>
      </trkpt>
      <trkpt lat="47.05228" lon="-1.7407">
        <ele>68</ele>
        <time>2021-02-14T13:07:50.000Z</time>
      </trkpt>
      <trkpt lat="47.05228" lon="-1.74056">
        <ele>68</ele>
        <time>2021-02-14T13:07:52.000Z</time>
      </trkpt>
      <trkpt lat="47.05228" lon="-1.74041">
        <ele>68</ele>
        <time>2021-02-14T13:07:54.000Z</time>
      </trkpt>
      <trkpt lat="47.05228" lon="-1.74026">
        <ele>69</ele>
        <time>2021-02-14T13:07:56.000Z</time>
      </trkpt>
      <trkpt lat="47.05228" lon="-1.74012">
        <ele>69</ele>
        <time>2021-02-14T13:07:58.000Z</time>
      </trkpt>
      <trkpt lat="47.05229" lon="-1.73998">
        <ele>69</ele>
        <time>2021-02-14T13:08:00.000Z</time>
      </trkpt>
      <trkpt lat="47.05229" lon="-1.73983">
        <ele>70</ele>
        <time>2021-02-14T13:08:02.000Z</time>
      </trkpt>
      <trkpt lat="47.05229" lon="-1.73968">
        <ele>70</ele>
        <time>2021-02-14T13:08:04.000Z</time>
      </trkpt>
      <trkpt lat="47.05229" lon="-1.73954">
        <ele>70</ele>
        <time>2021-02-14T13:08:06.000Z</time>
      </trkpt>
      <trkpt lat="47.0523" lon="-1.73939">
        <ele>70</ele>
        <time>2021-02-14T13:08:08.000Z</time>
      </trkpt>
      <trkpt lat="47.0523" lon="-1.73925">
        <ele>70</ele>
        <time>2021-02-14T13:08:10.000Z</time>
      </trkpt>
      <trkpt lat="47.0523" lon="-1.7391">
        <ele>70</ele>
        <time>2021-02-14T13:08:12.000Z</time>
      </trkpt>
      <trkpt lat="47.0523" lon="-1.73896">
        <ele>70</ele>
        <time>2021-02-14T13:08:14.000Z</time>
      </trkpt>
      <trkpt lat="47.0523" lon="-1.73881">
        <ele>71</ele>
        <time>2021-02-14T13:08:16.000Z</time>
      </trkpt>
      <trkpt lat="47.05231" lon="-1.73867">
        <ele>70</ele>
        <time>2021-02-14T13:08:18.000Z</time>
      </trkpt>
      <trkpt lat="47.05231" lon="-1.73853">
        <ele>70</ele>
        <time>2021-02-14T13:08:20.000Z</time>
      </trkpt>
      <trkpt lat="47.05231" lon="-1.73838">
        <ele>71</ele>
        <time>2021-02-14T13:08:22.000Z</time>
      </trkpt>
      <trkpt lat="47.05231" lon="-1.73823">
        <ele>71</ele>
        <time>2021-02-14T13:08:24.000Z</time>
      </trkpt>
      <trkpt lat="47.05231" lon="-1.73809">
        <ele>71</ele>
        <time>2021-02-14T13:08:26.000Z</time>
      </trkpt>
      <trkpt lat="47.05232" lon="-1.73794">
        <ele>71</ele>
        <time>2021-02-14T13:08:28.000Z</time>
      </trkpt>
      <trkpt lat="47.05232" lon="-1.7378">
        <ele>71</ele>
        <time>2021-02-14T13:08:30.000Z</time>
      </trkpt>
      <trkpt lat="47.05233" lon="-1.73766">
        <ele>71</ele>
        <time>2021-02-14T13:08:32.000Z</time>
      </trkpt>
      <trkpt lat="47.05233" lon="-1.73751">
        <ele>71</ele>
        <time>2021-02-14T13:08:34.000Z</time>
      </trkpt>
      <trkpt lat="47.05233" lon="-1.73737">
        <ele>71</ele>
        <time>2021-02-14T13:08:36.000Z</time>
      </trkpt>
      <trkpt lat="47.05233" lon="-1.73723">
        <ele>71</ele>
        <time>2021-02-14T13:08:38.000Z</time>
      </trkpt>
      <trkpt lat="47.05233" lon="-1.73709">
        <ele>71</ele>
        <time>2021-02-14T13:08:40.000Z</time>
      </trkpt>
      <trkpt lat="47.05234" lon="-1.73695">
        <ele>71</ele>
        <time>2021-02-14T13:08:42.000Z</time>
      </trkpt>
      <trkpt lat="47.05236" lon="-1.7368">
        <ele>71</ele>
        <time>2021-02-14T13:08:44.000Z</time>
      </trkpt>
      <trkpt lat="47.05237" lon="-1.73667">
        <ele>71</ele>
        <time>2021-02-14T13:08:46.000Z</time>
      </trkpt>
      <trkpt lat="47.0524" lon="-1.73653">
        <ele>71</ele>
        <time>2021-02-14T13:08:48.000Z</time>
      </trkpt>
      <trkpt lat="47.05244" lon="-1.73638">
        <ele>71</ele>
        <time>2021-02-14T13:08:50.000Z</time>
      </trkpt>
      <trkpt lat="47.05249" lon="-1.73624">
        <ele>70</ele>
        <time>2021-02-14T13:08:52.000Z</time>
      </trkpt>
      <trkpt lat="47.05253" lon="-1.73609">
        <ele>70</ele>
        <time>2021-02-14T13:08:54.000Z</time>
      </trkpt>
      <trkpt lat="47.05258" lon="-1.73595">
        <ele>70</ele>
        <time>2021-02-14T13:08:56.000Z</time>
      </trkpt>
      <trkpt lat="47.05263" lon="-1.73579">
        <ele>69</ele>
        <time>2021-02-14T13:08:58.000Z</time>
      </trkpt>
      <trkpt lat="47.05268" lon="-1.73564">
        <ele>69</ele>
        <time>2021-02-14T13:09:00.000Z</time>
      </trkpt>
      <trkpt lat="47.05274" lon="-1.73548">
        <ele>69</ele>
        <time>2021-02-14T13:09:02.000Z</time>
      </trkpt>
      <trkpt lat="47.05279" lon="-1.73532">
        <ele>68</ele>
        <time>2021-02-14T13:09:04.000Z</time>
      </trkpt>
      <trkpt lat="47.05284" lon="-1.73515">
        <ele>68</ele>
        <time>2021-02-14T13:09:06.000Z</time>
      </trkpt>
      <trkpt lat="47.0529" lon="-1.73499">
        <ele>68</ele>
        <time>2021-02-14T13:09:08.000Z</time>
      </trkpt>
      <trkpt lat="47.05295" lon="-1.73483">
        <ele>68</ele>
        <time>2021-02-14T13:09:10.000Z</time>
      </trkpt>
      <trkpt lat="47.05299" lon="-1.73466">
        <ele>67</ele>
        <time>2021-02-14T13:09:12.000Z</time>
      </trkpt>
      <trkpt lat="47.05302" lon="-1.73448">
        <ele>67</ele>
        <time>2021-02-14T13:09:14.000Z</time>
      </trkpt>
      <trkpt lat="47.05305" lon="-1.73431">
        <ele>68</ele>
        <time>2021-02-14T13:09:16.000Z</time>
      </trkpt>
      <trkpt lat="47.05307" lon="-1.73414">
        <ele>68</ele>
        <time>2021-02-14T13:09:18.000Z</time>
      </trkpt>
      <trkpt lat="47.05309" lon="-1.73397">
        <ele>68</ele>
        <time>2021-02-14T13:09:20.000Z</time>
      </trkpt>
      <trkpt lat="47.05311" lon="-1.7338">
        <ele>68</ele>
        <time>2021-02-14T13:09:22.000Z</time>
      </trkpt>
      <trkpt lat="47.05313" lon="-1.73362">
        <ele>68</ele>
        <time>2021-02-14T13:09:24.000Z</time>
      </trkpt>
      <trkpt lat="47.05315" lon="-1.73346">
        <ele>68</ele>
        <time>2021-02-14T13:09:26.000Z</time>
      </trkpt>
      <trkpt lat="47.05318" lon="-1.73329">
        <ele>68</ele>
        <time>2021-02-14T13:09:28.000Z</time>
      </trkpt>
      <trkpt lat="47.05319" lon="-1.73312">
        <ele>69</ele>
        <time>2021-02-14T13:09:30.000Z</time>
      </trkpt>
      <trkpt lat="47.0532" lon="-1.73295">
        <ele>69</ele>
        <time>2021-02-14T13:09:32.000Z</time>
      </trkpt>
      <trkpt lat="47.05321" lon="-1.73278">
        <ele>70</ele>
        <time>2021-02-14T13:09:34.000Z</time>
      </trkpt>
      <trkpt lat="47.05319" lon="-1.73263">
        <ele>71</ele>
        <time>2021-02-14T13:09:36.000Z</time>
      </trkpt>
      <trkpt lat="47.05319" lon="-1.73248">
        <ele>71</ele>
        <time>2021-02-14T13:09:38.000Z</time>
      </trkpt>
      <trkpt lat="47.05317" lon="-1.73233">
        <ele>71</ele>
        <time>2021-02-14T13:09:40.000Z</time>
      </trkpt>
      <trkpt lat="47.05315" lon="-1.73218">
        <ele>71</ele>
        <time>2021-02-14T13:09:42.000Z</time>
      </trkpt>
      <trkpt lat="47.05312" lon="-1.73203">
        <ele>71</ele>
        <time>2021-02-14T13:09:44.000Z</time>
      </trkpt>
      <trkpt lat="47.05309" lon="-1.73187">
        <ele>71</ele>
        <time>2021-02-14T13:09:46.000Z</time>
      </trkpt>
      <trkpt lat="47.05307" lon="-1.7317">
        <ele>71</ele>
        <time>2021-02-14T13:09:48.000Z</time>
      </trkpt>
      <trkpt lat="47.05304" lon="-1.73155">
        <ele>71</ele>
        <time>2021-02-14T13:09:50.000Z</time>
      </trkpt>
      <trkpt lat="47.05302" lon="-1.7314">
        <ele>71</ele>
        <time>2021-02-14T13:09:52.000Z</time>
      </trkpt>
      <trkpt lat="47.05308" lon="-1.73126">
        <ele>71</ele>
        <time>2021-02-14T13:09:54.000Z</time>
      </trkpt>
      <trkpt lat="47.05318" lon="-1.73117">
        <ele>71</ele>
        <time>2021-02-14T13:09:56.000Z</time>
      </trkpt>
      <trkpt lat="47.05327" lon="-1.73107">
        <ele>71</ele>
        <time>2021-02-14T13:09:58.000Z</time>
      </trkpt>
      <trkpt lat="47.05334" lon="-1.73093">
        <ele>71</ele>
        <time>2021-02-14T13:10:00.000Z</time>
      </trkpt>
      <trkpt lat="47.05341" lon="-1.7308">
        <ele>71</ele>
        <time>2021-02-14T13:10:02.000Z</time>
      </trkpt>
      <trkpt lat="47.05349" lon="-1.73069">
        <ele>72</ele>
        <time>2021-02-14T13:10:04.000Z</time>
      </trkpt>
      <trkpt lat="47.05356" lon="-1.73057">
        <ele>71</ele>
        <time>2021-02-14T13:10:06.000Z</time>
      </trkpt>
      <trkpt lat="47.05363" lon="-1.73044">
        <ele>71</ele>
        <time>2021-02-14T13:10:08.000Z</time>
      </trkpt>
      <trkpt lat="47.0537" lon="-1.73032">
        <ele>71</ele>
        <time>2021-02-14T13:10:10.000Z</time>
      </trkpt>
      <trkpt lat="47.05378" lon="-1.73021">
        <ele>72</ele>
        <time>2021-02-14T13:10:12.000Z</time>
      </trkpt>
      <trkpt lat="47.05384" lon="-1.7301">
        <ele>73</ele>
        <time>2021-02-14T13:10:14.000Z</time>
      </trkpt>
      <trkpt lat="47.05391" lon="-1.72998">
        <ele>73</ele>
        <time>2021-02-14T13:10:16.000Z</time>
      </trkpt>
      <trkpt lat="47.05398" lon="-1.72986">
        <ele>74</ele>
        <time>2021-02-14T13:10:18.000Z</time>
      </trkpt>
      <trkpt lat="47.05404" lon="-1.72973">
        <ele>74</ele>
        <time>2021-02-14T13:10:20.000Z</time>
      </trkpt>
      <trkpt lat="47.05411" lon="-1.72959">
        <ele>74</ele>
        <time>2021-02-14T13:10:22.000Z</time>
      </trkpt>
      <trkpt lat="47.05417" lon="-1.72946">
        <ele>73</ele>
        <time>2021-02-14T13:10:24.000Z</time>
      </trkpt>
      <trkpt lat="47.05422" lon="-1.72932">
        <ele>73</ele>
        <time>2021-02-14T13:10:26.000Z</time>
      </trkpt>
      <trkpt lat="47.05427" lon="-1.72919">
        <ele>73</ele>
        <time>2021-02-14T13:10:28.000Z</time>
      </trkpt>
      <trkpt lat="47.05432" lon="-1.72905">
        <ele>73</ele>
        <time>2021-02-14T13:10:30.000Z</time>
      </trkpt>
      <trkpt lat="47.05439" lon="-1.72893">
        <ele>73</ele>
        <time>2021-02-14T13:10:32.000Z</time>
      </trkpt>
      <trkpt lat="47.05448" lon="-1.72882">
        <ele>73</ele>
        <time>2021-02-14T13:10:34.000Z</time>
      </trkpt>
      <trkpt lat="47.05455" lon="-1.72872">
        <ele>74</ele>
        <time>2021-02-14T13:10:36.000Z</time>
      </trkpt>
      <trkpt lat="47.05463" lon="-1.72862">
        <ele>74</ele>
        <time>2021-02-14T13:10:38.000Z</time>
      </trkpt>
      <trkpt lat="47.05471" lon="-1.72851">
        <ele>73</ele>
        <time>2021-02-14T13:10:40.000Z</time>
      </trkpt>
      <trkpt lat="47.0548" lon="-1.72839">
        <ele>73</ele>
        <time>2021-02-14T13:10:42.000Z</time>
      </trkpt>
      <trkpt lat="47.05487" lon="-1.72827">
        <ele>73</ele>
        <time>2021-02-14T13:10:44.000Z</time>
      </trkpt>
      <trkpt lat="47.05495" lon="-1.72815">
        <ele>73</ele>
        <time>2021-02-14T13:10:46.000Z</time>
      </trkpt>
      <trkpt lat="47.05503" lon="-1.72803">
        <ele>72</ele>
        <time>2021-02-14T13:10:48.000Z</time>
      </trkpt>
      <trkpt lat="47.0551" lon="-1.72791">
        <ele>72</ele>
        <time>2021-02-14T13:10:50.000Z</time>
      </trkpt>
      <trkpt lat="47.05513" lon="-1.72776">
        <ele>72</ele>
        <time>2021-02-14T13:10:52.000Z</time>
      </trkpt>
      <trkpt lat="47.05515" lon="-1.72758">
        <ele>72</ele>
        <time>2021-02-14T13:10:54.000Z</time>
      </trkpt>
      <trkpt lat="47.05518" lon="-1.72742">
        <ele>71</ele>
        <time>2021-02-14T13:10:56.000Z</time>
      </trkpt>
      <trkpt lat="47.05518" lon="-1.72726">
        <ele>71</ele>
        <time>2021-02-14T13:10:58.000Z</time>
      </trkpt>
      <trkpt lat="47.0552" lon="-1.7271">
        <ele>71</ele>
        <time>2021-02-14T13:11:00.000Z</time>
      </trkpt>
      <trkpt lat="47.05521" lon="-1.72695">
        <ele>71</ele>
        <time>2021-02-14T13:11:02.000Z</time>
      </trkpt>
      <trkpt lat="47.05524" lon="-1.72682">
        <ele>72</ele>
        <time>2021-02-14T13:11:04.000Z</time>
      </trkpt>
      <trkpt lat="47.05527" lon="-1.72665">
        <ele>72</ele>
        <time>2021-02-14T13:11:07.000Z</time>
      </trkpt>
      <trkpt lat="47.05535" lon="-1.72653">
        <ele>74</ele>
        <time>2021-02-14T13:11:10.000Z</time>
      </trkpt>
      <trkpt lat="47.05547" lon="-1.7265">
        <ele>74</ele>
        <time>2021-02-14T13:11:12.000Z</time>
      </trkpt>
      <trkpt lat="47.05559" lon="-1.72649">
        <ele>74</ele>
        <time>2021-02-14T13:11:14.000Z</time>
      </trkpt>
      <trkpt lat="47.0557" lon="-1.72642">
        <ele>73</ele>
        <time>2021-02-14T13:11:16.000Z</time>
      </trkpt>
      <trkpt lat="47.05572" lon="-1.72628">
        <ele>73</ele>
        <time>2021-02-14T13:11:18.000Z</time>
      </trkpt>
      <trkpt lat="47.05569" lon="-1.72614">
        <ele>72</ele>
        <time>2021-02-14T13:11:20.000Z</time>
      </trkpt>
      <trkpt lat="47.05565" lon="-1.72599">
        <ele>72</ele>
        <time>2021-02-14T13:11:22.000Z</time>
      </trkpt>
      <trkpt lat="47.05561" lon="-1.72585">
        <ele>71</ele>
        <time>2021-02-14T13:11:24.000Z</time>
      </trkpt>
      <trkpt lat="47.05557" lon="-1.72569">
        <ele>71</ele>
        <time>2021-02-14T13:11:26.000Z</time>
      </trkpt>
      <trkpt lat="47.05555" lon="-1.72554">
        <ele>70</ele>
        <time>2021-02-14T13:11:28.000Z</time>
      </trkpt>
      <trkpt lat="47.05552" lon="-1.7254">
        <ele>70</ele>
        <time>2021-02-14T13:11:30.000Z</time>
      </trkpt>
      <trkpt lat="47.05548" lon="-1.72525">
        <ele>70</ele>
        <time>2021-02-14T13:11:32.000Z</time>
      </trkpt>
      <trkpt lat="47.05545" lon="-1.7251">
        <ele>70</ele>
        <time>2021-02-14T13:11:34.000Z</time>
      </trkpt>
      <trkpt lat="47.05542" lon="-1.72495">
        <ele>70</ele>
        <time>2021-02-14T13:11:36.000Z</time>
      </trkpt>
      <trkpt lat="47.05537" lon="-1.72481">
        <ele>69</ele>
        <time>2021-02-14T13:11:38.000Z</time>
      </trkpt>
      <trkpt lat="47.05531" lon="-1.72467">
        <ele>69</ele>
        <time>2021-02-14T13:11:40.000Z</time>
      </trkpt>
      <trkpt lat="47.05527" lon="-1.72452">
        <ele>69</ele>
        <time>2021-02-14T13:11:42.000Z</time>
      </trkpt>
      <trkpt lat="47.05523" lon="-1.72438">
        <ele>69</ele>
        <time>2021-02-14T13:11:44.000Z</time>
      </trkpt>
      <trkpt lat="47.0552" lon="-1.72423">
        <ele>70</ele>
        <time>2021-02-14T13:11:46.000Z</time>
      </trkpt>
      <trkpt lat="47.05516" lon="-1.72409">
        <ele>70</ele>
        <time>2021-02-14T13:11:48.000Z</time>
      </trkpt>
      <trkpt lat="47.05511" lon="-1.72394">
        <ele>69</ele>
        <time>2021-02-14T13:11:50.000Z</time>
      </trkpt>
      <trkpt lat="47.05506" lon="-1.72378">
        <ele>69</ele>
        <time>2021-02-14T13:11:52.000Z</time>
      </trkpt>
      <trkpt lat="47.05502" lon="-1.72363">
        <ele>69</ele>
        <time>2021-02-14T13:11:54.000Z</time>
      </trkpt>
      <trkpt lat="47.05499" lon="-1.72348">
        <ele>69</ele>
        <time>2021-02-14T13:11:56.000Z</time>
      </trkpt>
      <trkpt lat="47.05496" lon="-1.72332">
        <ele>69</ele>
        <time>2021-02-14T13:11:58.000Z</time>
      </trkpt>
      <trkpt lat="47.05494" lon="-1.72317">
        <ele>70</ele>
        <time>2021-02-14T13:12:00.000Z</time>
      </trkpt>
      <trkpt lat="47.0549" lon="-1.72302">
        <ele>70</ele>
        <time>2021-02-14T13:12:02.000Z</time>
      </trkpt>
      <trkpt lat="47.05487" lon="-1.72287">
        <ele>70</ele>
        <time>2021-02-14T13:12:04.000Z</time>
      </trkpt>
      <trkpt lat="47.05483" lon="-1.72273">
        <ele>70</ele>
        <time>2021-02-14T13:12:06.000Z</time>
      </trkpt>
      <trkpt lat="47.0548" lon="-1.72258">
        <ele>70</ele>
        <time>2021-02-14T13:12:08.000Z</time>
      </trkpt>
      <trkpt lat="47.05476" lon="-1.72242">
        <ele>70</ele>
        <time>2021-02-14T13:12:10.000Z</time>
      </trkpt>
      <trkpt lat="47.05472" lon="-1.72225">
        <ele>70</ele>
        <time>2021-02-14T13:12:12.000Z</time>
      </trkpt>
      <trkpt lat="47.05469" lon="-1.72208">
        <ele>70</ele>
        <time>2021-02-14T13:12:14.000Z</time>
      </trkpt>
      <trkpt lat="47.05465" lon="-1.72191">
        <ele>70</ele>
        <time>2021-02-14T13:12:16.000Z</time>
      </trkpt>
      <trkpt lat="47.0546" lon="-1.72174">
        <ele>69</ele>
        <time>2021-02-14T13:12:18.000Z</time>
      </trkpt>
      <trkpt lat="47.05456" lon="-1.72155">
        <ele>69</ele>
        <time>2021-02-14T13:12:20.000Z</time>
      </trkpt>
      <trkpt lat="47.05452" lon="-1.72136">
        <ele>68</ele>
        <time>2021-02-14T13:12:22.000Z</time>
      </trkpt>
      <trkpt lat="47.05447" lon="-1.72115">
        <ele>67</ele>
        <time>2021-02-14T13:12:24.000Z</time>
      </trkpt>
      <trkpt lat="47.05443" lon="-1.72094">
        <ele>67</ele>
        <time>2021-02-14T13:12:26.000Z</time>
      </trkpt>
      <trkpt lat="47.05439" lon="-1.72075">
        <ele>66</ele>
        <time>2021-02-14T13:12:28.000Z</time>
      </trkpt>
      <trkpt lat="47.05434" lon="-1.72055">
        <ele>66</ele>
        <time>2021-02-14T13:12:30.000Z</time>
      </trkpt>
      <trkpt lat="47.05429" lon="-1.72034">
        <ele>65</ele>
        <time>2021-02-14T13:12:32.000Z</time>
      </trkpt>
      <trkpt lat="47.05424" lon="-1.72013">
        <ele>64</ele>
        <time>2021-02-14T13:12:34.000Z</time>
      </trkpt>
      <trkpt lat="47.05419" lon="-1.71993">
        <ele>63</ele>
        <time>2021-02-14T13:12:36.000Z</time>
      </trkpt>
      <trkpt lat="47.05415" lon="-1.71974">
        <ele>64</ele>
        <time>2021-02-14T13:12:38.000Z</time>
      </trkpt>
      <trkpt lat="47.05412" lon="-1.71957">
        <ele>64</ele>
        <time>2021-02-14T13:12:40.000Z</time>
      </trkpt>
      <trkpt lat="47.05408" lon="-1.7194">
        <ele>65</ele>
        <time>2021-02-14T13:12:42.000Z</time>
      </trkpt>
      <trkpt lat="47.05403" lon="-1.71924">
        <ele>65</ele>
        <time>2021-02-14T13:12:44.000Z</time>
      </trkpt>
      <trkpt lat="47.05399" lon="-1.71907">
        <ele>65</ele>
        <time>2021-02-14T13:12:46.000Z</time>
      </trkpt>
      <trkpt lat="47.05395" lon="-1.71891">
        <ele>65</ele>
        <time>2021-02-14T13:12:48.000Z</time>
      </trkpt>
      <trkpt lat="47.05391" lon="-1.71874">
        <ele>65</ele>
        <time>2021-02-14T13:12:50.000Z</time>
      </trkpt>
      <trkpt lat="47.05387" lon="-1.71856">
        <ele>64</ele>
        <time>2021-02-14T13:12:52.000Z</time>
      </trkpt>
      <trkpt lat="47.05384" lon="-1.71838">
        <ele>65</ele>
        <time>2021-02-14T13:12:54.000Z</time>
      </trkpt>
      <trkpt lat="47.05381" lon="-1.71819">
        <ele>65</ele>
        <time>2021-02-14T13:12:56.000Z</time>
      </trkpt>
      <trkpt lat="47.05379" lon="-1.71801">
        <ele>63</ele>
        <time>2021-02-14T13:12:58.000Z</time>
      </trkpt>
      <trkpt lat="47.05378" lon="-1.71782">
        <ele>63</ele>
        <time>2021-02-14T13:13:00.000Z</time>
      </trkpt>
      <trkpt lat="47.05378" lon="-1.71764">
        <ele>63</ele>
        <time>2021-02-14T13:13:02.000Z</time>
      </trkpt>
      <trkpt lat="47.05379" lon="-1.71739">
        <ele>63</ele>
        <time>2021-02-14T13:13:05.000Z</time>
      </trkpt>
      <trkpt lat="47.0538" lon="-1.71721">
        <ele>62</ele>
        <time>2021-02-14T13:13:07.000Z</time>
      </trkpt>
      <trkpt lat="47.05382" lon="-1.71703">
        <ele>62</ele>
        <time>2021-02-14T13:13:09.000Z</time>
      </trkpt>
      <trkpt lat="47.05383" lon="-1.71685">
        <ele>62</ele>
        <time>2021-02-14T13:13:11.000Z</time>
      </trkpt>
      <trkpt lat="47.05385" lon="-1.71667">
        <ele>61</ele>
        <time>2021-02-14T13:13:13.000Z</time>
      </trkpt>
      <trkpt lat="47.05387" lon="-1.71649">
        <ele>61</ele>
        <time>2021-02-14T13:13:15.000Z</time>
      </trkpt>
      <trkpt lat="47.05389" lon="-1.71623">
        <ele>61</ele>
        <time>2021-02-14T13:13:18.000Z</time>
      </trkpt>
      <trkpt lat="47.05391" lon="-1.71597">
        <ele>61</ele>
        <time>2021-02-14T13:13:21.000Z</time>
      </trkpt>
      <trkpt lat="47.05392" lon="-1.7158">
        <ele>61</ele>
        <time>2021-02-14T13:13:23.000Z</time>
      </trkpt>
      <trkpt lat="47.05394" lon="-1.71562">
        <ele>61</ele>
        <time>2021-02-14T13:13:25.000Z</time>
      </trkpt>
      <trkpt lat="47.05396" lon="-1.71536">
        <ele>62</ele>
        <time>2021-02-14T13:13:28.000Z</time>
      </trkpt>
      <trkpt lat="47.05398" lon="-1.71519">
        <ele>62</ele>
        <time>2021-02-14T13:13:30.000Z</time>
      </trkpt>
      <trkpt lat="47.05401" lon="-1.71492">
        <ele>61</ele>
        <time>2021-02-14T13:13:33.000Z</time>
      </trkpt>
      <trkpt lat="47.05403" lon="-1.71468">
        <ele>62</ele>
        <time>2021-02-14T13:13:36.000Z</time>
      </trkpt>
      <trkpt lat="47.05403" lon="-1.71443">
        <ele>62</ele>
        <time>2021-02-14T13:13:39.000Z</time>
      </trkpt>
      <trkpt lat="47.05404" lon="-1.71427">
        <ele>62</ele>
        <time>2021-02-14T13:13:41.000Z</time>
      </trkpt>
      <trkpt lat="47.05403" lon="-1.71411">
        <ele>62</ele>
        <time>2021-02-14T13:13:43.000Z</time>
      </trkpt>
      <trkpt lat="47.05402" lon="-1.71394">
        <ele>62</ele>
        <time>2021-02-14T13:13:45.000Z</time>
      </trkpt>
      <trkpt lat="47.05401" lon="-1.71377">
        <ele>62</ele>
        <time>2021-02-14T13:13:47.000Z</time>
      </trkpt>
      <trkpt lat="47.05398" lon="-1.7136">
        <ele>62</ele>
        <time>2021-02-14T13:13:49.000Z</time>
      </trkpt>
      <trkpt lat="47.05395" lon="-1.71337">
        <ele>62</ele>
        <time>2021-02-14T13:13:52.000Z</time>
      </trkpt>
      <trkpt lat="47.05393" lon="-1.71321">
        <ele>62</ele>
        <time>2021-02-14T13:13:54.000Z</time>
      </trkpt>
      <trkpt lat="47.0539" lon="-1.71305">
        <ele>62</ele>
        <time>2021-02-14T13:13:56.000Z</time>
      </trkpt>
      <trkpt lat="47.05388" lon="-1.71281">
        <ele>62</ele>
        <time>2021-02-14T13:13:59.000Z</time>
      </trkpt>
      <trkpt lat="47.05387" lon="-1.71264">
        <ele>62</ele>
        <time>2021-02-14T13:14:01.000Z</time>
      </trkpt>
      <trkpt lat="47.05386" lon="-1.71248">
        <ele>62</ele>
        <time>2021-02-14T13:14:03.000Z</time>
      </trkpt>
      <trkpt lat="47.05385" lon="-1.71231">
        <ele>62</ele>
        <time>2021-02-14T13:14:05.000Z</time>
      </trkpt>
      <trkpt lat="47.05385" lon="-1.71216">
        <ele>62</ele>
        <time>2021-02-14T13:14:07.000Z</time>
      </trkpt>
      <trkpt lat="47.05386" lon="-1.71199">
        <ele>63</ele>
        <time>2021-02-14T13:14:09.000Z</time>
      </trkpt>
      <trkpt lat="47.05387" lon="-1.71183">
        <ele>63</ele>
        <time>2021-02-14T13:14:11.000Z</time>
      </trkpt>
      <trkpt lat="47.05389" lon="-1.71165">
        <ele>63</ele>
        <time>2021-02-14T13:14:13.000Z</time>
      </trkpt>
      <trkpt lat="47.05391" lon="-1.71148">
        <ele>62</ele>
        <time>2021-02-14T13:14:15.000Z</time>
      </trkpt>
      <trkpt lat="47.05393" lon="-1.71132">
        <ele>62</ele>
        <time>2021-02-14T13:14:17.000Z</time>
      </trkpt>
      <trkpt lat="47.05395" lon="-1.71116">
        <ele>62</ele>
        <time>2021-02-14T13:14:19.000Z</time>
      </trkpt>
      <trkpt lat="47.05397" lon="-1.711">
        <ele>62</ele>
        <time>2021-02-14T13:14:21.000Z</time>
      </trkpt>
      <trkpt lat="47.05398" lon="-1.71083">
        <ele>62</ele>
        <time>2021-02-14T13:14:23.000Z</time>
      </trkpt>
      <trkpt lat="47.05399" lon="-1.71066">
        <ele>62</ele>
        <time>2021-02-14T13:14:25.000Z</time>
      </trkpt>
      <trkpt lat="47.054" lon="-1.71049">
        <ele>62</ele>
        <time>2021-02-14T13:14:27.000Z</time>
      </trkpt>
      <trkpt lat="47.05402" lon="-1.71032">
        <ele>62</ele>
        <time>2021-02-14T13:14:29.000Z</time>
      </trkpt>
      <trkpt lat="47.05403" lon="-1.71017">
        <ele>62</ele>
        <time>2021-02-14T13:14:31.000Z</time>
      </trkpt>
      <trkpt lat="47.05405" lon="-1.70992">
        <ele>62</ele>
        <time>2021-02-14T13:14:34.000Z</time>
      </trkpt>
      <trkpt lat="47.05407" lon="-1.70975">
        <ele>61</ele>
        <time>2021-02-14T13:14:36.000Z</time>
      </trkpt>
      <trkpt lat="47.05409" lon="-1.70957">
        <ele>60</ele>
        <time>2021-02-14T13:14:38.000Z</time>
      </trkpt>
      <trkpt lat="47.0541" lon="-1.70939">
        <ele>60</ele>
        <time>2021-02-14T13:14:40.000Z</time>
      </trkpt>
      <trkpt lat="47.05411" lon="-1.7092">
        <ele>60</ele>
        <time>2021-02-14T13:14:42.000Z</time>
      </trkpt>
      <trkpt lat="47.05413" lon="-1.70902">
        <ele>60</ele>
        <time>2021-02-14T13:14:44.000Z</time>
      </trkpt>
      <trkpt lat="47.05412" lon="-1.70883">
        <ele>60</ele>
        <time>2021-02-14T13:14:46.000Z</time>
      </trkpt>
      <trkpt lat="47.05411" lon="-1.70865">
        <ele>60</ele>
        <time>2021-02-14T13:14:48.000Z</time>
      </trkpt>
      <trkpt lat="47.05409" lon="-1.70848">
        <ele>60</ele>
        <time>2021-02-14T13:14:50.000Z</time>
      </trkpt>
      <trkpt lat="47.05407" lon="-1.70832">
        <ele>60</ele>
        <time>2021-02-14T13:14:52.000Z</time>
      </trkpt>
      <trkpt lat="47.05404" lon="-1.70816">
        <ele>60</ele>
        <time>2021-02-14T13:14:54.000Z</time>
      </trkpt>
      <trkpt lat="47.05401" lon="-1.70799">
        <ele>60</ele>
        <time>2021-02-14T13:14:56.000Z</time>
      </trkpt>
      <trkpt lat="47.05399" lon="-1.70782">
        <ele>60</ele>
        <time>2021-02-14T13:14:58.000Z</time>
      </trkpt>
      <trkpt lat="47.05397" lon="-1.70766">
        <ele>60</ele>
        <time>2021-02-14T13:15:00.000Z</time>
      </trkpt>
      <trkpt lat="47.05393" lon="-1.7075">
        <ele>60</ele>
        <time>2021-02-14T13:15:02.000Z</time>
      </trkpt>
      <trkpt lat="47.05391" lon="-1.70734">
        <ele>60</ele>
        <time>2021-02-14T13:15:04.000Z</time>
      </trkpt>
      <trkpt lat="47.05388" lon="-1.70717">
        <ele>60</ele>
        <time>2021-02-14T13:15:06.000Z</time>
      </trkpt>
      <trkpt lat="47.05386" lon="-1.70701">
        <ele>60</ele>
        <time>2021-02-14T13:15:08.000Z</time>
      </trkpt>
      <trkpt lat="47.05384" lon="-1.70684">
        <ele>60</ele>
        <time>2021-02-14T13:15:10.000Z</time>
      </trkpt>
      <trkpt lat="47.05381" lon="-1.70668">
        <ele>61</ele>
        <time>2021-02-14T13:15:12.000Z</time>
      </trkpt>
      <trkpt lat="47.05377" lon="-1.70644">
        <ele>61</ele>
        <time>2021-02-14T13:15:15.000Z</time>
      </trkpt>
      <trkpt lat="47.05375" lon="-1.70628">
        <ele>61</ele>
        <time>2021-02-14T13:15:17.000Z</time>
      </trkpt>
      <trkpt lat="47.05373" lon="-1.70613">
        <ele>61</ele>
        <time>2021-02-14T13:15:19.000Z</time>
      </trkpt>
      <trkpt lat="47.0537" lon="-1.70598">
        <ele>61</ele>
        <time>2021-02-14T13:15:21.000Z</time>
      </trkpt>
      <trkpt lat="47.05367" lon="-1.70583">
        <ele>60</ele>
        <time>2021-02-14T13:15:23.000Z</time>
      </trkpt>
      <trkpt lat="47.05365" lon="-1.70566">
        <ele>60</ele>
        <time>2021-02-14T13:15:25.000Z</time>
      </trkpt>
      <trkpt lat="47.05363" lon="-1.70549">
        <ele>60</ele>
        <time>2021-02-14T13:15:27.000Z</time>
      </trkpt>
      <trkpt lat="47.0536" lon="-1.70534">
        <ele>60</ele>
        <time>2021-02-14T13:15:29.000Z</time>
      </trkpt>
      <trkpt lat="47.05358" lon="-1.70518">
        <ele>60</ele>
        <time>2021-02-14T13:15:31.000Z</time>
      </trkpt>
      <trkpt lat="47.05356" lon="-1.70502">
        <ele>60</ele>
        <time>2021-02-14T13:15:33.000Z</time>
      </trkpt>
      <trkpt lat="47.05353" lon="-1.70486">
        <ele>60</ele>
        <time>2021-02-14T13:15:35.000Z</time>
      </trkpt>
      <trkpt lat="47.0535" lon="-1.70471">
        <ele>60</ele>
        <time>2021-02-14T13:15:37.000Z</time>
      </trkpt>
      <trkpt lat="47.05347" lon="-1.70455">
        <ele>60</ele>
        <time>2021-02-14T13:15:39.000Z</time>
      </trkpt>
      <trkpt lat="47.05344" lon="-1.7044">
        <ele>59</ele>
        <time>2021-02-14T13:15:41.000Z</time>
      </trkpt>
      <trkpt lat="47.05341" lon="-1.70424">
        <ele>59</ele>
        <time>2021-02-14T13:15:43.000Z</time>
      </trkpt>
      <trkpt lat="47.05337" lon="-1.70408">
        <ele>59</ele>
        <time>2021-02-14T13:15:45.000Z</time>
      </trkpt>
      <trkpt lat="47.05332" lon="-1.70393">
        <ele>59</ele>
        <time>2021-02-14T13:15:47.000Z</time>
      </trkpt>
      <trkpt lat="47.05325" lon="-1.70371">
        <ele>59</ele>
        <time>2021-02-14T13:15:50.000Z</time>
      </trkpt>
      <trkpt lat="47.0532" lon="-1.70357">
        <ele>59</ele>
        <time>2021-02-14T13:15:52.000Z</time>
      </trkpt>
      <trkpt lat="47.05315" lon="-1.70343">
        <ele>58</ele>
        <time>2021-02-14T13:15:54.000Z</time>
      </trkpt>
      <trkpt lat="47.0531" lon="-1.70328">
        <ele>58</ele>
        <time>2021-02-14T13:15:56.000Z</time>
      </trkpt>
      <trkpt lat="47.05305" lon="-1.70314">
        <ele>58</ele>
        <time>2021-02-14T13:15:58.000Z</time>
      </trkpt>
      <trkpt lat="47.053" lon="-1.703">
        <ele>58</ele>
        <time>2021-02-14T13:16:00.000Z</time>
      </trkpt>
      <trkpt lat="47.05294" lon="-1.70286">
        <ele>58</ele>
        <time>2021-02-14T13:16:02.000Z</time>
      </trkpt>
      <trkpt lat="47.05289" lon="-1.70272">
        <ele>58</ele>
        <time>2021-02-14T13:16:04.000Z</time>
      </trkpt>
      <trkpt lat="47.05283" lon="-1.70257">
        <ele>57</ele>
        <time>2021-02-14T13:16:06.000Z</time>
      </trkpt>
      <trkpt lat="47.05278" lon="-1.70242">
        <ele>57</ele>
        <time>2021-02-14T13:16:08.000Z</time>
      </trkpt>
      <trkpt lat="47.05272" lon="-1.70228">
        <ele>57</ele>
        <time>2021-02-14T13:16:10.000Z</time>
      </trkpt>
      <trkpt lat="47.05266" lon="-1.70213">
        <ele>56</ele>
        <time>2021-02-14T13:16:12.000Z</time>
      </trkpt>
      <trkpt lat="47.05261" lon="-1.70198">
        <ele>56</ele>
        <time>2021-02-14T13:16:14.000Z</time>
      </trkpt>
      <trkpt lat="47.05255" lon="-1.70183">
        <ele>56</ele>
        <time>2021-02-14T13:16:16.000Z</time>
      </trkpt>
      <trkpt lat="47.05249" lon="-1.70168">
        <ele>55</ele>
        <time>2021-02-14T13:16:18.000Z</time>
      </trkpt>
      <trkpt lat="47.05243" lon="-1.70153">
        <ele>55</ele>
        <time>2021-02-14T13:16:20.000Z</time>
      </trkpt>
      <trkpt lat="47.05238" lon="-1.70137">
        <ele>55</ele>
        <time>2021-02-14T13:16:22.000Z</time>
      </trkpt>
      <trkpt lat="47.05232" lon="-1.70122">
        <ele>54</ele>
        <time>2021-02-14T13:16:24.000Z</time>
      </trkpt>
      <trkpt lat="47.05226" lon="-1.70106">
        <ele>54</ele>
        <time>2021-02-14T13:16:26.000Z</time>
      </trkpt>
      <trkpt lat="47.0522" lon="-1.70091">
        <ele>54</ele>
        <time>2021-02-14T13:16:28.000Z</time>
      </trkpt>
      <trkpt lat="47.05214" lon="-1.70075">
        <ele>54</ele>
        <time>2021-02-14T13:16:30.000Z</time>
      </trkpt>
      <trkpt lat="47.05208" lon="-1.7006">
        <ele>54</ele>
        <time>2021-02-14T13:16:32.000Z</time>
      </trkpt>
      <trkpt lat="47.05202" lon="-1.70044">
        <ele>54</ele>
        <time>2021-02-14T13:16:34.000Z</time>
      </trkpt>
      <trkpt lat="47.05197" lon="-1.70028">
        <ele>54</ele>
        <time>2021-02-14T13:16:36.000Z</time>
      </trkpt>
      <trkpt lat="47.05191" lon="-1.70013">
        <ele>54</ele>
        <time>2021-02-14T13:16:38.000Z</time>
      </trkpt>
      <trkpt lat="47.05185" lon="-1.69999">
        <ele>54</ele>
        <time>2021-02-14T13:16:40.000Z</time>
      </trkpt>
      <trkpt lat="47.05179" lon="-1.69984">
        <ele>54</ele>
        <time>2021-02-14T13:16:42.000Z</time>
      </trkpt>
      <trkpt lat="47.05173" lon="-1.69971">
        <ele>54</ele>
        <time>2021-02-14T13:16:44.000Z</time>
      </trkpt>
      <trkpt lat="47.05167" lon="-1.69956">
        <ele>54</ele>
        <time>2021-02-14T13:16:46.000Z</time>
      </trkpt>
      <trkpt lat="47.05161" lon="-1.69941">
        <ele>53</ele>
        <time>2021-02-14T13:16:48.000Z</time>
      </trkpt>
      <trkpt lat="47.05156" lon="-1.69926">
        <ele>53</ele>
        <time>2021-02-14T13:16:50.000Z</time>
      </trkpt>
      <trkpt lat="47.05153" lon="-1.6991">
        <ele>53</ele>
        <time>2021-02-14T13:16:52.000Z</time>
      </trkpt>
      <trkpt lat="47.05152" lon="-1.69893">
        <ele>53</ele>
        <time>2021-02-14T13:16:54.000Z</time>
      </trkpt>
      <trkpt lat="47.05151" lon="-1.69876">
        <ele>53</ele>
        <time>2021-02-14T13:16:56.000Z</time>
      </trkpt>
      <trkpt lat="47.05149" lon="-1.69858">
        <ele>53</ele>
        <time>2021-02-14T13:16:58.000Z</time>
      </trkpt>
      <trkpt lat="47.05144" lon="-1.69843">
        <ele>53</ele>
        <time>2021-02-14T13:17:00.000Z</time>
      </trkpt>
      <trkpt lat="47.05139" lon="-1.69828">
        <ele>53</ele>
        <time>2021-02-14T13:17:02.000Z</time>
      </trkpt>
      <trkpt lat="47.05132" lon="-1.69815">
        <ele>52</ele>
        <time>2021-02-14T13:17:04.000Z</time>
      </trkpt>
      <trkpt lat="47.05125" lon="-1.69803">
        <ele>53</ele>
        <time>2021-02-14T13:17:06.000Z</time>
      </trkpt>
      <trkpt lat="47.05117" lon="-1.69792">
        <ele>53</ele>
        <time>2021-02-14T13:17:08.000Z</time>
      </trkpt>
      <trkpt lat="47.05109" lon="-1.69781">
        <ele>53</ele>
        <time>2021-02-14T13:17:10.000Z</time>
      </trkpt>
      <trkpt lat="47.05101" lon="-1.69771">
        <ele>53</ele>
        <time>2021-02-14T13:17:12.000Z</time>
      </trkpt>
      <trkpt lat="47.05092" lon="-1.69759">
        <ele>53</ele>
        <time>2021-02-14T13:17:14.000Z</time>
      </trkpt>
      <trkpt lat="47.05084" lon="-1.69749">
        <ele>53</ele>
        <time>2021-02-14T13:17:16.000Z</time>
      </trkpt>
      <trkpt lat="47.05075" lon="-1.69738">
        <ele>52</ele>
        <time>2021-02-14T13:17:18.000Z</time>
      </trkpt>
      <trkpt lat="47.05066" lon="-1.69727">
        <ele>52</ele>
        <time>2021-02-14T13:17:20.000Z</time>
      </trkpt>
      <trkpt lat="47.05058" lon="-1.69717">
        <ele>52</ele>
        <time>2021-02-14T13:17:22.000Z</time>
      </trkpt>
      <trkpt lat="47.0505" lon="-1.69707">
        <ele>52</ele>
        <time>2021-02-14T13:17:24.000Z</time>
      </trkpt>
      <trkpt lat="47.05042" lon="-1.69697">
        <ele>52</ele>
        <time>2021-02-14T13:17:26.000Z</time>
      </trkpt>
      <trkpt lat="47.05034" lon="-1.69689">
        <ele>52</ele>
        <time>2021-02-14T13:17:28.000Z</time>
      </trkpt>
      <trkpt lat="47.05026" lon="-1.69679">
        <ele>52</ele>
        <time>2021-02-14T13:17:30.000Z</time>
      </trkpt>
      <trkpt lat="47.05018" lon="-1.69669">
        <ele>52</ele>
        <time>2021-02-14T13:17:32.000Z</time>
      </trkpt>
      <trkpt lat="47.05011" lon="-1.69658">
        <ele>52</ele>
        <time>2021-02-14T13:17:34.000Z</time>
      </trkpt>
      <trkpt lat="47.05003" lon="-1.69647">
        <ele>52</ele>
        <time>2021-02-14T13:17:36.000Z</time>
      </trkpt>
      <trkpt lat="47.04996" lon="-1.69635">
        <ele>52</ele>
        <time>2021-02-14T13:17:38.000Z</time>
      </trkpt>
      <trkpt lat="47.0499" lon="-1.69621">
        <ele>53</ele>
        <time>2021-02-14T13:17:40.000Z</time>
      </trkpt>
      <trkpt lat="47.04984" lon="-1.69605">
        <ele>53</ele>
        <time>2021-02-14T13:17:42.000Z</time>
      </trkpt>
      <trkpt lat="47.04979" lon="-1.6959">
        <ele>53</ele>
        <time>2021-02-14T13:17:44.000Z</time>
      </trkpt>
      <trkpt lat="47.04975" lon="-1.69574">
        <ele>52</ele>
        <time>2021-02-14T13:17:46.000Z</time>
      </trkpt>
      <trkpt lat="47.04971" lon="-1.69558">
        <ele>52</ele>
        <time>2021-02-14T13:17:48.000Z</time>
      </trkpt>
      <trkpt lat="47.04967" lon="-1.69541">
        <ele>52</ele>
        <time>2021-02-14T13:17:50.000Z</time>
      </trkpt>
      <trkpt lat="47.04964" lon="-1.69525">
        <ele>52</ele>
        <time>2021-02-14T13:17:52.000Z</time>
      </trkpt>
      <trkpt lat="47.04959" lon="-1.6951">
        <ele>53</ele>
        <time>2021-02-14T13:17:54.000Z</time>
      </trkpt>
      <trkpt lat="47.04955" lon="-1.69493">
        <ele>53</ele>
        <time>2021-02-14T13:17:56.000Z</time>
      </trkpt>
      <trkpt lat="47.04951" lon="-1.69478">
        <ele>54</ele>
        <time>2021-02-14T13:17:58.000Z</time>
      </trkpt>
      <trkpt lat="47.04947" lon="-1.69462">
        <ele>54</ele>
        <time>2021-02-14T13:18:00.000Z</time>
      </trkpt>
      <trkpt lat="47.04942" lon="-1.69447">
        <ele>54</ele>
        <time>2021-02-14T13:18:02.000Z</time>
      </trkpt>
      <trkpt lat="47.04938" lon="-1.69431">
        <ele>54</ele>
        <time>2021-02-14T13:18:04.000Z</time>
      </trkpt>
      <trkpt lat="47.04934" lon="-1.69415">
        <ele>54</ele>
        <time>2021-02-14T13:18:06.000Z</time>
      </trkpt>
      <trkpt lat="47.04931" lon="-1.69399">
        <ele>54</ele>
        <time>2021-02-14T13:18:08.000Z</time>
      </trkpt>
      <trkpt lat="47.04927" lon="-1.69382">
        <ele>54</ele>
        <time>2021-02-14T13:18:10.000Z</time>
      </trkpt>
      <trkpt lat="47.04923" lon="-1.69367">
        <ele>54</ele>
        <time>2021-02-14T13:18:12.000Z</time>
      </trkpt>
      <trkpt lat="47.04918" lon="-1.69352">
        <ele>54</ele>
        <time>2021-02-14T13:18:14.000Z</time>
      </trkpt>
      <trkpt lat="47.04914" lon="-1.69336">
        <ele>53</ele>
        <time>2021-02-14T13:18:16.000Z</time>
      </trkpt>
      <trkpt lat="47.0491" lon="-1.6932">
        <ele>53</ele>
        <time>2021-02-14T13:18:18.000Z</time>
      </trkpt>
      <trkpt lat="47.04907" lon="-1.69305">
        <ele>53</ele>
        <time>2021-02-14T13:18:20.000Z</time>
      </trkpt>
      <trkpt lat="47.04903" lon="-1.6929">
        <ele>54</ele>
        <time>2021-02-14T13:18:22.000Z</time>
      </trkpt>
      <trkpt lat="47.04899" lon="-1.69274">
        <ele>53</ele>
        <time>2021-02-14T13:18:24.000Z</time>
      </trkpt>
      <trkpt lat="47.04895" lon="-1.69259">
        <ele>53</ele>
        <time>2021-02-14T13:18:26.000Z</time>
      </trkpt>
      <trkpt lat="47.04891" lon="-1.69244">
        <ele>53</ele>
        <time>2021-02-14T13:18:28.000Z</time>
      </trkpt>
      <trkpt lat="47.04888" lon="-1.6923">
        <ele>54</ele>
        <time>2021-02-14T13:18:30.000Z</time>
      </trkpt>
      <trkpt lat="47.04884" lon="-1.69215">
        <ele>54</ele>
        <time>2021-02-14T13:18:32.000Z</time>
      </trkpt>
      <trkpt lat="47.0488" lon="-1.692">
        <ele>54</ele>
        <time>2021-02-14T13:18:34.000Z</time>
      </trkpt>
      <trkpt lat="47.04876" lon="-1.69186">
        <ele>53</ele>
        <time>2021-02-14T13:18:36.000Z</time>
      </trkpt>
      <trkpt lat="47.04872" lon="-1.69172">
        <ele>54</ele>
        <time>2021-02-14T13:18:38.000Z</time>
      </trkpt>
      <trkpt lat="47.04869" lon="-1.69157">
        <ele>53</ele>
        <time>2021-02-14T13:18:40.000Z</time>
      </trkpt>
      <trkpt lat="47.04865" lon="-1.69143">
        <ele>54</ele>
        <time>2021-02-14T13:18:42.000Z</time>
      </trkpt>
      <trkpt lat="47.04862" lon="-1.69129">
        <ele>54</ele>
        <time>2021-02-14T13:18:44.000Z</time>
      </trkpt>
      <trkpt lat="47.04858" lon="-1.69114">
        <ele>54</ele>
        <time>2021-02-14T13:18:46.000Z</time>
      </trkpt>
      <trkpt lat="47.04855" lon="-1.691">
        <ele>54</ele>
        <time>2021-02-14T13:18:48.000Z</time>
      </trkpt>
      <trkpt lat="47.04851" lon="-1.69086">
        <ele>54</ele>
        <time>2021-02-14T13:18:50.000Z</time>
      </trkpt>
      <trkpt lat="47.04847" lon="-1.69072">
        <ele>54</ele>
        <time>2021-02-14T13:18:52.000Z</time>
      </trkpt>
      <trkpt lat="47.04844" lon="-1.69057">
        <ele>54</ele>
        <time>2021-02-14T13:18:54.000Z</time>
      </trkpt>
      <trkpt lat="47.0484" lon="-1.69044">
        <ele>54</ele>
        <time>2021-02-14T13:18:56.000Z</time>
      </trkpt>
      <trkpt lat="47.04836" lon="-1.6903">
        <ele>54</ele>
        <time>2021-02-14T13:18:58.000Z</time>
      </trkpt>
      <trkpt lat="47.04832" lon="-1.69016">
        <ele>55</ele>
        <time>2021-02-14T13:19:00.000Z</time>
      </trkpt>
      <trkpt lat="47.04829" lon="-1.69002">
        <ele>55</ele>
        <time>2021-02-14T13:19:02.000Z</time>
      </trkpt>
      <trkpt lat="47.04825" lon="-1.68988">
        <ele>55</ele>
        <time>2021-02-14T13:19:04.000Z</time>
      </trkpt>
      <trkpt lat="47.04822" lon="-1.68973">
        <ele>55</ele>
        <time>2021-02-14T13:19:06.000Z</time>
      </trkpt>
      <trkpt lat="47.04817" lon="-1.68959">
        <ele>56</ele>
        <time>2021-02-14T13:19:08.000Z</time>
      </trkpt>
      <trkpt lat="47.04813" lon="-1.68944">
        <ele>56</ele>
        <time>2021-02-14T13:19:10.000Z</time>
      </trkpt>
      <trkpt lat="47.0481" lon="-1.6893">
        <ele>55</ele>
        <time>2021-02-14T13:19:12.000Z</time>
      </trkpt>
      <trkpt lat="47.04806" lon="-1.68915">
        <ele>56</ele>
        <time>2021-02-14T13:19:14.000Z</time>
      </trkpt>
      <trkpt lat="47.04802" lon="-1.68902">
        <ele>56</ele>
        <time>2021-02-14T13:19:16.000Z</time>
      </trkpt>
      <trkpt lat="47.04799" lon="-1.68887">
        <ele>55</ele>
        <time>2021-02-14T13:19:18.000Z</time>
      </trkpt>
      <trkpt lat="47.04795" lon="-1.68873">
        <ele>55</ele>
        <time>2021-02-14T13:19:20.000Z</time>
      </trkpt>
      <trkpt lat="47.04791" lon="-1.68858">
        <ele>55</ele>
        <time>2021-02-14T13:19:22.000Z</time>
      </trkpt>
      <trkpt lat="47.04787" lon="-1.68845">
        <ele>55</ele>
        <time>2021-02-14T13:19:24.000Z</time>
      </trkpt>
      <trkpt lat="47.04783" lon="-1.6883">
        <ele>55</ele>
        <time>2021-02-14T13:19:26.000Z</time>
      </trkpt>
      <trkpt lat="47.04779" lon="-1.68816">
        <ele>55</ele>
        <time>2021-02-14T13:19:28.000Z</time>
      </trkpt>
      <trkpt lat="47.04775" lon="-1.68801">
        <ele>56</ele>
        <time>2021-02-14T13:19:30.000Z</time>
      </trkpt>
      <trkpt lat="47.04772" lon="-1.68787">
        <ele>56</ele>
        <time>2021-02-14T13:19:32.000Z</time>
      </trkpt>
      <trkpt lat="47.04768" lon="-1.68771">
        <ele>56</ele>
        <time>2021-02-14T13:19:34.000Z</time>
      </trkpt>
      <trkpt lat="47.04764" lon="-1.68757">
        <ele>56</ele>
        <time>2021-02-14T13:19:36.000Z</time>
      </trkpt>
      <trkpt lat="47.0476" lon="-1.68742">
        <ele>57</ele>
        <time>2021-02-14T13:19:38.000Z</time>
      </trkpt>
      <trkpt lat="47.04756" lon="-1.68727">
        <ele>57</ele>
        <time>2021-02-14T13:19:40.000Z</time>
      </trkpt>
      <trkpt lat="47.04752" lon="-1.68712">
        <ele>57</ele>
        <time>2021-02-14T13:19:42.000Z</time>
      </trkpt>
      <trkpt lat="47.04748" lon="-1.68697">
        <ele>57</ele>
        <time>2021-02-14T13:19:44.000Z</time>
      </trkpt>
      <trkpt lat="47.04744" lon="-1.68683">
        <ele>58</ele>
        <time>2021-02-14T13:19:46.000Z</time>
      </trkpt>
      <trkpt lat="47.04741" lon="-1.68668">
        <ele>57</ele>
        <time>2021-02-14T13:19:48.000Z</time>
      </trkpt>
      <trkpt lat="47.04737" lon="-1.68653">
        <ele>57</ele>
        <time>2021-02-14T13:19:50.000Z</time>
      </trkpt>
      <trkpt lat="47.04733" lon="-1.68638">
        <ele>58</ele>
        <time>2021-02-14T13:19:52.000Z</time>
      </trkpt>
      <trkpt lat="47.0473" lon="-1.68624">
        <ele>58</ele>
        <time>2021-02-14T13:19:54.000Z</time>
      </trkpt>
      <trkpt lat="47.04726" lon="-1.68608">
        <ele>58</ele>
        <time>2021-02-14T13:19:56.000Z</time>
      </trkpt>
      <trkpt lat="47.04722" lon="-1.68594">
        <ele>58</ele>
        <time>2021-02-14T13:19:58.000Z</time>
      </trkpt>
      <trkpt lat="47.04719" lon="-1.68579">
        <ele>58</ele>
        <time>2021-02-14T13:20:00.000Z</time>
      </trkpt>
      <trkpt lat="47.04715" lon="-1.68564">
        <ele>58</ele>
        <time>2021-02-14T13:20:02.000Z</time>
      </trkpt>
      <trkpt lat="47.04711" lon="-1.68549">
        <ele>58</ele>
        <time>2021-02-14T13:20:04.000Z</time>
      </trkpt>
      <trkpt lat="47.04707" lon="-1.68534">
        <ele>58</ele>
        <time>2021-02-14T13:20:06.000Z</time>
      </trkpt>
      <trkpt lat="47.04704" lon="-1.6852">
        <ele>58</ele>
        <time>2021-02-14T13:20:08.000Z</time>
      </trkpt>
      <trkpt lat="47.047" lon="-1.68506">
        <ele>58</ele>
        <time>2021-02-14T13:20:10.000Z</time>
      </trkpt>
      <trkpt lat="47.04696" lon="-1.68492">
        <ele>58</ele>
        <time>2021-02-14T13:20:12.000Z</time>
      </trkpt>
      <trkpt lat="47.04692" lon="-1.68478">
        <ele>58</ele>
        <time>2021-02-14T13:20:14.000Z</time>
      </trkpt>
      <trkpt lat="47.04689" lon="-1.68463">
        <ele>58</ele>
        <time>2021-02-14T13:20:16.000Z</time>
      </trkpt>
      <trkpt lat="47.04685" lon="-1.6845">
        <ele>58</ele>
        <time>2021-02-14T13:20:18.000Z</time>
      </trkpt>
      <trkpt lat="47.04681" lon="-1.68435">
        <ele>59</ele>
        <time>2021-02-14T13:20:20.000Z</time>
      </trkpt>
      <trkpt lat="47.04677" lon="-1.6842">
        <ele>59</ele>
        <time>2021-02-14T13:20:22.000Z</time>
      </trkpt>
      <trkpt lat="47.04673" lon="-1.68406">
        <ele>58</ele>
        <time>2021-02-14T13:20:24.000Z</time>
      </trkpt>
      <trkpt lat="47.0467" lon="-1.68391">
        <ele>58</ele>
        <time>2021-02-14T13:20:26.000Z</time>
      </trkpt>
      <trkpt lat="47.04666" lon="-1.68376">
        <ele>58</ele>
        <time>2021-02-14T13:20:28.000Z</time>
      </trkpt>
      <trkpt lat="47.04663" lon="-1.6836">
        <ele>58</ele>
        <time>2021-02-14T13:20:30.000Z</time>
      </trkpt>
      <trkpt lat="47.04658" lon="-1.68345">
        <ele>58</ele>
        <time>2021-02-14T13:20:32.000Z</time>
      </trkpt>
      <trkpt lat="47.04655" lon="-1.6833">
        <ele>57</ele>
        <time>2021-02-14T13:20:34.000Z</time>
      </trkpt>
      <trkpt lat="47.04651" lon="-1.68316">
        <ele>57</ele>
        <time>2021-02-14T13:20:36.000Z</time>
      </trkpt>
      <trkpt lat="47.04647" lon="-1.68301">
        <ele>57</ele>
        <time>2021-02-14T13:20:38.000Z</time>
      </trkpt>
      <trkpt lat="47.04643" lon="-1.68287">
        <ele>57</ele>
        <time>2021-02-14T13:20:40.000Z</time>
      </trkpt>
      <trkpt lat="47.04639" lon="-1.68271">
        <ele>56</ele>
        <time>2021-02-14T13:20:42.000Z</time>
      </trkpt>
      <trkpt lat="47.04635" lon="-1.68257">
        <ele>56</ele>
        <time>2021-02-14T13:20:44.000Z</time>
      </trkpt>
      <trkpt lat="47.04632" lon="-1.68242">
        <ele>56</ele>
        <time>2021-02-14T13:20:46.000Z</time>
      </trkpt>
      <trkpt lat="47.04627" lon="-1.68227">
        <ele>55</ele>
        <time>2021-02-14T13:20:48.000Z</time>
      </trkpt>
      <trkpt lat="47.04624" lon="-1.68212">
        <ele>55</ele>
        <time>2021-02-14T13:20:50.000Z</time>
      </trkpt>
      <trkpt lat="47.0462" lon="-1.68197">
        <ele>55</ele>
        <time>2021-02-14T13:20:52.000Z</time>
      </trkpt>
      <trkpt lat="47.04616" lon="-1.68182">
        <ele>55</ele>
        <time>2021-02-14T13:20:54.000Z</time>
      </trkpt>
      <trkpt lat="47.04612" lon="-1.68166">
        <ele>55</ele>
        <time>2021-02-14T13:20:56.000Z</time>
      </trkpt>
      <trkpt lat="47.04608" lon="-1.6815">
        <ele>54</ele>
        <time>2021-02-14T13:20:58.000Z</time>
      </trkpt>
      <trkpt lat="47.04604" lon="-1.68135">
        <ele>54</ele>
        <time>2021-02-14T13:21:00.000Z</time>
      </trkpt>
      <trkpt lat="47.046" lon="-1.6812">
        <ele>54</ele>
        <time>2021-02-14T13:21:02.000Z</time>
      </trkpt>
      <trkpt lat="47.04597" lon="-1.68105">
        <ele>55</ele>
        <time>2021-02-14T13:21:04.000Z</time>
      </trkpt>
      <trkpt lat="47.04593" lon="-1.68089">
        <ele>54</ele>
        <time>2021-02-14T13:21:06.000Z</time>
      </trkpt>
      <trkpt lat="47.04589" lon="-1.68075">
        <ele>54</ele>
        <time>2021-02-14T13:21:08.000Z</time>
      </trkpt>
      <trkpt lat="47.04585" lon="-1.6806">
        <ele>55</ele>
        <time>2021-02-14T13:21:10.000Z</time>
      </trkpt>
      <trkpt lat="47.04582" lon="-1.68046">
        <ele>55</ele>
        <time>2021-02-14T13:21:12.000Z</time>
      </trkpt>
      <trkpt lat="47.04578" lon="-1.68032">
        <ele>55</ele>
        <time>2021-02-14T13:21:14.000Z</time>
      </trkpt>
      <trkpt lat="47.04574" lon="-1.68018">
        <ele>55</ele>
        <time>2021-02-14T13:21:16.000Z</time>
      </trkpt>
      <trkpt lat="47.0457" lon="-1.68003">
        <ele>56</ele>
        <time>2021-02-14T13:21:18.000Z</time>
      </trkpt>
      <trkpt lat="47.04566" lon="-1.67988">
        <ele>56</ele>
        <time>2021-02-14T13:21:20.000Z</time>
      </trkpt>
      <trkpt lat="47.04562" lon="-1.67973">
        <ele>56</ele>
        <time>2021-02-14T13:21:22.000Z</time>
      </trkpt>
      <trkpt lat="47.04558" lon="-1.67958">
        <ele>55</ele>
        <time>2021-02-14T13:21:24.000Z</time>
      </trkpt>
      <trkpt lat="47.04554" lon="-1.67943">
        <ele>56</ele>
        <time>2021-02-14T13:21:26.000Z</time>
      </trkpt>
      <trkpt lat="47.0455" lon="-1.67929">
        <ele>56</ele>
        <time>2021-02-14T13:21:28.000Z</time>
      </trkpt>
      <trkpt lat="47.04547" lon="-1.67915">
        <ele>57</ele>
        <time>2021-02-14T13:21:30.000Z</time>
      </trkpt>
      <trkpt lat="47.04544" lon="-1.67901">
        <ele>57</ele>
        <time>2021-02-14T13:21:32.000Z</time>
      </trkpt>
      <trkpt lat="47.0454" lon="-1.67887">
        <ele>57</ele>
        <time>2021-02-14T13:21:34.000Z</time>
      </trkpt>
      <trkpt lat="47.04536" lon="-1.67872">
        <ele>57</ele>
        <time>2021-02-14T13:21:36.000Z</time>
      </trkpt>
      <trkpt lat="47.04532" lon="-1.67859">
        <ele>57</ele>
        <time>2021-02-14T13:21:38.000Z</time>
      </trkpt>
      <trkpt lat="47.04528" lon="-1.67845">
        <ele>58</ele>
        <time>2021-02-14T13:21:40.000Z</time>
      </trkpt>
      <trkpt lat="47.04525" lon="-1.67831">
        <ele>58</ele>
        <time>2021-02-14T13:21:42.000Z</time>
      </trkpt>
      <trkpt lat="47.04521" lon="-1.67816">
        <ele>58</ele>
        <time>2021-02-14T13:21:44.000Z</time>
      </trkpt>
      <trkpt lat="47.04518" lon="-1.67802">
        <ele>58</ele>
        <time>2021-02-14T13:21:46.000Z</time>
      </trkpt>
      <trkpt lat="47.04514" lon="-1.67787">
        <ele>58</ele>
        <time>2021-02-14T13:21:48.000Z</time>
      </trkpt>
      <trkpt lat="47.0451" lon="-1.67773">
        <ele>58</ele>
        <time>2021-02-14T13:21:50.000Z</time>
      </trkpt>
      <trkpt lat="47.04506" lon="-1.67758">
        <ele>58</ele>
        <time>2021-02-14T13:21:52.000Z</time>
      </trkpt>
      <trkpt lat="47.04502" lon="-1.67743">
        <ele>58</ele>
        <time>2021-02-14T13:21:54.000Z</time>
      </trkpt>
      <trkpt lat="47.04498" lon="-1.67728">
        <ele>58</ele>
        <time>2021-02-14T13:21:56.000Z</time>
      </trkpt>
      <trkpt lat="47.04494" lon="-1.67713">
        <ele>58</ele>
        <time>2021-02-14T13:21:58.000Z</time>
      </trkpt>
      <trkpt lat="47.0449" lon="-1.67697">
        <ele>57</ele>
        <time>2021-02-14T13:22:00.000Z</time>
      </trkpt>
      <trkpt lat="47.04486" lon="-1.67681">
        <ele>56</ele>
        <time>2021-02-14T13:22:02.000Z</time>
      </trkpt>
      <trkpt lat="47.04482" lon="-1.67665">
        <ele>56</ele>
        <time>2021-02-14T13:22:04.000Z</time>
      </trkpt>
      <trkpt lat="47.04478" lon="-1.67649">
        <ele>56</ele>
        <time>2021-02-14T13:22:06.000Z</time>
      </trkpt>
      <trkpt lat="47.04474" lon="-1.67633">
        <ele>56</ele>
        <time>2021-02-14T13:22:08.000Z</time>
      </trkpt>
      <trkpt lat="47.0447" lon="-1.67618">
        <ele>56</ele>
        <time>2021-02-14T13:22:10.000Z</time>
      </trkpt>
      <trkpt lat="47.04466" lon="-1.67602">
        <ele>56</ele>
        <time>2021-02-14T13:22:12.000Z</time>
      </trkpt>
      <trkpt lat="47.04462" lon="-1.67586">
        <ele>56</ele>
        <time>2021-02-14T13:22:14.000Z</time>
      </trkpt>
      <trkpt lat="47.04458" lon="-1.67569">
        <ele>56</ele>
        <time>2021-02-14T13:22:16.000Z</time>
      </trkpt>
      <trkpt lat="47.04453" lon="-1.67552">
        <ele>56</ele>
        <time>2021-02-14T13:22:18.000Z</time>
      </trkpt>
      <trkpt lat="47.04448" lon="-1.67534">
        <ele>56</ele>
        <time>2021-02-14T13:22:20.000Z</time>
      </trkpt>
      <trkpt lat="47.04444" lon="-1.67518">
        <ele>56</ele>
        <time>2021-02-14T13:22:22.000Z</time>
      </trkpt>
      <trkpt lat="47.0444" lon="-1.675">
        <ele>56</ele>
        <time>2021-02-14T13:22:24.000Z</time>
      </trkpt>
      <trkpt lat="47.04435" lon="-1.67483">
        <ele>55</ele>
        <time>2021-02-14T13:22:26.000Z</time>
      </trkpt>
      <trkpt lat="47.04431" lon="-1.67466">
        <ele>55</ele>
        <time>2021-02-14T13:22:28.000Z</time>
      </trkpt>
      <trkpt lat="47.04427" lon="-1.6745">
        <ele>55</ele>
        <time>2021-02-14T13:22:30.000Z</time>
      </trkpt>
      <trkpt lat="47.04422" lon="-1.67434">
        <ele>55</ele>
        <time>2021-02-14T13:22:32.000Z</time>
      </trkpt>
      <trkpt lat="47.04418" lon="-1.67417">
        <ele>55</ele>
        <time>2021-02-14T13:22:34.000Z</time>
      </trkpt>
      <trkpt lat="47.04413" lon="-1.67401">
        <ele>54</ele>
        <time>2021-02-14T13:22:36.000Z</time>
      </trkpt>
      <trkpt lat="47.04409" lon="-1.67384">
        <ele>54</ele>
        <time>2021-02-14T13:22:38.000Z</time>
      </trkpt>
      <trkpt lat="47.04404" lon="-1.67368">
        <ele>54</ele>
        <time>2021-02-14T13:22:40.000Z</time>
      </trkpt>
      <trkpt lat="47.04399" lon="-1.67351">
        <ele>53</ele>
        <time>2021-02-14T13:22:42.000Z</time>
      </trkpt>
      <trkpt lat="47.04395" lon="-1.67334">
        <ele>53</ele>
        <time>2021-02-14T13:22:44.000Z</time>
      </trkpt>
      <trkpt lat="47.04391" lon="-1.67318">
        <ele>53</ele>
        <time>2021-02-14T13:22:46.000Z</time>
      </trkpt>
      <trkpt lat="47.04387" lon="-1.67302">
        <ele>52</ele>
        <time>2021-02-14T13:22:48.000Z</time>
      </trkpt>
      <trkpt lat="47.04383" lon="-1.67285">
        <ele>53</ele>
        <time>2021-02-14T13:22:50.000Z</time>
      </trkpt>
      <trkpt lat="47.04379" lon="-1.67268">
        <ele>53</ele>
        <time>2021-02-14T13:22:52.000Z</time>
      </trkpt>
      <trkpt lat="47.04375" lon="-1.67252">
        <ele>53</ele>
        <time>2021-02-14T13:22:54.000Z</time>
      </trkpt>
      <trkpt lat="47.04371" lon="-1.67237">
        <ele>53</ele>
        <time>2021-02-14T13:22:56.000Z</time>
      </trkpt>
      <trkpt lat="47.04367" lon="-1.67222">
        <ele>53</ele>
        <time>2021-02-14T13:22:58.000Z</time>
      </trkpt>
      <trkpt lat="47.04363" lon="-1.67206">
        <ele>52</ele>
        <time>2021-02-14T13:23:00.000Z</time>
      </trkpt>
      <trkpt lat="47.04359" lon="-1.6719">
        <ele>53</ele>
        <time>2021-02-14T13:23:02.000Z</time>
      </trkpt>
      <trkpt lat="47.04356" lon="-1.67175">
        <ele>53</ele>
        <time>2021-02-14T13:23:04.000Z</time>
      </trkpt>
      <trkpt lat="47.04352" lon="-1.67159">
        <ele>53</ele>
        <time>2021-02-14T13:23:06.000Z</time>
      </trkpt>
      <trkpt lat="47.04348" lon="-1.67143">
        <ele>53</ele>
        <time>2021-02-14T13:23:08.000Z</time>
      </trkpt>
      <trkpt lat="47.04343" lon="-1.67127">
        <ele>53</ele>
        <time>2021-02-14T13:23:10.000Z</time>
      </trkpt>
      <trkpt lat="47.04339" lon="-1.67111">
        <ele>53</ele>
        <time>2021-02-14T13:23:12.000Z</time>
      </trkpt>
      <trkpt lat="47.04335" lon="-1.67094">
        <ele>53</ele>
        <time>2021-02-14T13:23:14.000Z</time>
      </trkpt>
      <trkpt lat="47.04331" lon="-1.67079">
        <ele>52</ele>
        <time>2021-02-14T13:23:16.000Z</time>
      </trkpt>
      <trkpt lat="47.04327" lon="-1.67063">
        <ele>52</ele>
        <time>2021-02-14T13:23:18.000Z</time>
      </trkpt>
      <trkpt lat="47.04323" lon="-1.67047">
        <ele>52</ele>
        <time>2021-02-14T13:23:20.000Z</time>
      </trkpt>
      <trkpt lat="47.04319" lon="-1.67032">
        <ele>51</ele>
        <time>2021-02-14T13:23:22.000Z</time>
      </trkpt>
      <trkpt lat="47.04315" lon="-1.67016">
        <ele>51</ele>
        <time>2021-02-14T13:23:24.000Z</time>
      </trkpt>
      <trkpt lat="47.04311" lon="-1.67001">
        <ele>51</ele>
        <time>2021-02-14T13:23:26.000Z</time>
      </trkpt>
      <trkpt lat="47.04307" lon="-1.66985">
        <ele>51</ele>
        <time>2021-02-14T13:23:28.000Z</time>
      </trkpt>
      <trkpt lat="47.04303" lon="-1.6697">
        <ele>52</ele>
        <time>2021-02-14T13:23:30.000Z</time>
      </trkpt>
      <trkpt lat="47.04299" lon="-1.66955">
        <ele>52</ele>
        <time>2021-02-14T13:23:32.000Z</time>
      </trkpt>
      <trkpt lat="47.04296" lon="-1.6694">
        <ele>52</ele>
        <time>2021-02-14T13:23:34.000Z</time>
      </trkpt>
      <trkpt lat="47.04292" lon="-1.66925">
        <ele>52</ele>
        <time>2021-02-14T13:23:36.000Z</time>
      </trkpt>
      <trkpt lat="47.04288" lon="-1.6691">
        <ele>52</ele>
        <time>2021-02-14T13:23:38.000Z</time>
      </trkpt>
      <trkpt lat="47.04283" lon="-1.66895">
        <ele>52</ele>
        <time>2021-02-14T13:23:40.000Z</time>
      </trkpt>
      <trkpt lat="47.04279" lon="-1.6688">
        <ele>52</ele>
        <time>2021-02-14T13:23:42.000Z</time>
      </trkpt>
      <trkpt lat="47.04275" lon="-1.66864">
        <ele>52</ele>
        <time>2021-02-14T13:23:44.000Z</time>
      </trkpt>
      <trkpt lat="47.04271" lon="-1.66848">
        <ele>52</ele>
        <time>2021-02-14T13:23:46.000Z</time>
      </trkpt>
      <trkpt lat="47.04267" lon="-1.66832">
        <ele>52</ele>
        <time>2021-02-14T13:23:48.000Z</time>
      </trkpt>
      <trkpt lat="47.04263" lon="-1.66817">
        <ele>52</ele>
        <time>2021-02-14T13:23:50.000Z</time>
      </trkpt>
      <trkpt lat="47.04259" lon="-1.66801">
        <ele>51</ele>
        <time>2021-02-14T13:23:52.000Z</time>
      </trkpt>
      <trkpt lat="47.04255" lon="-1.66786">
        <ele>51</ele>
        <time>2021-02-14T13:23:54.000Z</time>
      </trkpt>
      <trkpt lat="47.04251" lon="-1.66771">
        <ele>51</ele>
        <time>2021-02-14T13:23:56.000Z</time>
      </trkpt>
      <trkpt lat="47.04247" lon="-1.66756">
        <ele>52</ele>
        <time>2021-02-14T13:23:58.000Z</time>
      </trkpt>
      <trkpt lat="47.04243" lon="-1.66741">
        <ele>52</ele>
        <time>2021-02-14T13:24:00.000Z</time>
      </trkpt>
      <trkpt lat="47.0424" lon="-1.66726">
        <ele>52</ele>
        <time>2021-02-14T13:24:02.000Z</time>
      </trkpt>
      <trkpt lat="47.04236" lon="-1.66712">
        <ele>52</ele>
        <time>2021-02-14T13:24:04.000Z</time>
      </trkpt>
      <trkpt lat="47.04232" lon="-1.66697">
        <ele>52</ele>
        <time>2021-02-14T13:24:06.000Z</time>
      </trkpt>
      <trkpt lat="47.04228" lon="-1.66683">
        <ele>52</ele>
        <time>2021-02-14T13:24:08.000Z</time>
      </trkpt>
      <trkpt lat="47.04224" lon="-1.66669">
        <ele>53</ele>
        <time>2021-02-14T13:24:10.000Z</time>
      </trkpt>
      <trkpt lat="47.0422" lon="-1.66654">
        <ele>53</ele>
        <time>2021-02-14T13:24:12.000Z</time>
      </trkpt>
      <trkpt lat="47.04216" lon="-1.66639">
        <ele>53</ele>
        <time>2021-02-14T13:24:14.000Z</time>
      </trkpt>
      <trkpt lat="47.04211" lon="-1.66624">
        <ele>52</ele>
        <time>2021-02-14T13:24:16.000Z</time>
      </trkpt>
      <trkpt lat="47.04208" lon="-1.66608">
        <ele>52</ele>
        <time>2021-02-14T13:24:18.000Z</time>
      </trkpt>
      <trkpt lat="47.04204" lon="-1.66592">
        <ele>52</ele>
        <time>2021-02-14T13:24:20.000Z</time>
      </trkpt>
      <trkpt lat="47.04199" lon="-1.66576">
        <ele>52</ele>
        <time>2021-02-14T13:24:22.000Z</time>
      </trkpt>
      <trkpt lat="47.04196" lon="-1.6656">
        <ele>52</ele>
        <time>2021-02-14T13:24:24.000Z</time>
      </trkpt>
      <trkpt lat="47.04192" lon="-1.66546">
        <ele>53</ele>
        <time>2021-02-14T13:24:26.000Z</time>
      </trkpt>
      <trkpt lat="47.04188" lon="-1.66531">
        <ele>53</ele>
        <time>2021-02-14T13:24:28.000Z</time>
      </trkpt>
      <trkpt lat="47.04185" lon="-1.66516">
        <ele>53</ele>
        <time>2021-02-14T13:24:30.000Z</time>
      </trkpt>
      <trkpt lat="47.04181" lon="-1.66501">
        <ele>53</ele>
        <time>2021-02-14T13:24:32.000Z</time>
      </trkpt>
      <trkpt lat="47.04177" lon="-1.66486">
        <ele>53</ele>
        <time>2021-02-14T13:24:34.000Z</time>
      </trkpt>
      <trkpt lat="47.04174" lon="-1.66472">
        <ele>53</ele>
        <time>2021-02-14T13:24:36.000Z</time>
      </trkpt>
      <trkpt lat="47.0417" lon="-1.66458">
        <ele>53</ele>
        <time>2021-02-14T13:24:38.000Z</time>
      </trkpt>
      <trkpt lat="47.04167" lon="-1.66445">
        <ele>53</ele>
        <time>2021-02-14T13:24:40.000Z</time>
      </trkpt>
      <trkpt lat="47.04164" lon="-1.66432">
        <ele>54</ele>
        <time>2021-02-14T13:24:42.000Z</time>
      </trkpt>
      <trkpt lat="47.04159" lon="-1.66419">
        <ele>54</ele>
        <time>2021-02-14T13:24:44.000Z</time>
      </trkpt>
      <trkpt lat="47.04155" lon="-1.66406">
        <ele>55</ele>
        <time>2021-02-14T13:24:46.000Z</time>
      </trkpt>
      <trkpt lat="47.04151" lon="-1.66393">
        <ele>55</ele>
        <time>2021-02-14T13:24:48.000Z</time>
      </trkpt>
      <trkpt lat="47.04148" lon="-1.66378">
        <ele>55</ele>
        <time>2021-02-14T13:24:50.000Z</time>
      </trkpt>
      <trkpt lat="47.04145" lon="-1.66363">
        <ele>55</ele>
        <time>2021-02-14T13:24:52.000Z</time>
      </trkpt>
      <trkpt lat="47.04141" lon="-1.66348">
        <ele>55</ele>
        <time>2021-02-14T13:24:54.000Z</time>
      </trkpt>
      <trkpt lat="47.04137" lon="-1.66334">
        <ele>55</ele>
        <time>2021-02-14T13:24:56.000Z</time>
      </trkpt>
      <trkpt lat="47.04134" lon="-1.66319">
        <ele>55</ele>
        <time>2021-02-14T13:24:58.000Z</time>
      </trkpt>
      <trkpt lat="47.0413" lon="-1.66305">
        <ele>55</ele>
        <time>2021-02-14T13:25:00.000Z</time>
      </trkpt>
      <trkpt lat="47.04126" lon="-1.66292">
        <ele>55</ele>
        <time>2021-02-14T13:25:02.000Z</time>
      </trkpt>
      <trkpt lat="47.04123" lon="-1.66278">
        <ele>55</ele>
        <time>2021-02-14T13:25:04.000Z</time>
      </trkpt>
      <trkpt lat="47.04119" lon="-1.66263">
        <ele>55</ele>
        <time>2021-02-14T13:25:06.000Z</time>
      </trkpt>
      <trkpt lat="47.04116" lon="-1.66248">
        <ele>55</ele>
        <time>2021-02-14T13:25:08.000Z</time>
      </trkpt>
      <trkpt lat="47.04112" lon="-1.66234">
        <ele>55</ele>
        <time>2021-02-14T13:25:10.000Z</time>
      </trkpt>
      <trkpt lat="47.04109" lon="-1.6622">
        <ele>56</ele>
        <time>2021-02-14T13:25:12.000Z</time>
      </trkpt>
      <trkpt lat="47.04104" lon="-1.66206">
        <ele>56</ele>
        <time>2021-02-14T13:25:14.000Z</time>
      </trkpt>
      <trkpt lat="47.041" lon="-1.66192">
        <ele>56</ele>
        <time>2021-02-14T13:25:16.000Z</time>
      </trkpt>
      <trkpt lat="47.04097" lon="-1.66177">
        <ele>56</ele>
        <time>2021-02-14T13:25:18.000Z</time>
      </trkpt>
      <trkpt lat="47.04093" lon="-1.66162">
        <ele>56</ele>
        <time>2021-02-14T13:25:20.000Z</time>
      </trkpt>
      <trkpt lat="47.04089" lon="-1.66148">
        <ele>56</ele>
        <time>2021-02-14T13:25:22.000Z</time>
      </trkpt>
      <trkpt lat="47.04085" lon="-1.66134">
        <ele>56</ele>
        <time>2021-02-14T13:25:24.000Z</time>
      </trkpt>
      <trkpt lat="47.04081" lon="-1.66119">
        <ele>57</ele>
        <time>2021-02-14T13:25:26.000Z</time>
      </trkpt>
      <trkpt lat="47.04078" lon="-1.66105">
        <ele>57</ele>
        <time>2021-02-14T13:25:28.000Z</time>
      </trkpt>
      <trkpt lat="47.04073" lon="-1.66091">
        <ele>57</ele>
        <time>2021-02-14T13:25:30.000Z</time>
      </trkpt>
      <trkpt lat="47.0407" lon="-1.66076">
        <ele>56</ele>
        <time>2021-02-14T13:25:32.000Z</time>
      </trkpt>
      <trkpt lat="47.04066" lon="-1.66061">
        <ele>57</ele>
        <time>2021-02-14T13:25:34.000Z</time>
      </trkpt>
      <trkpt lat="47.04063" lon="-1.66046">
        <ele>56</ele>
        <time>2021-02-14T13:25:36.000Z</time>
      </trkpt>
      <trkpt lat="47.04059" lon="-1.66032">
        <ele>56</ele>
        <time>2021-02-14T13:25:38.000Z</time>
      </trkpt>
      <trkpt lat="47.04055" lon="-1.66018">
        <ele>56</ele>
        <time>2021-02-14T13:25:40.000Z</time>
      </trkpt>
      <trkpt lat="47.04051" lon="-1.66003">
        <ele>56</ele>
        <time>2021-02-14T13:25:42.000Z</time>
      </trkpt>
      <trkpt lat="47.04047" lon="-1.65989">
        <ele>55</ele>
        <time>2021-02-14T13:25:44.000Z</time>
      </trkpt>
      <trkpt lat="47.04042" lon="-1.65973">
        <ele>55</ele>
        <time>2021-02-14T13:25:46.000Z</time>
      </trkpt>
      <trkpt lat="47.04038" lon="-1.65958">
        <ele>55</ele>
        <time>2021-02-14T13:25:48.000Z</time>
      </trkpt>
      <trkpt lat="47.04034" lon="-1.65943">
        <ele>55</ele>
        <time>2021-02-14T13:25:50.000Z</time>
      </trkpt>
      <trkpt lat="47.04029" lon="-1.65929">
        <ele>55</ele>
        <time>2021-02-14T13:25:52.000Z</time>
      </trkpt>
      <trkpt lat="47.04025" lon="-1.65914">
        <ele>55</ele>
        <time>2021-02-14T13:25:54.000Z</time>
      </trkpt>
      <trkpt lat="47.04021" lon="-1.65898">
        <ele>55</ele>
        <time>2021-02-14T13:25:56.000Z</time>
      </trkpt>
      <trkpt lat="47.04017" lon="-1.65883">
        <ele>55</ele>
        <time>2021-02-14T13:25:58.000Z</time>
      </trkpt>
      <trkpt lat="47.04013" lon="-1.65867">
        <ele>55</ele>
        <time>2021-02-14T13:26:00.000Z</time>
      </trkpt>
      <trkpt lat="47.04009" lon="-1.65852">
        <ele>54</ele>
        <time>2021-02-14T13:26:02.000Z</time>
      </trkpt>
      <trkpt lat="47.04004" lon="-1.65837">
        <ele>54</ele>
        <time>2021-02-14T13:26:04.000Z</time>
      </trkpt>
      <trkpt lat="47.04" lon="-1.65822">
        <ele>55</ele>
        <time>2021-02-14T13:26:06.000Z</time>
      </trkpt>
      <trkpt lat="47.03996" lon="-1.65807">
        <ele>55</ele>
        <time>2021-02-14T13:26:08.000Z</time>
      </trkpt>
      <trkpt lat="47.03992" lon="-1.65792">
        <ele>55</ele>
        <time>2021-02-14T13:26:10.000Z</time>
      </trkpt>
      <trkpt lat="47.03988" lon="-1.65778">
        <ele>54</ele>
        <time>2021-02-14T13:26:12.000Z</time>
      </trkpt>
      <trkpt lat="47.03984" lon="-1.65763">
        <ele>54</ele>
        <time>2021-02-14T13:26:14.000Z</time>
      </trkpt>
      <trkpt lat="47.0398" lon="-1.65748">
        <ele>55</ele>
        <time>2021-02-14T13:26:16.000Z</time>
      </trkpt>
      <trkpt lat="47.03977" lon="-1.65734">
        <ele>54</ele>
        <time>2021-02-14T13:26:18.000Z</time>
      </trkpt>
      <trkpt lat="47.03973" lon="-1.6572">
        <ele>54</ele>
        <time>2021-02-14T13:26:20.000Z</time>
      </trkpt>
      <trkpt lat="47.03969" lon="-1.65705">
        <ele>54</ele>
        <time>2021-02-14T13:26:22.000Z</time>
      </trkpt>
      <trkpt lat="47.03965" lon="-1.6569">
        <ele>53</ele>
        <time>2021-02-14T13:26:24.000Z</time>
      </trkpt>
      <trkpt lat="47.03961" lon="-1.65676">
        <ele>53</ele>
        <time>2021-02-14T13:26:26.000Z</time>
      </trkpt>
      <trkpt lat="47.03956" lon="-1.65661">
        <ele>54</ele>
        <time>2021-02-14T13:26:28.000Z</time>
      </trkpt>
      <trkpt lat="47.03953" lon="-1.65647">
        <ele>54</ele>
        <time>2021-02-14T13:26:30.000Z</time>
      </trkpt>
      <trkpt lat="47.03949" lon="-1.65632">
        <ele>54</ele>
        <time>2021-02-14T13:26:32.000Z</time>
      </trkpt>
      <trkpt lat="47.03945" lon="-1.65617">
        <ele>54</ele>
        <time>2021-02-14T13:26:34.000Z</time>
      </trkpt>
      <trkpt lat="47.03941" lon="-1.65602">
        <ele>53</ele>
        <time>2021-02-14T13:26:36.000Z</time>
      </trkpt>
      <trkpt lat="47.03937" lon="-1.65587">
        <ele>53</ele>
        <time>2021-02-14T13:26:38.000Z</time>
      </trkpt>
      <trkpt lat="47.03933" lon="-1.65573">
        <ele>53</ele>
        <time>2021-02-14T13:26:40.000Z</time>
      </trkpt>
      <trkpt lat="47.03929" lon="-1.65559">
        <ele>54</ele>
        <time>2021-02-14T13:26:42.000Z</time>
      </trkpt>
      <trkpt lat="47.03925" lon="-1.65545">
        <ele>54</ele>
        <time>2021-02-14T13:26:44.000Z</time>
      </trkpt>
      <trkpt lat="47.03921" lon="-1.65532">
        <ele>54</ele>
        <time>2021-02-14T13:26:46.000Z</time>
      </trkpt>
      <trkpt lat="47.03917" lon="-1.65517">
        <ele>54</ele>
        <time>2021-02-14T13:26:48.000Z</time>
      </trkpt>
      <trkpt lat="47.03913" lon="-1.65503">
        <ele>54</ele>
        <time>2021-02-14T13:26:50.000Z</time>
      </trkpt>
      <trkpt lat="47.03909" lon="-1.65489">
        <ele>54</ele>
        <time>2021-02-14T13:26:52.000Z</time>
      </trkpt>
      <trkpt lat="47.03905" lon="-1.65475">
        <ele>54</ele>
        <time>2021-02-14T13:26:54.000Z</time>
      </trkpt>
      <trkpt lat="47.03901" lon="-1.65461">
        <ele>55</ele>
        <time>2021-02-14T13:26:56.000Z</time>
      </trkpt>
      <trkpt lat="47.03897" lon="-1.65447">
        <ele>55</ele>
        <time>2021-02-14T13:26:58.000Z</time>
      </trkpt>
      <trkpt lat="47.03893" lon="-1.65432">
        <ele>55</ele>
        <time>2021-02-14T13:27:00.000Z</time>
      </trkpt>
      <trkpt lat="47.03889" lon="-1.65418">
        <ele>55</ele>
        <time>2021-02-14T13:27:02.000Z</time>
      </trkpt>
      <trkpt lat="47.03885" lon="-1.65404">
        <ele>55</ele>
        <time>2021-02-14T13:27:04.000Z</time>
      </trkpt>
      <trkpt lat="47.0388" lon="-1.6539">
        <ele>55</ele>
        <time>2021-02-14T13:27:06.000Z</time>
      </trkpt>
      <trkpt lat="47.03876" lon="-1.65375">
        <ele>56</ele>
        <time>2021-02-14T13:27:08.000Z</time>
      </trkpt>
      <trkpt lat="47.03872" lon="-1.65362">
        <ele>55</ele>
        <time>2021-02-14T13:27:10.000Z</time>
      </trkpt>
      <trkpt lat="47.03866" lon="-1.65352">
        <ele>55</ele>
        <time>2021-02-14T13:27:12.000Z</time>
      </trkpt>
      <trkpt lat="47.03858" lon="-1.65343">
        <ele>55</ele>
        <time>2021-02-14T13:27:14.000Z</time>
      </trkpt>
      <trkpt lat="47.03848" lon="-1.65333">
        <ele>55</ele>
        <time>2021-02-14T13:27:17.000Z</time>
      </trkpt>
      <trkpt lat="47.03842" lon="-1.65323">
        <ele>55</ele>
        <time>2021-02-14T13:27:20.000Z</time>
      </trkpt>
      <trkpt lat="47.03848" lon="-1.65311">
        <ele>55</ele>
        <time>2021-02-14T13:27:22.000Z</time>
      </trkpt>
      <trkpt lat="47.03856" lon="-1.653">
        <ele>55</ele>
        <time>2021-02-14T13:27:24.000Z</time>
      </trkpt>
      <trkpt lat="47.03866" lon="-1.65289">
        <ele>55</ele>
        <time>2021-02-14T13:27:26.000Z</time>
      </trkpt>
      <trkpt lat="47.03876" lon="-1.65278">
        <ele>55</ele>
        <time>2021-02-14T13:27:28.000Z</time>
      </trkpt>
      <trkpt lat="47.03888" lon="-1.6527">
        <ele>55</ele>
        <time>2021-02-14T13:27:30.000Z</time>
      </trkpt>
      <trkpt lat="47.03899" lon="-1.65262">
        <ele>55</ele>
        <time>2021-02-14T13:27:32.000Z</time>
      </trkpt>
      <trkpt lat="47.03911" lon="-1.65254">
        <ele>55</ele>
        <time>2021-02-14T13:27:34.000Z</time>
      </trkpt>
      <trkpt lat="47.03922" lon="-1.65247">
        <ele>54</ele>
        <time>2021-02-14T13:27:36.000Z</time>
      </trkpt>
      <trkpt lat="47.03934" lon="-1.65239">
        <ele>54</ele>
        <time>2021-02-14T13:27:38.000Z</time>
      </trkpt>
      <trkpt lat="47.03945" lon="-1.65232">
        <ele>54</ele>
        <time>2021-02-14T13:27:40.000Z</time>
      </trkpt>
      <trkpt lat="47.03956" lon="-1.65224">
        <ele>54</ele>
        <time>2021-02-14T13:27:42.000Z</time>
      </trkpt>
      <trkpt lat="47.03968" lon="-1.65216">
        <ele>55</ele>
        <time>2021-02-14T13:27:44.000Z</time>
      </trkpt>
      <trkpt lat="47.03978" lon="-1.65209">
        <ele>54</ele>
        <time>2021-02-14T13:27:46.000Z</time>
      </trkpt>
      <trkpt lat="47.03989" lon="-1.65201">
        <ele>54</ele>
        <time>2021-02-14T13:27:48.000Z</time>
      </trkpt>
      <trkpt lat="47.04001" lon="-1.65193">
        <ele>54</ele>
        <time>2021-02-14T13:27:50.000Z</time>
      </trkpt>
      <trkpt lat="47.04012" lon="-1.65187">
        <ele>54</ele>
        <time>2021-02-14T13:27:52.000Z</time>
      </trkpt>
      <trkpt lat="47.04023" lon="-1.65179">
        <ele>54</ele>
        <time>2021-02-14T13:27:54.000Z</time>
      </trkpt>
      <trkpt lat="47.04035" lon="-1.65171">
        <ele>53</ele>
        <time>2021-02-14T13:27:56.000Z</time>
      </trkpt>
      <trkpt lat="47.04047" lon="-1.65163">
        <ele>53</ele>
        <time>2021-02-14T13:27:58.000Z</time>
      </trkpt>
      <trkpt lat="47.04059" lon="-1.65154">
        <ele>53</ele>
        <time>2021-02-14T13:28:00.000Z</time>
      </trkpt>
      <trkpt lat="47.0407" lon="-1.65146">
        <ele>52</ele>
        <time>2021-02-14T13:28:02.000Z</time>
      </trkpt>
      <trkpt lat="47.04082" lon="-1.65138">
        <ele>52</ele>
        <time>2021-02-14T13:28:04.000Z</time>
      </trkpt>
      <trkpt lat="47.04094" lon="-1.6513">
        <ele>52</ele>
        <time>2021-02-14T13:28:06.000Z</time>
      </trkpt>
      <trkpt lat="47.04105" lon="-1.65122">
        <ele>52</ele>
        <time>2021-02-14T13:28:08.000Z</time>
      </trkpt>
      <trkpt lat="47.04117" lon="-1.65114">
        <ele>52</ele>
        <time>2021-02-14T13:28:10.000Z</time>
      </trkpt>
      <trkpt lat="47.04129" lon="-1.65106">
        <ele>52</ele>
        <time>2021-02-14T13:28:12.000Z</time>
      </trkpt>
      <trkpt lat="47.0414" lon="-1.65098">
        <ele>52</ele>
        <time>2021-02-14T13:28:14.000Z</time>
      </trkpt>
      <trkpt lat="47.04152" lon="-1.6509">
        <ele>51</ele>
        <time>2021-02-14T13:28:16.000Z</time>
      </trkpt>
      <trkpt lat="47.04164" lon="-1.65082">
        <ele>51</ele>
        <time>2021-02-14T13:28:18.000Z</time>
      </trkpt>
      <trkpt lat="47.04176" lon="-1.65074">
        <ele>51</ele>
        <time>2021-02-14T13:28:20.000Z</time>
      </trkpt>
      <trkpt lat="47.04188" lon="-1.65065">
        <ele>51</ele>
        <time>2021-02-14T13:28:22.000Z</time>
      </trkpt>
      <trkpt lat="47.042" lon="-1.65056">
        <ele>50</ele>
        <time>2021-02-14T13:28:24.000Z</time>
      </trkpt>
      <trkpt lat="47.04212" lon="-1.65048">
        <ele>50</ele>
        <time>2021-02-14T13:28:26.000Z</time>
      </trkpt>
      <trkpt lat="47.04224" lon="-1.6504">
        <ele>50</ele>
        <time>2021-02-14T13:28:28.000Z</time>
      </trkpt>
      <trkpt lat="47.04236" lon="-1.65032">
        <ele>50</ele>
        <time>2021-02-14T13:28:30.000Z</time>
      </trkpt>
      <trkpt lat="47.04248" lon="-1.65023">
        <ele>50</ele>
        <time>2021-02-14T13:28:32.000Z</time>
      </trkpt>
      <trkpt lat="47.0426" lon="-1.65015">
        <ele>50</ele>
        <time>2021-02-14T13:28:34.000Z</time>
      </trkpt>
      <trkpt lat="47.04273" lon="-1.65006">
        <ele>50</ele>
        <time>2021-02-14T13:28:36.000Z</time>
      </trkpt>
      <trkpt lat="47.04285" lon="-1.64997">
        <ele>49</ele>
        <time>2021-02-14T13:28:38.000Z</time>
      </trkpt>
      <trkpt lat="47.04297" lon="-1.64988">
        <ele>50</ele>
        <time>2021-02-14T13:28:40.000Z</time>
      </trkpt>
      <trkpt lat="47.04309" lon="-1.64979">
        <ele>50</ele>
        <time>2021-02-14T13:28:42.000Z</time>
      </trkpt>
      <trkpt lat="47.0432" lon="-1.64969">
        <ele>50</ele>
        <time>2021-02-14T13:28:44.000Z</time>
      </trkpt>
      <trkpt lat="47.0433" lon="-1.64961">
        <ele>50</ele>
        <time>2021-02-14T13:28:46.000Z</time>
      </trkpt>
      <trkpt lat="47.04342" lon="-1.64952">
        <ele>50</ele>
        <time>2021-02-14T13:28:48.000Z</time>
      </trkpt>
      <trkpt lat="47.04352" lon="-1.64943">
        <ele>50</ele>
        <time>2021-02-14T13:28:50.000Z</time>
      </trkpt>
      <trkpt lat="47.04362" lon="-1.64934">
        <ele>51</ele>
        <time>2021-02-14T13:28:52.000Z</time>
      </trkpt>
      <trkpt lat="47.04372" lon="-1.64925">
        <ele>51</ele>
        <time>2021-02-14T13:28:54.000Z</time>
      </trkpt>
      <trkpt lat="47.04382" lon="-1.64916">
        <ele>51</ele>
        <time>2021-02-14T13:28:56.000Z</time>
      </trkpt>
      <trkpt lat="47.04391" lon="-1.64908">
        <ele>51</ele>
        <time>2021-02-14T13:28:58.000Z</time>
      </trkpt>
      <trkpt lat="47.044" lon="-1.649">
        <ele>51</ele>
        <time>2021-02-14T13:29:00.000Z</time>
      </trkpt>
      <trkpt lat="47.0441" lon="-1.64894">
        <ele>51</ele>
        <time>2021-02-14T13:29:02.000Z</time>
      </trkpt>
      <trkpt lat="47.04423" lon="-1.6489">
        <ele>51</ele>
        <time>2021-02-14T13:29:05.000Z</time>
      </trkpt>
      <trkpt lat="47.04434" lon="-1.6489">
        <ele>51</ele>
        <time>2021-02-14T13:29:07.000Z</time>
      </trkpt>
      <trkpt lat="47.04443" lon="-1.64894">
        <ele>51</ele>
        <time>2021-02-14T13:29:09.000Z</time>
      </trkpt>
      <trkpt lat="47.04452" lon="-1.64899">
        <ele>51</ele>
        <time>2021-02-14T13:29:11.000Z</time>
      </trkpt>
      <trkpt lat="47.04462" lon="-1.64906">
        <ele>50</ele>
        <time>2021-02-14T13:29:14.000Z</time>
      </trkpt>
      <trkpt lat="47.04471" lon="-1.64909">
        <ele>50</ele>
        <time>2021-02-14T13:29:19.000Z</time>
      </trkpt>
      <trkpt lat="47.04481" lon="-1.64912">
        <ele>49</ele>
        <time>2021-02-14T13:29:24.000Z</time>
      </trkpt>
      <trkpt lat="47.0449" lon="-1.64915">
        <ele>48</ele>
        <time>2021-02-14T13:29:33.000Z</time>
      </trkpt>
      <trkpt lat="47.04479" lon="-1.64918">
        <ele>48</ele>
        <time>2021-02-14T13:29:41.000Z</time>
      </trkpt>
      <trkpt lat="47.0447" lon="-1.64916">
        <ele>48</ele>
        <time>2021-02-14T13:29:43.000Z</time>
      </trkpt>
      <trkpt lat="47.0446" lon="-1.64911">
        <ele>49</ele>
        <time>2021-02-14T13:29:46.000Z</time>
      </trkpt>
      <trkpt lat="47.0445" lon="-1.64908">
        <ele>49</ele>
        <time>2021-02-14T13:29:48.000Z</time>
      </trkpt>
      <trkpt lat="47.04439" lon="-1.64899">
        <ele>50</ele>
        <time>2021-02-14T13:29:51.000Z</time>
      </trkpt>
      <trkpt lat="47.04428" lon="-1.6489">
        <ele>52</ele>
        <time>2021-02-14T13:29:54.000Z</time>
      </trkpt>
      <trkpt lat="47.04422" lon="-1.64879">
        <ele>52</ele>
        <time>2021-02-14T13:29:57.000Z</time>
      </trkpt>
      <trkpt lat="47.04423" lon="-1.64865">
        <ele>52</ele>
        <time>2021-02-14T13:30:05.000Z</time>
      </trkpt>
      <trkpt lat="47.04429" lon="-1.64855">
        <ele>52</ele>
        <time>2021-02-14T13:30:12.000Z</time>
      </trkpt>
      <trkpt lat="47.04438" lon="-1.64846">
        <ele>51</ele>
        <time>2021-02-14T13:30:32.000Z</time>
      </trkpt>
      <trkpt lat="47.04445" lon="-1.64837">
        <ele>52</ele>
        <time>2021-02-14T13:30:37.000Z</time>
      </trkpt>
      <trkpt lat="47.04453" lon="-1.64845">
        <ele>51</ele>
        <time>2021-02-14T13:30:47.000Z</time>
      </trkpt>
      <trkpt lat="47.04447" lon="-1.64858">
        <ele>50</ele>
        <time>2021-02-14T13:30:52.000Z</time>
      </trkpt>
      <trkpt lat="47.04437" lon="-1.64851">
        <ele>52</ele>
        <time>2021-02-14T13:30:56.000Z</time>
      </trkpt>
      <trkpt lat="47.04429" lon="-1.64839">
        <ele>53</ele>
        <time>2021-02-14T13:31:00.000Z</time>
      </trkpt>
      <trkpt lat="47.04427" lon="-1.64824">
        <ele>53</ele>
        <time>2021-02-14T13:31:04.000Z</time>
      </trkpt>
      <trkpt lat="47.0442" lon="-1.64814">
        <ele>52</ele>
        <time>2021-02-14T13:31:10.000Z</time>
      </trkpt>
      <trkpt lat="47.04417" lon="-1.64799">
        <ele>51</ele>
        <time>2021-02-14T13:31:15.000Z</time>
      </trkpt>
      <trkpt lat="47.04408" lon="-1.64789">
        <ele>48</ele>
        <time>2021-02-14T13:31:18.000Z</time>
      </trkpt>
      <trkpt lat="47.04398" lon="-1.64779">
        <ele>48</ele>
        <time>2021-02-14T13:31:21.000Z</time>
      </trkpt>
      <trkpt lat="47.04389" lon="-1.64766">
        <ele>49</ele>
        <time>2021-02-14T13:31:24.000Z</time>
      </trkpt>
      <trkpt lat="47.0438" lon="-1.64753">
        <ele>49</ele>
        <time>2021-02-14T13:31:27.000Z</time>
      </trkpt>
      <trkpt lat="47.04371" lon="-1.64741">
        <ele>50</ele>
        <time>2021-02-14T13:31:30.000Z</time>
      </trkpt>
      <trkpt lat="47.04362" lon="-1.6473">
        <ele>50</ele>
        <time>2021-02-14T13:31:33.000Z</time>
      </trkpt>
      <trkpt lat="47.04353" lon="-1.64718">
        <ele>50</ele>
        <time>2021-02-14T13:31:36.000Z</time>
      </trkpt>
      <trkpt lat="47.04341" lon="-1.64714">
        <ele>51</ele>
        <time>2021-02-14T13:31:39.000Z</time>
      </trkpt>
      <trkpt lat="47.04333" lon="-1.64708">
        <ele>52</ele>
        <time>2021-02-14T13:31:41.000Z</time>
      </trkpt>
      <trkpt lat="47.04324" lon="-1.647">
        <ele>52</ele>
        <time>2021-02-14T13:31:43.000Z</time>
      </trkpt>
      <trkpt lat="47.04317" lon="-1.6469">
        <ele>52</ele>
        <time>2021-02-14T13:31:45.000Z</time>
      </trkpt>
      <trkpt lat="47.04309" lon="-1.64679">
        <ele>52</ele>
        <time>2021-02-14T13:31:47.000Z</time>
      </trkpt>
      <trkpt lat="47.04301" lon="-1.64668">
        <ele>52</ele>
        <time>2021-02-14T13:31:49.000Z</time>
      </trkpt>
      <trkpt lat="47.04292" lon="-1.64657">
        <ele>53</ele>
        <time>2021-02-14T13:31:51.000Z</time>
      </trkpt>
      <trkpt lat="47.04284" lon="-1.64645">
        <ele>53</ele>
        <time>2021-02-14T13:31:53.000Z</time>
      </trkpt>
      <trkpt lat="47.04276" lon="-1.64633">
        <ele>53</ele>
        <time>2021-02-14T13:31:55.000Z</time>
      </trkpt>
      <trkpt lat="47.04267" lon="-1.64621">
        <ele>53</ele>
        <time>2021-02-14T13:31:57.000Z</time>
      </trkpt>
      <trkpt lat="47.04259" lon="-1.64609">
        <ele>53</ele>
        <time>2021-02-14T13:31:59.000Z</time>
      </trkpt>
      <trkpt lat="47.04251" lon="-1.64597">
        <ele>53</ele>
        <time>2021-02-14T13:32:01.000Z</time>
      </trkpt>
      <trkpt lat="47.04243" lon="-1.64586">
        <ele>52</ele>
        <time>2021-02-14T13:32:03.000Z</time>
      </trkpt>
      <trkpt lat="47.04235" lon="-1.64576">
        <ele>52</ele>
        <time>2021-02-14T13:32:05.000Z</time>
      </trkpt>
      <trkpt lat="47.04228" lon="-1.64566">
        <ele>52</ele>
        <time>2021-02-14T13:32:07.000Z</time>
      </trkpt>
      <trkpt lat="47.0422" lon="-1.64555">
        <ele>51</ele>
        <time>2021-02-14T13:32:09.000Z</time>
      </trkpt>
      <trkpt lat="47.04212" lon="-1.64544">
        <ele>52</ele>
        <time>2021-02-14T13:32:11.000Z</time>
      </trkpt>
      <trkpt lat="47.04204" lon="-1.64533">
        <ele>52</ele>
        <time>2021-02-14T13:32:13.000Z</time>
      </trkpt>
      <trkpt lat="47.04196" lon="-1.64522">
        <ele>52</ele>
        <time>2021-02-14T13:32:15.000Z</time>
      </trkpt>
      <trkpt lat="47.04187" lon="-1.64511">
        <ele>51</ele>
        <time>2021-02-14T13:32:17.000Z</time>
      </trkpt>
      <trkpt lat="47.04179" lon="-1.64502">
        <ele>51</ele>
        <time>2021-02-14T13:32:19.000Z</time>
      </trkpt>
      <trkpt lat="47.04171" lon="-1.64491">
        <ele>51</ele>
        <time>2021-02-14T13:32:21.000Z</time>
      </trkpt>
      <trkpt lat="47.04164" lon="-1.64478">
        <ele>50</ele>
        <time>2021-02-14T13:32:23.000Z</time>
      </trkpt>
      <trkpt lat="47.04156" lon="-1.64465">
        <ele>50</ele>
        <time>2021-02-14T13:32:25.000Z</time>
      </trkpt>
      <trkpt lat="47.04147" lon="-1.64454">
        <ele>51</ele>
        <time>2021-02-14T13:32:27.000Z</time>
      </trkpt>
      <trkpt lat="47.04138" lon="-1.64443">
        <ele>51</ele>
        <time>2021-02-14T13:32:29.000Z</time>
      </trkpt>
      <trkpt lat="47.0413" lon="-1.64432">
        <ele>51</ele>
        <time>2021-02-14T13:32:31.000Z</time>
      </trkpt>
      <trkpt lat="47.04122" lon="-1.6442">
        <ele>51</ele>
        <time>2021-02-14T13:32:33.000Z</time>
      </trkpt>
      <trkpt lat="47.04114" lon="-1.64408">
        <ele>51</ele>
        <time>2021-02-14T13:32:35.000Z</time>
      </trkpt>
      <trkpt lat="47.04106" lon="-1.64397">
        <ele>52</ele>
        <time>2021-02-14T13:32:37.000Z</time>
      </trkpt>
      <trkpt lat="47.04099" lon="-1.64385">
        <ele>52</ele>
        <time>2021-02-14T13:32:39.000Z</time>
      </trkpt>
      <trkpt lat="47.04092" lon="-1.64372">
        <ele>52</ele>
        <time>2021-02-14T13:32:41.000Z</time>
      </trkpt>
      <trkpt lat="47.04085" lon="-1.64357">
        <ele>53</ele>
        <time>2021-02-14T13:32:43.000Z</time>
      </trkpt>
      <trkpt lat="47.04079" lon="-1.64344">
        <ele>53</ele>
        <time>2021-02-14T13:32:45.000Z</time>
      </trkpt>
      <trkpt lat="47.04072" lon="-1.64331">
        <ele>53</ele>
        <time>2021-02-14T13:32:47.000Z</time>
      </trkpt>
      <trkpt lat="47.04066" lon="-1.64317">
        <ele>54</ele>
        <time>2021-02-14T13:32:49.000Z</time>
      </trkpt>
      <trkpt lat="47.0406" lon="-1.64304">
        <ele>54</ele>
        <time>2021-02-14T13:32:51.000Z</time>
      </trkpt>
      <trkpt lat="47.04055" lon="-1.64291">
        <ele>54</ele>
        <time>2021-02-14T13:32:53.000Z</time>
      </trkpt>
      <trkpt lat="47.04049" lon="-1.64279">
        <ele>54</ele>
        <time>2021-02-14T13:32:55.000Z</time>
      </trkpt>
      <trkpt lat="47.04043" lon="-1.64268">
        <ele>53</ele>
        <time>2021-02-14T13:32:57.000Z</time>
      </trkpt>
      <trkpt lat="47.04037" lon="-1.64257">
        <ele>52</ele>
        <time>2021-02-14T13:32:59.000Z</time>
      </trkpt>
      <trkpt lat="47.0403" lon="-1.64245">
        <ele>52</ele>
        <time>2021-02-14T13:33:01.000Z</time>
      </trkpt>
      <trkpt lat="47.04022" lon="-1.64232">
        <ele>51</ele>
        <time>2021-02-14T13:33:03.000Z</time>
      </trkpt>
      <trkpt lat="47.04014" lon="-1.6422">
        <ele>51</ele>
        <time>2021-02-14T13:33:05.000Z</time>
      </trkpt>
      <trkpt lat="47.04006" lon="-1.64208">
        <ele>51</ele>
        <time>2021-02-14T13:33:07.000Z</time>
      </trkpt>
      <trkpt lat="47.03998" lon="-1.64196">
        <ele>51</ele>
        <time>2021-02-14T13:33:09.000Z</time>
      </trkpt>
      <trkpt lat="47.0399" lon="-1.64186">
        <ele>52</ele>
        <time>2021-02-14T13:33:11.000Z</time>
      </trkpt>
      <trkpt lat="47.03983" lon="-1.64175">
        <ele>54</ele>
        <time>2021-02-14T13:33:13.000Z</time>
      </trkpt>
      <trkpt lat="47.03975" lon="-1.64161">
        <ele>54</ele>
        <time>2021-02-14T13:33:16.000Z</time>
      </trkpt>
      <trkpt lat="47.03969" lon="-1.64148">
        <ele>55</ele>
        <time>2021-02-14T13:33:19.000Z</time>
      </trkpt>
      <trkpt lat="47.03977" lon="-1.64142">
        <ele>55</ele>
        <time>2021-02-14T13:33:21.000Z</time>
      </trkpt>
      <trkpt lat="47.03988" lon="-1.64134">
        <ele>54</ele>
        <time>2021-02-14T13:33:23.000Z</time>
      </trkpt>
      <trkpt lat="47.04" lon="-1.64127">
        <ele>54</ele>
        <time>2021-02-14T13:33:25.000Z</time>
      </trkpt>
      <trkpt lat="47.04011" lon="-1.64122">
        <ele>53</ele>
        <time>2021-02-14T13:33:27.000Z</time>
      </trkpt>
      <trkpt lat="47.04023" lon="-1.64118">
        <ele>53</ele>
        <time>2021-02-14T13:33:29.000Z</time>
      </trkpt>
      <trkpt lat="47.04034" lon="-1.64113">
        <ele>53</ele>
        <time>2021-02-14T13:33:31.000Z</time>
      </trkpt>
      <trkpt lat="47.04045" lon="-1.64108">
        <ele>53</ele>
        <time>2021-02-14T13:33:33.000Z</time>
      </trkpt>
      <trkpt lat="47.04058" lon="-1.64102">
        <ele>52</ele>
        <time>2021-02-14T13:33:35.000Z</time>
      </trkpt>
      <trkpt lat="47.04071" lon="-1.64096">
        <ele>52</ele>
        <time>2021-02-14T13:33:37.000Z</time>
      </trkpt>
      <trkpt lat="47.04085" lon="-1.64089">
        <ele>51</ele>
        <time>2021-02-14T13:33:39.000Z</time>
      </trkpt>
      <trkpt lat="47.04098" lon="-1.64084">
        <ele>51</ele>
        <time>2021-02-14T13:33:41.000Z</time>
      </trkpt>
      <trkpt lat="47.04111" lon="-1.64078">
        <ele>50</ele>
        <time>2021-02-14T13:33:43.000Z</time>
      </trkpt>
      <trkpt lat="47.04124" lon="-1.64071">
        <ele>50</ele>
        <time>2021-02-14T13:33:45.000Z</time>
      </trkpt>
      <trkpt lat="47.04137" lon="-1.64065">
        <ele>50</ele>
        <time>2021-02-14T13:33:47.000Z</time>
      </trkpt>
      <trkpt lat="47.0415" lon="-1.6406">
        <ele>49</ele>
        <time>2021-02-14T13:33:49.000Z</time>
      </trkpt>
      <trkpt lat="47.04164" lon="-1.64055">
        <ele>49</ele>
        <time>2021-02-14T13:33:51.000Z</time>
      </trkpt>
      <trkpt lat="47.04177" lon="-1.64049">
        <ele>49</ele>
        <time>2021-02-14T13:33:53.000Z</time>
      </trkpt>
      <trkpt lat="47.0419" lon="-1.64042">
        <ele>49</ele>
        <time>2021-02-14T13:33:55.000Z</time>
      </trkpt>
      <trkpt lat="47.04203" lon="-1.64037">
        <ele>49</ele>
        <time>2021-02-14T13:33:57.000Z</time>
      </trkpt>
      <trkpt lat="47.04217" lon="-1.64031">
        <ele>49</ele>
        <time>2021-02-14T13:33:59.000Z</time>
      </trkpt>
      <trkpt lat="47.04229" lon="-1.64025">
        <ele>49</ele>
        <time>2021-02-14T13:34:01.000Z</time>
      </trkpt>
      <trkpt lat="47.04241" lon="-1.6402">
        <ele>49</ele>
        <time>2021-02-14T13:34:03.000Z</time>
      </trkpt>
      <trkpt lat="47.04253" lon="-1.64014">
        <ele>49</ele>
        <time>2021-02-14T13:34:05.000Z</time>
      </trkpt>
      <trkpt lat="47.04264" lon="-1.64008">
        <ele>50</ele>
        <time>2021-02-14T13:34:07.000Z</time>
      </trkpt>
      <trkpt lat="47.04275" lon="-1.64002">
        <ele>50</ele>
        <time>2021-02-14T13:34:09.000Z</time>
      </trkpt>
      <trkpt lat="47.04287" lon="-1.63996">
        <ele>50</ele>
        <time>2021-02-14T13:34:11.000Z</time>
      </trkpt>
      <trkpt lat="47.043" lon="-1.63991">
        <ele>50</ele>
        <time>2021-02-14T13:34:13.000Z</time>
      </trkpt>
      <trkpt lat="47.04313" lon="-1.63985">
        <ele>51</ele>
        <time>2021-02-14T13:34:15.000Z</time>
      </trkpt>
      <trkpt lat="47.04326" lon="-1.63979">
        <ele>50</ele>
        <time>2021-02-14T13:34:17.000Z</time>
      </trkpt>
      <trkpt lat="47.04339" lon="-1.63975">
        <ele>50</ele>
        <time>2021-02-14T13:34:19.000Z</time>
      </trkpt>
      <trkpt lat="47.04351" lon="-1.63969">
        <ele>50</ele>
        <time>2021-02-14T13:34:21.000Z</time>
      </trkpt>
      <trkpt lat="47.04363" lon="-1.63964">
        <ele>51</ele>
        <time>2021-02-14T13:34:23.000Z</time>
      </trkpt>
      <trkpt lat="47.04375" lon="-1.63958">
        <ele>51</ele>
        <time>2021-02-14T13:34:25.000Z</time>
      </trkpt>
      <trkpt lat="47.04388" lon="-1.63952">
        <ele>50</ele>
        <time>2021-02-14T13:34:27.000Z</time>
      </trkpt>
      <trkpt lat="47.04401" lon="-1.63946">
        <ele>50</ele>
        <time>2021-02-14T13:34:29.000Z</time>
      </trkpt>
      <trkpt lat="47.04414" lon="-1.6394">
        <ele>50</ele>
        <time>2021-02-14T13:34:31.000Z</time>
      </trkpt>
      <trkpt lat="47.04426" lon="-1.63935">
        <ele>50</ele>
        <time>2021-02-14T13:34:33.000Z</time>
      </trkpt>
      <trkpt lat="47.04438" lon="-1.6393">
        <ele>49</ele>
        <time>2021-02-14T13:34:35.000Z</time>
      </trkpt>
      <trkpt lat="47.04448" lon="-1.63923">
        <ele>50</ele>
        <time>2021-02-14T13:34:37.000Z</time>
      </trkpt>
      <trkpt lat="47.0446" lon="-1.63914">
        <ele>49</ele>
        <time>2021-02-14T13:34:39.000Z</time>
      </trkpt>
      <trkpt lat="47.04474" lon="-1.63909">
        <ele>50</ele>
        <time>2021-02-14T13:34:41.000Z</time>
      </trkpt>
      <trkpt lat="47.04488" lon="-1.63905">
        <ele>49</ele>
        <time>2021-02-14T13:34:43.000Z</time>
      </trkpt>
      <trkpt lat="47.04501" lon="-1.63898">
        <ele>49</ele>
        <time>2021-02-14T13:34:45.000Z</time>
      </trkpt>
      <trkpt lat="47.04514" lon="-1.63891">
        <ele>49</ele>
        <time>2021-02-14T13:34:47.000Z</time>
      </trkpt>
      <trkpt lat="47.04526" lon="-1.63883">
        <ele>49</ele>
        <time>2021-02-14T13:34:49.000Z</time>
      </trkpt>
      <trkpt lat="47.04539" lon="-1.63876">
        <ele>48</ele>
        <time>2021-02-14T13:34:51.000Z</time>
      </trkpt>
      <trkpt lat="47.04551" lon="-1.63868">
        <ele>48</ele>
        <time>2021-02-14T13:34:53.000Z</time>
      </trkpt>
      <trkpt lat="47.04563" lon="-1.63861">
        <ele>48</ele>
        <time>2021-02-14T13:34:55.000Z</time>
      </trkpt>
      <trkpt lat="47.04575" lon="-1.63853">
        <ele>49</ele>
        <time>2021-02-14T13:34:57.000Z</time>
      </trkpt>
      <trkpt lat="47.04587" lon="-1.63846">
        <ele>48</ele>
        <time>2021-02-14T13:34:59.000Z</time>
      </trkpt>
      <trkpt lat="47.04599" lon="-1.63842">
        <ele>49</ele>
        <time>2021-02-14T13:35:01.000Z</time>
      </trkpt>
      <trkpt lat="47.04612" lon="-1.6384">
        <ele>50</ele>
        <time>2021-02-14T13:35:03.000Z</time>
      </trkpt>
      <trkpt lat="47.04624" lon="-1.63838">
        <ele>50</ele>
        <time>2021-02-14T13:35:05.000Z</time>
      </trkpt>
      <trkpt lat="47.04637" lon="-1.63837">
        <ele>51</ele>
        <time>2021-02-14T13:35:07.000Z</time>
      </trkpt>
      <trkpt lat="47.04649" lon="-1.63832">
        <ele>51</ele>
        <time>2021-02-14T13:35:09.000Z</time>
      </trkpt>
      <trkpt lat="47.04661" lon="-1.63826">
        <ele>51</ele>
        <time>2021-02-14T13:35:11.000Z</time>
      </trkpt>
      <trkpt lat="47.04683" lon="-1.63813">
        <ele>53</ele>
        <time>2021-02-14T13:35:15.000Z</time>
      </trkpt>
      <trkpt lat="47.04693" lon="-1.63809">
        <ele>54</ele>
        <time>2021-02-14T13:35:17.000Z</time>
      </trkpt>
      <trkpt lat="47.04702" lon="-1.63805">
        <ele>55</ele>
        <time>2021-02-14T13:35:19.000Z</time>
      </trkpt>
      <trkpt lat="47.04711" lon="-1.638">
        <ele>55</ele>
        <time>2021-02-14T13:35:21.000Z</time>
      </trkpt>
      <trkpt lat="47.04722" lon="-1.63795">
        <ele>55</ele>
        <time>2021-02-14T13:35:23.000Z</time>
      </trkpt>
      <trkpt lat="47.04735" lon="-1.63796">
        <ele>55</ele>
        <time>2021-02-14T13:35:25.000Z</time>
      </trkpt>
      <trkpt lat="47.04747" lon="-1.63794">
        <ele>55</ele>
        <time>2021-02-14T13:35:27.000Z</time>
      </trkpt>
      <trkpt lat="47.0476" lon="-1.63789">
        <ele>56</ele>
        <time>2021-02-14T13:35:29.000Z</time>
      </trkpt>
      <trkpt lat="47.04771" lon="-1.63784">
        <ele>56</ele>
        <time>2021-02-14T13:35:31.000Z</time>
      </trkpt>
      <trkpt lat="47.04782" lon="-1.6378">
        <ele>57</ele>
        <time>2021-02-14T13:35:33.000Z</time>
      </trkpt>
      <trkpt lat="47.04794" lon="-1.63777">
        <ele>57</ele>
        <time>2021-02-14T13:35:35.000Z</time>
      </trkpt>
      <trkpt lat="47.04805" lon="-1.63774">
        <ele>57</ele>
        <time>2021-02-14T13:35:37.000Z</time>
      </trkpt>
      <trkpt lat="47.04816" lon="-1.63773">
        <ele>57</ele>
        <time>2021-02-14T13:35:39.000Z</time>
      </trkpt>
      <trkpt lat="47.04828" lon="-1.63771">
        <ele>57</ele>
        <time>2021-02-14T13:35:41.000Z</time>
      </trkpt>
      <trkpt lat="47.0484" lon="-1.63769">
        <ele>58</ele>
        <time>2021-02-14T13:35:43.000Z</time>
      </trkpt>
      <trkpt lat="47.04852" lon="-1.63767">
        <ele>58</ele>
        <time>2021-02-14T13:35:45.000Z</time>
      </trkpt>
      <trkpt lat="47.04864" lon="-1.63765">
        <ele>58</ele>
        <time>2021-02-14T13:35:47.000Z</time>
      </trkpt>
      <trkpt lat="47.04875" lon="-1.63763">
        <ele>57</ele>
        <time>2021-02-14T13:35:49.000Z</time>
      </trkpt>
      <trkpt lat="47.04888" lon="-1.63761">
        <ele>57</ele>
        <time>2021-02-14T13:35:51.000Z</time>
      </trkpt>
      <trkpt lat="47.049" lon="-1.63759">
        <ele>56</ele>
        <time>2021-02-14T13:35:53.000Z</time>
      </trkpt>
      <trkpt lat="47.04912" lon="-1.63756">
        <ele>56</ele>
        <time>2021-02-14T13:35:55.000Z</time>
      </trkpt>
      <trkpt lat="47.04924" lon="-1.6375">
        <ele>56</ele>
        <time>2021-02-14T13:35:57.000Z</time>
      </trkpt>
      <trkpt lat="47.04935" lon="-1.6374">
        <ele>56</ele>
        <time>2021-02-14T13:35:59.000Z</time>
      </trkpt>
      <trkpt lat="47.04942" lon="-1.63725">
        <ele>56</ele>
        <time>2021-02-14T13:36:01.000Z</time>
      </trkpt>
      <trkpt lat="47.04945" lon="-1.63707">
        <ele>56</ele>
        <time>2021-02-14T13:36:03.000Z</time>
      </trkpt>
      <trkpt lat="47.04947" lon="-1.63688">
        <ele>56</ele>
        <time>2021-02-14T13:36:05.000Z</time>
      </trkpt>
      <trkpt lat="47.04946" lon="-1.63669">
        <ele>55</ele>
        <time>2021-02-14T13:36:07.000Z</time>
      </trkpt>
      <trkpt lat="47.04946" lon="-1.63649">
        <ele>55</ele>
        <time>2021-02-14T13:36:09.000Z</time>
      </trkpt>
      <trkpt lat="47.04948" lon="-1.63629">
        <ele>55</ele>
        <time>2021-02-14T13:36:11.000Z</time>
      </trkpt>
      <trkpt lat="47.04953" lon="-1.6361">
        <ele>55</ele>
        <time>2021-02-14T13:36:13.000Z</time>
      </trkpt>
      <trkpt lat="47.04961" lon="-1.63592">
        <ele>55</ele>
        <time>2021-02-14T13:36:15.000Z</time>
      </trkpt>
      <trkpt lat="47.04971" lon="-1.63577">
        <ele>55</ele>
        <time>2021-02-14T13:36:17.000Z</time>
      </trkpt>
      <trkpt lat="47.04984" lon="-1.63563">
        <ele>54</ele>
        <time>2021-02-14T13:36:19.000Z</time>
      </trkpt>
      <trkpt lat="47.04999" lon="-1.63554">
        <ele>53</ele>
        <time>2021-02-14T13:36:21.000Z</time>
      </trkpt>
      <trkpt lat="47.05013" lon="-1.63546">
        <ele>53</ele>
        <time>2021-02-14T13:36:23.000Z</time>
      </trkpt>
      <trkpt lat="47.05028" lon="-1.6354">
        <ele>52</ele>
        <time>2021-02-14T13:36:25.000Z</time>
      </trkpt>
      <trkpt lat="47.05043" lon="-1.63535">
        <ele>52</ele>
        <time>2021-02-14T13:36:27.000Z</time>
      </trkpt>
      <trkpt lat="47.05057" lon="-1.63529">
        <ele>52</ele>
        <time>2021-02-14T13:36:29.000Z</time>
      </trkpt>
      <trkpt lat="47.05072" lon="-1.63524">
        <ele>52</ele>
        <time>2021-02-14T13:36:31.000Z</time>
      </trkpt>
      <trkpt lat="47.05086" lon="-1.63518">
        <ele>52</ele>
        <time>2021-02-14T13:36:33.000Z</time>
      </trkpt>
      <trkpt lat="47.051" lon="-1.63512">
        <ele>52</ele>
        <time>2021-02-14T13:36:35.000Z</time>
      </trkpt>
      <trkpt lat="47.05114" lon="-1.63506">
        <ele>52</ele>
        <time>2021-02-14T13:36:37.000Z</time>
      </trkpt>
      <trkpt lat="47.05128" lon="-1.635">
        <ele>52</ele>
        <time>2021-02-14T13:36:39.000Z</time>
      </trkpt>
      <trkpt lat="47.05142" lon="-1.63494">
        <ele>52</ele>
        <time>2021-02-14T13:36:41.000Z</time>
      </trkpt>
      <trkpt lat="47.05157" lon="-1.63489">
        <ele>52</ele>
        <time>2021-02-14T13:36:43.000Z</time>
      </trkpt>
      <trkpt lat="47.05171" lon="-1.63484">
        <ele>52</ele>
        <time>2021-02-14T13:36:45.000Z</time>
      </trkpt>
      <trkpt lat="47.05185" lon="-1.63478">
        <ele>52</ele>
        <time>2021-02-14T13:36:47.000Z</time>
      </trkpt>
      <trkpt lat="47.052" lon="-1.63472">
        <ele>53</ele>
        <time>2021-02-14T13:36:49.000Z</time>
      </trkpt>
      <trkpt lat="47.05214" lon="-1.63467">
        <ele>53</ele>
        <time>2021-02-14T13:36:51.000Z</time>
      </trkpt>
      <trkpt lat="47.05228" lon="-1.63463">
        <ele>53</ele>
        <time>2021-02-14T13:36:53.000Z</time>
      </trkpt>
      <trkpt lat="47.05243" lon="-1.63458">
        <ele>53</ele>
        <time>2021-02-14T13:36:55.000Z</time>
      </trkpt>
      <trkpt lat="47.05258" lon="-1.63454">
        <ele>53</ele>
        <time>2021-02-14T13:36:57.000Z</time>
      </trkpt>
      <trkpt lat="47.05273" lon="-1.6345">
        <ele>53</ele>
        <time>2021-02-14T13:36:59.000Z</time>
      </trkpt>
      <trkpt lat="47.05288" lon="-1.63447">
        <ele>53</ele>
        <time>2021-02-14T13:37:01.000Z</time>
      </trkpt>
      <trkpt lat="47.05303" lon="-1.63444">
        <ele>53</ele>
        <time>2021-02-14T13:37:03.000Z</time>
      </trkpt>
      <trkpt lat="47.05317" lon="-1.63443">
        <ele>52</ele>
        <time>2021-02-14T13:37:05.000Z</time>
      </trkpt>
      <trkpt lat="47.05332" lon="-1.63442">
        <ele>53</ele>
        <time>2021-02-14T13:37:07.000Z</time>
      </trkpt>
      <trkpt lat="47.05347" lon="-1.63441">
        <ele>52</ele>
        <time>2021-02-14T13:37:09.000Z</time>
      </trkpt>
      <trkpt lat="47.05361" lon="-1.63436">
        <ele>52</ele>
        <time>2021-02-14T13:37:11.000Z</time>
      </trkpt>
      <trkpt lat="47.05374" lon="-1.63429">
        <ele>52</ele>
        <time>2021-02-14T13:37:13.000Z</time>
      </trkpt>
      <trkpt lat="47.05388" lon="-1.6343">
        <ele>52</ele>
        <time>2021-02-14T13:37:15.000Z</time>
      </trkpt>
      <trkpt lat="47.05403" lon="-1.63431">
        <ele>52</ele>
        <time>2021-02-14T13:37:17.000Z</time>
      </trkpt>
      <trkpt lat="47.05417" lon="-1.6343">
        <ele>52</ele>
        <time>2021-02-14T13:37:19.000Z</time>
      </trkpt>
      <trkpt lat="47.05432" lon="-1.63427">
        <ele>53</ele>
        <time>2021-02-14T13:37:21.000Z</time>
      </trkpt>
      <trkpt lat="47.05446" lon="-1.63424">
        <ele>53</ele>
        <time>2021-02-14T13:37:23.000Z</time>
      </trkpt>
      <trkpt lat="47.05461" lon="-1.63421">
        <ele>52</ele>
        <time>2021-02-14T13:37:25.000Z</time>
      </trkpt>
      <trkpt lat="47.05475" lon="-1.63419">
        <ele>53</ele>
        <time>2021-02-14T13:37:27.000Z</time>
      </trkpt>
      <trkpt lat="47.0549" lon="-1.63417">
        <ele>53</ele>
        <time>2021-02-14T13:37:29.000Z</time>
      </trkpt>
      <trkpt lat="47.05504" lon="-1.63415">
        <ele>52</ele>
        <time>2021-02-14T13:37:31.000Z</time>
      </trkpt>
      <trkpt lat="47.05519" lon="-1.63412">
        <ele>52</ele>
        <time>2021-02-14T13:37:33.000Z</time>
      </trkpt>
      <trkpt lat="47.05534" lon="-1.63407">
        <ele>52</ele>
        <time>2021-02-14T13:37:35.000Z</time>
      </trkpt>
      <trkpt lat="47.05548" lon="-1.63403">
        <ele>52</ele>
        <time>2021-02-14T13:37:37.000Z</time>
      </trkpt>
      <trkpt lat="47.05562" lon="-1.63397">
        <ele>52</ele>
        <time>2021-02-14T13:37:39.000Z</time>
      </trkpt>
      <trkpt lat="47.05576" lon="-1.63392">
        <ele>52</ele>
        <time>2021-02-14T13:37:41.000Z</time>
      </trkpt>
      <trkpt lat="47.0559" lon="-1.63385">
        <ele>52</ele>
        <time>2021-02-14T13:37:43.000Z</time>
      </trkpt>
      <trkpt lat="47.05604" lon="-1.63379">
        <ele>52</ele>
        <time>2021-02-14T13:37:45.000Z</time>
      </trkpt>
      <trkpt lat="47.05616" lon="-1.63373">
        <ele>52</ele>
        <time>2021-02-14T13:37:47.000Z</time>
      </trkpt>
      <trkpt lat="47.05629" lon="-1.63367">
        <ele>52</ele>
        <time>2021-02-14T13:37:49.000Z</time>
      </trkpt>
      <trkpt lat="47.05643" lon="-1.6336">
        <ele>52</ele>
        <time>2021-02-14T13:37:51.000Z</time>
      </trkpt>
      <trkpt lat="47.05656" lon="-1.63354">
        <ele>52</ele>
        <time>2021-02-14T13:37:53.000Z</time>
      </trkpt>
      <trkpt lat="47.0567" lon="-1.63348">
        <ele>52</ele>
        <time>2021-02-14T13:37:55.000Z</time>
      </trkpt>
      <trkpt lat="47.05683" lon="-1.63341">
        <ele>52</ele>
        <time>2021-02-14T13:37:57.000Z</time>
      </trkpt>
      <trkpt lat="47.05697" lon="-1.63335">
        <ele>52</ele>
        <time>2021-02-14T13:37:59.000Z</time>
      </trkpt>
      <trkpt lat="47.0571" lon="-1.63329">
        <ele>52</ele>
        <time>2021-02-14T13:38:01.000Z</time>
      </trkpt>
      <trkpt lat="47.05723" lon="-1.63323">
        <ele>53</ele>
        <time>2021-02-14T13:38:03.000Z</time>
      </trkpt>
      <trkpt lat="47.05735" lon="-1.63317">
        <ele>53</ele>
        <time>2021-02-14T13:38:05.000Z</time>
      </trkpt>
      <trkpt lat="47.05748" lon="-1.63311">
        <ele>53</ele>
        <time>2021-02-14T13:38:07.000Z</time>
      </trkpt>
      <trkpt lat="47.05759" lon="-1.63305">
        <ele>52</ele>
        <time>2021-02-14T13:38:09.000Z</time>
      </trkpt>
      <trkpt lat="47.05771" lon="-1.63299">
        <ele>52</ele>
        <time>2021-02-14T13:38:11.000Z</time>
      </trkpt>
      <trkpt lat="47.05784" lon="-1.63293">
        <ele>52</ele>
        <time>2021-02-14T13:38:13.000Z</time>
      </trkpt>
      <trkpt lat="47.05795" lon="-1.63287">
        <ele>53</ele>
        <time>2021-02-14T13:38:15.000Z</time>
      </trkpt>
      <trkpt lat="47.05808" lon="-1.6328">
        <ele>52</ele>
        <time>2021-02-14T13:38:17.000Z</time>
      </trkpt>
      <trkpt lat="47.0582" lon="-1.63275">
        <ele>53</ele>
        <time>2021-02-14T13:38:19.000Z</time>
      </trkpt>
      <trkpt lat="47.05832" lon="-1.63269">
        <ele>52</ele>
        <time>2021-02-14T13:38:21.000Z</time>
      </trkpt>
      <trkpt lat="47.05844" lon="-1.63263">
        <ele>52</ele>
        <time>2021-02-14T13:38:23.000Z</time>
      </trkpt>
      <trkpt lat="47.05857" lon="-1.63258">
        <ele>52</ele>
        <time>2021-02-14T13:38:25.000Z</time>
      </trkpt>
      <trkpt lat="47.05869" lon="-1.63252">
        <ele>53</ele>
        <time>2021-02-14T13:38:27.000Z</time>
      </trkpt>
      <trkpt lat="47.05882" lon="-1.63246">
        <ele>52</ele>
        <time>2021-02-14T13:38:29.000Z</time>
      </trkpt>
      <trkpt lat="47.05895" lon="-1.6324">
        <ele>52</ele>
        <time>2021-02-14T13:38:31.000Z</time>
      </trkpt>
      <trkpt lat="47.05908" lon="-1.63235">
        <ele>52</ele>
        <time>2021-02-14T13:38:33.000Z</time>
      </trkpt>
      <trkpt lat="47.0592" lon="-1.63229">
        <ele>52</ele>
        <time>2021-02-14T13:38:35.000Z</time>
      </trkpt>
      <trkpt lat="47.05933" lon="-1.63223">
        <ele>52</ele>
        <time>2021-02-14T13:38:37.000Z</time>
      </trkpt>
      <trkpt lat="47.05944" lon="-1.63218">
        <ele>52</ele>
        <time>2021-02-14T13:38:39.000Z</time>
      </trkpt>
      <trkpt lat="47.05957" lon="-1.63213">
        <ele>52</ele>
        <time>2021-02-14T13:38:41.000Z</time>
      </trkpt>
      <trkpt lat="47.05969" lon="-1.63207">
        <ele>52</ele>
        <time>2021-02-14T13:38:43.000Z</time>
      </trkpt>
      <trkpt lat="47.05981" lon="-1.632">
        <ele>52</ele>
        <time>2021-02-14T13:38:45.000Z</time>
      </trkpt>
      <trkpt lat="47.05994" lon="-1.63194">
        <ele>52</ele>
        <time>2021-02-14T13:38:47.000Z</time>
      </trkpt>
      <trkpt lat="47.06006" lon="-1.63188">
        <ele>51</ele>
        <time>2021-02-14T13:38:49.000Z</time>
      </trkpt>
      <trkpt lat="47.06019" lon="-1.63182">
        <ele>51</ele>
        <time>2021-02-14T13:38:51.000Z</time>
      </trkpt>
      <trkpt lat="47.06032" lon="-1.63178">
        <ele>51</ele>
        <time>2021-02-14T13:38:53.000Z</time>
      </trkpt>
      <trkpt lat="47.06043" lon="-1.63174">
        <ele>52</ele>
        <time>2021-02-14T13:38:55.000Z</time>
      </trkpt>
      <trkpt lat="47.06054" lon="-1.63179">
        <ele>52</ele>
        <time>2021-02-14T13:38:57.000Z</time>
      </trkpt>
      <trkpt lat="47.06055" lon="-1.63199">
        <ele>52</ele>
        <time>2021-02-14T13:38:59.000Z</time>
      </trkpt>
      <trkpt lat="47.06051" lon="-1.63217">
        <ele>52</ele>
        <time>2021-02-14T13:39:01.000Z</time>
      </trkpt>
      <trkpt lat="47.06048" lon="-1.63235">
        <ele>53</ele>
        <time>2021-02-14T13:39:03.000Z</time>
      </trkpt>
      <trkpt lat="47.06045" lon="-1.63255">
        <ele>53</ele>
        <time>2021-02-14T13:39:05.000Z</time>
      </trkpt>
      <trkpt lat="47.06042" lon="-1.63274">
        <ele>53</ele>
        <time>2021-02-14T13:39:07.000Z</time>
      </trkpt>
      <trkpt lat="47.0604" lon="-1.63292">
        <ele>53</ele>
        <time>2021-02-14T13:39:09.000Z</time>
      </trkpt>
      <trkpt lat="47.0604" lon="-1.6331">
        <ele>53</ele>
        <time>2021-02-14T13:39:11.000Z</time>
      </trkpt>
      <trkpt lat="47.0605" lon="-1.63322">
        <ele>53</ele>
        <time>2021-02-14T13:39:13.000Z</time>
      </trkpt>
      <trkpt lat="47.06063" lon="-1.63326">
        <ele>53</ele>
        <time>2021-02-14T13:39:15.000Z</time>
      </trkpt>
      <trkpt lat="47.06075" lon="-1.6333">
        <ele>54</ele>
        <time>2021-02-14T13:39:17.000Z</time>
      </trkpt>
      <trkpt lat="47.06088" lon="-1.63334">
        <ele>54</ele>
        <time>2021-02-14T13:39:19.000Z</time>
      </trkpt>
      <trkpt lat="47.061" lon="-1.63339">
        <ele>54</ele>
        <time>2021-02-14T13:39:21.000Z</time>
      </trkpt>
      <trkpt lat="47.06112" lon="-1.63344">
        <ele>54</ele>
        <time>2021-02-14T13:39:23.000Z</time>
      </trkpt>
      <trkpt lat="47.06125" lon="-1.6335">
        <ele>54</ele>
        <time>2021-02-14T13:39:25.000Z</time>
      </trkpt>
      <trkpt lat="47.06137" lon="-1.63355">
        <ele>54</ele>
        <time>2021-02-14T13:39:27.000Z</time>
      </trkpt>
      <trkpt lat="47.0615" lon="-1.6336">
        <ele>54</ele>
        <time>2021-02-14T13:39:29.000Z</time>
      </trkpt>
      <trkpt lat="47.06163" lon="-1.63365">
        <ele>54</ele>
        <time>2021-02-14T13:39:31.000Z</time>
      </trkpt>
      <trkpt lat="47.06176" lon="-1.6337">
        <ele>55</ele>
        <time>2021-02-14T13:39:33.000Z</time>
      </trkpt>
      <trkpt lat="47.06188" lon="-1.63375">
        <ele>55</ele>
        <time>2021-02-14T13:39:35.000Z</time>
      </trkpt>
      <trkpt lat="47.06201" lon="-1.6338">
        <ele>54</ele>
        <time>2021-02-14T13:39:37.000Z</time>
      </trkpt>
      <trkpt lat="47.06214" lon="-1.63384">
        <ele>54</ele>
        <time>2021-02-14T13:39:39.000Z</time>
      </trkpt>
      <trkpt lat="47.06227" lon="-1.63389">
        <ele>54</ele>
        <time>2021-02-14T13:39:41.000Z</time>
      </trkpt>
      <trkpt lat="47.0624" lon="-1.63394">
        <ele>54</ele>
        <time>2021-02-14T13:39:43.000Z</time>
      </trkpt>
      <trkpt lat="47.06252" lon="-1.634">
        <ele>55</ele>
        <time>2021-02-14T13:39:45.000Z</time>
      </trkpt>
      <trkpt lat="47.06264" lon="-1.63405">
        <ele>56</ele>
        <time>2021-02-14T13:39:47.000Z</time>
      </trkpt>
      <trkpt lat="47.06277" lon="-1.6341">
        <ele>56</ele>
        <time>2021-02-14T13:39:49.000Z</time>
      </trkpt>
      <trkpt lat="47.06289" lon="-1.63414">
        <ele>57</ele>
        <time>2021-02-14T13:39:51.000Z</time>
      </trkpt>
      <trkpt lat="47.06301" lon="-1.63418">
        <ele>57</ele>
        <time>2021-02-14T13:39:53.000Z</time>
      </trkpt>
      <trkpt lat="47.06313" lon="-1.63425">
        <ele>57</ele>
        <time>2021-02-14T13:39:55.000Z</time>
      </trkpt>
      <trkpt lat="47.06325" lon="-1.63433">
        <ele>56</ele>
        <time>2021-02-14T13:39:57.000Z</time>
      </trkpt>
      <trkpt lat="47.06336" lon="-1.63444">
        <ele>56</ele>
        <time>2021-02-14T13:39:59.000Z</time>
      </trkpt>
      <trkpt lat="47.06347" lon="-1.63457">
        <ele>56</ele>
        <time>2021-02-14T13:40:01.000Z</time>
      </trkpt>
      <trkpt lat="47.06357" lon="-1.63471">
        <ele>55</ele>
        <time>2021-02-14T13:40:03.000Z</time>
      </trkpt>
      <trkpt lat="47.06365" lon="-1.63488">
        <ele>54</ele>
        <time>2021-02-14T13:40:05.000Z</time>
      </trkpt>
      <trkpt lat="47.06372" lon="-1.63505">
        <ele>54</ele>
        <time>2021-02-14T13:40:07.000Z</time>
      </trkpt>
      <trkpt lat="47.06381" lon="-1.6352">
        <ele>54</ele>
        <time>2021-02-14T13:40:09.000Z</time>
      </trkpt>
      <trkpt lat="47.06392" lon="-1.63532">
        <ele>54</ele>
        <time>2021-02-14T13:40:11.000Z</time>
      </trkpt>
      <trkpt lat="47.06404" lon="-1.63542">
        <ele>53</ele>
        <time>2021-02-14T13:40:13.000Z</time>
      </trkpt>
      <trkpt lat="47.06416" lon="-1.63552">
        <ele>53</ele>
        <time>2021-02-14T13:40:15.000Z</time>
      </trkpt>
      <trkpt lat="47.06427" lon="-1.63562">
        <ele>52</ele>
        <time>2021-02-14T13:40:17.000Z</time>
      </trkpt>
      <trkpt lat="47.06439" lon="-1.63571">
        <ele>52</ele>
        <time>2021-02-14T13:40:19.000Z</time>
      </trkpt>
      <trkpt lat="47.06451" lon="-1.63581">
        <ele>52</ele>
        <time>2021-02-14T13:40:21.000Z</time>
      </trkpt>
      <trkpt lat="47.06462" lon="-1.63591">
        <ele>52</ele>
        <time>2021-02-14T13:40:23.000Z</time>
      </trkpt>
      <trkpt lat="47.06473" lon="-1.63601">
        <ele>52</ele>
        <time>2021-02-14T13:40:25.000Z</time>
      </trkpt>
      <trkpt lat="47.06485" lon="-1.63611">
        <ele>52</ele>
        <time>2021-02-14T13:40:27.000Z</time>
      </trkpt>
      <trkpt lat="47.06496" lon="-1.63619">
        <ele>52</ele>
        <time>2021-02-14T13:40:29.000Z</time>
      </trkpt>
      <trkpt lat="47.06509" lon="-1.63627">
        <ele>52</ele>
        <time>2021-02-14T13:40:31.000Z</time>
      </trkpt>
      <trkpt lat="47.06521" lon="-1.63636">
        <ele>52</ele>
        <time>2021-02-14T13:40:33.000Z</time>
      </trkpt>
      <trkpt lat="47.06533" lon="-1.63645">
        <ele>52</ele>
        <time>2021-02-14T13:40:35.000Z</time>
      </trkpt>
      <trkpt lat="47.06546" lon="-1.63655">
        <ele>52</ele>
        <time>2021-02-14T13:40:37.000Z</time>
      </trkpt>
      <trkpt lat="47.06558" lon="-1.63664">
        <ele>52</ele>
        <time>2021-02-14T13:40:39.000Z</time>
      </trkpt>
      <trkpt lat="47.06571" lon="-1.63673">
        <ele>52</ele>
        <time>2021-02-14T13:40:41.000Z</time>
      </trkpt>
      <trkpt lat="47.06582" lon="-1.63685">
        <ele>52</ele>
        <time>2021-02-14T13:40:43.000Z</time>
      </trkpt>
      <trkpt lat="47.06593" lon="-1.63698">
        <ele>51</ele>
        <time>2021-02-14T13:40:45.000Z</time>
      </trkpt>
      <trkpt lat="47.06604" lon="-1.63711">
        <ele>51</ele>
        <time>2021-02-14T13:40:47.000Z</time>
      </trkpt>
      <trkpt lat="47.06614" lon="-1.63724">
        <ele>51</ele>
        <time>2021-02-14T13:40:49.000Z</time>
      </trkpt>
      <trkpt lat="47.06625" lon="-1.63737">
        <ele>51</ele>
        <time>2021-02-14T13:40:51.000Z</time>
      </trkpt>
      <trkpt lat="47.06635" lon="-1.63751">
        <ele>51</ele>
        <time>2021-02-14T13:40:53.000Z</time>
      </trkpt>
      <trkpt lat="47.06646" lon="-1.63764">
        <ele>51</ele>
        <time>2021-02-14T13:40:55.000Z</time>
      </trkpt>
      <trkpt lat="47.06657" lon="-1.63778">
        <ele>51</ele>
        <time>2021-02-14T13:40:57.000Z</time>
      </trkpt>
      <trkpt lat="47.06668" lon="-1.63792">
        <ele>51</ele>
        <time>2021-02-14T13:40:59.000Z</time>
      </trkpt>
      <trkpt lat="47.06679" lon="-1.63805">
        <ele>51</ele>
        <time>2021-02-14T13:41:01.000Z</time>
      </trkpt>
      <trkpt lat="47.0669" lon="-1.63819">
        <ele>51</ele>
        <time>2021-02-14T13:41:03.000Z</time>
      </trkpt>
      <trkpt lat="47.06701" lon="-1.63832">
        <ele>51</ele>
        <time>2021-02-14T13:41:05.000Z</time>
      </trkpt>
      <trkpt lat="47.06714" lon="-1.63838">
        <ele>50</ele>
        <time>2021-02-14T13:41:07.000Z</time>
      </trkpt>
      <trkpt lat="47.06729" lon="-1.63834">
        <ele>50</ele>
        <time>2021-02-14T13:41:09.000Z</time>
      </trkpt>
      <trkpt lat="47.0674" lon="-1.63821">
        <ele>49</ele>
        <time>2021-02-14T13:41:11.000Z</time>
      </trkpt>
      <trkpt lat="47.06751" lon="-1.6381">
        <ele>49</ele>
        <time>2021-02-14T13:41:13.000Z</time>
      </trkpt>
      <trkpt lat="47.06763" lon="-1.63799">
        <ele>49</ele>
        <time>2021-02-14T13:41:15.000Z</time>
      </trkpt>
      <trkpt lat="47.06773" lon="-1.63787">
        <ele>49</ele>
        <time>2021-02-14T13:41:17.000Z</time>
      </trkpt>
      <trkpt lat="47.06784" lon="-1.63776">
        <ele>50</ele>
        <time>2021-02-14T13:41:19.000Z</time>
      </trkpt>
      <trkpt lat="47.06795" lon="-1.63765">
        <ele>50</ele>
        <time>2021-02-14T13:41:21.000Z</time>
      </trkpt>
      <trkpt lat="47.06806" lon="-1.63754">
        <ele>50</ele>
        <time>2021-02-14T13:41:23.000Z</time>
      </trkpt>
      <trkpt lat="47.06817" lon="-1.63743">
        <ele>50</ele>
        <time>2021-02-14T13:41:25.000Z</time>
      </trkpt>
      <trkpt lat="47.06828" lon="-1.6373">
        <ele>50</ele>
        <time>2021-02-14T13:41:27.000Z</time>
      </trkpt>
      <trkpt lat="47.06836" lon="-1.63716">
        <ele>50</ele>
        <time>2021-02-14T13:41:29.000Z</time>
      </trkpt>
      <trkpt lat="47.06842" lon="-1.63699">
        <ele>50</ele>
        <time>2021-02-14T13:41:31.000Z</time>
      </trkpt>
      <trkpt lat="47.06846" lon="-1.6368">
        <ele>50</ele>
        <time>2021-02-14T13:41:33.000Z</time>
      </trkpt>
      <trkpt lat="47.06849" lon="-1.63663">
        <ele>50</ele>
        <time>2021-02-14T13:41:35.000Z</time>
      </trkpt>
      <trkpt lat="47.06851" lon="-1.63645">
        <ele>50</ele>
        <time>2021-02-14T13:41:37.000Z</time>
      </trkpt>
      <trkpt lat="47.06853" lon="-1.63627">
        <ele>50</ele>
        <time>2021-02-14T13:41:39.000Z</time>
      </trkpt>
      <trkpt lat="47.06854" lon="-1.63609">
        <ele>50</ele>
        <time>2021-02-14T13:41:41.000Z</time>
      </trkpt>
      <trkpt lat="47.06855" lon="-1.63591">
        <ele>50</ele>
        <time>2021-02-14T13:41:43.000Z</time>
      </trkpt>
      <trkpt lat="47.06856" lon="-1.63574">
        <ele>50</ele>
        <time>2021-02-14T13:41:45.000Z</time>
      </trkpt>
      <trkpt lat="47.06858" lon="-1.63557">
        <ele>51</ele>
        <time>2021-02-14T13:41:47.000Z</time>
      </trkpt>
      <trkpt lat="47.06861" lon="-1.63539">
        <ele>51</ele>
        <time>2021-02-14T13:41:49.000Z</time>
      </trkpt>
      <trkpt lat="47.06865" lon="-1.63522">
        <ele>52</ele>
        <time>2021-02-14T13:41:51.000Z</time>
      </trkpt>
      <trkpt lat="47.0687" lon="-1.63505">
        <ele>52</ele>
        <time>2021-02-14T13:41:53.000Z</time>
      </trkpt>
      <trkpt lat="47.06876" lon="-1.63489">
        <ele>53</ele>
        <time>2021-02-14T13:41:55.000Z</time>
      </trkpt>
      <trkpt lat="47.06885" lon="-1.63475">
        <ele>52</ele>
        <time>2021-02-14T13:41:57.000Z</time>
      </trkpt>
      <trkpt lat="47.06896" lon="-1.63464">
        <ele>51</ele>
        <time>2021-02-14T13:41:59.000Z</time>
      </trkpt>
      <trkpt lat="47.06907" lon="-1.63455">
        <ele>51</ele>
        <time>2021-02-14T13:42:01.000Z</time>
      </trkpt>
      <trkpt lat="47.06918" lon="-1.63447">
        <ele>51</ele>
        <time>2021-02-14T13:42:03.000Z</time>
      </trkpt>
      <trkpt lat="47.0693" lon="-1.6344">
        <ele>51</ele>
        <time>2021-02-14T13:42:05.000Z</time>
      </trkpt>
      <trkpt lat="47.06942" lon="-1.63433">
        <ele>51</ele>
        <time>2021-02-14T13:42:07.000Z</time>
      </trkpt>
      <trkpt lat="47.06954" lon="-1.63425">
        <ele>50</ele>
        <time>2021-02-14T13:42:09.000Z</time>
      </trkpt>
      <trkpt lat="47.06966" lon="-1.63414">
        <ele>50</ele>
        <time>2021-02-14T13:42:11.000Z</time>
      </trkpt>
      <trkpt lat="47.06977" lon="-1.63404">
        <ele>50</ele>
        <time>2021-02-14T13:42:13.000Z</time>
      </trkpt>
      <trkpt lat="47.06987" lon="-1.63394">
        <ele>51</ele>
        <time>2021-02-14T13:42:15.000Z</time>
      </trkpt>
      <trkpt lat="47.06997" lon="-1.63384">
        <ele>50</ele>
        <time>2021-02-14T13:42:17.000Z</time>
      </trkpt>
      <trkpt lat="47.07007" lon="-1.63374">
        <ele>50</ele>
        <time>2021-02-14T13:42:19.000Z</time>
      </trkpt>
      <trkpt lat="47.07018" lon="-1.63365">
        <ele>51</ele>
        <time>2021-02-14T13:42:21.000Z</time>
      </trkpt>
      <trkpt lat="47.07028" lon="-1.63355">
        <ele>51</ele>
        <time>2021-02-14T13:42:23.000Z</time>
      </trkpt>
      <trkpt lat="47.07037" lon="-1.63344">
        <ele>51</ele>
        <time>2021-02-14T13:42:25.000Z</time>
      </trkpt>
      <trkpt lat="47.07047" lon="-1.63334">
        <ele>51</ele>
        <time>2021-02-14T13:42:27.000Z</time>
      </trkpt>
      <trkpt lat="47.07056" lon="-1.63322">
        <ele>51</ele>
        <time>2021-02-14T13:42:29.000Z</time>
      </trkpt>
      <trkpt lat="47.07064" lon="-1.63307">
        <ele>51</ele>
        <time>2021-02-14T13:42:31.000Z</time>
      </trkpt>
      <trkpt lat="47.07071" lon="-1.63291">
        <ele>50</ele>
        <time>2021-02-14T13:42:33.000Z</time>
      </trkpt>
      <trkpt lat="47.07076" lon="-1.63274">
        <ele>50</ele>
        <time>2021-02-14T13:42:35.000Z</time>
      </trkpt>
      <trkpt lat="47.07081" lon="-1.63257">
        <ele>50</ele>
        <time>2021-02-14T13:42:37.000Z</time>
      </trkpt>
      <trkpt lat="47.07084" lon="-1.6324">
        <ele>50</ele>
        <time>2021-02-14T13:42:39.000Z</time>
      </trkpt>
      <trkpt lat="47.07086" lon="-1.63223">
        <ele>50</ele>
        <time>2021-02-14T13:42:41.000Z</time>
      </trkpt>
      <trkpt lat="47.07087" lon="-1.63205">
        <ele>50</ele>
        <time>2021-02-14T13:42:43.000Z</time>
      </trkpt>
      <trkpt lat="47.07089" lon="-1.63188">
        <ele>50</ele>
        <time>2021-02-14T13:42:45.000Z</time>
      </trkpt>
      <trkpt lat="47.07093" lon="-1.63172">
        <ele>50</ele>
        <time>2021-02-14T13:42:47.000Z</time>
      </trkpt>
      <trkpt lat="47.07099" lon="-1.63159">
        <ele>50</ele>
        <time>2021-02-14T13:42:49.000Z</time>
      </trkpt>
      <trkpt lat="47.07109" lon="-1.63148">
        <ele>51</ele>
        <time>2021-02-14T13:42:51.000Z</time>
      </trkpt>
      <trkpt lat="47.07119" lon="-1.63139">
        <ele>51</ele>
        <time>2021-02-14T13:42:53.000Z</time>
      </trkpt>
      <trkpt lat="47.07129" lon="-1.6313">
        <ele>52</ele>
        <time>2021-02-14T13:42:55.000Z</time>
      </trkpt>
      <trkpt lat="47.07139" lon="-1.63123">
        <ele>52</ele>
        <time>2021-02-14T13:42:57.000Z</time>
      </trkpt>
      <trkpt lat="47.07149" lon="-1.6312">
        <ele>53</ele>
        <time>2021-02-14T13:42:59.000Z</time>
      </trkpt>
      <trkpt lat="47.0716" lon="-1.63119">
        <ele>54</ele>
        <time>2021-02-14T13:43:01.000Z</time>
      </trkpt>
      <trkpt lat="47.07172" lon="-1.63119">
        <ele>54</ele>
        <time>2021-02-14T13:43:03.000Z</time>
      </trkpt>
      <trkpt lat="47.07185" lon="-1.6312">
        <ele>53</ele>
        <time>2021-02-14T13:43:05.000Z</time>
      </trkpt>
      <trkpt lat="47.07201" lon="-1.63127">
        <ele>52</ele>
        <time>2021-02-14T13:43:07.000Z</time>
      </trkpt>
      <trkpt lat="47.07214" lon="-1.63135">
        <ele>52</ele>
        <time>2021-02-14T13:43:09.000Z</time>
      </trkpt>
      <trkpt lat="47.07226" lon="-1.63145">
        <ele>52</ele>
        <time>2021-02-14T13:43:11.000Z</time>
      </trkpt>
      <trkpt lat="47.07238" lon="-1.63155">
        <ele>53</ele>
        <time>2021-02-14T13:43:13.000Z</time>
      </trkpt>
      <trkpt lat="47.0725" lon="-1.63163">
        <ele>53</ele>
        <time>2021-02-14T13:43:15.000Z</time>
      </trkpt>
      <trkpt lat="47.07261" lon="-1.63173">
        <ele>53</ele>
        <time>2021-02-14T13:43:17.000Z</time>
      </trkpt>
      <trkpt lat="47.07271" lon="-1.63183">
        <ele>53</ele>
        <time>2021-02-14T13:43:19.000Z</time>
      </trkpt>
      <trkpt lat="47.07281" lon="-1.63195">
        <ele>53</ele>
        <time>2021-02-14T13:43:21.000Z</time>
      </trkpt>
      <trkpt lat="47.0729" lon="-1.63209">
        <ele>53</ele>
        <time>2021-02-14T13:43:23.000Z</time>
      </trkpt>
      <trkpt lat="47.07299" lon="-1.63223">
        <ele>53</ele>
        <time>2021-02-14T13:43:25.000Z</time>
      </trkpt>
      <trkpt lat="47.07307" lon="-1.63238">
        <ele>53</ele>
        <time>2021-02-14T13:43:27.000Z</time>
      </trkpt>
      <trkpt lat="47.07316" lon="-1.63251">
        <ele>53</ele>
        <time>2021-02-14T13:43:29.000Z</time>
      </trkpt>
      <trkpt lat="47.07326" lon="-1.63263">
        <ele>53</ele>
        <time>2021-02-14T13:43:31.000Z</time>
      </trkpt>
      <trkpt lat="47.07337" lon="-1.63275">
        <ele>54</ele>
        <time>2021-02-14T13:43:33.000Z</time>
      </trkpt>
      <trkpt lat="47.07348" lon="-1.63284">
        <ele>53</ele>
        <time>2021-02-14T13:43:35.000Z</time>
      </trkpt>
      <trkpt lat="47.07359" lon="-1.63294">
        <ele>53</ele>
        <time>2021-02-14T13:43:37.000Z</time>
      </trkpt>
      <trkpt lat="47.07371" lon="-1.63302">
        <ele>53</ele>
        <time>2021-02-14T13:43:39.000Z</time>
      </trkpt>
      <trkpt lat="47.07383" lon="-1.6331">
        <ele>53</ele>
        <time>2021-02-14T13:43:41.000Z</time>
      </trkpt>
      <trkpt lat="47.07395" lon="-1.63319">
        <ele>53</ele>
        <time>2021-02-14T13:43:43.000Z</time>
      </trkpt>
      <trkpt lat="47.07408" lon="-1.63327">
        <ele>53</ele>
        <time>2021-02-14T13:43:45.000Z</time>
      </trkpt>
      <trkpt lat="47.0742" lon="-1.63336">
        <ele>52</ele>
        <time>2021-02-14T13:43:47.000Z</time>
      </trkpt>
      <trkpt lat="47.07432" lon="-1.63344">
        <ele>52</ele>
        <time>2021-02-14T13:43:49.000Z</time>
      </trkpt>
      <trkpt lat="47.07445" lon="-1.63352">
        <ele>52</ele>
        <time>2021-02-14T13:43:51.000Z</time>
      </trkpt>
      <trkpt lat="47.07458" lon="-1.6336">
        <ele>52</ele>
        <time>2021-02-14T13:43:53.000Z</time>
      </trkpt>
      <trkpt lat="47.0747" lon="-1.63369">
        <ele>52</ele>
        <time>2021-02-14T13:43:55.000Z</time>
      </trkpt>
      <trkpt lat="47.07483" lon="-1.63377">
        <ele>52</ele>
        <time>2021-02-14T13:43:57.000Z</time>
      </trkpt>
      <trkpt lat="47.07496" lon="-1.63384">
        <ele>52</ele>
        <time>2021-02-14T13:43:59.000Z</time>
      </trkpt>
      <trkpt lat="47.07508" lon="-1.63392">
        <ele>52</ele>
        <time>2021-02-14T13:44:01.000Z</time>
      </trkpt>
      <trkpt lat="47.07521" lon="-1.634">
        <ele>52</ele>
        <time>2021-02-14T13:44:03.000Z</time>
      </trkpt>
      <trkpt lat="47.07534" lon="-1.63407">
        <ele>52</ele>
        <time>2021-02-14T13:44:05.000Z</time>
      </trkpt>
      <trkpt lat="47.07547" lon="-1.63415">
        <ele>52</ele>
        <time>2021-02-14T13:44:07.000Z</time>
      </trkpt>
      <trkpt lat="47.07559" lon="-1.63422">
        <ele>52</ele>
        <time>2021-02-14T13:44:09.000Z</time>
      </trkpt>
      <trkpt lat="47.07572" lon="-1.63428">
        <ele>52</ele>
        <time>2021-02-14T13:44:11.000Z</time>
      </trkpt>
      <trkpt lat="47.07586" lon="-1.63432">
        <ele>51</ele>
        <time>2021-02-14T13:44:13.000Z</time>
      </trkpt>
      <trkpt lat="47.076" lon="-1.63433">
        <ele>51</ele>
        <time>2021-02-14T13:44:15.000Z</time>
      </trkpt>
      <trkpt lat="47.07613" lon="-1.6343">
        <ele>52</ele>
        <time>2021-02-14T13:44:17.000Z</time>
      </trkpt>
      <trkpt lat="47.07626" lon="-1.63426">
        <ele>51</ele>
        <time>2021-02-14T13:44:19.000Z</time>
      </trkpt>
      <trkpt lat="47.07639" lon="-1.63421">
        <ele>51</ele>
        <time>2021-02-14T13:44:21.000Z</time>
      </trkpt>
      <trkpt lat="47.07653" lon="-1.63418">
        <ele>51</ele>
        <time>2021-02-14T13:44:23.000Z</time>
      </trkpt>
      <trkpt lat="47.07666" lon="-1.63414">
        <ele>51</ele>
        <time>2021-02-14T13:44:25.000Z</time>
      </trkpt>
      <trkpt lat="47.07678" lon="-1.63411">
        <ele>52</ele>
        <time>2021-02-14T13:44:27.000Z</time>
      </trkpt>
      <trkpt lat="47.07689" lon="-1.63408">
        <ele>52</ele>
        <time>2021-02-14T13:44:29.000Z</time>
      </trkpt>
      <trkpt lat="47.07701" lon="-1.63401">
        <ele>52</ele>
        <time>2021-02-14T13:44:31.000Z</time>
      </trkpt>
      <trkpt lat="47.0771" lon="-1.6339">
        <ele>52</ele>
        <time>2021-02-14T13:44:33.000Z</time>
      </trkpt>
      <trkpt lat="47.0772" lon="-1.63379">
        <ele>52</ele>
        <time>2021-02-14T13:44:35.000Z</time>
      </trkpt>
      <trkpt lat="47.0773" lon="-1.63367">
        <ele>52</ele>
        <time>2021-02-14T13:44:37.000Z</time>
      </trkpt>
      <trkpt lat="47.07739" lon="-1.63355">
        <ele>52</ele>
        <time>2021-02-14T13:44:39.000Z</time>
      </trkpt>
      <trkpt lat="47.07749" lon="-1.63343">
        <ele>52</ele>
        <time>2021-02-14T13:44:41.000Z</time>
      </trkpt>
      <trkpt lat="47.07759" lon="-1.63332">
        <ele>52</ele>
        <time>2021-02-14T13:44:43.000Z</time>
      </trkpt>
      <trkpt lat="47.07769" lon="-1.6332">
        <ele>52</ele>
        <time>2021-02-14T13:44:45.000Z</time>
      </trkpt>
      <trkpt lat="47.07779" lon="-1.63309">
        <ele>52</ele>
        <time>2021-02-14T13:44:47.000Z</time>
      </trkpt>
      <trkpt lat="47.07789" lon="-1.63297">
        <ele>52</ele>
        <time>2021-02-14T13:44:49.000Z</time>
      </trkpt>
      <trkpt lat="47.07798" lon="-1.63285">
        <ele>52</ele>
        <time>2021-02-14T13:44:51.000Z</time>
      </trkpt>
      <trkpt lat="47.07807" lon="-1.63273">
        <ele>52</ele>
        <time>2021-02-14T13:44:53.000Z</time>
      </trkpt>
      <trkpt lat="47.07816" lon="-1.6326">
        <ele>52</ele>
        <time>2021-02-14T13:44:55.000Z</time>
      </trkpt>
      <trkpt lat="47.07823" lon="-1.63244">
        <ele>52</ele>
        <time>2021-02-14T13:44:57.000Z</time>
      </trkpt>
      <trkpt lat="47.07825" lon="-1.63226">
        <ele>53</ele>
        <time>2021-02-14T13:44:59.000Z</time>
      </trkpt>
      <trkpt lat="47.07822" lon="-1.63209">
        <ele>53</ele>
        <time>2021-02-14T13:45:01.000Z</time>
      </trkpt>
      <trkpt lat="47.07816" lon="-1.63193">
        <ele>53</ele>
        <time>2021-02-14T13:45:03.000Z</time>
      </trkpt>
      <trkpt lat="47.07809" lon="-1.63178">
        <ele>52</ele>
        <time>2021-02-14T13:45:05.000Z</time>
      </trkpt>
      <trkpt lat="47.07803" lon="-1.63164">
        <ele>52</ele>
        <time>2021-02-14T13:45:07.000Z</time>
      </trkpt>
      <trkpt lat="47.07796" lon="-1.6315">
        <ele>52</ele>
        <time>2021-02-14T13:45:09.000Z</time>
      </trkpt>
      <trkpt lat="47.07796" lon="-1.63135">
        <ele>52</ele>
        <time>2021-02-14T13:45:11.000Z</time>
      </trkpt>
      <trkpt lat="47.07803" lon="-1.63125">
        <ele>52</ele>
        <time>2021-02-14T13:45:13.000Z</time>
      </trkpt>
      <trkpt lat="47.07816" lon="-1.63125">
        <ele>53</ele>
        <time>2021-02-14T13:45:15.000Z</time>
      </trkpt>
      <trkpt lat="47.0783" lon="-1.63124">
        <ele>54</ele>
        <time>2021-02-14T13:45:17.000Z</time>
      </trkpt>
      <trkpt lat="47.07843" lon="-1.63122">
        <ele>54</ele>
        <time>2021-02-14T13:45:19.000Z</time>
      </trkpt>
      <trkpt lat="47.07857" lon="-1.63121">
        <ele>54</ele>
        <time>2021-02-14T13:45:21.000Z</time>
      </trkpt>
      <trkpt lat="47.0787" lon="-1.63119">
        <ele>54</ele>
        <time>2021-02-14T13:45:23.000Z</time>
      </trkpt>
      <trkpt lat="47.07884" lon="-1.63118">
        <ele>54</ele>
        <time>2021-02-14T13:45:25.000Z</time>
      </trkpt>
      <trkpt lat="47.07896" lon="-1.63117">
        <ele>54</ele>
        <time>2021-02-14T13:45:27.000Z</time>
      </trkpt>
      <trkpt lat="47.0791" lon="-1.63116">
        <ele>54</ele>
        <time>2021-02-14T13:45:29.000Z</time>
      </trkpt>
      <trkpt lat="47.07923" lon="-1.63114">
        <ele>55</ele>
        <time>2021-02-14T13:45:31.000Z</time>
      </trkpt>
      <trkpt lat="47.07936" lon="-1.63113">
        <ele>54</ele>
        <time>2021-02-14T13:45:33.000Z</time>
      </trkpt>
      <trkpt lat="47.07949" lon="-1.63112">
        <ele>55</ele>
        <time>2021-02-14T13:45:35.000Z</time>
      </trkpt>
      <trkpt lat="47.07962" lon="-1.6311">
        <ele>55</ele>
        <time>2021-02-14T13:45:37.000Z</time>
      </trkpt>
      <trkpt lat="47.07975" lon="-1.63109">
        <ele>54</ele>
        <time>2021-02-14T13:45:39.000Z</time>
      </trkpt>
      <trkpt lat="47.07988" lon="-1.63108">
        <ele>54</ele>
        <time>2021-02-14T13:45:41.000Z</time>
      </trkpt>
      <trkpt lat="47.08001" lon="-1.63106">
        <ele>54</ele>
        <time>2021-02-14T13:45:43.000Z</time>
      </trkpt>
      <trkpt lat="47.08014" lon="-1.63104">
        <ele>54</ele>
        <time>2021-02-14T13:45:45.000Z</time>
      </trkpt>
      <trkpt lat="47.08027" lon="-1.63103">
        <ele>54</ele>
        <time>2021-02-14T13:45:47.000Z</time>
      </trkpt>
      <trkpt lat="47.0804" lon="-1.63102">
        <ele>54</ele>
        <time>2021-02-14T13:45:49.000Z</time>
      </trkpt>
      <trkpt lat="47.08054" lon="-1.63102">
        <ele>53</ele>
        <time>2021-02-14T13:45:51.000Z</time>
      </trkpt>
      <trkpt lat="47.08068" lon="-1.63101">
        <ele>53</ele>
        <time>2021-02-14T13:45:53.000Z</time>
      </trkpt>
      <trkpt lat="47.08082" lon="-1.63099">
        <ele>53</ele>
        <time>2021-02-14T13:45:55.000Z</time>
      </trkpt>
      <trkpt lat="47.08095" lon="-1.63098">
        <ele>53</ele>
        <time>2021-02-14T13:45:57.000Z</time>
      </trkpt>
      <trkpt lat="47.08108" lon="-1.63097">
        <ele>53</ele>
        <time>2021-02-14T13:45:59.000Z</time>
      </trkpt>
      <trkpt lat="47.08122" lon="-1.63096">
        <ele>53</ele>
        <time>2021-02-14T13:46:01.000Z</time>
      </trkpt>
      <trkpt lat="47.08136" lon="-1.63095">
        <ele>53</ele>
        <time>2021-02-14T13:46:03.000Z</time>
      </trkpt>
      <trkpt lat="47.08149" lon="-1.63094">
        <ele>52</ele>
        <time>2021-02-14T13:46:05.000Z</time>
      </trkpt>
      <trkpt lat="47.08163" lon="-1.63092">
        <ele>52</ele>
        <time>2021-02-14T13:46:07.000Z</time>
      </trkpt>
      <trkpt lat="47.08176" lon="-1.63091">
        <ele>53</ele>
        <time>2021-02-14T13:46:09.000Z</time>
      </trkpt>
      <trkpt lat="47.0819" lon="-1.63088">
        <ele>53</ele>
        <time>2021-02-14T13:46:11.000Z</time>
      </trkpt>
      <trkpt lat="47.08203" lon="-1.63087">
        <ele>52</ele>
        <time>2021-02-14T13:46:13.000Z</time>
      </trkpt>
      <trkpt lat="47.08217" lon="-1.63086">
        <ele>52</ele>
        <time>2021-02-14T13:46:15.000Z</time>
      </trkpt>
      <trkpt lat="47.0823" lon="-1.63085">
        <ele>52</ele>
        <time>2021-02-14T13:46:17.000Z</time>
      </trkpt>
      <trkpt lat="47.08243" lon="-1.63084">
        <ele>52</ele>
        <time>2021-02-14T13:46:19.000Z</time>
      </trkpt>
      <trkpt lat="47.08256" lon="-1.63083">
        <ele>52</ele>
        <time>2021-02-14T13:46:21.000Z</time>
      </trkpt>
      <trkpt lat="47.08269" lon="-1.63082">
        <ele>52</ele>
        <time>2021-02-14T13:46:23.000Z</time>
      </trkpt>
      <trkpt lat="47.08283" lon="-1.6308">
        <ele>52</ele>
        <time>2021-02-14T13:46:25.000Z</time>
      </trkpt>
      <trkpt lat="47.08296" lon="-1.63078">
        <ele>52</ele>
        <time>2021-02-14T13:46:27.000Z</time>
      </trkpt>
      <trkpt lat="47.08309" lon="-1.63076">
        <ele>52</ele>
        <time>2021-02-14T13:46:29.000Z</time>
      </trkpt>
      <trkpt lat="47.08323" lon="-1.63075">
        <ele>52</ele>
        <time>2021-02-14T13:46:31.000Z</time>
      </trkpt>
      <trkpt lat="47.08336" lon="-1.63074">
        <ele>52</ele>
        <time>2021-02-14T13:46:33.000Z</time>
      </trkpt>
      <trkpt lat="47.08349" lon="-1.63073">
        <ele>52</ele>
        <time>2021-02-14T13:46:35.000Z</time>
      </trkpt>
      <trkpt lat="47.08362" lon="-1.63072">
        <ele>53</ele>
        <time>2021-02-14T13:46:37.000Z</time>
      </trkpt>
      <trkpt lat="47.08375" lon="-1.6307">
        <ele>53</ele>
        <time>2021-02-14T13:46:39.000Z</time>
      </trkpt>
      <trkpt lat="47.08388" lon="-1.63066">
        <ele>52</ele>
        <time>2021-02-14T13:46:41.000Z</time>
      </trkpt>
      <trkpt lat="47.084" lon="-1.63059">
        <ele>51</ele>
        <time>2021-02-14T13:46:43.000Z</time>
      </trkpt>
      <trkpt lat="47.08411" lon="-1.63049">
        <ele>52</ele>
        <time>2021-02-14T13:46:45.000Z</time>
      </trkpt>
      <trkpt lat="47.08422" lon="-1.63036">
        <ele>51</ele>
        <time>2021-02-14T13:46:47.000Z</time>
      </trkpt>
      <trkpt lat="47.08432" lon="-1.63023">
        <ele>51</ele>
        <time>2021-02-14T13:46:49.000Z</time>
      </trkpt>
      <trkpt lat="47.08441" lon="-1.63009">
        <ele>50</ele>
        <time>2021-02-14T13:46:51.000Z</time>
      </trkpt>
      <trkpt lat="47.08451" lon="-1.62995">
        <ele>51</ele>
        <time>2021-02-14T13:46:53.000Z</time>
      </trkpt>
      <trkpt lat="47.08459" lon="-1.6298">
        <ele>51</ele>
        <time>2021-02-14T13:46:55.000Z</time>
      </trkpt>
      <trkpt lat="47.08468" lon="-1.62966">
        <ele>50</ele>
        <time>2021-02-14T13:46:57.000Z</time>
      </trkpt>
      <trkpt lat="47.08477" lon="-1.62951">
        <ele>50</ele>
        <time>2021-02-14T13:46:59.000Z</time>
      </trkpt>
      <trkpt lat="47.08486" lon="-1.62937">
        <ele>50</ele>
        <time>2021-02-14T13:47:01.000Z</time>
      </trkpt>
      <trkpt lat="47.08494" lon="-1.62924">
        <ele>50</ele>
        <time>2021-02-14T13:47:03.000Z</time>
      </trkpt>
      <trkpt lat="47.08503" lon="-1.62909">
        <ele>50</ele>
        <time>2021-02-14T13:47:05.000Z</time>
      </trkpt>
      <trkpt lat="47.08512" lon="-1.62896">
        <ele>50</ele>
        <time>2021-02-14T13:47:07.000Z</time>
      </trkpt>
      <trkpt lat="47.08521" lon="-1.62883">
        <ele>50</ele>
        <time>2021-02-14T13:47:09.000Z</time>
      </trkpt>
      <trkpt lat="47.08529" lon="-1.62869">
        <ele>50</ele>
        <time>2021-02-14T13:47:11.000Z</time>
      </trkpt>
      <trkpt lat="47.08538" lon="-1.62856">
        <ele>50</ele>
        <time>2021-02-14T13:47:13.000Z</time>
      </trkpt>
      <trkpt lat="47.08546" lon="-1.62843">
        <ele>50</ele>
        <time>2021-02-14T13:47:15.000Z</time>
      </trkpt>
      <trkpt lat="47.08556" lon="-1.62831">
        <ele>50</ele>
        <time>2021-02-14T13:47:17.000Z</time>
      </trkpt>
      <trkpt lat="47.08566" lon="-1.62821">
        <ele>51</ele>
        <time>2021-02-14T13:47:19.000Z</time>
      </trkpt>
      <trkpt lat="47.08575" lon="-1.62812">
        <ele>51</ele>
        <time>2021-02-14T13:47:21.000Z</time>
      </trkpt>
      <trkpt lat="47.08579" lon="-1.62796">
        <ele>51</ele>
        <time>2021-02-14T13:47:23.000Z</time>
      </trkpt>
      <trkpt lat="47.08579" lon="-1.62777">
        <ele>50</ele>
        <time>2021-02-14T13:47:25.000Z</time>
      </trkpt>
      <trkpt lat="47.08578" lon="-1.62758">
        <ele>51</ele>
        <time>2021-02-14T13:47:27.000Z</time>
      </trkpt>
      <trkpt lat="47.08577" lon="-1.62739">
        <ele>51</ele>
        <time>2021-02-14T13:47:29.000Z</time>
      </trkpt>
      <trkpt lat="47.08578" lon="-1.62721">
        <ele>51</ele>
        <time>2021-02-14T13:47:31.000Z</time>
      </trkpt>
      <trkpt lat="47.08578" lon="-1.62703">
        <ele>51</ele>
        <time>2021-02-14T13:47:33.000Z</time>
      </trkpt>
      <trkpt lat="47.08579" lon="-1.62684">
        <ele>50</ele>
        <time>2021-02-14T13:47:35.000Z</time>
      </trkpt>
      <trkpt lat="47.08579" lon="-1.62665">
        <ele>50</ele>
        <time>2021-02-14T13:47:37.000Z</time>
      </trkpt>
      <trkpt lat="47.0858" lon="-1.62647">
        <ele>51</ele>
        <time>2021-02-14T13:47:39.000Z</time>
      </trkpt>
      <trkpt lat="47.08581" lon="-1.62628">
        <ele>51</ele>
        <time>2021-02-14T13:47:41.000Z</time>
      </trkpt>
      <trkpt lat="47.08583" lon="-1.62609">
        <ele>51</ele>
        <time>2021-02-14T13:47:43.000Z</time>
      </trkpt>
      <trkpt lat="47.08583" lon="-1.62591">
        <ele>52</ele>
        <time>2021-02-14T13:47:45.000Z</time>
      </trkpt>
      <trkpt lat="47.08584" lon="-1.62572">
        <ele>52</ele>
        <time>2021-02-14T13:47:47.000Z</time>
      </trkpt>
      <trkpt lat="47.08585" lon="-1.62554">
        <ele>52</ele>
        <time>2021-02-14T13:47:49.000Z</time>
      </trkpt>
      <trkpt lat="47.08585" lon="-1.62536">
        <ele>52</ele>
        <time>2021-02-14T13:47:51.000Z</time>
      </trkpt>
      <trkpt lat="47.08586" lon="-1.62517">
        <ele>51</ele>
        <time>2021-02-14T13:47:53.000Z</time>
      </trkpt>
      <trkpt lat="47.08587" lon="-1.62498">
        <ele>52</ele>
        <time>2021-02-14T13:47:55.000Z</time>
      </trkpt>
      <trkpt lat="47.08589" lon="-1.62479">
        <ele>51</ele>
        <time>2021-02-14T13:47:57.000Z</time>
      </trkpt>
      <trkpt lat="47.0859" lon="-1.62461">
        <ele>51</ele>
        <time>2021-02-14T13:47:59.000Z</time>
      </trkpt>
      <trkpt lat="47.08591" lon="-1.62442">
        <ele>51</ele>
        <time>2021-02-14T13:48:01.000Z</time>
      </trkpt>
      <trkpt lat="47.08592" lon="-1.62424">
        <ele>51</ele>
        <time>2021-02-14T13:48:03.000Z</time>
      </trkpt>
      <trkpt lat="47.08593" lon="-1.62406">
        <ele>51</ele>
        <time>2021-02-14T13:48:05.000Z</time>
      </trkpt>
      <trkpt lat="47.08593" lon="-1.62388">
        <ele>52</ele>
        <time>2021-02-14T13:48:07.000Z</time>
      </trkpt>
      <trkpt lat="47.08594" lon="-1.6237">
        <ele>52</ele>
        <time>2021-02-14T13:48:09.000Z</time>
      </trkpt>
      <trkpt lat="47.08599" lon="-1.62356">
        <ele>53</ele>
        <time>2021-02-14T13:48:11.000Z</time>
      </trkpt>
      <trkpt lat="47.08612" lon="-1.62347">
        <ele>52</ele>
        <time>2021-02-14T13:48:13.000Z</time>
      </trkpt>
      <trkpt lat="47.08625" lon="-1.62341">
        <ele>52</ele>
        <time>2021-02-14T13:48:15.000Z</time>
      </trkpt>
      <trkpt lat="47.08637" lon="-1.62336">
        <ele>51</ele>
        <time>2021-02-14T13:48:17.000Z</time>
      </trkpt>
      <trkpt lat="47.08649" lon="-1.62331">
        <ele>51</ele>
        <time>2021-02-14T13:48:19.000Z</time>
      </trkpt>
      <trkpt lat="47.08662" lon="-1.62326">
        <ele>51</ele>
        <time>2021-02-14T13:48:21.000Z</time>
      </trkpt>
      <trkpt lat="47.08674" lon="-1.62321">
        <ele>51</ele>
        <time>2021-02-14T13:48:23.000Z</time>
      </trkpt>
      <trkpt lat="47.08686" lon="-1.62317">
        <ele>51</ele>
        <time>2021-02-14T13:48:25.000Z</time>
      </trkpt>
      <trkpt lat="47.08699" lon="-1.62312">
        <ele>51</ele>
        <time>2021-02-14T13:48:27.000Z</time>
      </trkpt>
      <trkpt lat="47.08711" lon="-1.62306">
        <ele>51</ele>
        <time>2021-02-14T13:48:29.000Z</time>
      </trkpt>
      <trkpt lat="47.08729" lon="-1.62298">
        <ele>51</ele>
        <time>2021-02-14T13:48:32.000Z</time>
      </trkpt>
      <trkpt lat="47.08747" lon="-1.6229">
        <ele>51</ele>
        <time>2021-02-14T13:48:35.000Z</time>
      </trkpt>
      <trkpt lat="47.08759" lon="-1.62286">
        <ele>51</ele>
        <time>2021-02-14T13:48:37.000Z</time>
      </trkpt>
      <trkpt lat="47.08777" lon="-1.62277">
        <ele>51</ele>
        <time>2021-02-14T13:48:40.000Z</time>
      </trkpt>
      <trkpt lat="47.08789" lon="-1.62273">
        <ele>51</ele>
        <time>2021-02-14T13:48:42.000Z</time>
      </trkpt>
      <trkpt lat="47.08806" lon="-1.62265">
        <ele>52</ele>
        <time>2021-02-14T13:48:45.000Z</time>
      </trkpt>
      <trkpt lat="47.08818" lon="-1.62261">
        <ele>52</ele>
        <time>2021-02-14T13:48:47.000Z</time>
      </trkpt>
      <trkpt lat="47.08831" lon="-1.62256">
        <ele>52</ele>
        <time>2021-02-14T13:48:49.000Z</time>
      </trkpt>
      <trkpt lat="47.08843" lon="-1.62252">
        <ele>53</ele>
        <time>2021-02-14T13:48:51.000Z</time>
      </trkpt>
      <trkpt lat="47.0886" lon="-1.62244">
        <ele>52</ele>
        <time>2021-02-14T13:48:54.000Z</time>
      </trkpt>
      <trkpt lat="47.08878" lon="-1.62236">
        <ele>52</ele>
        <time>2021-02-14T13:48:57.000Z</time>
      </trkpt>
      <trkpt lat="47.08896" lon="-1.62229">
        <ele>52</ele>
        <time>2021-02-14T13:49:00.000Z</time>
      </trkpt>
      <trkpt lat="47.08915" lon="-1.62221">
        <ele>52</ele>
        <time>2021-02-14T13:49:03.000Z</time>
      </trkpt>
      <trkpt lat="47.08928" lon="-1.62215">
        <ele>52</ele>
        <time>2021-02-14T13:49:05.000Z</time>
      </trkpt>
      <trkpt lat="47.08946" lon="-1.62207">
        <ele>52</ele>
        <time>2021-02-14T13:49:08.000Z</time>
      </trkpt>
      <trkpt lat="47.08958" lon="-1.62202">
        <ele>52</ele>
        <time>2021-02-14T13:49:10.000Z</time>
      </trkpt>
      <trkpt lat="47.0897" lon="-1.62198">
        <ele>53</ele>
        <time>2021-02-14T13:49:12.000Z</time>
      </trkpt>
      <trkpt lat="47.08982" lon="-1.62193">
        <ele>53</ele>
        <time>2021-02-14T13:49:14.000Z</time>
      </trkpt>
      <trkpt lat="47.08994" lon="-1.62188">
        <ele>53</ele>
        <time>2021-02-14T13:49:16.000Z</time>
      </trkpt>
      <trkpt lat="47.09007" lon="-1.62183">
        <ele>53</ele>
        <time>2021-02-14T13:49:18.000Z</time>
      </trkpt>
      <trkpt lat="47.09018" lon="-1.62178">
        <ele>53</ele>
        <time>2021-02-14T13:49:20.000Z</time>
      </trkpt>
      <trkpt lat="47.09035" lon="-1.62171">
        <ele>53</ele>
        <time>2021-02-14T13:49:23.000Z</time>
      </trkpt>
      <trkpt lat="47.09052" lon="-1.62163">
        <ele>54</ele>
        <time>2021-02-14T13:49:26.000Z</time>
      </trkpt>
      <trkpt lat="47.09064" lon="-1.62159">
        <ele>53</ele>
        <time>2021-02-14T13:49:28.000Z</time>
      </trkpt>
      <trkpt lat="47.09075" lon="-1.62154">
        <ele>54</ele>
        <time>2021-02-14T13:49:30.000Z</time>
      </trkpt>
      <trkpt lat="47.09087" lon="-1.62148">
        <ele>54</ele>
        <time>2021-02-14T13:49:32.000Z</time>
      </trkpt>
      <trkpt lat="47.09098" lon="-1.62144">
        <ele>54</ele>
        <time>2021-02-14T13:49:34.000Z</time>
      </trkpt>
      <trkpt lat="47.09109" lon="-1.62139">
        <ele>55</ele>
        <time>2021-02-14T13:49:36.000Z</time>
      </trkpt>
      <trkpt lat="47.0912" lon="-1.62134">
        <ele>54</ele>
        <time>2021-02-14T13:49:38.000Z</time>
      </trkpt>
      <trkpt lat="47.09132" lon="-1.62129">
        <ele>54</ele>
        <time>2021-02-14T13:49:40.000Z</time>
      </trkpt>
      <trkpt lat="47.09143" lon="-1.62124">
        <ele>54</ele>
        <time>2021-02-14T13:49:42.000Z</time>
      </trkpt>
      <trkpt lat="47.09155" lon="-1.62119">
        <ele>54</ele>
        <time>2021-02-14T13:49:44.000Z</time>
      </trkpt>
      <trkpt lat="47.09167" lon="-1.62115">
        <ele>54</ele>
        <time>2021-02-14T13:49:46.000Z</time>
      </trkpt>
      <trkpt lat="47.09178" lon="-1.62108">
        <ele>54</ele>
        <time>2021-02-14T13:49:48.000Z</time>
      </trkpt>
      <trkpt lat="47.09181" lon="-1.62093">
        <ele>54</ele>
        <time>2021-02-14T13:49:50.000Z</time>
      </trkpt>
      <trkpt lat="47.09176" lon="-1.62078">
        <ele>54</ele>
        <time>2021-02-14T13:49:52.000Z</time>
      </trkpt>
      <trkpt lat="47.09169" lon="-1.62064">
        <ele>54</ele>
        <time>2021-02-14T13:49:54.000Z</time>
      </trkpt>
      <trkpt lat="47.09163" lon="-1.62049">
        <ele>54</ele>
        <time>2021-02-14T13:49:56.000Z</time>
      </trkpt>
      <trkpt lat="47.09157" lon="-1.62035">
        <ele>54</ele>
        <time>2021-02-14T13:49:58.000Z</time>
      </trkpt>
      <trkpt lat="47.09152" lon="-1.62021">
        <ele>54</ele>
        <time>2021-02-14T13:50:00.000Z</time>
      </trkpt>
      <trkpt lat="47.09146" lon="-1.62005">
        <ele>54</ele>
        <time>2021-02-14T13:50:02.000Z</time>
      </trkpt>
      <trkpt lat="47.09141" lon="-1.6199">
        <ele>54</ele>
        <time>2021-02-14T13:50:04.000Z</time>
      </trkpt>
      <trkpt lat="47.09136" lon="-1.61975">
        <ele>53</ele>
        <time>2021-02-14T13:50:06.000Z</time>
      </trkpt>
      <trkpt lat="47.09131" lon="-1.6196">
        <ele>53</ele>
        <time>2021-02-14T13:50:08.000Z</time>
      </trkpt>
      <trkpt lat="47.09126" lon="-1.61945">
        <ele>53</ele>
        <time>2021-02-14T13:50:10.000Z</time>
      </trkpt>
      <trkpt lat="47.09121" lon="-1.61931">
        <ele>53</ele>
        <time>2021-02-14T13:50:12.000Z</time>
      </trkpt>
      <trkpt lat="47.09115" lon="-1.61916">
        <ele>53</ele>
        <time>2021-02-14T13:50:14.000Z</time>
      </trkpt>
      <trkpt lat="47.0911" lon="-1.61901">
        <ele>53</ele>
        <time>2021-02-14T13:50:16.000Z</time>
      </trkpt>
      <trkpt lat="47.09105" lon="-1.61886">
        <ele>54</ele>
        <time>2021-02-14T13:50:18.000Z</time>
      </trkpt>
      <trkpt lat="47.09099" lon="-1.61873">
        <ele>54</ele>
        <time>2021-02-14T13:50:20.000Z</time>
      </trkpt>
      <trkpt lat="47.09094" lon="-1.61858">
        <ele>53</ele>
        <time>2021-02-14T13:50:22.000Z</time>
      </trkpt>
      <trkpt lat="47.09088" lon="-1.61843">
        <ele>53</ele>
        <time>2021-02-14T13:50:24.000Z</time>
      </trkpt>
      <trkpt lat="47.09081" lon="-1.61822">
        <ele>54</ele>
        <time>2021-02-14T13:50:27.000Z</time>
      </trkpt>
      <trkpt lat="47.09076" lon="-1.61807">
        <ele>53</ele>
        <time>2021-02-14T13:50:29.000Z</time>
      </trkpt>
      <trkpt lat="47.09071" lon="-1.61793">
        <ele>53</ele>
        <time>2021-02-14T13:50:31.000Z</time>
      </trkpt>
      <trkpt lat="47.09066" lon="-1.61779">
        <ele>53</ele>
        <time>2021-02-14T13:50:33.000Z</time>
      </trkpt>
      <trkpt lat="47.09061" lon="-1.61765">
        <ele>53</ele>
        <time>2021-02-14T13:50:35.000Z</time>
      </trkpt>
      <trkpt lat="47.09055" lon="-1.61751">
        <ele>53</ele>
        <time>2021-02-14T13:50:37.000Z</time>
      </trkpt>
      <trkpt lat="47.0905" lon="-1.61736">
        <ele>52</ele>
        <time>2021-02-14T13:50:39.000Z</time>
      </trkpt>
      <trkpt lat="47.09045" lon="-1.61722">
        <ele>52</ele>
        <time>2021-02-14T13:50:41.000Z</time>
      </trkpt>
      <trkpt lat="47.0904" lon="-1.61708">
        <ele>52</ele>
        <time>2021-02-14T13:50:43.000Z</time>
      </trkpt>
      <trkpt lat="47.09035" lon="-1.61693">
        <ele>52</ele>
        <time>2021-02-14T13:50:45.000Z</time>
      </trkpt>
      <trkpt lat="47.0903" lon="-1.61678">
        <ele>52</ele>
        <time>2021-02-14T13:50:47.000Z</time>
      </trkpt>
      <trkpt lat="47.09025" lon="-1.61663">
        <ele>52</ele>
        <time>2021-02-14T13:50:49.000Z</time>
      </trkpt>
      <trkpt lat="47.0902" lon="-1.61649">
        <ele>53</ele>
        <time>2021-02-14T13:50:51.000Z</time>
      </trkpt>
      <trkpt lat="47.09015" lon="-1.61635">
        <ele>53</ele>
        <time>2021-02-14T13:50:53.000Z</time>
      </trkpt>
      <trkpt lat="47.0901" lon="-1.61622">
        <ele>53</ele>
        <time>2021-02-14T13:50:55.000Z</time>
      </trkpt>
      <trkpt lat="47.09005" lon="-1.61608">
        <ele>53</ele>
        <time>2021-02-14T13:50:57.000Z</time>
      </trkpt>
      <trkpt lat="47.08999" lon="-1.61595">
        <ele>53</ele>
        <time>2021-02-14T13:50:59.000Z</time>
      </trkpt>
      <trkpt lat="47.09" lon="-1.61581">
        <ele>54</ele>
        <time>2021-02-14T13:51:01.000Z</time>
      </trkpt>
      <trkpt lat="47.09011" lon="-1.61573">
        <ele>54</ele>
        <time>2021-02-14T13:51:03.000Z</time>
      </trkpt>
      <trkpt lat="47.09022" lon="-1.61568">
        <ele>55</ele>
        <time>2021-02-14T13:51:05.000Z</time>
      </trkpt>
      <trkpt lat="47.09032" lon="-1.61562">
        <ele>55</ele>
        <time>2021-02-14T13:51:07.000Z</time>
      </trkpt>
      <trkpt lat="47.09042" lon="-1.61556">
        <ele>56</ele>
        <time>2021-02-14T13:51:09.000Z</time>
      </trkpt>
      <trkpt lat="47.09053" lon="-1.6155">
        <ele>56</ele>
        <time>2021-02-14T13:51:11.000Z</time>
      </trkpt>
      <trkpt lat="47.09063" lon="-1.61544">
        <ele>56</ele>
        <time>2021-02-14T13:51:13.000Z</time>
      </trkpt>
      <trkpt lat="47.09073" lon="-1.61538">
        <ele>56</ele>
        <time>2021-02-14T13:51:15.000Z</time>
      </trkpt>
      <trkpt lat="47.09084" lon="-1.61532">
        <ele>56</ele>
        <time>2021-02-14T13:51:17.000Z</time>
      </trkpt>
      <trkpt lat="47.09096" lon="-1.61526">
        <ele>56</ele>
        <time>2021-02-14T13:51:19.000Z</time>
      </trkpt>
      <trkpt lat="47.09106" lon="-1.6152">
        <ele>56</ele>
        <time>2021-02-14T13:51:21.000Z</time>
      </trkpt>
      <trkpt lat="47.09116" lon="-1.61515">
        <ele>56</ele>
        <time>2021-02-14T13:51:23.000Z</time>
      </trkpt>
      <trkpt lat="47.09127" lon="-1.61509">
        <ele>56</ele>
        <time>2021-02-14T13:51:25.000Z</time>
      </trkpt>
      <trkpt lat="47.09137" lon="-1.61503">
        <ele>56</ele>
        <time>2021-02-14T13:51:27.000Z</time>
      </trkpt>
      <trkpt lat="47.09147" lon="-1.61497">
        <ele>56</ele>
        <time>2021-02-14T13:51:29.000Z</time>
      </trkpt>
      <trkpt lat="47.09158" lon="-1.6149">
        <ele>56</ele>
        <time>2021-02-14T13:51:31.000Z</time>
      </trkpt>
      <trkpt lat="47.09168" lon="-1.61484">
        <ele>57</ele>
        <time>2021-02-14T13:51:33.000Z</time>
      </trkpt>
      <trkpt lat="47.09178" lon="-1.61479">
        <ele>57</ele>
        <time>2021-02-14T13:51:35.000Z</time>
      </trkpt>
      <trkpt lat="47.09189" lon="-1.61472">
        <ele>57</ele>
        <time>2021-02-14T13:51:37.000Z</time>
      </trkpt>
      <trkpt lat="47.092" lon="-1.61467">
        <ele>57</ele>
        <time>2021-02-14T13:51:39.000Z</time>
      </trkpt>
      <trkpt lat="47.09211" lon="-1.61461">
        <ele>57</ele>
        <time>2021-02-14T13:51:41.000Z</time>
      </trkpt>
      <trkpt lat="47.09221" lon="-1.61454">
        <ele>57</ele>
        <time>2021-02-14T13:51:43.000Z</time>
      </trkpt>
      <trkpt lat="47.09232" lon="-1.61447">
        <ele>58</ele>
        <time>2021-02-14T13:51:45.000Z</time>
      </trkpt>
      <trkpt lat="47.09243" lon="-1.61442">
        <ele>57</ele>
        <time>2021-02-14T13:51:47.000Z</time>
      </trkpt>
      <trkpt lat="47.09253" lon="-1.61435">
        <ele>57</ele>
        <time>2021-02-14T13:51:49.000Z</time>
      </trkpt>
      <trkpt lat="47.09263" lon="-1.61429">
        <ele>57</ele>
        <time>2021-02-14T13:51:51.000Z</time>
      </trkpt>
      <trkpt lat="47.09273" lon="-1.61425">
        <ele>57</ele>
        <time>2021-02-14T13:51:53.000Z</time>
      </trkpt>
      <trkpt lat="47.09281" lon="-1.61417">
        <ele>57</ele>
        <time>2021-02-14T13:51:55.000Z</time>
      </trkpt>
      <trkpt lat="47.09282" lon="-1.61402">
        <ele>57</ele>
        <time>2021-02-14T13:51:57.000Z</time>
      </trkpt>
      <trkpt lat="47.09278" lon="-1.61386">
        <ele>56</ele>
        <time>2021-02-14T13:51:59.000Z</time>
      </trkpt>
      <trkpt lat="47.09275" lon="-1.6137">
        <ele>55</ele>
        <time>2021-02-14T13:52:01.000Z</time>
      </trkpt>
      <trkpt lat="47.09272" lon="-1.61354">
        <ele>56</ele>
        <time>2021-02-14T13:52:03.000Z</time>
      </trkpt>
      <trkpt lat="47.09269" lon="-1.61338">
        <ele>56</ele>
        <time>2021-02-14T13:52:05.000Z</time>
      </trkpt>
      <trkpt lat="47.09267" lon="-1.61322">
        <ele>56</ele>
        <time>2021-02-14T13:52:07.000Z</time>
      </trkpt>
      <trkpt lat="47.09263" lon="-1.61306">
        <ele>56</ele>
        <time>2021-02-14T13:52:09.000Z</time>
      </trkpt>
      <trkpt lat="47.0926" lon="-1.61291">
        <ele>56</ele>
        <time>2021-02-14T13:52:11.000Z</time>
      </trkpt>
      <trkpt lat="47.09257" lon="-1.61277">
        <ele>57</ele>
        <time>2021-02-14T13:52:13.000Z</time>
      </trkpt>
      <trkpt lat="47.09253" lon="-1.61263">
        <ele>57</ele>
        <time>2021-02-14T13:52:15.000Z</time>
      </trkpt>
      <trkpt lat="47.0925" lon="-1.6125">
        <ele>57</ele>
        <time>2021-02-14T13:52:17.000Z</time>
      </trkpt>
      <trkpt lat="47.09247" lon="-1.61237">
        <ele>57</ele>
        <time>2021-02-14T13:52:19.000Z</time>
      </trkpt>
      <trkpt lat="47.09242" lon="-1.6122">
        <ele>57</ele>
        <time>2021-02-14T13:52:22.000Z</time>
      </trkpt>
      <trkpt lat="47.09237" lon="-1.61207">
        <ele>57</ele>
        <time>2021-02-14T13:52:25.000Z</time>
      </trkpt>
      <trkpt lat="47.09233" lon="-1.61195">
        <ele>57</ele>
        <time>2021-02-14T13:52:28.000Z</time>
      </trkpt>
      <trkpt lat="47.09239" lon="-1.61182">
        <ele>57</ele>
        <time>2021-02-14T13:52:33.000Z</time>
      </trkpt>
      <trkpt lat="47.09251" lon="-1.61182">
        <ele>58</ele>
        <time>2021-02-14T13:52:36.000Z</time>
      </trkpt>
      <trkpt lat="47.09262" lon="-1.61181">
        <ele>58</ele>
        <time>2021-02-14T13:52:38.000Z</time>
      </trkpt>
      <trkpt lat="47.09274" lon="-1.61181">
        <ele>57</ele>
        <time>2021-02-14T13:52:40.000Z</time>
      </trkpt>
      <trkpt lat="47.09287" lon="-1.61184">
        <ele>58</ele>
        <time>2021-02-14T13:52:42.000Z</time>
      </trkpt>
      <trkpt lat="47.09299" lon="-1.61189">
        <ele>58</ele>
        <time>2021-02-14T13:52:44.000Z</time>
      </trkpt>
      <trkpt lat="47.0931" lon="-1.61194">
        <ele>58</ele>
        <time>2021-02-14T13:52:46.000Z</time>
      </trkpt>
      <trkpt lat="47.09322" lon="-1.61198">
        <ele>59</ele>
        <time>2021-02-14T13:52:48.000Z</time>
      </trkpt>
      <trkpt lat="47.09333" lon="-1.612">
        <ele>60</ele>
        <time>2021-02-14T13:52:50.000Z</time>
      </trkpt>
      <trkpt lat="47.09345" lon="-1.61203">
        <ele>60</ele>
        <time>2021-02-14T13:52:52.000Z</time>
      </trkpt>
      <trkpt lat="47.09357" lon="-1.61205">
        <ele>60</ele>
        <time>2021-02-14T13:52:54.000Z</time>
      </trkpt>
      <trkpt lat="47.0937" lon="-1.61211">
        <ele>60</ele>
        <time>2021-02-14T13:52:56.000Z</time>
      </trkpt>
      <trkpt lat="47.09385" lon="-1.61217">
        <ele>59</ele>
        <time>2021-02-14T13:52:58.000Z</time>
      </trkpt>
      <trkpt lat="47.09397" lon="-1.61224">
        <ele>58</ele>
        <time>2021-02-14T13:53:00.000Z</time>
      </trkpt>
      <trkpt lat="47.0941" lon="-1.6123">
        <ele>58</ele>
        <time>2021-02-14T13:53:02.000Z</time>
      </trkpt>
      <trkpt lat="47.09422" lon="-1.61228">
        <ele>57</ele>
        <time>2021-02-14T13:53:04.000Z</time>
      </trkpt>
      <trkpt lat="47.09434" lon="-1.61216">
        <ele>57</ele>
        <time>2021-02-14T13:53:06.000Z</time>
      </trkpt>
      <trkpt lat="47.09445" lon="-1.61204">
        <ele>57</ele>
        <time>2021-02-14T13:53:08.000Z</time>
      </trkpt>
      <trkpt lat="47.09455" lon="-1.61191">
        <ele>56</ele>
        <time>2021-02-14T13:53:10.000Z</time>
      </trkpt>
      <trkpt lat="47.09466" lon="-1.6118">
        <ele>56</ele>
        <time>2021-02-14T13:53:12.000Z</time>
      </trkpt>
      <trkpt lat="47.09476" lon="-1.61168">
        <ele>55</ele>
        <time>2021-02-14T13:53:14.000Z</time>
      </trkpt>
      <trkpt lat="47.09487" lon="-1.61157">
        <ele>55</ele>
        <time>2021-02-14T13:53:16.000Z</time>
      </trkpt>
      <trkpt lat="47.09497" lon="-1.61148">
        <ele>55</ele>
        <time>2021-02-14T13:53:18.000Z</time>
      </trkpt>
      <trkpt lat="47.09509" lon="-1.61141">
        <ele>55</ele>
        <time>2021-02-14T13:53:20.000Z</time>
      </trkpt>
      <trkpt lat="47.09522" lon="-1.61137">
        <ele>55</ele>
        <time>2021-02-14T13:53:22.000Z</time>
      </trkpt>
      <trkpt lat="47.09534" lon="-1.61135">
        <ele>55</ele>
        <time>2021-02-14T13:53:24.000Z</time>
      </trkpt>
      <trkpt lat="47.09546" lon="-1.61133">
        <ele>55</ele>
        <time>2021-02-14T13:53:26.000Z</time>
      </trkpt>
      <trkpt lat="47.09559" lon="-1.61131">
        <ele>55</ele>
        <time>2021-02-14T13:53:28.000Z</time>
      </trkpt>
      <trkpt lat="47.09572" lon="-1.6113">
        <ele>54</ele>
        <time>2021-02-14T13:53:30.000Z</time>
      </trkpt>
      <trkpt lat="47.09585" lon="-1.61128">
        <ele>54</ele>
        <time>2021-02-14T13:53:32.000Z</time>
      </trkpt>
      <trkpt lat="47.09599" lon="-1.61127">
        <ele>54</ele>
        <time>2021-02-14T13:53:34.000Z</time>
      </trkpt>
      <trkpt lat="47.09612" lon="-1.61125">
        <ele>53</ele>
        <time>2021-02-14T13:53:36.000Z</time>
      </trkpt>
      <trkpt lat="47.09624" lon="-1.61123">
        <ele>53</ele>
        <time>2021-02-14T13:53:38.000Z</time>
      </trkpt>
      <trkpt lat="47.09637" lon="-1.61123">
        <ele>53</ele>
        <time>2021-02-14T13:53:40.000Z</time>
      </trkpt>
      <trkpt lat="47.09651" lon="-1.61121">
        <ele>52</ele>
        <time>2021-02-14T13:53:42.000Z</time>
      </trkpt>
      <trkpt lat="47.09664" lon="-1.61119">
        <ele>51</ele>
        <time>2021-02-14T13:53:44.000Z</time>
      </trkpt>
      <trkpt lat="47.09676" lon="-1.61118">
        <ele>51</ele>
        <time>2021-02-14T13:53:46.000Z</time>
      </trkpt>
      <trkpt lat="47.0969" lon="-1.61116">
        <ele>52</ele>
        <time>2021-02-14T13:53:48.000Z</time>
      </trkpt>
      <trkpt lat="47.09704" lon="-1.61114">
        <ele>52</ele>
        <time>2021-02-14T13:53:50.000Z</time>
      </trkpt>
      <trkpt lat="47.09718" lon="-1.61112">
        <ele>51</ele>
        <time>2021-02-14T13:53:52.000Z</time>
      </trkpt>
      <trkpt lat="47.09731" lon="-1.6111">
        <ele>51</ele>
        <time>2021-02-14T13:53:54.000Z</time>
      </trkpt>
      <trkpt lat="47.09743" lon="-1.61107">
        <ele>52</ele>
        <time>2021-02-14T13:53:56.000Z</time>
      </trkpt>
      <trkpt lat="47.09756" lon="-1.61106">
        <ele>52</ele>
        <time>2021-02-14T13:53:58.000Z</time>
      </trkpt>
      <trkpt lat="47.09768" lon="-1.61105">
        <ele>52</ele>
        <time>2021-02-14T13:54:00.000Z</time>
      </trkpt>
      <trkpt lat="47.0978" lon="-1.61103">
        <ele>53</ele>
        <time>2021-02-14T13:54:02.000Z</time>
      </trkpt>
      <trkpt lat="47.09793" lon="-1.61099">
        <ele>53</ele>
        <time>2021-02-14T13:54:04.000Z</time>
      </trkpt>
      <trkpt lat="47.09806" lon="-1.61093">
        <ele>53</ele>
        <time>2021-02-14T13:54:06.000Z</time>
      </trkpt>
      <trkpt lat="47.09818" lon="-1.61085">
        <ele>53</ele>
        <time>2021-02-14T13:54:08.000Z</time>
      </trkpt>
      <trkpt lat="47.09829" lon="-1.61076">
        <ele>53</ele>
        <time>2021-02-14T13:54:10.000Z</time>
      </trkpt>
      <trkpt lat="47.0984" lon="-1.61066">
        <ele>53</ele>
        <time>2021-02-14T13:54:12.000Z</time>
      </trkpt>
      <trkpt lat="47.09849" lon="-1.61054">
        <ele>54</ele>
        <time>2021-02-14T13:54:14.000Z</time>
      </trkpt>
      <trkpt lat="47.09858" lon="-1.6104">
        <ele>54</ele>
        <time>2021-02-14T13:54:16.000Z</time>
      </trkpt>
      <trkpt lat="47.09866" lon="-1.61027">
        <ele>54</ele>
        <time>2021-02-14T13:54:18.000Z</time>
      </trkpt>
      <trkpt lat="47.09872" lon="-1.61013">
        <ele>55</ele>
        <time>2021-02-14T13:54:20.000Z</time>
      </trkpt>
      <trkpt lat="47.09879" lon="-1.60998">
        <ele>54</ele>
        <time>2021-02-14T13:54:22.000Z</time>
      </trkpt>
      <trkpt lat="47.09885" lon="-1.60984">
        <ele>54</ele>
        <time>2021-02-14T13:54:24.000Z</time>
      </trkpt>
      <trkpt lat="47.09891" lon="-1.60969">
        <ele>55</ele>
        <time>2021-02-14T13:54:26.000Z</time>
      </trkpt>
      <trkpt lat="47.09897" lon="-1.60954">
        <ele>55</ele>
        <time>2021-02-14T13:54:28.000Z</time>
      </trkpt>
      <trkpt lat="47.09903" lon="-1.60939">
        <ele>55</ele>
        <time>2021-02-14T13:54:30.000Z</time>
      </trkpt>
      <trkpt lat="47.09908" lon="-1.60925">
        <ele>56</ele>
        <time>2021-02-14T13:54:32.000Z</time>
      </trkpt>
      <trkpt lat="47.09914" lon="-1.6091">
        <ele>56</ele>
        <time>2021-02-14T13:54:34.000Z</time>
      </trkpt>
      <trkpt lat="47.0992" lon="-1.60895">
        <ele>56</ele>
        <time>2021-02-14T13:54:36.000Z</time>
      </trkpt>
      <trkpt lat="47.09926" lon="-1.6088">
        <ele>56</ele>
        <time>2021-02-14T13:54:38.000Z</time>
      </trkpt>
      <trkpt lat="47.09932" lon="-1.60866">
        <ele>55</ele>
        <time>2021-02-14T13:54:40.000Z</time>
      </trkpt>
      <trkpt lat="47.09938" lon="-1.60851">
        <ele>55</ele>
        <time>2021-02-14T13:54:42.000Z</time>
      </trkpt>
      <trkpt lat="47.09943" lon="-1.60837">
        <ele>56</ele>
        <time>2021-02-14T13:54:44.000Z</time>
      </trkpt>
      <trkpt lat="47.09948" lon="-1.60822">
        <ele>56</ele>
        <time>2021-02-14T13:54:46.000Z</time>
      </trkpt>
      <trkpt lat="47.09952" lon="-1.60807">
        <ele>56</ele>
        <time>2021-02-14T13:54:48.000Z</time>
      </trkpt>
      <trkpt lat="47.09957" lon="-1.60792">
        <ele>55</ele>
        <time>2021-02-14T13:54:50.000Z</time>
      </trkpt>
      <trkpt lat="47.09962" lon="-1.60777">
        <ele>55</ele>
        <time>2021-02-14T13:54:52.000Z</time>
      </trkpt>
      <trkpt lat="47.09967" lon="-1.60762">
        <ele>56</ele>
        <time>2021-02-14T13:54:54.000Z</time>
      </trkpt>
      <trkpt lat="47.09972" lon="-1.60746">
        <ele>56</ele>
        <time>2021-02-14T13:54:56.000Z</time>
      </trkpt>
      <trkpt lat="47.09976" lon="-1.60731">
        <ele>56</ele>
        <time>2021-02-14T13:54:58.000Z</time>
      </trkpt>
      <trkpt lat="47.0998" lon="-1.60715">
        <ele>56</ele>
        <time>2021-02-14T13:55:00.000Z</time>
      </trkpt>
      <trkpt lat="47.09985" lon="-1.607">
        <ele>56</ele>
        <time>2021-02-14T13:55:02.000Z</time>
      </trkpt>
      <trkpt lat="47.0999" lon="-1.60685">
        <ele>56</ele>
        <time>2021-02-14T13:55:04.000Z</time>
      </trkpt>
      <trkpt lat="47.09994" lon="-1.6067">
        <ele>56</ele>
        <time>2021-02-14T13:55:06.000Z</time>
      </trkpt>
      <trkpt lat="47.09999" lon="-1.60654">
        <ele>57</ele>
        <time>2021-02-14T13:55:08.000Z</time>
      </trkpt>
      <trkpt lat="47.10003" lon="-1.60639">
        <ele>57</ele>
        <time>2021-02-14T13:55:10.000Z</time>
      </trkpt>
      <trkpt lat="47.10008" lon="-1.60623">
        <ele>57</ele>
        <time>2021-02-14T13:55:12.000Z</time>
      </trkpt>
      <trkpt lat="47.10012" lon="-1.60607">
        <ele>57</ele>
        <time>2021-02-14T13:55:14.000Z</time>
      </trkpt>
      <trkpt lat="47.10017" lon="-1.60591">
        <ele>56</ele>
        <time>2021-02-14T13:55:16.000Z</time>
      </trkpt>
      <trkpt lat="47.10022" lon="-1.60575">
        <ele>56</ele>
        <time>2021-02-14T13:55:18.000Z</time>
      </trkpt>
      <trkpt lat="47.10026" lon="-1.6056">
        <ele>56</ele>
        <time>2021-02-14T13:55:20.000Z</time>
      </trkpt>
      <trkpt lat="47.10031" lon="-1.60543">
        <ele>56</ele>
        <time>2021-02-14T13:55:22.000Z</time>
      </trkpt>
      <trkpt lat="47.10035" lon="-1.60528">
        <ele>56</ele>
        <time>2021-02-14T13:55:24.000Z</time>
      </trkpt>
      <trkpt lat="47.1004" lon="-1.60511">
        <ele>57</ele>
        <time>2021-02-14T13:55:26.000Z</time>
      </trkpt>
      <trkpt lat="47.10044" lon="-1.60495">
        <ele>57</ele>
        <time>2021-02-14T13:55:28.000Z</time>
      </trkpt>
      <trkpt lat="47.10048" lon="-1.60478">
        <ele>57</ele>
        <time>2021-02-14T13:55:30.000Z</time>
      </trkpt>
      <trkpt lat="47.10051" lon="-1.60462">
        <ele>57</ele>
        <time>2021-02-14T13:55:32.000Z</time>
      </trkpt>
      <trkpt lat="47.10054" lon="-1.60444">
        <ele>57</ele>
        <time>2021-02-14T13:55:34.000Z</time>
      </trkpt>
      <trkpt lat="47.10057" lon="-1.60427">
        <ele>57</ele>
        <time>2021-02-14T13:55:36.000Z</time>
      </trkpt>
      <trkpt lat="47.10059" lon="-1.6041">
        <ele>57</ele>
        <time>2021-02-14T13:55:38.000Z</time>
      </trkpt>
      <trkpt lat="47.10061" lon="-1.60394">
        <ele>57</ele>
        <time>2021-02-14T13:55:40.000Z</time>
      </trkpt>
      <trkpt lat="47.10063" lon="-1.60377">
        <ele>57</ele>
        <time>2021-02-14T13:55:42.000Z</time>
      </trkpt>
      <trkpt lat="47.10064" lon="-1.6036">
        <ele>57</ele>
        <time>2021-02-14T13:55:44.000Z</time>
      </trkpt>
      <trkpt lat="47.10066" lon="-1.60343">
        <ele>57</ele>
        <time>2021-02-14T13:55:46.000Z</time>
      </trkpt>
      <trkpt lat="47.10068" lon="-1.60326">
        <ele>57</ele>
        <time>2021-02-14T13:55:48.000Z</time>
      </trkpt>
      <trkpt lat="47.1007" lon="-1.60309">
        <ele>57</ele>
        <time>2021-02-14T13:55:50.000Z</time>
      </trkpt>
      <trkpt lat="47.10071" lon="-1.60293">
        <ele>57</ele>
        <time>2021-02-14T13:55:52.000Z</time>
      </trkpt>
      <trkpt lat="47.10073" lon="-1.60276">
        <ele>57</ele>
        <time>2021-02-14T13:55:54.000Z</time>
      </trkpt>
      <trkpt lat="47.10074" lon="-1.6026">
        <ele>57</ele>
        <time>2021-02-14T13:55:56.000Z</time>
      </trkpt>
      <trkpt lat="47.10075" lon="-1.60243">
        <ele>57</ele>
        <time>2021-02-14T13:55:58.000Z</time>
      </trkpt>
      <trkpt lat="47.10076" lon="-1.60226">
        <ele>57</ele>
        <time>2021-02-14T13:56:00.000Z</time>
      </trkpt>
      <trkpt lat="47.10077" lon="-1.60209">
        <ele>57</ele>
        <time>2021-02-14T13:56:02.000Z</time>
      </trkpt>
      <trkpt lat="47.10078" lon="-1.60192">
        <ele>57</ele>
        <time>2021-02-14T13:56:04.000Z</time>
      </trkpt>
      <trkpt lat="47.10078" lon="-1.60175">
        <ele>57</ele>
        <time>2021-02-14T13:56:06.000Z</time>
      </trkpt>
      <trkpt lat="47.10074" lon="-1.60159">
        <ele>57</ele>
        <time>2021-02-14T13:56:08.000Z</time>
      </trkpt>
      <trkpt lat="47.10067" lon="-1.60146">
        <ele>58</ele>
        <time>2021-02-14T13:56:10.000Z</time>
      </trkpt>
      <trkpt lat="47.10065" lon="-1.6013">
        <ele>57</ele>
        <time>2021-02-14T13:56:12.000Z</time>
      </trkpt>
      <trkpt lat="47.1007" lon="-1.60113">
        <ele>57</ele>
        <time>2021-02-14T13:56:14.000Z</time>
      </trkpt>
      <trkpt lat="47.1008" lon="-1.60102">
        <ele>57</ele>
        <time>2021-02-14T13:56:16.000Z</time>
      </trkpt>
      <trkpt lat="47.10092" lon="-1.60097">
        <ele>57</ele>
        <time>2021-02-14T13:56:18.000Z</time>
      </trkpt>
      <trkpt lat="47.10102" lon="-1.60091">
        <ele>56</ele>
        <time>2021-02-14T13:56:20.000Z</time>
      </trkpt>
      <trkpt lat="47.10111" lon="-1.60079">
        <ele>56</ele>
        <time>2021-02-14T13:56:22.000Z</time>
      </trkpt>
      <trkpt lat="47.10119" lon="-1.60066">
        <ele>56</ele>
        <time>2021-02-14T13:56:24.000Z</time>
      </trkpt>
      <trkpt lat="47.10128" lon="-1.60054">
        <ele>56</ele>
        <time>2021-02-14T13:56:26.000Z</time>
      </trkpt>
      <trkpt lat="47.10137" lon="-1.60043">
        <ele>56</ele>
        <time>2021-02-14T13:56:28.000Z</time>
      </trkpt>
      <trkpt lat="47.10145" lon="-1.60031">
        <ele>56</ele>
        <time>2021-02-14T13:56:30.000Z</time>
      </trkpt>
      <trkpt lat="47.10154" lon="-1.60017">
        <ele>56</ele>
        <time>2021-02-14T13:56:32.000Z</time>
      </trkpt>
      <trkpt lat="47.10162" lon="-1.60004">
        <ele>55</ele>
        <time>2021-02-14T13:56:34.000Z</time>
      </trkpt>
      <trkpt lat="47.1017" lon="-1.5999">
        <ele>56</ele>
        <time>2021-02-14T13:56:36.000Z</time>
      </trkpt>
      <trkpt lat="47.10178" lon="-1.59976">
        <ele>56</ele>
        <time>2021-02-14T13:56:38.000Z</time>
      </trkpt>
      <trkpt lat="47.10185" lon="-1.59962">
        <ele>56</ele>
        <time>2021-02-14T13:56:40.000Z</time>
      </trkpt>
      <trkpt lat="47.10193" lon="-1.59949">
        <ele>57</ele>
        <time>2021-02-14T13:56:42.000Z</time>
      </trkpt>
      <trkpt lat="47.10202" lon="-1.59935">
        <ele>57</ele>
        <time>2021-02-14T13:56:44.000Z</time>
      </trkpt>
      <trkpt lat="47.1021" lon="-1.59921">
        <ele>57</ele>
        <time>2021-02-14T13:56:46.000Z</time>
      </trkpt>
      <trkpt lat="47.10219" lon="-1.59907">
        <ele>57</ele>
        <time>2021-02-14T13:56:48.000Z</time>
      </trkpt>
      <trkpt lat="47.10227" lon="-1.59894">
        <ele>57</ele>
        <time>2021-02-14T13:56:50.000Z</time>
      </trkpt>
      <trkpt lat="47.10235" lon="-1.5988">
        <ele>58</ele>
        <time>2021-02-14T13:56:52.000Z</time>
      </trkpt>
      <trkpt lat="47.10243" lon="-1.59866">
        <ele>58</ele>
        <time>2021-02-14T13:56:54.000Z</time>
      </trkpt>
      <trkpt lat="47.10251" lon="-1.59853">
        <ele>58</ele>
        <time>2021-02-14T13:56:56.000Z</time>
      </trkpt>
      <trkpt lat="47.10259" lon="-1.5984">
        <ele>58</ele>
        <time>2021-02-14T13:56:58.000Z</time>
      </trkpt>
      <trkpt lat="47.10267" lon="-1.59826">
        <ele>58</ele>
        <time>2021-02-14T13:57:00.000Z</time>
      </trkpt>
      <trkpt lat="47.10275" lon="-1.59813">
        <ele>57</ele>
        <time>2021-02-14T13:57:02.000Z</time>
      </trkpt>
      <trkpt lat="47.10283" lon="-1.598">
        <ele>57</ele>
        <time>2021-02-14T13:57:04.000Z</time>
      </trkpt>
      <trkpt lat="47.10291" lon="-1.59787">
        <ele>57</ele>
        <time>2021-02-14T13:57:06.000Z</time>
      </trkpt>
      <trkpt lat="47.10299" lon="-1.59774">
        <ele>57</ele>
        <time>2021-02-14T13:57:08.000Z</time>
      </trkpt>
      <trkpt lat="47.10307" lon="-1.5976">
        <ele>58</ele>
        <time>2021-02-14T13:57:10.000Z</time>
      </trkpt>
      <trkpt lat="47.10315" lon="-1.59746">
        <ele>59</ele>
        <time>2021-02-14T13:57:12.000Z</time>
      </trkpt>
      <trkpt lat="47.10323" lon="-1.59733">
        <ele>59</ele>
        <time>2021-02-14T13:57:14.000Z</time>
      </trkpt>
      <trkpt lat="47.10331" lon="-1.59719">
        <ele>59</ele>
        <time>2021-02-14T13:57:16.000Z</time>
      </trkpt>
      <trkpt lat="47.10339" lon="-1.59706">
        <ele>60</ele>
        <time>2021-02-14T13:57:18.000Z</time>
      </trkpt>
      <trkpt lat="47.10347" lon="-1.59692">
        <ele>60</ele>
        <time>2021-02-14T13:57:20.000Z</time>
      </trkpt>
      <trkpt lat="47.10355" lon="-1.59678">
        <ele>60</ele>
        <time>2021-02-14T13:57:22.000Z</time>
      </trkpt>
      <trkpt lat="47.10363" lon="-1.59665">
        <ele>60</ele>
        <time>2021-02-14T13:57:24.000Z</time>
      </trkpt>
      <trkpt lat="47.10371" lon="-1.59652">
        <ele>61</ele>
        <time>2021-02-14T13:57:26.000Z</time>
      </trkpt>
      <trkpt lat="47.10378" lon="-1.59639">
        <ele>61</ele>
        <time>2021-02-14T13:57:28.000Z</time>
      </trkpt>
      <trkpt lat="47.10386" lon="-1.59626">
        <ele>61</ele>
        <time>2021-02-14T13:57:30.000Z</time>
      </trkpt>
      <trkpt lat="47.10393" lon="-1.59613">
        <ele>60</ele>
        <time>2021-02-14T13:57:32.000Z</time>
      </trkpt>
      <trkpt lat="47.104" lon="-1.596">
        <ele>61</ele>
        <time>2021-02-14T13:57:34.000Z</time>
      </trkpt>
      <trkpt lat="47.10408" lon="-1.59588">
        <ele>61</ele>
        <time>2021-02-14T13:57:36.000Z</time>
      </trkpt>
      <trkpt lat="47.10416" lon="-1.59576">
        <ele>61</ele>
        <time>2021-02-14T13:57:38.000Z</time>
      </trkpt>
      <trkpt lat="47.10424" lon="-1.59562">
        <ele>60</ele>
        <time>2021-02-14T13:57:40.000Z</time>
      </trkpt>
      <trkpt lat="47.10433" lon="-1.5955">
        <ele>60</ele>
        <time>2021-02-14T13:57:42.000Z</time>
      </trkpt>
      <trkpt lat="47.10441" lon="-1.59537">
        <ele>60</ele>
        <time>2021-02-14T13:57:44.000Z</time>
      </trkpt>
      <trkpt lat="47.10449" lon="-1.59524">
        <ele>60</ele>
        <time>2021-02-14T13:57:46.000Z</time>
      </trkpt>
      <trkpt lat="47.10457" lon="-1.59511">
        <ele>59</ele>
        <time>2021-02-14T13:57:48.000Z</time>
      </trkpt>
      <trkpt lat="47.10465" lon="-1.59499">
        <ele>59</ele>
        <time>2021-02-14T13:57:50.000Z</time>
      </trkpt>
      <trkpt lat="47.10472" lon="-1.59486">
        <ele>59</ele>
        <time>2021-02-14T13:57:52.000Z</time>
      </trkpt>
      <trkpt lat="47.10479" lon="-1.59472">
        <ele>59</ele>
        <time>2021-02-14T13:57:54.000Z</time>
      </trkpt>
      <trkpt lat="47.10487" lon="-1.59459">
        <ele>59</ele>
        <time>2021-02-14T13:57:56.000Z</time>
      </trkpt>
      <trkpt lat="47.10494" lon="-1.59447">
        <ele>59</ele>
        <time>2021-02-14T13:57:58.000Z</time>
      </trkpt>
      <trkpt lat="47.10502" lon="-1.59434">
        <ele>58</ele>
        <time>2021-02-14T13:58:00.000Z</time>
      </trkpt>
      <trkpt lat="47.1051" lon="-1.59422">
        <ele>58</ele>
        <time>2021-02-14T13:58:02.000Z</time>
      </trkpt>
      <trkpt lat="47.10518" lon="-1.59409">
        <ele>57</ele>
        <time>2021-02-14T13:58:04.000Z</time>
      </trkpt>
      <trkpt lat="47.10525" lon="-1.59397">
        <ele>58</ele>
        <time>2021-02-14T13:58:06.000Z</time>
      </trkpt>
      <trkpt lat="47.10533" lon="-1.59384">
        <ele>58</ele>
        <time>2021-02-14T13:58:08.000Z</time>
      </trkpt>
      <trkpt lat="47.1054" lon="-1.59371">
        <ele>58</ele>
        <time>2021-02-14T13:58:10.000Z</time>
      </trkpt>
      <trkpt lat="47.10547" lon="-1.59358">
        <ele>58</ele>
        <time>2021-02-14T13:58:12.000Z</time>
      </trkpt>
      <trkpt lat="47.10555" lon="-1.59346">
        <ele>59</ele>
        <time>2021-02-14T13:58:14.000Z</time>
      </trkpt>
      <trkpt lat="47.10562" lon="-1.59333">
        <ele>59</ele>
        <time>2021-02-14T13:58:16.000Z</time>
      </trkpt>
      <trkpt lat="47.10569" lon="-1.59321">
        <ele>60</ele>
        <time>2021-02-14T13:58:18.000Z</time>
      </trkpt>
      <trkpt lat="47.10576" lon="-1.59307">
        <ele>59</ele>
        <time>2021-02-14T13:58:20.000Z</time>
      </trkpt>
      <trkpt lat="47.10583" lon="-1.59294">
        <ele>59</ele>
        <time>2021-02-14T13:58:22.000Z</time>
      </trkpt>
      <trkpt lat="47.10591" lon="-1.59281">
        <ele>60</ele>
        <time>2021-02-14T13:58:24.000Z</time>
      </trkpt>
      <trkpt lat="47.10597" lon="-1.59268">
        <ele>60</ele>
        <time>2021-02-14T13:58:26.000Z</time>
      </trkpt>
      <trkpt lat="47.10604" lon="-1.59254">
        <ele>60</ele>
        <time>2021-02-14T13:58:28.000Z</time>
      </trkpt>
      <trkpt lat="47.10611" lon="-1.5924">
        <ele>60</ele>
        <time>2021-02-14T13:58:30.000Z</time>
      </trkpt>
      <trkpt lat="47.10619" lon="-1.59227">
        <ele>60</ele>
        <time>2021-02-14T13:58:32.000Z</time>
      </trkpt>
      <trkpt lat="47.10627" lon="-1.59215">
        <ele>60</ele>
        <time>2021-02-14T13:58:34.000Z</time>
      </trkpt>
      <trkpt lat="47.10634" lon="-1.59201">
        <ele>60</ele>
        <time>2021-02-14T13:58:36.000Z</time>
      </trkpt>
      <trkpt lat="47.10641" lon="-1.59188">
        <ele>60</ele>
        <time>2021-02-14T13:58:38.000Z</time>
      </trkpt>
      <trkpt lat="47.10648" lon="-1.59174">
        <ele>61</ele>
        <time>2021-02-14T13:58:40.000Z</time>
      </trkpt>
      <trkpt lat="47.10654" lon="-1.59159">
        <ele>61</ele>
        <time>2021-02-14T13:58:42.000Z</time>
      </trkpt>
      <trkpt lat="47.1066" lon="-1.59144">
        <ele>61</ele>
        <time>2021-02-14T13:58:44.000Z</time>
      </trkpt>
      <trkpt lat="47.10666" lon="-1.59129">
        <ele>62</ele>
        <time>2021-02-14T13:58:46.000Z</time>
      </trkpt>
      <trkpt lat="47.10671" lon="-1.59115">
        <ele>62</ele>
        <time>2021-02-14T13:58:48.000Z</time>
      </trkpt>
      <trkpt lat="47.10676" lon="-1.591">
        <ele>63</ele>
        <time>2021-02-14T13:58:50.000Z</time>
      </trkpt>
      <trkpt lat="47.10681" lon="-1.59085">
        <ele>63</ele>
        <time>2021-02-14T13:58:52.000Z</time>
      </trkpt>
      <trkpt lat="47.10686" lon="-1.59071">
        <ele>64</ele>
        <time>2021-02-14T13:58:54.000Z</time>
      </trkpt>
      <trkpt lat="47.10691" lon="-1.59057">
        <ele>64</ele>
        <time>2021-02-14T13:58:56.000Z</time>
      </trkpt>
      <trkpt lat="47.10696" lon="-1.59042">
        <ele>64</ele>
        <time>2021-02-14T13:58:58.000Z</time>
      </trkpt>
      <trkpt lat="47.10702" lon="-1.59028">
        <ele>64</ele>
        <time>2021-02-14T13:59:00.000Z</time>
      </trkpt>
      <trkpt lat="47.10707" lon="-1.59014">
        <ele>64</ele>
        <time>2021-02-14T13:59:02.000Z</time>
      </trkpt>
      <trkpt lat="47.10713" lon="-1.59">
        <ele>64</ele>
        <time>2021-02-14T13:59:04.000Z</time>
      </trkpt>
      <trkpt lat="47.10719" lon="-1.58985">
        <ele>64</ele>
        <time>2021-02-14T13:59:06.000Z</time>
      </trkpt>
      <trkpt lat="47.10725" lon="-1.58971">
        <ele>63</ele>
        <time>2021-02-14T13:59:08.000Z</time>
      </trkpt>
      <trkpt lat="47.1073" lon="-1.58957">
        <ele>64</ele>
        <time>2021-02-14T13:59:10.000Z</time>
      </trkpt>
      <trkpt lat="47.10734" lon="-1.58943">
        <ele>64</ele>
        <time>2021-02-14T13:59:12.000Z</time>
      </trkpt>
      <trkpt lat="47.1074" lon="-1.58929">
        <ele>64</ele>
        <time>2021-02-14T13:59:14.000Z</time>
      </trkpt>
      <trkpt lat="47.10746" lon="-1.58915">
        <ele>64</ele>
        <time>2021-02-14T13:59:16.000Z</time>
      </trkpt>
      <trkpt lat="47.10754" lon="-1.58902">
        <ele>64</ele>
        <time>2021-02-14T13:59:18.000Z</time>
      </trkpt>
      <trkpt lat="47.10762" lon="-1.58889">
        <ele>64</ele>
        <time>2021-02-14T13:59:20.000Z</time>
      </trkpt>
      <trkpt lat="47.10771" lon="-1.58878">
        <ele>64</ele>
        <time>2021-02-14T13:59:22.000Z</time>
      </trkpt>
      <trkpt lat="47.10779" lon="-1.58865">
        <ele>64</ele>
        <time>2021-02-14T13:59:24.000Z</time>
      </trkpt>
      <trkpt lat="47.10787" lon="-1.58852">
        <ele>64</ele>
        <time>2021-02-14T13:59:26.000Z</time>
      </trkpt>
      <trkpt lat="47.10794" lon="-1.58839">
        <ele>64</ele>
        <time>2021-02-14T13:59:28.000Z</time>
      </trkpt>
      <trkpt lat="47.10802" lon="-1.58826">
        <ele>64</ele>
        <time>2021-02-14T13:59:30.000Z</time>
      </trkpt>
      <trkpt lat="47.10811" lon="-1.58813">
        <ele>63</ele>
        <time>2021-02-14T13:59:32.000Z</time>
      </trkpt>
      <trkpt lat="47.1082" lon="-1.58799">
        <ele>63</ele>
        <time>2021-02-14T13:59:34.000Z</time>
      </trkpt>
      <trkpt lat="47.10829" lon="-1.58785">
        <ele>63</ele>
        <time>2021-02-14T13:59:36.000Z</time>
      </trkpt>
      <trkpt lat="47.10838" lon="-1.58771">
        <ele>62</ele>
        <time>2021-02-14T13:59:38.000Z</time>
      </trkpt>
      <trkpt lat="47.10848" lon="-1.58757">
        <ele>62</ele>
        <time>2021-02-14T13:59:40.000Z</time>
      </trkpt>
      <trkpt lat="47.10857" lon="-1.58743">
        <ele>62</ele>
        <time>2021-02-14T13:59:42.000Z</time>
      </trkpt>
      <trkpt lat="47.10866" lon="-1.5873">
        <ele>62</ele>
        <time>2021-02-14T13:59:44.000Z</time>
      </trkpt>
      <trkpt lat="47.10875" lon="-1.58716">
        <ele>61</ele>
        <time>2021-02-14T13:59:46.000Z</time>
      </trkpt>
      <trkpt lat="47.10885" lon="-1.58702">
        <ele>61</ele>
        <time>2021-02-14T13:59:48.000Z</time>
      </trkpt>
      <trkpt lat="47.10893" lon="-1.58687">
        <ele>61</ele>
        <time>2021-02-14T13:59:50.000Z</time>
      </trkpt>
      <trkpt lat="47.10903" lon="-1.58673">
        <ele>61</ele>
        <time>2021-02-14T13:59:52.000Z</time>
      </trkpt>
      <trkpt lat="47.10914" lon="-1.58659">
        <ele>60</ele>
        <time>2021-02-14T13:59:54.000Z</time>
      </trkpt>
      <trkpt lat="47.10925" lon="-1.58644">
        <ele>59</ele>
        <time>2021-02-14T13:59:56.000Z</time>
      </trkpt>
      <trkpt lat="47.10935" lon="-1.58628">
        <ele>59</ele>
        <time>2021-02-14T13:59:58.000Z</time>
      </trkpt>
      <trkpt lat="47.10945" lon="-1.58612">
        <ele>58</ele>
        <time>2021-02-14T14:00:00.000Z</time>
      </trkpt>
      <trkpt lat="47.10956" lon="-1.58597">
        <ele>58</ele>
        <time>2021-02-14T14:00:02.000Z</time>
      </trkpt>
      <trkpt lat="47.10967" lon="-1.5858">
        <ele>58</ele>
        <time>2021-02-14T14:00:04.000Z</time>
      </trkpt>
      <trkpt lat="47.10978" lon="-1.58564">
        <ele>58</ele>
        <time>2021-02-14T14:00:06.000Z</time>
      </trkpt>
      <trkpt lat="47.10988" lon="-1.58547">
        <ele>58</ele>
        <time>2021-02-14T14:00:08.000Z</time>
      </trkpt>
      <trkpt lat="47.10999" lon="-1.58532">
        <ele>58</ele>
        <time>2021-02-14T14:00:10.000Z</time>
      </trkpt>
      <trkpt lat="47.11009" lon="-1.58516">
        <ele>57</ele>
        <time>2021-02-14T14:00:12.000Z</time>
      </trkpt>
      <trkpt lat="47.1102" lon="-1.58501">
        <ele>57</ele>
        <time>2021-02-14T14:00:14.000Z</time>
      </trkpt>
      <trkpt lat="47.1103" lon="-1.58485">
        <ele>57</ele>
        <time>2021-02-14T14:00:16.000Z</time>
      </trkpt>
      <trkpt lat="47.1104" lon="-1.58469">
        <ele>57</ele>
        <time>2021-02-14T14:00:18.000Z</time>
      </trkpt>
      <trkpt lat="47.1105" lon="-1.58453">
        <ele>57</ele>
        <time>2021-02-14T14:00:20.000Z</time>
      </trkpt>
      <trkpt lat="47.1106" lon="-1.58437">
        <ele>57</ele>
        <time>2021-02-14T14:00:22.000Z</time>
      </trkpt>
      <trkpt lat="47.1107" lon="-1.58421">
        <ele>57</ele>
        <time>2021-02-14T14:00:24.000Z</time>
      </trkpt>
      <trkpt lat="47.1108" lon="-1.58406">
        <ele>57</ele>
        <time>2021-02-14T14:00:26.000Z</time>
      </trkpt>
      <trkpt lat="47.1109" lon="-1.58391">
        <ele>57</ele>
        <time>2021-02-14T14:00:28.000Z</time>
      </trkpt>
      <trkpt lat="47.11101" lon="-1.58376">
        <ele>57</ele>
        <time>2021-02-14T14:00:30.000Z</time>
      </trkpt>
      <trkpt lat="47.11111" lon="-1.58361">
        <ele>57</ele>
        <time>2021-02-14T14:00:32.000Z</time>
      </trkpt>
      <trkpt lat="47.1112" lon="-1.58346">
        <ele>57</ele>
        <time>2021-02-14T14:00:34.000Z</time>
      </trkpt>
      <trkpt lat="47.1113" lon="-1.58331">
        <ele>57</ele>
        <time>2021-02-14T14:00:36.000Z</time>
      </trkpt>
      <trkpt lat="47.1114" lon="-1.58316">
        <ele>56</ele>
        <time>2021-02-14T14:00:38.000Z</time>
      </trkpt>
      <trkpt lat="47.1115" lon="-1.58302">
        <ele>56</ele>
        <time>2021-02-14T14:00:40.000Z</time>
      </trkpt>
      <trkpt lat="47.11159" lon="-1.58287">
        <ele>56</ele>
        <time>2021-02-14T14:00:42.000Z</time>
      </trkpt>
      <trkpt lat="47.11168" lon="-1.58272">
        <ele>56</ele>
        <time>2021-02-14T14:00:44.000Z</time>
      </trkpt>
      <trkpt lat="47.11178" lon="-1.58257">
        <ele>55</ele>
        <time>2021-02-14T14:00:46.000Z</time>
      </trkpt>
      <trkpt lat="47.11188" lon="-1.58243">
        <ele>55</ele>
        <time>2021-02-14T14:00:48.000Z</time>
      </trkpt>
      <trkpt lat="47.11198" lon="-1.58228">
        <ele>55</ele>
        <time>2021-02-14T14:00:50.000Z</time>
      </trkpt>
      <trkpt lat="47.11209" lon="-1.58214">
        <ele>55</ele>
        <time>2021-02-14T14:00:52.000Z</time>
      </trkpt>
      <trkpt lat="47.1122" lon="-1.582">
        <ele>55</ele>
        <time>2021-02-14T14:00:54.000Z</time>
      </trkpt>
      <trkpt lat="47.1123" lon="-1.58187">
        <ele>55</ele>
        <time>2021-02-14T14:00:56.000Z</time>
      </trkpt>
      <trkpt lat="47.11242" lon="-1.58175">
        <ele>55</ele>
        <time>2021-02-14T14:00:58.000Z</time>
      </trkpt>
      <trkpt lat="47.11253" lon="-1.58163">
        <ele>54</ele>
        <time>2021-02-14T14:01:00.000Z</time>
      </trkpt>
      <trkpt lat="47.11264" lon="-1.58151">
        <ele>54</ele>
        <time>2021-02-14T14:01:02.000Z</time>
      </trkpt>
      <trkpt lat="47.11276" lon="-1.58141">
        <ele>54</ele>
        <time>2021-02-14T14:01:04.000Z</time>
      </trkpt>
      <trkpt lat="47.11289" lon="-1.58131">
        <ele>54</ele>
        <time>2021-02-14T14:01:06.000Z</time>
      </trkpt>
      <trkpt lat="47.11301" lon="-1.58121">
        <ele>54</ele>
        <time>2021-02-14T14:01:08.000Z</time>
      </trkpt>
      <trkpt lat="47.11313" lon="-1.58113">
        <ele>54</ele>
        <time>2021-02-14T14:01:10.000Z</time>
      </trkpt>
      <trkpt lat="47.11326" lon="-1.58105">
        <ele>55</ele>
        <time>2021-02-14T14:01:12.000Z</time>
      </trkpt>
      <trkpt lat="47.11339" lon="-1.58097">
        <ele>55</ele>
        <time>2021-02-14T14:01:14.000Z</time>
      </trkpt>
      <trkpt lat="47.11351" lon="-1.58089">
        <ele>54</ele>
        <time>2021-02-14T14:01:16.000Z</time>
      </trkpt>
      <trkpt lat="47.11364" lon="-1.58081">
        <ele>54</ele>
        <time>2021-02-14T14:01:18.000Z</time>
      </trkpt>
      <trkpt lat="47.11376" lon="-1.58073">
        <ele>54</ele>
        <time>2021-02-14T14:01:20.000Z</time>
      </trkpt>
      <trkpt lat="47.11389" lon="-1.58064">
        <ele>54</ele>
        <time>2021-02-14T14:01:22.000Z</time>
      </trkpt>
      <trkpt lat="47.11402" lon="-1.58056">
        <ele>54</ele>
        <time>2021-02-14T14:01:24.000Z</time>
      </trkpt>
      <trkpt lat="47.11414" lon="-1.5805">
        <ele>54</ele>
        <time>2021-02-14T14:01:26.000Z</time>
      </trkpt>
      <trkpt lat="47.11427" lon="-1.58043">
        <ele>54</ele>
        <time>2021-02-14T14:01:28.000Z</time>
      </trkpt>
      <trkpt lat="47.11438" lon="-1.58037">
        <ele>54</ele>
        <time>2021-02-14T14:01:30.000Z</time>
      </trkpt>
      <trkpt lat="47.11451" lon="-1.58031">
        <ele>54</ele>
        <time>2021-02-14T14:01:32.000Z</time>
      </trkpt>
      <trkpt lat="47.11463" lon="-1.58026">
        <ele>54</ele>
        <time>2021-02-14T14:01:34.000Z</time>
      </trkpt>
      <trkpt lat="47.11476" lon="-1.58022">
        <ele>55</ele>
        <time>2021-02-14T14:01:36.000Z</time>
      </trkpt>
      <trkpt lat="47.11489" lon="-1.58019">
        <ele>55</ele>
        <time>2021-02-14T14:01:38.000Z</time>
      </trkpt>
      <trkpt lat="47.11502" lon="-1.58018">
        <ele>55</ele>
        <time>2021-02-14T14:01:40.000Z</time>
      </trkpt>
      <trkpt lat="47.11515" lon="-1.58016">
        <ele>55</ele>
        <time>2021-02-14T14:01:42.000Z</time>
      </trkpt>
      <trkpt lat="47.11529" lon="-1.58016">
        <ele>54</ele>
        <time>2021-02-14T14:01:44.000Z</time>
      </trkpt>
      <trkpt lat="47.11542" lon="-1.58016">
        <ele>54</ele>
        <time>2021-02-14T14:01:46.000Z</time>
      </trkpt>
      <trkpt lat="47.11555" lon="-1.58017">
        <ele>54</ele>
        <time>2021-02-14T14:01:48.000Z</time>
      </trkpt>
      <trkpt lat="47.11569" lon="-1.58019">
        <ele>54</ele>
        <time>2021-02-14T14:01:50.000Z</time>
      </trkpt>
      <trkpt lat="47.11583" lon="-1.5802">
        <ele>53</ele>
        <time>2021-02-14T14:01:52.000Z</time>
      </trkpt>
      <trkpt lat="47.11596" lon="-1.58021">
        <ele>53</ele>
        <time>2021-02-14T14:01:54.000Z</time>
      </trkpt>
      <trkpt lat="47.11609" lon="-1.58024">
        <ele>53</ele>
        <time>2021-02-14T14:01:56.000Z</time>
      </trkpt>
      <trkpt lat="47.11622" lon="-1.58026">
        <ele>53</ele>
        <time>2021-02-14T14:01:58.000Z</time>
      </trkpt>
      <trkpt lat="47.11634" lon="-1.58023">
        <ele>53</ele>
        <time>2021-02-14T14:02:00.000Z</time>
      </trkpt>
      <trkpt lat="47.11646" lon="-1.58024">
        <ele>53</ele>
        <time>2021-02-14T14:02:02.000Z</time>
      </trkpt>
      <trkpt lat="47.11659" lon="-1.58026">
        <ele>54</ele>
        <time>2021-02-14T14:02:04.000Z</time>
      </trkpt>
      <trkpt lat="47.11673" lon="-1.58028">
        <ele>54</ele>
        <time>2021-02-14T14:02:06.000Z</time>
      </trkpt>
      <trkpt lat="47.11686" lon="-1.58028">
        <ele>54</ele>
        <time>2021-02-14T14:02:08.000Z</time>
      </trkpt>
      <trkpt lat="47.11699" lon="-1.58029">
        <ele>54</ele>
        <time>2021-02-14T14:02:10.000Z</time>
      </trkpt>
      <trkpt lat="47.11712" lon="-1.58031">
        <ele>54</ele>
        <time>2021-02-14T14:02:12.000Z</time>
      </trkpt>
      <trkpt lat="47.11725" lon="-1.58032">
        <ele>54</ele>
        <time>2021-02-14T14:02:14.000Z</time>
      </trkpt>
      <trkpt lat="47.11738" lon="-1.58034">
        <ele>54</ele>
        <time>2021-02-14T14:02:16.000Z</time>
      </trkpt>
      <trkpt lat="47.11751" lon="-1.58036">
        <ele>54</ele>
        <time>2021-02-14T14:02:18.000Z</time>
      </trkpt>
      <trkpt lat="47.11764" lon="-1.58038">
        <ele>54</ele>
        <time>2021-02-14T14:02:20.000Z</time>
      </trkpt>
      <trkpt lat="47.11777" lon="-1.5804">
        <ele>55</ele>
        <time>2021-02-14T14:02:22.000Z</time>
      </trkpt>
      <trkpt lat="47.1179" lon="-1.58043">
        <ele>55</ele>
        <time>2021-02-14T14:02:24.000Z</time>
      </trkpt>
      <trkpt lat="47.11803" lon="-1.58046">
        <ele>55</ele>
        <time>2021-02-14T14:02:26.000Z</time>
      </trkpt>
      <trkpt lat="47.11816" lon="-1.5805">
        <ele>55</ele>
        <time>2021-02-14T14:02:28.000Z</time>
      </trkpt>
      <trkpt lat="47.1183" lon="-1.58053">
        <ele>55</ele>
        <time>2021-02-14T14:02:30.000Z</time>
      </trkpt>
      <trkpt lat="47.11843" lon="-1.58057">
        <ele>55</ele>
        <time>2021-02-14T14:02:32.000Z</time>
      </trkpt>
      <trkpt lat="47.11857" lon="-1.5806">
        <ele>56</ele>
        <time>2021-02-14T14:02:34.000Z</time>
      </trkpt>
      <trkpt lat="47.11871" lon="-1.58063">
        <ele>56</ele>
        <time>2021-02-14T14:02:36.000Z</time>
      </trkpt>
      <trkpt lat="47.11884" lon="-1.58067">
        <ele>57</ele>
        <time>2021-02-14T14:02:38.000Z</time>
      </trkpt>
      <trkpt lat="47.11897" lon="-1.5807">
        <ele>57</ele>
        <time>2021-02-14T14:02:40.000Z</time>
      </trkpt>
      <trkpt lat="47.1191" lon="-1.58074">
        <ele>57</ele>
        <time>2021-02-14T14:02:42.000Z</time>
      </trkpt>
      <trkpt lat="47.11924" lon="-1.58077">
        <ele>58</ele>
        <time>2021-02-14T14:02:44.000Z</time>
      </trkpt>
      <trkpt lat="47.11938" lon="-1.58081">
        <ele>58</ele>
        <time>2021-02-14T14:02:46.000Z</time>
      </trkpt>
      <trkpt lat="47.11952" lon="-1.58084">
        <ele>58</ele>
        <time>2021-02-14T14:02:48.000Z</time>
      </trkpt>
      <trkpt lat="47.11966" lon="-1.58087">
        <ele>59</ele>
        <time>2021-02-14T14:02:50.000Z</time>
      </trkpt>
      <trkpt lat="47.11978" lon="-1.5809">
        <ele>59</ele>
        <time>2021-02-14T14:02:52.000Z</time>
      </trkpt>
      <trkpt lat="47.1199" lon="-1.58095">
        <ele>59</ele>
        <time>2021-02-14T14:02:54.000Z</time>
      </trkpt>
      <trkpt lat="47.12002" lon="-1.58098">
        <ele>59</ele>
        <time>2021-02-14T14:02:56.000Z</time>
      </trkpt>
      <trkpt lat="47.12013" lon="-1.58096">
        <ele>59</ele>
        <time>2021-02-14T14:02:58.000Z</time>
      </trkpt>
      <trkpt lat="47.12025" lon="-1.58101">
        <ele>59</ele>
        <time>2021-02-14T14:03:00.000Z</time>
      </trkpt>
      <trkpt lat="47.12036" lon="-1.58113">
        <ele>59</ele>
        <time>2021-02-14T14:03:02.000Z</time>
      </trkpt>
      <trkpt lat="47.12049" lon="-1.58122">
        <ele>58</ele>
        <time>2021-02-14T14:03:04.000Z</time>
      </trkpt>
      <trkpt lat="47.12061" lon="-1.5813">
        <ele>58</ele>
        <time>2021-02-14T14:03:06.000Z</time>
      </trkpt>
      <trkpt lat="47.12075" lon="-1.58138">
        <ele>58</ele>
        <time>2021-02-14T14:03:08.000Z</time>
      </trkpt>
      <trkpt lat="47.12088" lon="-1.58147">
        <ele>58</ele>
        <time>2021-02-14T14:03:10.000Z</time>
      </trkpt>
      <trkpt lat="47.12101" lon="-1.58156">
        <ele>57</ele>
        <time>2021-02-14T14:03:12.000Z</time>
      </trkpt>
      <trkpt lat="47.12116" lon="-1.58165">
        <ele>57</ele>
        <time>2021-02-14T14:03:14.000Z</time>
      </trkpt>
      <trkpt lat="47.12129" lon="-1.58177">
        <ele>57</ele>
        <time>2021-02-14T14:03:16.000Z</time>
      </trkpt>
      <trkpt lat="47.12142" lon="-1.5819">
        <ele>57</ele>
        <time>2021-02-14T14:03:18.000Z</time>
      </trkpt>
      <trkpt lat="47.12156" lon="-1.58203">
        <ele>57</ele>
        <time>2021-02-14T14:03:20.000Z</time>
      </trkpt>
      <trkpt lat="47.1217" lon="-1.58217">
        <ele>57</ele>
        <time>2021-02-14T14:03:22.000Z</time>
      </trkpt>
      <trkpt lat="47.12184" lon="-1.58229">
        <ele>56</ele>
        <time>2021-02-14T14:03:24.000Z</time>
      </trkpt>
      <trkpt lat="47.12197" lon="-1.58242">
        <ele>56</ele>
        <time>2021-02-14T14:03:26.000Z</time>
      </trkpt>
      <trkpt lat="47.1221" lon="-1.58254">
        <ele>56</ele>
        <time>2021-02-14T14:03:28.000Z</time>
      </trkpt>
      <trkpt lat="47.12223" lon="-1.58267">
        <ele>55</ele>
        <time>2021-02-14T14:03:30.000Z</time>
      </trkpt>
      <trkpt lat="47.12235" lon="-1.58278">
        <ele>54</ele>
        <time>2021-02-14T14:03:32.000Z</time>
      </trkpt>
      <trkpt lat="47.12246" lon="-1.58289">
        <ele>53</ele>
        <time>2021-02-14T14:03:34.000Z</time>
      </trkpt>
      <trkpt lat="47.12258" lon="-1.58301">
        <ele>53</ele>
        <time>2021-02-14T14:03:36.000Z</time>
      </trkpt>
      <trkpt lat="47.12269" lon="-1.58313">
        <ele>53</ele>
        <time>2021-02-14T14:03:38.000Z</time>
      </trkpt>
      <trkpt lat="47.12281" lon="-1.58325">
        <ele>53</ele>
        <time>2021-02-14T14:03:40.000Z</time>
      </trkpt>
      <trkpt lat="47.12292" lon="-1.58337">
        <ele>54</ele>
        <time>2021-02-14T14:03:42.000Z</time>
      </trkpt>
      <trkpt lat="47.123" lon="-1.5835">
        <ele>54</ele>
        <time>2021-02-14T14:03:44.000Z</time>
      </trkpt>
      <trkpt lat="47.12303" lon="-1.58367">
        <ele>54</ele>
        <time>2021-02-14T14:03:46.000Z</time>
      </trkpt>
      <trkpt lat="47.12305" lon="-1.58384">
        <ele>53</ele>
        <time>2021-02-14T14:03:48.000Z</time>
      </trkpt>
      <trkpt lat="47.12309" lon="-1.58398">
        <ele>54</ele>
        <time>2021-02-14T14:03:50.000Z</time>
      </trkpt>
      <trkpt lat="47.12314" lon="-1.58413">
        <ele>54</ele>
        <time>2021-02-14T14:03:52.000Z</time>
      </trkpt>
      <trkpt lat="47.1232" lon="-1.58426">
        <ele>55</ele>
        <time>2021-02-14T14:03:54.000Z</time>
      </trkpt>
      <trkpt lat="47.1233" lon="-1.58436">
        <ele>55</ele>
        <time>2021-02-14T14:03:56.000Z</time>
      </trkpt>
      <trkpt lat="47.12333" lon="-1.58453">
        <ele>55</ele>
        <time>2021-02-14T14:03:58.000Z</time>
      </trkpt>
      <trkpt lat="47.12337" lon="-1.58471">
        <ele>55</ele>
        <time>2021-02-14T14:04:00.000Z</time>
      </trkpt>
      <trkpt lat="47.12341" lon="-1.58489">
        <ele>55</ele>
        <time>2021-02-14T14:04:02.000Z</time>
      </trkpt>
      <trkpt lat="47.12346" lon="-1.58507">
        <ele>55</ele>
        <time>2021-02-14T14:04:04.000Z</time>
      </trkpt>
      <trkpt lat="47.1235" lon="-1.58523">
        <ele>56</ele>
        <time>2021-02-14T14:04:06.000Z</time>
      </trkpt>
      <trkpt lat="47.12354" lon="-1.5854">
        <ele>56</ele>
        <time>2021-02-14T14:04:08.000Z</time>
      </trkpt>
      <trkpt lat="47.12357" lon="-1.58556">
        <ele>56</ele>
        <time>2021-02-14T14:04:10.000Z</time>
      </trkpt>
      <trkpt lat="47.12361" lon="-1.58571">
        <ele>56</ele>
        <time>2021-02-14T14:04:12.000Z</time>
      </trkpt>
      <trkpt lat="47.12366" lon="-1.5859">
        <ele>56</ele>
        <time>2021-02-14T14:04:14.000Z</time>
      </trkpt>
      <trkpt lat="47.1237" lon="-1.58609">
        <ele>56</ele>
        <time>2021-02-14T14:04:16.000Z</time>
      </trkpt>
      <trkpt lat="47.12374" lon="-1.58629">
        <ele>56</ele>
        <time>2021-02-14T14:04:18.000Z</time>
      </trkpt>
      <trkpt lat="47.12378" lon="-1.58649">
        <ele>56</ele>
        <time>2021-02-14T14:04:20.000Z</time>
      </trkpt>
      <trkpt lat="47.12382" lon="-1.58667">
        <ele>56</ele>
        <time>2021-02-14T14:04:22.000Z</time>
      </trkpt>
      <trkpt lat="47.12387" lon="-1.58686">
        <ele>57</ele>
        <time>2021-02-14T14:04:24.000Z</time>
      </trkpt>
      <trkpt lat="47.1239" lon="-1.58704">
        <ele>57</ele>
        <time>2021-02-14T14:04:26.000Z</time>
      </trkpt>
      <trkpt lat="47.12394" lon="-1.58722">
        <ele>57</ele>
        <time>2021-02-14T14:04:28.000Z</time>
      </trkpt>
      <trkpt lat="47.12399" lon="-1.5874">
        <ele>57</ele>
        <time>2021-02-14T14:04:30.000Z</time>
      </trkpt>
      <trkpt lat="47.12403" lon="-1.58758">
        <ele>57</ele>
        <time>2021-02-14T14:04:32.000Z</time>
      </trkpt>
      <trkpt lat="47.12406" lon="-1.58776">
        <ele>57</ele>
        <time>2021-02-14T14:04:34.000Z</time>
      </trkpt>
      <trkpt lat="47.12409" lon="-1.58795">
        <ele>57</ele>
        <time>2021-02-14T14:04:36.000Z</time>
      </trkpt>
      <trkpt lat="47.12411" lon="-1.58814">
        <ele>57</ele>
        <time>2021-02-14T14:04:38.000Z</time>
      </trkpt>
      <trkpt lat="47.12413" lon="-1.58832">
        <ele>57</ele>
        <time>2021-02-14T14:04:40.000Z</time>
      </trkpt>
      <trkpt lat="47.12414" lon="-1.5885">
        <ele>58</ele>
        <time>2021-02-14T14:04:42.000Z</time>
      </trkpt>
      <trkpt lat="47.12417" lon="-1.58868">
        <ele>58</ele>
        <time>2021-02-14T14:04:44.000Z</time>
      </trkpt>
      <trkpt lat="47.12419" lon="-1.58886">
        <ele>57</ele>
        <time>2021-02-14T14:04:46.000Z</time>
      </trkpt>
      <trkpt lat="47.12421" lon="-1.58905">
        <ele>57</ele>
        <time>2021-02-14T14:04:48.000Z</time>
      </trkpt>
      <trkpt lat="47.12422" lon="-1.58925">
        <ele>57</ele>
        <time>2021-02-14T14:04:50.000Z</time>
      </trkpt>
      <trkpt lat="47.12424" lon="-1.58945">
        <ele>56</ele>
        <time>2021-02-14T14:04:52.000Z</time>
      </trkpt>
      <trkpt lat="47.12425" lon="-1.58966">
        <ele>56</ele>
        <time>2021-02-14T14:04:54.000Z</time>
      </trkpt>
      <trkpt lat="47.12426" lon="-1.58989">
        <ele>55</ele>
        <time>2021-02-14T14:04:56.000Z</time>
      </trkpt>
      <trkpt lat="47.12427" lon="-1.5901">
        <ele>54</ele>
        <time>2021-02-14T14:04:58.000Z</time>
      </trkpt>
      <trkpt lat="47.12429" lon="-1.59033">
        <ele>53</ele>
        <time>2021-02-14T14:05:00.000Z</time>
      </trkpt>
      <trkpt lat="47.12429" lon="-1.59055">
        <ele>53</ele>
        <time>2021-02-14T14:05:02.000Z</time>
      </trkpt>
      <trkpt lat="47.12431" lon="-1.59077">
        <ele>53</ele>
        <time>2021-02-14T14:05:04.000Z</time>
      </trkpt>
      <trkpt lat="47.12432" lon="-1.59099">
        <ele>53</ele>
        <time>2021-02-14T14:05:06.000Z</time>
      </trkpt>
      <trkpt lat="47.12433" lon="-1.59119">
        <ele>53</ele>
        <time>2021-02-14T14:05:08.000Z</time>
      </trkpt>
      <trkpt lat="47.12433" lon="-1.5914">
        <ele>52</ele>
        <time>2021-02-14T14:05:10.000Z</time>
      </trkpt>
      <trkpt lat="47.12435" lon="-1.59159">
        <ele>52</ele>
        <time>2021-02-14T14:05:12.000Z</time>
      </trkpt>
      <trkpt lat="47.12439" lon="-1.59178">
        <ele>52</ele>
        <time>2021-02-14T14:05:14.000Z</time>
      </trkpt>
      <trkpt lat="47.12441" lon="-1.59196">
        <ele>53</ele>
        <time>2021-02-14T14:05:16.000Z</time>
      </trkpt>
      <trkpt lat="47.1244" lon="-1.59215">
        <ele>53</ele>
        <time>2021-02-14T14:05:18.000Z</time>
      </trkpt>
      <trkpt lat="47.12438" lon="-1.59236">
        <ele>53</ele>
        <time>2021-02-14T14:05:20.000Z</time>
      </trkpt>
      <trkpt lat="47.12438" lon="-1.59255">
        <ele>53</ele>
        <time>2021-02-14T14:05:22.000Z</time>
      </trkpt>
      <trkpt lat="47.12439" lon="-1.59274">
        <ele>52</ele>
        <time>2021-02-14T14:05:24.000Z</time>
      </trkpt>
      <trkpt lat="47.1244" lon="-1.59295">
        <ele>53</ele>
        <time>2021-02-14T14:05:26.000Z</time>
      </trkpt>
      <trkpt lat="47.1244" lon="-1.59315">
        <ele>53</ele>
        <time>2021-02-14T14:05:28.000Z</time>
      </trkpt>
      <trkpt lat="47.12441" lon="-1.59334">
        <ele>53</ele>
        <time>2021-02-14T14:05:30.000Z</time>
      </trkpt>
      <trkpt lat="47.12442" lon="-1.59354">
        <ele>54</ele>
        <time>2021-02-14T14:05:32.000Z</time>
      </trkpt>
      <trkpt lat="47.12444" lon="-1.59374">
        <ele>54</ele>
        <time>2021-02-14T14:05:34.000Z</time>
      </trkpt>
      <trkpt lat="47.12445" lon="-1.59394">
        <ele>54</ele>
        <time>2021-02-14T14:05:36.000Z</time>
      </trkpt>
      <trkpt lat="47.12445" lon="-1.59413">
        <ele>54</ele>
        <time>2021-02-14T14:05:38.000Z</time>
      </trkpt>
      <trkpt lat="47.12447" lon="-1.59433">
        <ele>54</ele>
        <time>2021-02-14T14:05:40.000Z</time>
      </trkpt>
      <trkpt lat="47.12448" lon="-1.59452">
        <ele>54</ele>
        <time>2021-02-14T14:05:42.000Z</time>
      </trkpt>
      <trkpt lat="47.12449" lon="-1.59472">
        <ele>54</ele>
        <time>2021-02-14T14:05:44.000Z</time>
      </trkpt>
      <trkpt lat="47.12451" lon="-1.5949">
        <ele>54</ele>
        <time>2021-02-14T14:05:46.000Z</time>
      </trkpt>
      <trkpt lat="47.12451" lon="-1.59509">
        <ele>55</ele>
        <time>2021-02-14T14:05:48.000Z</time>
      </trkpt>
      <trkpt lat="47.12452" lon="-1.59529">
        <ele>56</ele>
        <time>2021-02-14T14:05:50.000Z</time>
      </trkpt>
      <trkpt lat="47.12453" lon="-1.59549">
        <ele>56</ele>
        <time>2021-02-14T14:05:52.000Z</time>
      </trkpt>
      <trkpt lat="47.12454" lon="-1.59567">
        <ele>55</ele>
        <time>2021-02-14T14:05:54.000Z</time>
      </trkpt>
      <trkpt lat="47.12455" lon="-1.59588">
        <ele>55</ele>
        <time>2021-02-14T14:05:56.000Z</time>
      </trkpt>
      <trkpt lat="47.12455" lon="-1.59607">
        <ele>55</ele>
        <time>2021-02-14T14:05:58.000Z</time>
      </trkpt>
      <trkpt lat="47.12456" lon="-1.59627">
        <ele>56</ele>
        <time>2021-02-14T14:06:00.000Z</time>
      </trkpt>
      <trkpt lat="47.12457" lon="-1.59647">
        <ele>56</ele>
        <time>2021-02-14T14:06:02.000Z</time>
      </trkpt>
      <trkpt lat="47.12458" lon="-1.59666">
        <ele>56</ele>
        <time>2021-02-14T14:06:04.000Z</time>
      </trkpt>
      <trkpt lat="47.12459" lon="-1.59685">
        <ele>56</ele>
        <time>2021-02-14T14:06:06.000Z</time>
      </trkpt>
      <trkpt lat="47.1246" lon="-1.59705">
        <ele>56</ele>
        <time>2021-02-14T14:06:08.000Z</time>
      </trkpt>
      <trkpt lat="47.12461" lon="-1.59724">
        <ele>56</ele>
        <time>2021-02-14T14:06:10.000Z</time>
      </trkpt>
      <trkpt lat="47.12462" lon="-1.59743">
        <ele>56</ele>
        <time>2021-02-14T14:06:12.000Z</time>
      </trkpt>
      <trkpt lat="47.12463" lon="-1.59762">
        <ele>56</ele>
        <time>2021-02-14T14:06:14.000Z</time>
      </trkpt>
      <trkpt lat="47.12464" lon="-1.59781">
        <ele>56</ele>
        <time>2021-02-14T14:06:16.000Z</time>
      </trkpt>
      <trkpt lat="47.12466" lon="-1.59801">
        <ele>56</ele>
        <time>2021-02-14T14:06:18.000Z</time>
      </trkpt>
      <trkpt lat="47.12467" lon="-1.5982">
        <ele>56</ele>
        <time>2021-02-14T14:06:20.000Z</time>
      </trkpt>
      <trkpt lat="47.12468" lon="-1.59838">
        <ele>56</ele>
        <time>2021-02-14T14:06:22.000Z</time>
      </trkpt>
      <trkpt lat="47.12469" lon="-1.59857">
        <ele>56</ele>
        <time>2021-02-14T14:06:24.000Z</time>
      </trkpt>
      <trkpt lat="47.1247" lon="-1.59877">
        <ele>56</ele>
        <time>2021-02-14T14:06:26.000Z</time>
      </trkpt>
      <trkpt lat="47.1247" lon="-1.59896">
        <ele>56</ele>
        <time>2021-02-14T14:06:28.000Z</time>
      </trkpt>
      <trkpt lat="47.12472" lon="-1.59915">
        <ele>56</ele>
        <time>2021-02-14T14:06:30.000Z</time>
      </trkpt>
      <trkpt lat="47.12473" lon="-1.59934">
        <ele>56</ele>
        <time>2021-02-14T14:06:32.000Z</time>
      </trkpt>
      <trkpt lat="47.12474" lon="-1.59955">
        <ele>56</ele>
        <time>2021-02-14T14:06:34.000Z</time>
      </trkpt>
      <trkpt lat="47.12475" lon="-1.59976">
        <ele>55</ele>
        <time>2021-02-14T14:06:36.000Z</time>
      </trkpt>
      <trkpt lat="47.12475" lon="-1.59997">
        <ele>55</ele>
        <time>2021-02-14T14:06:38.000Z</time>
      </trkpt>
      <trkpt lat="47.12476" lon="-1.60018">
        <ele>55</ele>
        <time>2021-02-14T14:06:40.000Z</time>
      </trkpt>
      <trkpt lat="47.12477" lon="-1.60039">
        <ele>55</ele>
        <time>2021-02-14T14:06:42.000Z</time>
      </trkpt>
      <trkpt lat="47.12478" lon="-1.6006">
        <ele>55</ele>
        <time>2021-02-14T14:06:44.000Z</time>
      </trkpt>
      <trkpt lat="47.12479" lon="-1.6008">
        <ele>54</ele>
        <time>2021-02-14T14:06:46.000Z</time>
      </trkpt>
      <trkpt lat="47.1248" lon="-1.601">
        <ele>54</ele>
        <time>2021-02-14T14:06:48.000Z</time>
      </trkpt>
      <trkpt lat="47.12481" lon="-1.6012">
        <ele>55</ele>
        <time>2021-02-14T14:06:50.000Z</time>
      </trkpt>
      <trkpt lat="47.12482" lon="-1.60142">
        <ele>54</ele>
        <time>2021-02-14T14:06:52.000Z</time>
      </trkpt>
      <trkpt lat="47.12484" lon="-1.60162">
        <ele>53</ele>
        <time>2021-02-14T14:06:54.000Z</time>
      </trkpt>
      <trkpt lat="47.12485" lon="-1.60184">
        <ele>53</ele>
        <time>2021-02-14T14:06:56.000Z</time>
      </trkpt>
      <trkpt lat="47.12487" lon="-1.60205">
        <ele>53</ele>
        <time>2021-02-14T14:06:58.000Z</time>
      </trkpt>
      <trkpt lat="47.1249" lon="-1.60226">
        <ele>52</ele>
        <time>2021-02-14T14:07:00.000Z</time>
      </trkpt>
      <trkpt lat="47.12493" lon="-1.60247">
        <ele>52</ele>
        <time>2021-02-14T14:07:02.000Z</time>
      </trkpt>
      <trkpt lat="47.12497" lon="-1.60267">
        <ele>52</ele>
        <time>2021-02-14T14:07:04.000Z</time>
      </trkpt>
      <trkpt lat="47.12501" lon="-1.60286">
        <ele>52</ele>
        <time>2021-02-14T14:07:06.000Z</time>
      </trkpt>
      <trkpt lat="47.12505" lon="-1.60306">
        <ele>52</ele>
        <time>2021-02-14T14:07:08.000Z</time>
      </trkpt>
      <trkpt lat="47.12508" lon="-1.60325">
        <ele>52</ele>
        <time>2021-02-14T14:07:10.000Z</time>
      </trkpt>
      <trkpt lat="47.12512" lon="-1.60344">
        <ele>52</ele>
        <time>2021-02-14T14:07:12.000Z</time>
      </trkpt>
      <trkpt lat="47.12515" lon="-1.60363">
        <ele>53</ele>
        <time>2021-02-14T14:07:14.000Z</time>
      </trkpt>
      <trkpt lat="47.12519" lon="-1.60382">
        <ele>52</ele>
        <time>2021-02-14T14:07:16.000Z</time>
      </trkpt>
      <trkpt lat="47.12523" lon="-1.60401">
        <ele>53</ele>
        <time>2021-02-14T14:07:18.000Z</time>
      </trkpt>
      <trkpt lat="47.12526" lon="-1.6042">
        <ele>53</ele>
        <time>2021-02-14T14:07:20.000Z</time>
      </trkpt>
      <trkpt lat="47.12529" lon="-1.60438">
        <ele>53</ele>
        <time>2021-02-14T14:07:22.000Z</time>
      </trkpt>
      <trkpt lat="47.12533" lon="-1.60457">
        <ele>53</ele>
        <time>2021-02-14T14:07:24.000Z</time>
      </trkpt>
      <trkpt lat="47.12536" lon="-1.60475">
        <ele>53</ele>
        <time>2021-02-14T14:07:26.000Z</time>
      </trkpt>
      <trkpt lat="47.12539" lon="-1.60494">
        <ele>54</ele>
        <time>2021-02-14T14:07:28.000Z</time>
      </trkpt>
      <trkpt lat="47.12541" lon="-1.60513">
        <ele>54</ele>
        <time>2021-02-14T14:07:30.000Z</time>
      </trkpt>
      <trkpt lat="47.12542" lon="-1.60532">
        <ele>54</ele>
        <time>2021-02-14T14:07:32.000Z</time>
      </trkpt>
      <trkpt lat="47.12544" lon="-1.60551">
        <ele>54</ele>
        <time>2021-02-14T14:07:34.000Z</time>
      </trkpt>
      <trkpt lat="47.12544" lon="-1.6057">
        <ele>54</ele>
        <time>2021-02-14T14:07:36.000Z</time>
      </trkpt>
      <trkpt lat="47.12545" lon="-1.60589">
        <ele>54</ele>
        <time>2021-02-14T14:07:38.000Z</time>
      </trkpt>
      <trkpt lat="47.12545" lon="-1.60608">
        <ele>54</ele>
        <time>2021-02-14T14:07:40.000Z</time>
      </trkpt>
      <trkpt lat="47.12545" lon="-1.60627">
        <ele>55</ele>
        <time>2021-02-14T14:07:42.000Z</time>
      </trkpt>
      <trkpt lat="47.12546" lon="-1.60647">
        <ele>55</ele>
        <time>2021-02-14T14:07:44.000Z</time>
      </trkpt>
      <trkpt lat="47.12546" lon="-1.60666">
        <ele>54</ele>
        <time>2021-02-14T14:07:46.000Z</time>
      </trkpt>
      <trkpt lat="47.12546" lon="-1.60686">
        <ele>54</ele>
        <time>2021-02-14T14:07:48.000Z</time>
      </trkpt>
      <trkpt lat="47.12546" lon="-1.60704">
        <ele>55</ele>
        <time>2021-02-14T14:07:50.000Z</time>
      </trkpt>
      <trkpt lat="47.12546" lon="-1.60723">
        <ele>55</ele>
        <time>2021-02-14T14:07:52.000Z</time>
      </trkpt>
      <trkpt lat="47.12545" lon="-1.60742">
        <ele>55</ele>
        <time>2021-02-14T14:07:54.000Z</time>
      </trkpt>
      <trkpt lat="47.12543" lon="-1.60762">
        <ele>55</ele>
        <time>2021-02-14T14:07:56.000Z</time>
      </trkpt>
      <trkpt lat="47.12542" lon="-1.6078">
        <ele>55</ele>
        <time>2021-02-14T14:07:58.000Z</time>
      </trkpt>
      <trkpt lat="47.1254" lon="-1.60799">
        <ele>56</ele>
        <time>2021-02-14T14:08:00.000Z</time>
      </trkpt>
      <trkpt lat="47.12539" lon="-1.60818">
        <ele>56</ele>
        <time>2021-02-14T14:08:02.000Z</time>
      </trkpt>
      <trkpt lat="47.12538" lon="-1.60837">
        <ele>56</ele>
        <time>2021-02-14T14:08:04.000Z</time>
      </trkpt>
      <trkpt lat="47.12537" lon="-1.60856">
        <ele>56</ele>
        <time>2021-02-14T14:08:06.000Z</time>
      </trkpt>
      <trkpt lat="47.12536" lon="-1.60875">
        <ele>56</ele>
        <time>2021-02-14T14:08:08.000Z</time>
      </trkpt>
      <trkpt lat="47.12533" lon="-1.60894">
        <ele>57</ele>
        <time>2021-02-14T14:08:10.000Z</time>
      </trkpt>
      <trkpt lat="47.12531" lon="-1.60913">
        <ele>57</ele>
        <time>2021-02-14T14:08:12.000Z</time>
      </trkpt>
      <trkpt lat="47.12529" lon="-1.60932">
        <ele>57</ele>
        <time>2021-02-14T14:08:14.000Z</time>
      </trkpt>
      <trkpt lat="47.12527" lon="-1.60951">
        <ele>57</ele>
        <time>2021-02-14T14:08:16.000Z</time>
      </trkpt>
      <trkpt lat="47.12525" lon="-1.6097">
        <ele>57</ele>
        <time>2021-02-14T14:08:18.000Z</time>
      </trkpt>
      <trkpt lat="47.12524" lon="-1.60988">
        <ele>57</ele>
        <time>2021-02-14T14:08:20.000Z</time>
      </trkpt>
      <trkpt lat="47.12522" lon="-1.61007">
        <ele>57</ele>
        <time>2021-02-14T14:08:22.000Z</time>
      </trkpt>
      <trkpt lat="47.12521" lon="-1.61026">
        <ele>58</ele>
        <time>2021-02-14T14:08:24.000Z</time>
      </trkpt>
      <trkpt lat="47.12519" lon="-1.61044">
        <ele>57</ele>
        <time>2021-02-14T14:08:26.000Z</time>
      </trkpt>
      <trkpt lat="47.12517" lon="-1.61063">
        <ele>57</ele>
        <time>2021-02-14T14:08:28.000Z</time>
      </trkpt>
      <trkpt lat="47.12516" lon="-1.61081">
        <ele>57</ele>
        <time>2021-02-14T14:08:30.000Z</time>
      </trkpt>
      <trkpt lat="47.12514" lon="-1.611">
        <ele>57</ele>
        <time>2021-02-14T14:08:32.000Z</time>
      </trkpt>
      <trkpt lat="47.12512" lon="-1.61118">
        <ele>57</ele>
        <time>2021-02-14T14:08:34.000Z</time>
      </trkpt>
      <trkpt lat="47.12511" lon="-1.61137">
        <ele>57</ele>
        <time>2021-02-14T14:08:36.000Z</time>
      </trkpt>
      <trkpt lat="47.12508" lon="-1.61155">
        <ele>57</ele>
        <time>2021-02-14T14:08:38.000Z</time>
      </trkpt>
      <trkpt lat="47.12506" lon="-1.61173">
        <ele>57</ele>
        <time>2021-02-14T14:08:40.000Z</time>
      </trkpt>
      <trkpt lat="47.12504" lon="-1.61192">
        <ele>57</ele>
        <time>2021-02-14T14:08:42.000Z</time>
      </trkpt>
      <trkpt lat="47.12501" lon="-1.61209">
        <ele>58</ele>
        <time>2021-02-14T14:08:44.000Z</time>
      </trkpt>
      <trkpt lat="47.12497" lon="-1.61227">
        <ele>58</ele>
        <time>2021-02-14T14:08:46.000Z</time>
      </trkpt>
      <trkpt lat="47.12493" lon="-1.61244">
        <ele>58</ele>
        <time>2021-02-14T14:08:48.000Z</time>
      </trkpt>
      <trkpt lat="47.12488" lon="-1.61261">
        <ele>58</ele>
        <time>2021-02-14T14:08:50.000Z</time>
      </trkpt>
      <trkpt lat="47.12483" lon="-1.61278">
        <ele>57</ele>
        <time>2021-02-14T14:08:52.000Z</time>
      </trkpt>
      <trkpt lat="47.12477" lon="-1.61295">
        <ele>58</ele>
        <time>2021-02-14T14:08:54.000Z</time>
      </trkpt>
      <trkpt lat="47.12471" lon="-1.61312">
        <ele>58</ele>
        <time>2021-02-14T14:08:56.000Z</time>
      </trkpt>
      <trkpt lat="47.12467" lon="-1.61329">
        <ele>57</ele>
        <time>2021-02-14T14:08:58.000Z</time>
      </trkpt>
      <trkpt lat="47.12463" lon="-1.61346">
        <ele>57</ele>
        <time>2021-02-14T14:09:00.000Z</time>
      </trkpt>
      <trkpt lat="47.12461" lon="-1.61365">
        <ele>58</ele>
        <time>2021-02-14T14:09:02.000Z</time>
      </trkpt>
      <trkpt lat="47.1246" lon="-1.61384">
        <ele>58</ele>
        <time>2021-02-14T14:09:04.000Z</time>
      </trkpt>
      <trkpt lat="47.1246" lon="-1.61403">
        <ele>57</ele>
        <time>2021-02-14T14:09:06.000Z</time>
      </trkpt>
      <trkpt lat="47.12462" lon="-1.61423">
        <ele>57</ele>
        <time>2021-02-14T14:09:08.000Z</time>
      </trkpt>
      <trkpt lat="47.12464" lon="-1.61442">
        <ele>56</ele>
        <time>2021-02-14T14:09:10.000Z</time>
      </trkpt>
      <trkpt lat="47.12466" lon="-1.6146">
        <ele>56</ele>
        <time>2021-02-14T14:09:12.000Z</time>
      </trkpt>
      <trkpt lat="47.12468" lon="-1.61479">
        <ele>56</ele>
        <time>2021-02-14T14:09:14.000Z</time>
      </trkpt>
      <trkpt lat="47.12471" lon="-1.61499">
        <ele>56</ele>
        <time>2021-02-14T14:09:16.000Z</time>
      </trkpt>
      <trkpt lat="47.12473" lon="-1.61518">
        <ele>57</ele>
        <time>2021-02-14T14:09:18.000Z</time>
      </trkpt>
      <trkpt lat="47.12475" lon="-1.61537">
        <ele>56</ele>
        <time>2021-02-14T14:09:20.000Z</time>
      </trkpt>
      <trkpt lat="47.12477" lon="-1.61556">
        <ele>56</ele>
        <time>2021-02-14T14:09:22.000Z</time>
      </trkpt>
      <trkpt lat="47.12479" lon="-1.61576">
        <ele>56</ele>
        <time>2021-02-14T14:09:24.000Z</time>
      </trkpt>
      <trkpt lat="47.12482" lon="-1.61594">
        <ele>56</ele>
        <time>2021-02-14T14:09:26.000Z</time>
      </trkpt>
      <trkpt lat="47.12483" lon="-1.61614">
        <ele>57</ele>
        <time>2021-02-14T14:09:28.000Z</time>
      </trkpt>
      <trkpt lat="47.12483" lon="-1.61633">
        <ele>57</ele>
        <time>2021-02-14T14:09:30.000Z</time>
      </trkpt>
      <trkpt lat="47.12483" lon="-1.61653">
        <ele>57</ele>
        <time>2021-02-14T14:09:32.000Z</time>
      </trkpt>
      <trkpt lat="47.1248" lon="-1.61672">
        <ele>57</ele>
        <time>2021-02-14T14:09:34.000Z</time>
      </trkpt>
      <trkpt lat="47.12476" lon="-1.61691">
        <ele>57</ele>
        <time>2021-02-14T14:09:36.000Z</time>
      </trkpt>
      <trkpt lat="47.12471" lon="-1.6171">
        <ele>57</ele>
        <time>2021-02-14T14:09:38.000Z</time>
      </trkpt>
      <trkpt lat="47.12466" lon="-1.61728">
        <ele>57</ele>
        <time>2021-02-14T14:09:40.000Z</time>
      </trkpt>
      <trkpt lat="47.12462" lon="-1.61746">
        <ele>56</ele>
        <time>2021-02-14T14:09:42.000Z</time>
      </trkpt>
      <trkpt lat="47.12456" lon="-1.61764">
        <ele>56</ele>
        <time>2021-02-14T14:09:44.000Z</time>
      </trkpt>
      <trkpt lat="47.12452" lon="-1.61782">
        <ele>56</ele>
        <time>2021-02-14T14:09:46.000Z</time>
      </trkpt>
      <trkpt lat="47.12446" lon="-1.618">
        <ele>56</ele>
        <time>2021-02-14T14:09:48.000Z</time>
      </trkpt>
      <trkpt lat="47.12443" lon="-1.61818">
        <ele>56</ele>
        <time>2021-02-14T14:09:50.000Z</time>
      </trkpt>
      <trkpt lat="47.12442" lon="-1.61838">
        <ele>55</ele>
        <time>2021-02-14T14:09:52.000Z</time>
      </trkpt>
      <trkpt lat="47.12442" lon="-1.61856">
        <ele>55</ele>
        <time>2021-02-14T14:09:54.000Z</time>
      </trkpt>
      <trkpt lat="47.12435" lon="-1.6187">
        <ele>55</ele>
        <time>2021-02-14T14:09:56.000Z</time>
      </trkpt>
      <trkpt lat="47.12426" lon="-1.61884">
        <ele>54</ele>
        <time>2021-02-14T14:09:58.000Z</time>
      </trkpt>
      <trkpt lat="47.12421" lon="-1.61902">
        <ele>54</ele>
        <time>2021-02-14T14:10:00.000Z</time>
      </trkpt>
      <trkpt lat="47.12416" lon="-1.61921">
        <ele>54</ele>
        <time>2021-02-14T14:10:02.000Z</time>
      </trkpt>
      <trkpt lat="47.1241" lon="-1.6194">
        <ele>55</ele>
        <time>2021-02-14T14:10:04.000Z</time>
      </trkpt>
      <trkpt lat="47.12406" lon="-1.61959">
        <ele>54</ele>
        <time>2021-02-14T14:10:06.000Z</time>
      </trkpt>
      <trkpt lat="47.12401" lon="-1.61978">
        <ele>54</ele>
        <time>2021-02-14T14:10:08.000Z</time>
      </trkpt>
      <trkpt lat="47.12397" lon="-1.61995">
        <ele>54</ele>
        <time>2021-02-14T14:10:10.000Z</time>
      </trkpt>
      <trkpt lat="47.12393" lon="-1.62014">
        <ele>54</ele>
        <time>2021-02-14T14:10:12.000Z</time>
      </trkpt>
      <trkpt lat="47.1239" lon="-1.62034">
        <ele>53</ele>
        <time>2021-02-14T14:10:14.000Z</time>
      </trkpt>
      <trkpt lat="47.12389" lon="-1.62053">
        <ele>53</ele>
        <time>2021-02-14T14:10:16.000Z</time>
      </trkpt>
      <trkpt lat="47.12388" lon="-1.62073">
        <ele>53</ele>
        <time>2021-02-14T14:10:18.000Z</time>
      </trkpt>
      <trkpt lat="47.12389" lon="-1.62093">
        <ele>53</ele>
        <time>2021-02-14T14:10:20.000Z</time>
      </trkpt>
      <trkpt lat="47.12392" lon="-1.62113">
        <ele>53</ele>
        <time>2021-02-14T14:10:22.000Z</time>
      </trkpt>
      <trkpt lat="47.12395" lon="-1.62133">
        <ele>53</ele>
        <time>2021-02-14T14:10:24.000Z</time>
      </trkpt>
      <trkpt lat="47.124" lon="-1.62151">
        <ele>53</ele>
        <time>2021-02-14T14:10:26.000Z</time>
      </trkpt>
      <trkpt lat="47.12407" lon="-1.62169">
        <ele>53</ele>
        <time>2021-02-14T14:10:28.000Z</time>
      </trkpt>
      <trkpt lat="47.12414" lon="-1.62186">
        <ele>52</ele>
        <time>2021-02-14T14:10:30.000Z</time>
      </trkpt>
      <trkpt lat="47.12423" lon="-1.62201">
        <ele>52</ele>
        <time>2021-02-14T14:10:32.000Z</time>
      </trkpt>
      <trkpt lat="47.12431" lon="-1.62217">
        <ele>52</ele>
        <time>2021-02-14T14:10:34.000Z</time>
      </trkpt>
      <trkpt lat="47.12441" lon="-1.62232">
        <ele>52</ele>
        <time>2021-02-14T14:10:36.000Z</time>
      </trkpt>
      <trkpt lat="47.12451" lon="-1.62245">
        <ele>52</ele>
        <time>2021-02-14T14:10:38.000Z</time>
      </trkpt>
      <trkpt lat="47.12461" lon="-1.62259">
        <ele>52</ele>
        <time>2021-02-14T14:10:40.000Z</time>
      </trkpt>
      <trkpt lat="47.12471" lon="-1.62274">
        <ele>52</ele>
        <time>2021-02-14T14:10:42.000Z</time>
      </trkpt>
      <trkpt lat="47.1248" lon="-1.62289">
        <ele>52</ele>
        <time>2021-02-14T14:10:44.000Z</time>
      </trkpt>
      <trkpt lat="47.12489" lon="-1.62304">
        <ele>52</ele>
        <time>2021-02-14T14:10:46.000Z</time>
      </trkpt>
      <trkpt lat="47.12499" lon="-1.6232">
        <ele>52</ele>
        <time>2021-02-14T14:10:48.000Z</time>
      </trkpt>
      <trkpt lat="47.12508" lon="-1.62335">
        <ele>52</ele>
        <time>2021-02-14T14:10:50.000Z</time>
      </trkpt>
      <trkpt lat="47.12516" lon="-1.62352">
        <ele>52</ele>
        <time>2021-02-14T14:10:52.000Z</time>
      </trkpt>
      <trkpt lat="47.12524" lon="-1.62369">
        <ele>52</ele>
        <time>2021-02-14T14:10:54.000Z</time>
      </trkpt>
      <trkpt lat="47.12531" lon="-1.62386">
        <ele>52</ele>
        <time>2021-02-14T14:10:56.000Z</time>
      </trkpt>
      <trkpt lat="47.12538" lon="-1.62403">
        <ele>52</ele>
        <time>2021-02-14T14:10:58.000Z</time>
      </trkpt>
      <trkpt lat="47.12543" lon="-1.62422">
        <ele>53</ele>
        <time>2021-02-14T14:11:00.000Z</time>
      </trkpt>
      <trkpt lat="47.12548" lon="-1.6244">
        <ele>53</ele>
        <time>2021-02-14T14:11:02.000Z</time>
      </trkpt>
      <trkpt lat="47.12553" lon="-1.62458">
        <ele>53</ele>
        <time>2021-02-14T14:11:04.000Z</time>
      </trkpt>
      <trkpt lat="47.12557" lon="-1.62477">
        <ele>52</ele>
        <time>2021-02-14T14:11:06.000Z</time>
      </trkpt>
      <trkpt lat="47.12561" lon="-1.62496">
        <ele>53</ele>
        <time>2021-02-14T14:11:08.000Z</time>
      </trkpt>
      <trkpt lat="47.12564" lon="-1.62515">
        <ele>53</ele>
        <time>2021-02-14T14:11:10.000Z</time>
      </trkpt>
      <trkpt lat="47.12567" lon="-1.62535">
        <ele>53</ele>
        <time>2021-02-14T14:11:12.000Z</time>
      </trkpt>
      <trkpt lat="47.12571" lon="-1.62554">
        <ele>53</ele>
        <time>2021-02-14T14:11:14.000Z</time>
      </trkpt>
      <trkpt lat="47.12574" lon="-1.62573">
        <ele>53</ele>
        <time>2021-02-14T14:11:16.000Z</time>
      </trkpt>
      <trkpt lat="47.12578" lon="-1.6259">
        <ele>53</ele>
        <time>2021-02-14T14:11:18.000Z</time>
      </trkpt>
      <trkpt lat="47.12582" lon="-1.62608">
        <ele>53</ele>
        <time>2021-02-14T14:11:20.000Z</time>
      </trkpt>
      <trkpt lat="47.12588" lon="-1.62625">
        <ele>54</ele>
        <time>2021-02-14T14:11:22.000Z</time>
      </trkpt>
      <trkpt lat="47.12594" lon="-1.62643">
        <ele>55</ele>
        <time>2021-02-14T14:11:24.000Z</time>
      </trkpt>
      <trkpt lat="47.12601" lon="-1.62658">
        <ele>55</ele>
        <time>2021-02-14T14:11:26.000Z</time>
      </trkpt>
      <trkpt lat="47.12609" lon="-1.62673">
        <ele>55</ele>
        <time>2021-02-14T14:11:28.000Z</time>
      </trkpt>
      <trkpt lat="47.12616" lon="-1.62688">
        <ele>55</ele>
        <time>2021-02-14T14:11:30.000Z</time>
      </trkpt>
      <trkpt lat="47.12623" lon="-1.62703">
        <ele>55</ele>
        <time>2021-02-14T14:11:32.000Z</time>
      </trkpt>
      <trkpt lat="47.1263" lon="-1.62717">
        <ele>55</ele>
        <time>2021-02-14T14:11:34.000Z</time>
      </trkpt>
      <trkpt lat="47.12637" lon="-1.62732">
        <ele>55</ele>
        <time>2021-02-14T14:11:36.000Z</time>
      </trkpt>
      <trkpt lat="47.12645" lon="-1.62746">
        <ele>56</ele>
        <time>2021-02-14T14:11:38.000Z</time>
      </trkpt>
      <trkpt lat="47.12652" lon="-1.62761">
        <ele>56</ele>
        <time>2021-02-14T14:11:40.000Z</time>
      </trkpt>
      <trkpt lat="47.12659" lon="-1.62774">
        <ele>56</ele>
        <time>2021-02-14T14:11:42.000Z</time>
      </trkpt>
      <trkpt lat="47.12667" lon="-1.62786">
        <ele>56</ele>
        <time>2021-02-14T14:11:44.000Z</time>
      </trkpt>
      <trkpt lat="47.12679" lon="-1.62788">
        <ele>56</ele>
        <time>2021-02-14T14:11:46.000Z</time>
      </trkpt>
      <trkpt lat="47.12691" lon="-1.62779">
        <ele>57</ele>
        <time>2021-02-14T14:11:48.000Z</time>
      </trkpt>
      <trkpt lat="47.12702" lon="-1.62768">
        <ele>57</ele>
        <time>2021-02-14T14:11:50.000Z</time>
      </trkpt>
      <trkpt lat="47.12713" lon="-1.62755">
        <ele>56</ele>
        <time>2021-02-14T14:11:52.000Z</time>
      </trkpt>
      <trkpt lat="47.12724" lon="-1.62743">
        <ele>56</ele>
        <time>2021-02-14T14:11:54.000Z</time>
      </trkpt>
      <trkpt lat="47.12734" lon="-1.62731">
        <ele>56</ele>
        <time>2021-02-14T14:11:56.000Z</time>
      </trkpt>
      <trkpt lat="47.12745" lon="-1.6272">
        <ele>56</ele>
        <time>2021-02-14T14:11:58.000Z</time>
      </trkpt>
      <trkpt lat="47.12755" lon="-1.62709">
        <ele>56</ele>
        <time>2021-02-14T14:12:00.000Z</time>
      </trkpt>
      <trkpt lat="47.12765" lon="-1.62697">
        <ele>56</ele>
        <time>2021-02-14T14:12:02.000Z</time>
      </trkpt>
      <trkpt lat="47.12775" lon="-1.62686">
        <ele>56</ele>
        <time>2021-02-14T14:12:04.000Z</time>
      </trkpt>
      <trkpt lat="47.12786" lon="-1.62675">
        <ele>56</ele>
        <time>2021-02-14T14:12:06.000Z</time>
      </trkpt>
      <trkpt lat="47.12796" lon="-1.62664">
        <ele>56</ele>
        <time>2021-02-14T14:12:08.000Z</time>
      </trkpt>
      <trkpt lat="47.12806" lon="-1.62654">
        <ele>56</ele>
        <time>2021-02-14T14:12:10.000Z</time>
      </trkpt>
      <trkpt lat="47.12816" lon="-1.62643">
        <ele>56</ele>
        <time>2021-02-14T14:12:12.000Z</time>
      </trkpt>
      <trkpt lat="47.12827" lon="-1.62633">
        <ele>56</ele>
        <time>2021-02-14T14:12:14.000Z</time>
      </trkpt>
      <trkpt lat="47.12837" lon="-1.62623">
        <ele>56</ele>
        <time>2021-02-14T14:12:16.000Z</time>
      </trkpt>
      <trkpt lat="47.12849" lon="-1.62614">
        <ele>56</ele>
        <time>2021-02-14T14:12:18.000Z</time>
      </trkpt>
      <trkpt lat="47.12861" lon="-1.62607">
        <ele>56</ele>
        <time>2021-02-14T14:12:20.000Z</time>
      </trkpt>
      <trkpt lat="47.12872" lon="-1.62599">
        <ele>57</ele>
        <time>2021-02-14T14:12:22.000Z</time>
      </trkpt>
      <trkpt lat="47.12884" lon="-1.62593">
        <ele>57</ele>
        <time>2021-02-14T14:12:24.000Z</time>
      </trkpt>
      <trkpt lat="47.12897" lon="-1.62586">
        <ele>58</ele>
        <time>2021-02-14T14:12:26.000Z</time>
      </trkpt>
      <trkpt lat="47.1291" lon="-1.6258">
        <ele>58</ele>
        <time>2021-02-14T14:12:28.000Z</time>
      </trkpt>
      <trkpt lat="47.12922" lon="-1.62573">
        <ele>58</ele>
        <time>2021-02-14T14:12:30.000Z</time>
      </trkpt>
      <trkpt lat="47.12935" lon="-1.62567">
        <ele>58</ele>
        <time>2021-02-14T14:12:32.000Z</time>
      </trkpt>
      <trkpt lat="47.12947" lon="-1.6256">
        <ele>57</ele>
        <time>2021-02-14T14:12:34.000Z</time>
      </trkpt>
      <trkpt lat="47.12959" lon="-1.62553">
        <ele>58</ele>
        <time>2021-02-14T14:12:36.000Z</time>
      </trkpt>
      <trkpt lat="47.12972" lon="-1.62546">
        <ele>58</ele>
        <time>2021-02-14T14:12:38.000Z</time>
      </trkpt>
      <trkpt lat="47.12984" lon="-1.62539">
        <ele>58</ele>
        <time>2021-02-14T14:12:40.000Z</time>
      </trkpt>
      <trkpt lat="47.12996" lon="-1.6253">
        <ele>58</ele>
        <time>2021-02-14T14:12:42.000Z</time>
      </trkpt>
      <trkpt lat="47.13007" lon="-1.62521">
        <ele>57</ele>
        <time>2021-02-14T14:12:44.000Z</time>
      </trkpt>
      <trkpt lat="47.13017" lon="-1.6251">
        <ele>56</ele>
        <time>2021-02-14T14:12:46.000Z</time>
      </trkpt>
      <trkpt lat="47.13026" lon="-1.62497">
        <ele>56</ele>
        <time>2021-02-14T14:12:48.000Z</time>
      </trkpt>
      <trkpt lat="47.13034" lon="-1.62482">
        <ele>56</ele>
        <time>2021-02-14T14:12:50.000Z</time>
      </trkpt>
      <trkpt lat="47.1304" lon="-1.62467">
        <ele>56</ele>
        <time>2021-02-14T14:12:52.000Z</time>
      </trkpt>
      <trkpt lat="47.13047" lon="-1.62451">
        <ele>57</ele>
        <time>2021-02-14T14:12:54.000Z</time>
      </trkpt>
      <trkpt lat="47.13053" lon="-1.62434">
        <ele>56</ele>
        <time>2021-02-14T14:12:56.000Z</time>
      </trkpt>
      <trkpt lat="47.13059" lon="-1.62418">
        <ele>56</ele>
        <time>2021-02-14T14:12:58.000Z</time>
      </trkpt>
      <trkpt lat="47.13065" lon="-1.62401">
        <ele>56</ele>
        <time>2021-02-14T14:13:00.000Z</time>
      </trkpt>
      <trkpt lat="47.13071" lon="-1.62385">
        <ele>56</ele>
        <time>2021-02-14T14:13:02.000Z</time>
      </trkpt>
      <trkpt lat="47.13076" lon="-1.6237">
        <ele>56</ele>
        <time>2021-02-14T14:13:04.000Z</time>
      </trkpt>
      <trkpt lat="47.13082" lon="-1.62355">
        <ele>57</ele>
        <time>2021-02-14T14:13:06.000Z</time>
      </trkpt>
      <trkpt lat="47.13088" lon="-1.62341">
        <ele>57</ele>
        <time>2021-02-14T14:13:08.000Z</time>
      </trkpt>
      <trkpt lat="47.13093" lon="-1.62329">
        <ele>57</ele>
        <time>2021-02-14T14:13:10.000Z</time>
      </trkpt>
      <trkpt lat="47.13096" lon="-1.62316">
        <ele>57</ele>
        <time>2021-02-14T14:13:12.000Z</time>
      </trkpt>
      <trkpt lat="47.13102" lon="-1.62303">
        <ele>58</ele>
        <time>2021-02-14T14:13:14.000Z</time>
      </trkpt>
      <trkpt lat="47.13112" lon="-1.62289">
        <ele>58</ele>
        <time>2021-02-14T14:13:16.000Z</time>
      </trkpt>
      <trkpt lat="47.1312" lon="-1.62274">
        <ele>58</ele>
        <time>2021-02-14T14:13:18.000Z</time>
      </trkpt>
      <trkpt lat="47.13128" lon="-1.62258">
        <ele>58</ele>
        <time>2021-02-14T14:13:20.000Z</time>
      </trkpt>
      <trkpt lat="47.13135" lon="-1.62243">
        <ele>58</ele>
        <time>2021-02-14T14:13:22.000Z</time>
      </trkpt>
      <trkpt lat="47.13142" lon="-1.62229">
        <ele>58</ele>
        <time>2021-02-14T14:13:24.000Z</time>
      </trkpt>
      <trkpt lat="47.13149" lon="-1.62214">
        <ele>58</ele>
        <time>2021-02-14T14:13:26.000Z</time>
      </trkpt>
      <trkpt lat="47.13156" lon="-1.62201">
        <ele>58</ele>
        <time>2021-02-14T14:13:28.000Z</time>
      </trkpt>
      <trkpt lat="47.13162" lon="-1.62187">
        <ele>58</ele>
        <time>2021-02-14T14:13:30.000Z</time>
      </trkpt>
      <trkpt lat="47.13169" lon="-1.62174">
        <ele>58</ele>
        <time>2021-02-14T14:13:32.000Z</time>
      </trkpt>
      <trkpt lat="47.13176" lon="-1.62161">
        <ele>58</ele>
        <time>2021-02-14T14:13:34.000Z</time>
      </trkpt>
      <trkpt lat="47.13183" lon="-1.62147">
        <ele>58</ele>
        <time>2021-02-14T14:13:36.000Z</time>
      </trkpt>
      <trkpt lat="47.1319" lon="-1.62134">
        <ele>59</ele>
        <time>2021-02-14T14:13:38.000Z</time>
      </trkpt>
      <trkpt lat="47.13198" lon="-1.62121">
        <ele>59</ele>
        <time>2021-02-14T14:13:40.000Z</time>
      </trkpt>
      <trkpt lat="47.13205" lon="-1.62109">
        <ele>59</ele>
        <time>2021-02-14T14:13:42.000Z</time>
      </trkpt>
      <trkpt lat="47.13213" lon="-1.62095">
        <ele>59</ele>
        <time>2021-02-14T14:13:44.000Z</time>
      </trkpt>
      <trkpt lat="47.13221" lon="-1.62082">
        <ele>59</ele>
        <time>2021-02-14T14:13:46.000Z</time>
      </trkpt>
      <trkpt lat="47.13229" lon="-1.62069">
        <ele>59</ele>
        <time>2021-02-14T14:13:48.000Z</time>
      </trkpt>
      <trkpt lat="47.13237" lon="-1.62057">
        <ele>60</ele>
        <time>2021-02-14T14:13:50.000Z</time>
      </trkpt>
      <trkpt lat="47.13246" lon="-1.62045">
        <ele>60</ele>
        <time>2021-02-14T14:13:52.000Z</time>
      </trkpt>
      <trkpt lat="47.13254" lon="-1.62033">
        <ele>60</ele>
        <time>2021-02-14T14:13:54.000Z</time>
      </trkpt>
      <trkpt lat="47.13263" lon="-1.62023">
        <ele>60</ele>
        <time>2021-02-14T14:13:56.000Z</time>
      </trkpt>
      <trkpt lat="47.13273" lon="-1.62013">
        <ele>60</ele>
        <time>2021-02-14T14:13:58.000Z</time>
      </trkpt>
      <trkpt lat="47.13283" lon="-1.62005">
        <ele>60</ele>
        <time>2021-02-14T14:14:00.000Z</time>
      </trkpt>
      <trkpt lat="47.13293" lon="-1.61996">
        <ele>60</ele>
        <time>2021-02-14T14:14:02.000Z</time>
      </trkpt>
      <trkpt lat="47.13304" lon="-1.61989">
        <ele>60</ele>
        <time>2021-02-14T14:14:04.000Z</time>
      </trkpt>
      <trkpt lat="47.13314" lon="-1.61981">
        <ele>60</ele>
        <time>2021-02-14T14:14:06.000Z</time>
      </trkpt>
      <trkpt lat="47.13324" lon="-1.61973">
        <ele>60</ele>
        <time>2021-02-14T14:14:08.000Z</time>
      </trkpt>
      <trkpt lat="47.13335" lon="-1.61965">
        <ele>60</ele>
        <time>2021-02-14T14:14:10.000Z</time>
      </trkpt>
      <trkpt lat="47.13345" lon="-1.61957">
        <ele>60</ele>
        <time>2021-02-14T14:14:12.000Z</time>
      </trkpt>
      <trkpt lat="47.13356" lon="-1.61949">
        <ele>60</ele>
        <time>2021-02-14T14:14:14.000Z</time>
      </trkpt>
      <trkpt lat="47.13366" lon="-1.6194">
        <ele>60</ele>
        <time>2021-02-14T14:14:16.000Z</time>
      </trkpt>
      <trkpt lat="47.13377" lon="-1.61932">
        <ele>60</ele>
        <time>2021-02-14T14:14:18.000Z</time>
      </trkpt>
      <trkpt lat="47.13387" lon="-1.61924">
        <ele>60</ele>
        <time>2021-02-14T14:14:20.000Z</time>
      </trkpt>
      <trkpt lat="47.13398" lon="-1.61916">
        <ele>60</ele>
        <time>2021-02-14T14:14:22.000Z</time>
      </trkpt>
      <trkpt lat="47.13409" lon="-1.61908">
        <ele>60</ele>
        <time>2021-02-14T14:14:24.000Z</time>
      </trkpt>
      <trkpt lat="47.1342" lon="-1.619">
        <ele>61</ele>
        <time>2021-02-14T14:14:26.000Z</time>
      </trkpt>
      <trkpt lat="47.1343" lon="-1.61891">
        <ele>61</ele>
        <time>2021-02-14T14:14:28.000Z</time>
      </trkpt>
      <trkpt lat="47.13441" lon="-1.61883">
        <ele>61</ele>
        <time>2021-02-14T14:14:30.000Z</time>
      </trkpt>
      <trkpt lat="47.13451" lon="-1.61875">
        <ele>61</ele>
        <time>2021-02-14T14:14:32.000Z</time>
      </trkpt>
      <trkpt lat="47.13462" lon="-1.61866">
        <ele>61</ele>
        <time>2021-02-14T14:14:34.000Z</time>
      </trkpt>
      <trkpt lat="47.13473" lon="-1.61859">
        <ele>61</ele>
        <time>2021-02-14T14:14:36.000Z</time>
      </trkpt>
      <trkpt lat="47.13484" lon="-1.61852">
        <ele>60</ele>
        <time>2021-02-14T14:14:38.000Z</time>
      </trkpt>
      <trkpt lat="47.13495" lon="-1.61847">
        <ele>60</ele>
        <time>2021-02-14T14:14:40.000Z</time>
      </trkpt>
      <trkpt lat="47.13507" lon="-1.6184">
        <ele>60</ele>
        <time>2021-02-14T14:14:42.000Z</time>
      </trkpt>
      <trkpt lat="47.13519" lon="-1.61834">
        <ele>61</ele>
        <time>2021-02-14T14:14:44.000Z</time>
      </trkpt>
      <trkpt lat="47.13531" lon="-1.61829">
        <ele>60</ele>
        <time>2021-02-14T14:14:46.000Z</time>
      </trkpt>
      <trkpt lat="47.13543" lon="-1.61824">
        <ele>60</ele>
        <time>2021-02-14T14:14:48.000Z</time>
      </trkpt>
      <trkpt lat="47.13555" lon="-1.61819">
        <ele>60</ele>
        <time>2021-02-14T14:14:50.000Z</time>
      </trkpt>
      <trkpt lat="47.13567" lon="-1.61813">
        <ele>60</ele>
        <time>2021-02-14T14:14:52.000Z</time>
      </trkpt>
      <trkpt lat="47.13579" lon="-1.61805">
        <ele>60</ele>
        <time>2021-02-14T14:14:54.000Z</time>
      </trkpt>
      <trkpt lat="47.1359" lon="-1.61803">
        <ele>61</ele>
        <time>2021-02-14T14:14:56.000Z</time>
      </trkpt>
      <trkpt lat="47.13603" lon="-1.61799">
        <ele>61</ele>
        <time>2021-02-14T14:14:58.000Z</time>
      </trkpt>
      <trkpt lat="47.13615" lon="-1.61795">
        <ele>61</ele>
        <time>2021-02-14T14:15:00.000Z</time>
      </trkpt>
      <trkpt lat="47.13626" lon="-1.61789">
        <ele>61</ele>
        <time>2021-02-14T14:15:02.000Z</time>
      </trkpt>
      <trkpt lat="47.13638" lon="-1.61784">
        <ele>61</ele>
        <time>2021-02-14T14:15:04.000Z</time>
      </trkpt>
      <trkpt lat="47.13649" lon="-1.61778">
        <ele>61</ele>
        <time>2021-02-14T14:15:06.000Z</time>
      </trkpt>
      <trkpt lat="47.13661" lon="-1.61772">
        <ele>61</ele>
        <time>2021-02-14T14:15:08.000Z</time>
      </trkpt>
      <trkpt lat="47.13672" lon="-1.61766">
        <ele>61</ele>
        <time>2021-02-14T14:15:10.000Z</time>
      </trkpt>
      <trkpt lat="47.13684" lon="-1.6176">
        <ele>61</ele>
        <time>2021-02-14T14:15:12.000Z</time>
      </trkpt>
      <trkpt lat="47.13695" lon="-1.61752">
        <ele>62</ele>
        <time>2021-02-14T14:15:14.000Z</time>
      </trkpt>
      <trkpt lat="47.13705" lon="-1.61744">
        <ele>62</ele>
        <time>2021-02-14T14:15:16.000Z</time>
      </trkpt>
      <trkpt lat="47.13715" lon="-1.61736">
        <ele>63</ele>
        <time>2021-02-14T14:15:18.000Z</time>
      </trkpt>
      <trkpt lat="47.13724" lon="-1.61727">
        <ele>63</ele>
        <time>2021-02-14T14:15:20.000Z</time>
      </trkpt>
      <trkpt lat="47.13733" lon="-1.61719">
        <ele>64</ele>
        <time>2021-02-14T14:15:22.000Z</time>
      </trkpt>
      <trkpt lat="47.13744" lon="-1.61726">
        <ele>64</ele>
        <time>2021-02-14T14:15:25.000Z</time>
      </trkpt>
      <trkpt lat="47.13743" lon="-1.61744">
        <ele>65</ele>
        <time>2021-02-14T14:15:27.000Z</time>
      </trkpt>
      <trkpt lat="47.13739" lon="-1.61762">
        <ele>65</ele>
        <time>2021-02-14T14:15:29.000Z</time>
      </trkpt>
      <trkpt lat="47.13735" lon="-1.61779">
        <ele>65</ele>
        <time>2021-02-14T14:15:31.000Z</time>
      </trkpt>
      <trkpt lat="47.13732" lon="-1.61797">
        <ele>64</ele>
        <time>2021-02-14T14:15:33.000Z</time>
      </trkpt>
      <trkpt lat="47.13729" lon="-1.61815">
        <ele>64</ele>
        <time>2021-02-14T14:15:35.000Z</time>
      </trkpt>
      <trkpt lat="47.13726" lon="-1.61833">
        <ele>64</ele>
        <time>2021-02-14T14:15:37.000Z</time>
      </trkpt>
      <trkpt lat="47.13725" lon="-1.6185">
        <ele>64</ele>
        <time>2021-02-14T14:15:39.000Z</time>
      </trkpt>
      <trkpt lat="47.13724" lon="-1.61867">
        <ele>63</ele>
        <time>2021-02-14T14:15:41.000Z</time>
      </trkpt>
      <trkpt lat="47.13723" lon="-1.61884">
        <ele>64</ele>
        <time>2021-02-14T14:15:43.000Z</time>
      </trkpt>
      <trkpt lat="47.13722" lon="-1.61901">
        <ele>64</ele>
        <time>2021-02-14T14:15:45.000Z</time>
      </trkpt>
      <trkpt lat="47.13721" lon="-1.61918">
        <ele>64</ele>
        <time>2021-02-14T14:15:47.000Z</time>
      </trkpt>
      <trkpt lat="47.13721" lon="-1.61936">
        <ele>63</ele>
        <time>2021-02-14T14:15:49.000Z</time>
      </trkpt>
      <trkpt lat="47.13723" lon="-1.61954">
        <ele>64</ele>
        <time>2021-02-14T14:15:51.000Z</time>
      </trkpt>
      <trkpt lat="47.13726" lon="-1.61971">
        <ele>63</ele>
        <time>2021-02-14T14:15:53.000Z</time>
      </trkpt>
      <trkpt lat="47.13728" lon="-1.61988">
        <ele>63</ele>
        <time>2021-02-14T14:15:55.000Z</time>
      </trkpt>
      <trkpt lat="47.13731" lon="-1.62005">
        <ele>63</ele>
        <time>2021-02-14T14:15:57.000Z</time>
      </trkpt>
      <trkpt lat="47.13734" lon="-1.62021">
        <ele>63</ele>
        <time>2021-02-14T14:15:59.000Z</time>
      </trkpt>
      <trkpt lat="47.13736" lon="-1.62038">
        <ele>63</ele>
        <time>2021-02-14T14:16:01.000Z</time>
      </trkpt>
      <trkpt lat="47.13739" lon="-1.62054">
        <ele>63</ele>
        <time>2021-02-14T14:16:03.000Z</time>
      </trkpt>
      <trkpt lat="47.13741" lon="-1.62071">
        <ele>63</ele>
        <time>2021-02-14T14:16:05.000Z</time>
      </trkpt>
      <trkpt lat="47.13744" lon="-1.62087">
        <ele>63</ele>
        <time>2021-02-14T14:16:07.000Z</time>
      </trkpt>
      <trkpt lat="47.13746" lon="-1.62104">
        <ele>63</ele>
        <time>2021-02-14T14:16:09.000Z</time>
      </trkpt>
      <trkpt lat="47.13747" lon="-1.62123">
        <ele>64</ele>
        <time>2021-02-14T14:16:11.000Z</time>
      </trkpt>
      <trkpt lat="47.13749" lon="-1.6214">
        <ele>64</ele>
        <time>2021-02-14T14:16:13.000Z</time>
      </trkpt>
      <trkpt lat="47.13751" lon="-1.62158">
        <ele>64</ele>
        <time>2021-02-14T14:16:15.000Z</time>
      </trkpt>
      <trkpt lat="47.13753" lon="-1.62176">
        <ele>64</ele>
        <time>2021-02-14T14:16:17.000Z</time>
      </trkpt>
      <trkpt lat="47.13755" lon="-1.62192">
        <ele>65</ele>
        <time>2021-02-14T14:16:19.000Z</time>
      </trkpt>
      <trkpt lat="47.13757" lon="-1.6221">
        <ele>65</ele>
        <time>2021-02-14T14:16:21.000Z</time>
      </trkpt>
      <trkpt lat="47.13759" lon="-1.62227">
        <ele>65</ele>
        <time>2021-02-14T14:16:23.000Z</time>
      </trkpt>
      <trkpt lat="47.13761" lon="-1.62244">
        <ele>65</ele>
        <time>2021-02-14T14:16:25.000Z</time>
      </trkpt>
      <trkpt lat="47.13763" lon="-1.62262">
        <ele>65</ele>
        <time>2021-02-14T14:16:27.000Z</time>
      </trkpt>
      <trkpt lat="47.13765" lon="-1.62279">
        <ele>66</ele>
        <time>2021-02-14T14:16:29.000Z</time>
      </trkpt>
      <trkpt lat="47.13767" lon="-1.62297">
        <ele>66</ele>
        <time>2021-02-14T14:16:31.000Z</time>
      </trkpt>
      <trkpt lat="47.13767" lon="-1.62313">
        <ele>64</ele>
        <time>2021-02-14T14:16:33.000Z</time>
      </trkpt>
      <trkpt lat="47.13768" lon="-1.62331">
        <ele>65</ele>
        <time>2021-02-14T14:16:35.000Z</time>
      </trkpt>
      <trkpt lat="47.13767" lon="-1.6235">
        <ele>65</ele>
        <time>2021-02-14T14:16:37.000Z</time>
      </trkpt>
      <trkpt lat="47.13766" lon="-1.62368">
        <ele>65</ele>
        <time>2021-02-14T14:16:39.000Z</time>
      </trkpt>
      <trkpt lat="47.13765" lon="-1.62387">
        <ele>65</ele>
        <time>2021-02-14T14:16:41.000Z</time>
      </trkpt>
      <trkpt lat="47.13764" lon="-1.62409">
        <ele>65</ele>
        <time>2021-02-14T14:16:43.000Z</time>
      </trkpt>
      <trkpt lat="47.13765" lon="-1.62431">
        <ele>64</ele>
        <time>2021-02-14T14:16:45.000Z</time>
      </trkpt>
      <trkpt lat="47.13767" lon="-1.62451">
        <ele>64</ele>
        <time>2021-02-14T14:16:47.000Z</time>
      </trkpt>
      <trkpt lat="47.13769" lon="-1.62473">
        <ele>63</ele>
        <time>2021-02-14T14:16:49.000Z</time>
      </trkpt>
      <trkpt lat="47.13771" lon="-1.62493">
        <ele>62</ele>
        <time>2021-02-14T14:16:51.000Z</time>
      </trkpt>
      <trkpt lat="47.13773" lon="-1.62516">
        <ele>62</ele>
        <time>2021-02-14T14:16:53.000Z</time>
      </trkpt>
      <trkpt lat="47.13775" lon="-1.62536">
        <ele>62</ele>
        <time>2021-02-14T14:16:55.000Z</time>
      </trkpt>
      <trkpt lat="47.13777" lon="-1.62556">
        <ele>62</ele>
        <time>2021-02-14T14:16:57.000Z</time>
      </trkpt>
      <trkpt lat="47.13779" lon="-1.62574">
        <ele>62</ele>
        <time>2021-02-14T14:16:59.000Z</time>
      </trkpt>
      <trkpt lat="47.1378" lon="-1.62592">
        <ele>62</ele>
        <time>2021-02-14T14:17:01.000Z</time>
      </trkpt>
      <trkpt lat="47.13781" lon="-1.62611">
        <ele>62</ele>
        <time>2021-02-14T14:17:03.000Z</time>
      </trkpt>
      <trkpt lat="47.13782" lon="-1.62629">
        <ele>63</ele>
        <time>2021-02-14T14:17:05.000Z</time>
      </trkpt>
      <trkpt lat="47.13784" lon="-1.62647">
        <ele>63</ele>
        <time>2021-02-14T14:17:07.000Z</time>
      </trkpt>
      <trkpt lat="47.13785" lon="-1.62665">
        <ele>63</ele>
        <time>2021-02-14T14:17:09.000Z</time>
      </trkpt>
      <trkpt lat="47.13785" lon="-1.62682">
        <ele>62</ele>
        <time>2021-02-14T14:17:11.000Z</time>
      </trkpt>
      <trkpt lat="47.13784" lon="-1.62701">
        <ele>62</ele>
        <time>2021-02-14T14:17:13.000Z</time>
      </trkpt>
      <trkpt lat="47.13783" lon="-1.62719">
        <ele>63</ele>
        <time>2021-02-14T14:17:15.000Z</time>
      </trkpt>
      <trkpt lat="47.13782" lon="-1.62736">
        <ele>63</ele>
        <time>2021-02-14T14:17:17.000Z</time>
      </trkpt>
      <trkpt lat="47.13783" lon="-1.62754">
        <ele>63</ele>
        <time>2021-02-14T14:17:19.000Z</time>
      </trkpt>
      <trkpt lat="47.13785" lon="-1.62772">
        <ele>64</ele>
        <time>2021-02-14T14:17:21.000Z</time>
      </trkpt>
      <trkpt lat="47.13789" lon="-1.62788">
        <ele>64</ele>
        <time>2021-02-14T14:17:23.000Z</time>
      </trkpt>
      <trkpt lat="47.13794" lon="-1.62802">
        <ele>65</ele>
        <time>2021-02-14T14:17:25.000Z</time>
      </trkpt>
      <trkpt lat="47.13801" lon="-1.62817">
        <ele>65</ele>
        <time>2021-02-14T14:17:27.000Z</time>
      </trkpt>
      <trkpt lat="47.13806" lon="-1.62833">
        <ele>66</ele>
        <time>2021-02-14T14:17:29.000Z</time>
      </trkpt>
      <trkpt lat="47.13812" lon="-1.62848">
        <ele>66</ele>
        <time>2021-02-14T14:17:31.000Z</time>
      </trkpt>
      <trkpt lat="47.13818" lon="-1.62862">
        <ele>66</ele>
        <time>2021-02-14T14:17:33.000Z</time>
      </trkpt>
      <trkpt lat="47.13823" lon="-1.62878">
        <ele>66</ele>
        <time>2021-02-14T14:17:35.000Z</time>
      </trkpt>
      <trkpt lat="47.13827" lon="-1.62895">
        <ele>66</ele>
        <time>2021-02-14T14:17:37.000Z</time>
      </trkpt>
      <trkpt lat="47.13826" lon="-1.62913">
        <ele>66</ele>
        <time>2021-02-14T14:17:39.000Z</time>
      </trkpt>
      <trkpt lat="47.13824" lon="-1.6293">
        <ele>65</ele>
        <time>2021-02-14T14:17:41.000Z</time>
      </trkpt>
      <trkpt lat="47.13822" lon="-1.62948">
        <ele>65</ele>
        <time>2021-02-14T14:17:43.000Z</time>
      </trkpt>
      <trkpt lat="47.1382" lon="-1.62966">
        <ele>64</ele>
        <time>2021-02-14T14:17:45.000Z</time>
      </trkpt>
      <trkpt lat="47.13818" lon="-1.62985">
        <ele>64</ele>
        <time>2021-02-14T14:17:47.000Z</time>
      </trkpt>
      <trkpt lat="47.13816" lon="-1.63004">
        <ele>63</ele>
        <time>2021-02-14T14:17:49.000Z</time>
      </trkpt>
      <trkpt lat="47.13816" lon="-1.63022">
        <ele>62</ele>
        <time>2021-02-14T14:17:51.000Z</time>
      </trkpt>
      <trkpt lat="47.13816" lon="-1.63041">
        <ele>61</ele>
        <time>2021-02-14T14:17:53.000Z</time>
      </trkpt>
      <trkpt lat="47.13823" lon="-1.63055">
        <ele>60</ele>
        <time>2021-02-14T14:17:55.000Z</time>
      </trkpt>
      <trkpt lat="47.13836" lon="-1.63057">
        <ele>60</ele>
        <time>2021-02-14T14:17:57.000Z</time>
      </trkpt>
      <trkpt lat="47.13849" lon="-1.63055">
        <ele>61</ele>
        <time>2021-02-14T14:17:59.000Z</time>
      </trkpt>
      <trkpt lat="47.13862" lon="-1.63053">
        <ele>61</ele>
        <time>2021-02-14T14:18:01.000Z</time>
      </trkpt>
      <trkpt lat="47.13875" lon="-1.63049">
        <ele>61</ele>
        <time>2021-02-14T14:18:03.000Z</time>
      </trkpt>
      <trkpt lat="47.13888" lon="-1.63047">
        <ele>61</ele>
        <time>2021-02-14T14:18:05.000Z</time>
      </trkpt>
      <trkpt lat="47.13901" lon="-1.63044">
        <ele>61</ele>
        <time>2021-02-14T14:18:07.000Z</time>
      </trkpt>
      <trkpt lat="47.13913" lon="-1.6304">
        <ele>61</ele>
        <time>2021-02-14T14:18:09.000Z</time>
      </trkpt>
      <trkpt lat="47.13925" lon="-1.63036">
        <ele>61</ele>
        <time>2021-02-14T14:18:11.000Z</time>
      </trkpt>
      <trkpt lat="47.13937" lon="-1.6303">
        <ele>61</ele>
        <time>2021-02-14T14:18:13.000Z</time>
      </trkpt>
      <trkpt lat="47.13949" lon="-1.63024">
        <ele>60</ele>
        <time>2021-02-14T14:18:15.000Z</time>
      </trkpt>
      <trkpt lat="47.13961" lon="-1.63017">
        <ele>60</ele>
        <time>2021-02-14T14:18:17.000Z</time>
      </trkpt>
      <trkpt lat="47.13973" lon="-1.63011">
        <ele>61</ele>
        <time>2021-02-14T14:18:19.000Z</time>
      </trkpt>
      <trkpt lat="47.13984" lon="-1.63005">
        <ele>61</ele>
        <time>2021-02-14T14:18:21.000Z</time>
      </trkpt>
      <trkpt lat="47.13995" lon="-1.62999">
        <ele>61</ele>
        <time>2021-02-14T14:18:23.000Z</time>
      </trkpt>
      <trkpt lat="47.14007" lon="-1.62993">
        <ele>61</ele>
        <time>2021-02-14T14:18:25.000Z</time>
      </trkpt>
      <trkpt lat="47.14018" lon="-1.62988">
        <ele>61</ele>
        <time>2021-02-14T14:18:27.000Z</time>
      </trkpt>
      <trkpt lat="47.1403" lon="-1.62983">
        <ele>61</ele>
        <time>2021-02-14T14:18:29.000Z</time>
      </trkpt>
      <trkpt lat="47.14042" lon="-1.6298">
        <ele>62</ele>
        <time>2021-02-14T14:18:31.000Z</time>
      </trkpt>
      <trkpt lat="47.14053" lon="-1.62977">
        <ele>62</ele>
        <time>2021-02-14T14:18:33.000Z</time>
      </trkpt>
      <trkpt lat="47.14066" lon="-1.62975">
        <ele>62</ele>
        <time>2021-02-14T14:18:35.000Z</time>
      </trkpt>
      <trkpt lat="47.14077" lon="-1.62974">
        <ele>63</ele>
        <time>2021-02-14T14:18:37.000Z</time>
      </trkpt>
      <trkpt lat="47.14089" lon="-1.62975">
        <ele>63</ele>
        <time>2021-02-14T14:18:39.000Z</time>
      </trkpt>
      <trkpt lat="47.14101" lon="-1.62977">
        <ele>63</ele>
        <time>2021-02-14T14:18:41.000Z</time>
      </trkpt>
      <trkpt lat="47.14114" lon="-1.62979">
        <ele>64</ele>
        <time>2021-02-14T14:18:43.000Z</time>
      </trkpt>
      <trkpt lat="47.14126" lon="-1.62983">
        <ele>65</ele>
        <time>2021-02-14T14:18:45.000Z</time>
      </trkpt>
      <trkpt lat="47.14137" lon="-1.62988">
        <ele>65</ele>
        <time>2021-02-14T14:18:47.000Z</time>
      </trkpt>
      <trkpt lat="47.14149" lon="-1.62993">
        <ele>65</ele>
        <time>2021-02-14T14:18:49.000Z</time>
      </trkpt>
      <trkpt lat="47.1416" lon="-1.62998">
        <ele>65</ele>
        <time>2021-02-14T14:18:51.000Z</time>
      </trkpt>
      <trkpt lat="47.14171" lon="-1.63003">
        <ele>65</ele>
        <time>2021-02-14T14:18:53.000Z</time>
      </trkpt>
      <trkpt lat="47.14182" lon="-1.63008">
        <ele>65</ele>
        <time>2021-02-14T14:18:55.000Z</time>
      </trkpt>
      <trkpt lat="47.14194" lon="-1.63014">
        <ele>65</ele>
        <time>2021-02-14T14:18:57.000Z</time>
      </trkpt>
      <trkpt lat="47.14206" lon="-1.6302">
        <ele>65</ele>
        <time>2021-02-14T14:18:59.000Z</time>
      </trkpt>
      <trkpt lat="47.14218" lon="-1.63026">
        <ele>65</ele>
        <time>2021-02-14T14:19:01.000Z</time>
      </trkpt>
      <trkpt lat="47.1423" lon="-1.63031">
        <ele>65</ele>
        <time>2021-02-14T14:19:03.000Z</time>
      </trkpt>
      <trkpt lat="47.14242" lon="-1.63037">
        <ele>65</ele>
        <time>2021-02-14T14:19:05.000Z</time>
      </trkpt>
      <trkpt lat="47.14253" lon="-1.63043">
        <ele>65</ele>
        <time>2021-02-14T14:19:07.000Z</time>
      </trkpt>
      <trkpt lat="47.14265" lon="-1.63049">
        <ele>65</ele>
        <time>2021-02-14T14:19:09.000Z</time>
      </trkpt>
      <trkpt lat="47.14277" lon="-1.63055">
        <ele>65</ele>
        <time>2021-02-14T14:19:11.000Z</time>
      </trkpt>
      <trkpt lat="47.14289" lon="-1.63061">
        <ele>65</ele>
        <time>2021-02-14T14:19:13.000Z</time>
      </trkpt>
      <trkpt lat="47.143" lon="-1.63066">
        <ele>65</ele>
        <time>2021-02-14T14:19:15.000Z</time>
      </trkpt>
      <trkpt lat="47.14312" lon="-1.63072">
        <ele>65</ele>
        <time>2021-02-14T14:19:17.000Z</time>
      </trkpt>
      <trkpt lat="47.14324" lon="-1.63078">
        <ele>66</ele>
        <time>2021-02-14T14:19:19.000Z</time>
      </trkpt>
      <trkpt lat="47.14336" lon="-1.63084">
        <ele>66</ele>
        <time>2021-02-14T14:19:21.000Z</time>
      </trkpt>
      <trkpt lat="47.14348" lon="-1.63089">
        <ele>66</ele>
        <time>2021-02-14T14:19:23.000Z</time>
      </trkpt>
      <trkpt lat="47.1436" lon="-1.63095">
        <ele>66</ele>
        <time>2021-02-14T14:19:25.000Z</time>
      </trkpt>
      <trkpt lat="47.14371" lon="-1.631">
        <ele>66</ele>
        <time>2021-02-14T14:19:27.000Z</time>
      </trkpt>
      <trkpt lat="47.14382" lon="-1.63106">
        <ele>66</ele>
        <time>2021-02-14T14:19:29.000Z</time>
      </trkpt>
      <trkpt lat="47.14394" lon="-1.63113">
        <ele>66</ele>
        <time>2021-02-14T14:19:31.000Z</time>
      </trkpt>
      <trkpt lat="47.14406" lon="-1.6312">
        <ele>66</ele>
        <time>2021-02-14T14:19:33.000Z</time>
      </trkpt>
      <trkpt lat="47.14419" lon="-1.63127">
        <ele>66</ele>
        <time>2021-02-14T14:19:35.000Z</time>
      </trkpt>
      <trkpt lat="47.14431" lon="-1.63133">
        <ele>66</ele>
        <time>2021-02-14T14:19:37.000Z</time>
      </trkpt>
      <trkpt lat="47.14442" lon="-1.63139">
        <ele>66</ele>
        <time>2021-02-14T14:19:39.000Z</time>
      </trkpt>
      <trkpt lat="47.14454" lon="-1.63142">
        <ele>66</ele>
        <time>2021-02-14T14:19:41.000Z</time>
      </trkpt>
      <trkpt lat="47.14466" lon="-1.63142">
        <ele>67</ele>
        <time>2021-02-14T14:19:43.000Z</time>
      </trkpt>
      <trkpt lat="47.14479" lon="-1.63142">
        <ele>66</ele>
        <time>2021-02-14T14:19:45.000Z</time>
      </trkpt>
      <trkpt lat="47.14492" lon="-1.63143">
        <ele>67</ele>
        <time>2021-02-14T14:19:47.000Z</time>
      </trkpt>
      <trkpt lat="47.14504" lon="-1.63144">
        <ele>67</ele>
        <time>2021-02-14T14:19:49.000Z</time>
      </trkpt>
      <trkpt lat="47.14516" lon="-1.63144">
        <ele>68</ele>
        <time>2021-02-14T14:19:51.000Z</time>
      </trkpt>
      <trkpt lat="47.14528" lon="-1.63145">
        <ele>68</ele>
        <time>2021-02-14T14:19:53.000Z</time>
      </trkpt>
      <trkpt lat="47.14539" lon="-1.63144">
        <ele>68</ele>
        <time>2021-02-14T14:19:55.000Z</time>
      </trkpt>
      <trkpt lat="47.14551" lon="-1.63142">
        <ele>68</ele>
        <time>2021-02-14T14:19:57.000Z</time>
      </trkpt>
      <trkpt lat="47.14563" lon="-1.63139">
        <ele>68</ele>
        <time>2021-02-14T14:19:59.000Z</time>
      </trkpt>
      <trkpt lat="47.14575" lon="-1.63134">
        <ele>68</ele>
        <time>2021-02-14T14:20:01.000Z</time>
      </trkpt>
      <trkpt lat="47.14586" lon="-1.63128">
        <ele>68</ele>
        <time>2021-02-14T14:20:03.000Z</time>
      </trkpt>
      <trkpt lat="47.14598" lon="-1.63121">
        <ele>68</ele>
        <time>2021-02-14T14:20:05.000Z</time>
      </trkpt>
      <trkpt lat="47.14608" lon="-1.63114">
        <ele>68</ele>
        <time>2021-02-14T14:20:07.000Z</time>
      </trkpt>
      <trkpt lat="47.14619" lon="-1.63107">
        <ele>68</ele>
        <time>2021-02-14T14:20:09.000Z</time>
      </trkpt>
      <trkpt lat="47.1463" lon="-1.631">
        <ele>68</ele>
        <time>2021-02-14T14:20:11.000Z</time>
      </trkpt>
      <trkpt lat="47.14641" lon="-1.63093">
        <ele>68</ele>
        <time>2021-02-14T14:20:13.000Z</time>
      </trkpt>
      <trkpt lat="47.14652" lon="-1.63086">
        <ele>68</ele>
        <time>2021-02-14T14:20:15.000Z</time>
      </trkpt>
      <trkpt lat="47.14664" lon="-1.63081">
        <ele>68</ele>
        <time>2021-02-14T14:20:17.000Z</time>
      </trkpt>
      <trkpt lat="47.14676" lon="-1.63076">
        <ele>68</ele>
        <time>2021-02-14T14:20:19.000Z</time>
      </trkpt>
      <trkpt lat="47.14688" lon="-1.63073">
        <ele>68</ele>
        <time>2021-02-14T14:20:21.000Z</time>
      </trkpt>
      <trkpt lat="47.14699" lon="-1.63071">
        <ele>69</ele>
        <time>2021-02-14T14:20:23.000Z</time>
      </trkpt>
      <trkpt lat="47.14711" lon="-1.63069">
        <ele>69</ele>
        <time>2021-02-14T14:20:25.000Z</time>
      </trkpt>
      <trkpt lat="47.14723" lon="-1.63068">
        <ele>69</ele>
        <time>2021-02-14T14:20:27.000Z</time>
      </trkpt>
      <trkpt lat="47.14734" lon="-1.63068">
        <ele>70</ele>
        <time>2021-02-14T14:20:29.000Z</time>
      </trkpt>
      <trkpt lat="47.14745" lon="-1.63067">
        <ele>69</ele>
        <time>2021-02-14T14:20:31.000Z</time>
      </trkpt>
      <trkpt lat="47.14757" lon="-1.63066">
        <ele>69</ele>
        <time>2021-02-14T14:20:33.000Z</time>
      </trkpt>
      <trkpt lat="47.1477" lon="-1.63066">
        <ele>69</ele>
        <time>2021-02-14T14:20:35.000Z</time>
      </trkpt>
      <trkpt lat="47.14782" lon="-1.63065">
        <ele>70</ele>
        <time>2021-02-14T14:20:37.000Z</time>
      </trkpt>
      <trkpt lat="47.14795" lon="-1.63064">
        <ele>69</ele>
        <time>2021-02-14T14:20:39.000Z</time>
      </trkpt>
      <trkpt lat="47.14806" lon="-1.63063">
        <ele>70</ele>
        <time>2021-02-14T14:20:41.000Z</time>
      </trkpt>
      <trkpt lat="47.14818" lon="-1.63062">
        <ele>71</ele>
        <time>2021-02-14T14:20:43.000Z</time>
      </trkpt>
      <trkpt lat="47.1483" lon="-1.63061">
        <ele>71</ele>
        <time>2021-02-14T14:20:45.000Z</time>
      </trkpt>
      <trkpt lat="47.14843" lon="-1.6306">
        <ele>71</ele>
        <time>2021-02-14T14:20:47.000Z</time>
      </trkpt>
      <trkpt lat="47.14855" lon="-1.6306">
        <ele>71</ele>
        <time>2021-02-14T14:20:49.000Z</time>
      </trkpt>
      <trkpt lat="47.14866" lon="-1.63059">
        <ele>71</ele>
        <time>2021-02-14T14:20:51.000Z</time>
      </trkpt>
      <trkpt lat="47.14876" lon="-1.63059">
        <ele>71</ele>
        <time>2021-02-14T14:20:53.000Z</time>
      </trkpt>
      <trkpt lat="47.14885" lon="-1.63056">
        <ele>71</ele>
        <time>2021-02-14T14:20:59.000Z</time>
      </trkpt>
      <trkpt lat="47.14888" lon="-1.6307">
        <ele>71</ele>
        <time>2021-02-14T14:21:02.000Z</time>
      </trkpt>
      <trkpt lat="47.14886" lon="-1.63086">
        <ele>71</ele>
        <time>2021-02-14T14:21:04.000Z</time>
      </trkpt>
      <trkpt lat="47.14883" lon="-1.63104">
        <ele>71</ele>
        <time>2021-02-14T14:21:06.000Z</time>
      </trkpt>
      <trkpt lat="47.1488" lon="-1.63122">
        <ele>71</ele>
        <time>2021-02-14T14:21:08.000Z</time>
      </trkpt>
      <trkpt lat="47.14878" lon="-1.6314">
        <ele>71</ele>
        <time>2021-02-14T14:21:10.000Z</time>
      </trkpt>
      <trkpt lat="47.14876" lon="-1.6316">
        <ele>71</ele>
        <time>2021-02-14T14:21:12.000Z</time>
      </trkpt>
      <trkpt lat="47.14875" lon="-1.63178">
        <ele>70</ele>
        <time>2021-02-14T14:21:14.000Z</time>
      </trkpt>
      <trkpt lat="47.14875" lon="-1.63195">
        <ele>70</ele>
        <time>2021-02-14T14:21:16.000Z</time>
      </trkpt>
      <trkpt lat="47.14874" lon="-1.63214">
        <ele>70</ele>
        <time>2021-02-14T14:21:18.000Z</time>
      </trkpt>
      <trkpt lat="47.14874" lon="-1.63232">
        <ele>70</ele>
        <time>2021-02-14T14:21:20.000Z</time>
      </trkpt>
      <trkpt lat="47.14874" lon="-1.63251">
        <ele>70</ele>
        <time>2021-02-14T14:21:22.000Z</time>
      </trkpt>
      <trkpt lat="47.14875" lon="-1.63269">
        <ele>70</ele>
        <time>2021-02-14T14:21:24.000Z</time>
      </trkpt>
      <trkpt lat="47.14874" lon="-1.63287">
        <ele>71</ele>
        <time>2021-02-14T14:21:26.000Z</time>
      </trkpt>
      <trkpt lat="47.14874" lon="-1.63305">
        <ele>71</ele>
        <time>2021-02-14T14:21:28.000Z</time>
      </trkpt>
      <trkpt lat="47.14874" lon="-1.63323">
        <ele>72</ele>
        <time>2021-02-14T14:21:30.000Z</time>
      </trkpt>
      <trkpt lat="47.14874" lon="-1.6334">
        <ele>72</ele>
        <time>2021-02-14T14:21:32.000Z</time>
      </trkpt>
      <trkpt lat="47.14874" lon="-1.63359">
        <ele>71</ele>
        <time>2021-02-14T14:21:34.000Z</time>
      </trkpt>
      <trkpt lat="47.14874" lon="-1.63378">
        <ele>71</ele>
        <time>2021-02-14T14:21:36.000Z</time>
      </trkpt>
      <trkpt lat="47.14874" lon="-1.63396">
        <ele>71</ele>
        <time>2021-02-14T14:21:38.000Z</time>
      </trkpt>
      <trkpt lat="47.14874" lon="-1.63414">
        <ele>71</ele>
        <time>2021-02-14T14:21:40.000Z</time>
      </trkpt>
      <trkpt lat="47.14874" lon="-1.63433">
        <ele>71</ele>
        <time>2021-02-14T14:21:42.000Z</time>
      </trkpt>
      <trkpt lat="47.14875" lon="-1.63451">
        <ele>72</ele>
        <time>2021-02-14T14:21:44.000Z</time>
      </trkpt>
      <trkpt lat="47.14874" lon="-1.6347">
        <ele>72</ele>
        <time>2021-02-14T14:21:46.000Z</time>
      </trkpt>
      <trkpt lat="47.14874" lon="-1.63489">
        <ele>72</ele>
        <time>2021-02-14T14:21:48.000Z</time>
      </trkpt>
      <trkpt lat="47.14874" lon="-1.63507">
        <ele>72</ele>
        <time>2021-02-14T14:21:50.000Z</time>
      </trkpt>
      <trkpt lat="47.14873" lon="-1.63526">
        <ele>72</ele>
        <time>2021-02-14T14:21:52.000Z</time>
      </trkpt>
      <trkpt lat="47.14873" lon="-1.63544">
        <ele>72</ele>
        <time>2021-02-14T14:21:54.000Z</time>
      </trkpt>
      <trkpt lat="47.14873" lon="-1.63562">
        <ele>72</ele>
        <time>2021-02-14T14:21:56.000Z</time>
      </trkpt>
      <trkpt lat="47.14873" lon="-1.63581">
        <ele>72</ele>
        <time>2021-02-14T14:21:58.000Z</time>
      </trkpt>
      <trkpt lat="47.14873" lon="-1.636">
        <ele>72</ele>
        <time>2021-02-14T14:22:00.000Z</time>
      </trkpt>
      <trkpt lat="47.14873" lon="-1.63618">
        <ele>72</ele>
        <time>2021-02-14T14:22:02.000Z</time>
      </trkpt>
      <trkpt lat="47.14873" lon="-1.63637">
        <ele>72</ele>
        <time>2021-02-14T14:22:04.000Z</time>
      </trkpt>
      <trkpt lat="47.14872" lon="-1.63655">
        <ele>72</ele>
        <time>2021-02-14T14:22:06.000Z</time>
      </trkpt>
      <trkpt lat="47.14873" lon="-1.63674">
        <ele>72</ele>
        <time>2021-02-14T14:22:08.000Z</time>
      </trkpt>
      <trkpt lat="47.14873" lon="-1.63693">
        <ele>72</ele>
        <time>2021-02-14T14:22:10.000Z</time>
      </trkpt>
      <trkpt lat="47.14873" lon="-1.63712">
        <ele>71</ele>
        <time>2021-02-14T14:22:12.000Z</time>
      </trkpt>
      <trkpt lat="47.14873" lon="-1.6373">
        <ele>71</ele>
        <time>2021-02-14T14:22:14.000Z</time>
      </trkpt>
      <trkpt lat="47.14873" lon="-1.63749">
        <ele>71</ele>
        <time>2021-02-14T14:22:16.000Z</time>
      </trkpt>
      <trkpt lat="47.14873" lon="-1.63767">
        <ele>71</ele>
        <time>2021-02-14T14:22:18.000Z</time>
      </trkpt>
      <trkpt lat="47.14873" lon="-1.63785">
        <ele>71</ele>
        <time>2021-02-14T14:22:20.000Z</time>
      </trkpt>
      <trkpt lat="47.14873" lon="-1.63804">
        <ele>71</ele>
        <time>2021-02-14T14:22:22.000Z</time>
      </trkpt>
      <trkpt lat="47.14873" lon="-1.63822">
        <ele>71</ele>
        <time>2021-02-14T14:22:24.000Z</time>
      </trkpt>
      <trkpt lat="47.14872" lon="-1.6384">
        <ele>72</ele>
        <time>2021-02-14T14:22:26.000Z</time>
      </trkpt>
      <trkpt lat="47.14871" lon="-1.63857">
        <ele>72</ele>
        <time>2021-02-14T14:22:28.000Z</time>
      </trkpt>
      <trkpt lat="47.14869" lon="-1.63875">
        <ele>71</ele>
        <time>2021-02-14T14:22:30.000Z</time>
      </trkpt>
      <trkpt lat="47.14867" lon="-1.63892">
        <ele>72</ele>
        <time>2021-02-14T14:22:32.000Z</time>
      </trkpt>
      <trkpt lat="47.14865" lon="-1.63909">
        <ele>72</ele>
        <time>2021-02-14T14:22:34.000Z</time>
      </trkpt>
      <trkpt lat="47.14862" lon="-1.63926">
        <ele>72</ele>
        <time>2021-02-14T14:22:36.000Z</time>
      </trkpt>
      <trkpt lat="47.14859" lon="-1.63943">
        <ele>72</ele>
        <time>2021-02-14T14:22:38.000Z</time>
      </trkpt>
      <trkpt lat="47.14858" lon="-1.63959">
        <ele>72</ele>
        <time>2021-02-14T14:22:40.000Z</time>
      </trkpt>
      <trkpt lat="47.14861" lon="-1.63976">
        <ele>72</ele>
        <time>2021-02-14T14:22:42.000Z</time>
      </trkpt>
      <trkpt lat="47.14868" lon="-1.63989">
        <ele>72</ele>
        <time>2021-02-14T14:22:44.000Z</time>
      </trkpt>
      <trkpt lat="47.14876" lon="-1.64001">
        <ele>73</ele>
        <time>2021-02-14T14:22:46.000Z</time>
      </trkpt>
      <trkpt lat="47.14884" lon="-1.64013">
        <ele>72</ele>
        <time>2021-02-14T14:22:48.000Z</time>
      </trkpt>
      <trkpt lat="47.14895" lon="-1.6402">
        <ele>72</ele>
        <time>2021-02-14T14:22:50.000Z</time>
      </trkpt>
      <trkpt lat="47.14905" lon="-1.64019">
        <ele>73</ele>
        <time>2021-02-14T14:22:52.000Z</time>
      </trkpt>
      <trkpt lat="47.14914" lon="-1.64007">
        <ele>73</ele>
        <time>2021-02-14T14:22:54.000Z</time>
      </trkpt>
      <trkpt lat="47.14921" lon="-1.63993">
        <ele>73</ele>
        <time>2021-02-14T14:22:56.000Z</time>
      </trkpt>
      <trkpt lat="47.14929" lon="-1.63978">
        <ele>73</ele>
        <time>2021-02-14T14:22:58.000Z</time>
      </trkpt>
      <trkpt lat="47.14937" lon="-1.63965">
        <ele>73</ele>
        <time>2021-02-14T14:23:00.000Z</time>
      </trkpt>
      <trkpt lat="47.14944" lon="-1.63951">
        <ele>73</ele>
        <time>2021-02-14T14:23:02.000Z</time>
      </trkpt>
      <trkpt lat="47.14952" lon="-1.63938">
        <ele>72</ele>
        <time>2021-02-14T14:23:04.000Z</time>
      </trkpt>
      <trkpt lat="47.1496" lon="-1.63925">
        <ele>72</ele>
        <time>2021-02-14T14:23:06.000Z</time>
      </trkpt>
      <trkpt lat="47.14969" lon="-1.63912">
        <ele>72</ele>
        <time>2021-02-14T14:23:08.000Z</time>
      </trkpt>
      <trkpt lat="47.14977" lon="-1.63899">
        <ele>72</ele>
        <time>2021-02-14T14:23:10.000Z</time>
      </trkpt>
      <trkpt lat="47.14986" lon="-1.63887">
        <ele>72</ele>
        <time>2021-02-14T14:23:12.000Z</time>
      </trkpt>
      <trkpt lat="47.14995" lon="-1.63874">
        <ele>72</ele>
        <time>2021-02-14T14:23:14.000Z</time>
      </trkpt>
      <trkpt lat="47.15004" lon="-1.63862">
        <ele>71</ele>
        <time>2021-02-14T14:23:16.000Z</time>
      </trkpt>
      <trkpt lat="47.15013" lon="-1.6385">
        <ele>71</ele>
        <time>2021-02-14T14:23:18.000Z</time>
      </trkpt>
      <trkpt lat="47.15022" lon="-1.63838">
        <ele>71</ele>
        <time>2021-02-14T14:23:20.000Z</time>
      </trkpt>
      <trkpt lat="47.15031" lon="-1.63825">
        <ele>71</ele>
        <time>2021-02-14T14:23:22.000Z</time>
      </trkpt>
      <trkpt lat="47.15041" lon="-1.63813">
        <ele>71</ele>
        <time>2021-02-14T14:23:24.000Z</time>
      </trkpt>
      <trkpt lat="47.1505" lon="-1.638">
        <ele>71</ele>
        <time>2021-02-14T14:23:26.000Z</time>
      </trkpt>
      <trkpt lat="47.15059" lon="-1.63788">
        <ele>71</ele>
        <time>2021-02-14T14:23:28.000Z</time>
      </trkpt>
      <trkpt lat="47.15069" lon="-1.63777">
        <ele>71</ele>
        <time>2021-02-14T14:23:30.000Z</time>
      </trkpt>
      <trkpt lat="47.15078" lon="-1.63765">
        <ele>71</ele>
        <time>2021-02-14T14:23:32.000Z</time>
      </trkpt>
      <trkpt lat="47.15088" lon="-1.63753">
        <ele>71</ele>
        <time>2021-02-14T14:23:34.000Z</time>
      </trkpt>
      <trkpt lat="47.15097" lon="-1.63742">
        <ele>71</ele>
        <time>2021-02-14T14:23:36.000Z</time>
      </trkpt>
      <trkpt lat="47.15107" lon="-1.63731">
        <ele>71</ele>
        <time>2021-02-14T14:23:38.000Z</time>
      </trkpt>
      <trkpt lat="47.15118" lon="-1.6372">
        <ele>72</ele>
        <time>2021-02-14T14:23:40.000Z</time>
      </trkpt>
      <trkpt lat="47.15128" lon="-1.6371">
        <ele>72</ele>
        <time>2021-02-14T14:23:42.000Z</time>
      </trkpt>
      <trkpt lat="47.15138" lon="-1.637">
        <ele>72</ele>
        <time>2021-02-14T14:23:44.000Z</time>
      </trkpt>
      <trkpt lat="47.15149" lon="-1.63689">
        <ele>72</ele>
        <time>2021-02-14T14:23:46.000Z</time>
      </trkpt>
      <trkpt lat="47.15159" lon="-1.63679">
        <ele>72</ele>
        <time>2021-02-14T14:23:48.000Z</time>
      </trkpt>
      <trkpt lat="47.1517" lon="-1.6367">
        <ele>72</ele>
        <time>2021-02-14T14:23:50.000Z</time>
      </trkpt>
      <trkpt lat="47.1518" lon="-1.6366">
        <ele>72</ele>
        <time>2021-02-14T14:23:52.000Z</time>
      </trkpt>
      <trkpt lat="47.15191" lon="-1.63651">
        <ele>72</ele>
        <time>2021-02-14T14:23:54.000Z</time>
      </trkpt>
      <trkpt lat="47.15202" lon="-1.63641">
        <ele>72</ele>
        <time>2021-02-14T14:23:56.000Z</time>
      </trkpt>
      <trkpt lat="47.15212" lon="-1.63631">
        <ele>72</ele>
        <time>2021-02-14T14:23:58.000Z</time>
      </trkpt>
      <trkpt lat="47.15223" lon="-1.63622">
        <ele>72</ele>
        <time>2021-02-14T14:24:00.000Z</time>
      </trkpt>
      <trkpt lat="47.15233" lon="-1.63612">
        <ele>72</ele>
        <time>2021-02-14T14:24:02.000Z</time>
      </trkpt>
      <trkpt lat="47.15244" lon="-1.63602">
        <ele>72</ele>
        <time>2021-02-14T14:24:04.000Z</time>
      </trkpt>
      <trkpt lat="47.15254" lon="-1.63593">
        <ele>73</ele>
        <time>2021-02-14T14:24:06.000Z</time>
      </trkpt>
      <trkpt lat="47.15265" lon="-1.63583">
        <ele>73</ele>
        <time>2021-02-14T14:24:08.000Z</time>
      </trkpt>
      <trkpt lat="47.15275" lon="-1.63573">
        <ele>73</ele>
        <time>2021-02-14T14:24:10.000Z</time>
      </trkpt>
      <trkpt lat="47.15286" lon="-1.63564">
        <ele>73</ele>
        <time>2021-02-14T14:24:12.000Z</time>
      </trkpt>
      <trkpt lat="47.15296" lon="-1.63554">
        <ele>73</ele>
        <time>2021-02-14T14:24:14.000Z</time>
      </trkpt>
      <trkpt lat="47.15306" lon="-1.63545">
        <ele>72</ele>
        <time>2021-02-14T14:24:16.000Z</time>
      </trkpt>
      <trkpt lat="47.15317" lon="-1.63535">
        <ele>72</ele>
        <time>2021-02-14T14:24:18.000Z</time>
      </trkpt>
      <trkpt lat="47.15328" lon="-1.63526">
        <ele>72</ele>
        <time>2021-02-14T14:24:20.000Z</time>
      </trkpt>
      <trkpt lat="47.15338" lon="-1.63517">
        <ele>72</ele>
        <time>2021-02-14T14:24:22.000Z</time>
      </trkpt>
      <trkpt lat="47.15348" lon="-1.63507">
        <ele>72</ele>
        <time>2021-02-14T14:24:24.000Z</time>
      </trkpt>
      <trkpt lat="47.15359" lon="-1.63498">
        <ele>72</ele>
        <time>2021-02-14T14:24:26.000Z</time>
      </trkpt>
      <trkpt lat="47.1537" lon="-1.63489">
        <ele>72</ele>
        <time>2021-02-14T14:24:28.000Z</time>
      </trkpt>
      <trkpt lat="47.1538" lon="-1.63479">
        <ele>72</ele>
        <time>2021-02-14T14:24:30.000Z</time>
      </trkpt>
      <trkpt lat="47.1539" lon="-1.6347">
        <ele>72</ele>
        <time>2021-02-14T14:24:32.000Z</time>
      </trkpt>
      <trkpt lat="47.15401" lon="-1.63461">
        <ele>72</ele>
        <time>2021-02-14T14:24:34.000Z</time>
      </trkpt>
      <trkpt lat="47.15412" lon="-1.63452">
        <ele>71</ele>
        <time>2021-02-14T14:24:36.000Z</time>
      </trkpt>
      <trkpt lat="47.15422" lon="-1.63443">
        <ele>71</ele>
        <time>2021-02-14T14:24:38.000Z</time>
      </trkpt>
      <trkpt lat="47.15432" lon="-1.63433">
        <ele>71</ele>
        <time>2021-02-14T14:24:40.000Z</time>
      </trkpt>
      <trkpt lat="47.15443" lon="-1.63422">
        <ele>71</ele>
        <time>2021-02-14T14:24:42.000Z</time>
      </trkpt>
      <trkpt lat="47.15453" lon="-1.63411">
        <ele>71</ele>
        <time>2021-02-14T14:24:44.000Z</time>
      </trkpt>
      <trkpt lat="47.15465" lon="-1.63401">
        <ele>70</ele>
        <time>2021-02-14T14:24:46.000Z</time>
      </trkpt>
      <trkpt lat="47.15477" lon="-1.63392">
        <ele>70</ele>
        <time>2021-02-14T14:24:48.000Z</time>
      </trkpt>
      <trkpt lat="47.15489" lon="-1.63384">
        <ele>70</ele>
        <time>2021-02-14T14:24:50.000Z</time>
      </trkpt>
      <trkpt lat="47.15501" lon="-1.63374">
        <ele>69</ele>
        <time>2021-02-14T14:24:52.000Z</time>
      </trkpt>
      <trkpt lat="47.15514" lon="-1.63364">
        <ele>69</ele>
        <time>2021-02-14T14:24:54.000Z</time>
      </trkpt>
      <trkpt lat="47.15526" lon="-1.63354">
        <ele>68</ele>
        <time>2021-02-14T14:24:56.000Z</time>
      </trkpt>
      <trkpt lat="47.15538" lon="-1.63343">
        <ele>68</ele>
        <time>2021-02-14T14:24:58.000Z</time>
      </trkpt>
      <trkpt lat="47.15551" lon="-1.63332">
        <ele>68</ele>
        <time>2021-02-14T14:25:00.000Z</time>
      </trkpt>
      <trkpt lat="47.15563" lon="-1.63321">
        <ele>67</ele>
        <time>2021-02-14T14:25:02.000Z</time>
      </trkpt>
      <trkpt lat="47.15576" lon="-1.63309">
        <ele>67</ele>
        <time>2021-02-14T14:25:04.000Z</time>
      </trkpt>
      <trkpt lat="47.15589" lon="-1.63296">
        <ele>67</ele>
        <time>2021-02-14T14:25:06.000Z</time>
      </trkpt>
      <trkpt lat="47.15602" lon="-1.63285">
        <ele>67</ele>
        <time>2021-02-14T14:25:08.000Z</time>
      </trkpt>
      <trkpt lat="47.15615" lon="-1.63274">
        <ele>67</ele>
        <time>2021-02-14T14:25:10.000Z</time>
      </trkpt>
      <trkpt lat="47.15628" lon="-1.63262">
        <ele>67</ele>
        <time>2021-02-14T14:25:12.000Z</time>
      </trkpt>
      <trkpt lat="47.1564" lon="-1.63252">
        <ele>67</ele>
        <time>2021-02-14T14:25:14.000Z</time>
      </trkpt>
      <trkpt lat="47.15652" lon="-1.63241">
        <ele>67</ele>
        <time>2021-02-14T14:25:16.000Z</time>
      </trkpt>
      <trkpt lat="47.15664" lon="-1.63231">
        <ele>66</ele>
        <time>2021-02-14T14:25:18.000Z</time>
      </trkpt>
      <trkpt lat="47.15676" lon="-1.63221">
        <ele>66</ele>
        <time>2021-02-14T14:25:20.000Z</time>
      </trkpt>
      <trkpt lat="47.15688" lon="-1.63211">
        <ele>66</ele>
        <time>2021-02-14T14:25:22.000Z</time>
      </trkpt>
      <trkpt lat="47.15699" lon="-1.632">
        <ele>67</ele>
        <time>2021-02-14T14:25:24.000Z</time>
      </trkpt>
      <trkpt lat="47.15711" lon="-1.6319">
        <ele>67</ele>
        <time>2021-02-14T14:25:26.000Z</time>
      </trkpt>
      <trkpt lat="47.15722" lon="-1.63179">
        <ele>67</ele>
        <time>2021-02-14T14:25:28.000Z</time>
      </trkpt>
      <trkpt lat="47.15734" lon="-1.63169">
        <ele>66</ele>
        <time>2021-02-14T14:25:30.000Z</time>
      </trkpt>
      <trkpt lat="47.15744" lon="-1.63157">
        <ele>66</ele>
        <time>2021-02-14T14:25:32.000Z</time>
      </trkpt>
      <trkpt lat="47.15754" lon="-1.63145">
        <ele>66</ele>
        <time>2021-02-14T14:25:34.000Z</time>
      </trkpt>
      <trkpt lat="47.15768" lon="-1.6314">
        <ele>66</ele>
        <time>2021-02-14T14:25:36.000Z</time>
      </trkpt>
      <trkpt lat="47.1578" lon="-1.6313">
        <ele>66</ele>
        <time>2021-02-14T14:25:38.000Z</time>
      </trkpt>
      <trkpt lat="47.15792" lon="-1.63119">
        <ele>65</ele>
        <time>2021-02-14T14:25:40.000Z</time>
      </trkpt>
      <trkpt lat="47.15804" lon="-1.63108">
        <ele>65</ele>
        <time>2021-02-14T14:25:42.000Z</time>
      </trkpt>
      <trkpt lat="47.15816" lon="-1.63097">
        <ele>64</ele>
        <time>2021-02-14T14:25:44.000Z</time>
      </trkpt>
      <trkpt lat="47.15828" lon="-1.63086">
        <ele>64</ele>
        <time>2021-02-14T14:25:46.000Z</time>
      </trkpt>
      <trkpt lat="47.15841" lon="-1.63075">
        <ele>63</ele>
        <time>2021-02-14T14:25:48.000Z</time>
      </trkpt>
      <trkpt lat="47.15854" lon="-1.63063">
        <ele>62</ele>
        <time>2021-02-14T14:25:50.000Z</time>
      </trkpt>
      <trkpt lat="47.15868" lon="-1.63052">
        <ele>62</ele>
        <time>2021-02-14T14:25:52.000Z</time>
      </trkpt>
      <trkpt lat="47.15881" lon="-1.63039">
        <ele>62</ele>
        <time>2021-02-14T14:25:54.000Z</time>
      </trkpt>
      <trkpt lat="47.15894" lon="-1.63026">
        <ele>61</ele>
        <time>2021-02-14T14:25:56.000Z</time>
      </trkpt>
      <trkpt lat="47.15907" lon="-1.63015">
        <ele>61</ele>
        <time>2021-02-14T14:25:58.000Z</time>
      </trkpt>
      <trkpt lat="47.1592" lon="-1.63004">
        <ele>61</ele>
        <time>2021-02-14T14:26:00.000Z</time>
      </trkpt>
      <trkpt lat="47.15932" lon="-1.62993">
        <ele>62</ele>
        <time>2021-02-14T14:26:02.000Z</time>
      </trkpt>
      <trkpt lat="47.15944" lon="-1.62983">
        <ele>62</ele>
        <time>2021-02-14T14:26:04.000Z</time>
      </trkpt>
      <trkpt lat="47.15955" lon="-1.62972">
        <ele>62</ele>
        <time>2021-02-14T14:26:06.000Z</time>
      </trkpt>
      <trkpt lat="47.15967" lon="-1.62961">
        <ele>63</ele>
        <time>2021-02-14T14:26:08.000Z</time>
      </trkpt>
      <trkpt lat="47.15979" lon="-1.6295">
        <ele>63</ele>
        <time>2021-02-14T14:26:10.000Z</time>
      </trkpt>
      <trkpt lat="47.15992" lon="-1.62939">
        <ele>64</ele>
        <time>2021-02-14T14:26:12.000Z</time>
      </trkpt>
      <trkpt lat="47.16005" lon="-1.62928">
        <ele>65</ele>
        <time>2021-02-14T14:26:14.000Z</time>
      </trkpt>
      <trkpt lat="47.16017" lon="-1.62918">
        <ele>65</ele>
        <time>2021-02-14T14:26:16.000Z</time>
      </trkpt>
      <trkpt lat="47.1603" lon="-1.62907">
        <ele>66</ele>
        <time>2021-02-14T14:26:18.000Z</time>
      </trkpt>
      <trkpt lat="47.16042" lon="-1.62896">
        <ele>67</ele>
        <time>2021-02-14T14:26:20.000Z</time>
      </trkpt>
      <trkpt lat="47.16054" lon="-1.62884">
        <ele>67</ele>
        <time>2021-02-14T14:26:22.000Z</time>
      </trkpt>
      <trkpt lat="47.16066" lon="-1.62875">
        <ele>67</ele>
        <time>2021-02-14T14:26:24.000Z</time>
      </trkpt>
      <trkpt lat="47.16077" lon="-1.62865">
        <ele>67</ele>
        <time>2021-02-14T14:26:26.000Z</time>
      </trkpt>
      <trkpt lat="47.16088" lon="-1.62855">
        <ele>67</ele>
        <time>2021-02-14T14:26:28.000Z</time>
      </trkpt>
      <trkpt lat="47.16098" lon="-1.62847">
        <ele>68</ele>
        <time>2021-02-14T14:26:30.000Z</time>
      </trkpt>
      <trkpt lat="47.16108" lon="-1.62838">
        <ele>68</ele>
        <time>2021-02-14T14:26:32.000Z</time>
      </trkpt>
      <trkpt lat="47.16118" lon="-1.62829">
        <ele>68</ele>
        <time>2021-02-14T14:26:34.000Z</time>
      </trkpt>
      <trkpt lat="47.16128" lon="-1.6282">
        <ele>68</ele>
        <time>2021-02-14T14:26:36.000Z</time>
      </trkpt>
      <trkpt lat="47.16138" lon="-1.62811">
        <ele>68</ele>
        <time>2021-02-14T14:26:38.000Z</time>
      </trkpt>
      <trkpt lat="47.16149" lon="-1.62802">
        <ele>69</ele>
        <time>2021-02-14T14:26:40.000Z</time>
      </trkpt>
      <trkpt lat="47.16158" lon="-1.62794">
        <ele>69</ele>
        <time>2021-02-14T14:26:42.000Z</time>
      </trkpt>
      <trkpt lat="47.16168" lon="-1.62785">
        <ele>69</ele>
        <time>2021-02-14T14:26:44.000Z</time>
      </trkpt>
      <trkpt lat="47.16178" lon="-1.62776">
        <ele>69</ele>
        <time>2021-02-14T14:26:46.000Z</time>
      </trkpt>
      <trkpt lat="47.16187" lon="-1.62767">
        <ele>69</ele>
        <time>2021-02-14T14:26:48.000Z</time>
      </trkpt>
      <trkpt lat="47.16197" lon="-1.62758">
        <ele>70</ele>
        <time>2021-02-14T14:26:50.000Z</time>
      </trkpt>
      <trkpt lat="47.16207" lon="-1.62748">
        <ele>70</ele>
        <time>2021-02-14T14:26:52.000Z</time>
      </trkpt>
      <trkpt lat="47.16217" lon="-1.6274">
        <ele>71</ele>
        <time>2021-02-14T14:26:54.000Z</time>
      </trkpt>
      <trkpt lat="47.16227" lon="-1.62731">
        <ele>71</ele>
        <time>2021-02-14T14:26:56.000Z</time>
      </trkpt>
      <trkpt lat="47.16242" lon="-1.62719">
        <ele>72</ele>
        <time>2021-02-14T14:26:59.000Z</time>
      </trkpt>
      <trkpt lat="47.16252" lon="-1.62711">
        <ele>73</ele>
        <time>2021-02-14T14:27:01.000Z</time>
      </trkpt>
      <trkpt lat="47.1626" lon="-1.62704">
        <ele>72</ele>
        <time>2021-02-14T14:27:03.000Z</time>
      </trkpt>
      <trkpt lat="47.16273" lon="-1.62694">
        <ele>73</ele>
        <time>2021-02-14T14:27:06.000Z</time>
      </trkpt>
      <trkpt lat="47.16278" lon="-1.6267">
        <ele>73</ele>
        <time>2021-02-14T14:27:10.000Z</time>
      </trkpt>
      <trkpt lat="47.16278" lon="-1.62646">
        <ele>73</ele>
        <time>2021-02-14T14:27:13.000Z</time>
      </trkpt>
      <trkpt lat="47.16282" lon="-1.62623">
        <ele>73</ele>
        <time>2021-02-14T14:27:16.000Z</time>
      </trkpt>
      <trkpt lat="47.16285" lon="-1.62608">
        <ele>72</ele>
        <time>2021-02-14T14:27:18.000Z</time>
      </trkpt>
      <trkpt lat="47.1629" lon="-1.62594">
        <ele>72</ele>
        <time>2021-02-14T14:27:20.000Z</time>
      </trkpt>
      <trkpt lat="47.163" lon="-1.62577">
        <ele>73</ele>
        <time>2021-02-14T14:27:23.000Z</time>
      </trkpt>
      <trkpt lat="47.16309" lon="-1.6257">
        <ele>73</ele>
        <time>2021-02-14T14:27:25.000Z</time>
      </trkpt>
      <trkpt lat="47.16321" lon="-1.62568">
        <ele>74</ele>
        <time>2021-02-14T14:27:27.000Z</time>
      </trkpt>
      <trkpt lat="47.16333" lon="-1.62571">
        <ele>74</ele>
        <time>2021-02-14T14:27:29.000Z</time>
      </trkpt>
      <trkpt lat="47.16345" lon="-1.62576">
        <ele>74</ele>
        <time>2021-02-14T14:27:31.000Z</time>
      </trkpt>
      <trkpt lat="47.16356" lon="-1.62579">
        <ele>75</ele>
        <time>2021-02-14T14:27:33.000Z</time>
      </trkpt>
      <trkpt lat="47.16369" lon="-1.62581">
        <ele>75</ele>
        <time>2021-02-14T14:27:35.000Z</time>
      </trkpt>
      <trkpt lat="47.16381" lon="-1.62582">
        <ele>75</ele>
        <time>2021-02-14T14:27:37.000Z</time>
      </trkpt>
      <trkpt lat="47.16392" lon="-1.62578">
        <ele>75</ele>
        <time>2021-02-14T14:27:39.000Z</time>
      </trkpt>
      <trkpt lat="47.16403" lon="-1.62571">
        <ele>75</ele>
        <time>2021-02-14T14:27:41.000Z</time>
      </trkpt>
      <trkpt lat="47.16417" lon="-1.62556">
        <ele>75</ele>
        <time>2021-02-14T14:27:44.000Z</time>
      </trkpt>
      <trkpt lat="47.16427" lon="-1.62547">
        <ele>75</ele>
        <time>2021-02-14T14:27:46.000Z</time>
      </trkpt>
      <trkpt lat="47.16437" lon="-1.6254">
        <ele>76</ele>
        <time>2021-02-14T14:27:48.000Z</time>
      </trkpt>
      <trkpt lat="47.16449" lon="-1.62541">
        <ele>75</ele>
        <time>2021-02-14T14:27:50.000Z</time>
      </trkpt>
      <trkpt lat="47.16461" lon="-1.62544">
        <ele>76</ele>
        <time>2021-02-14T14:27:52.000Z</time>
      </trkpt>
      <trkpt lat="47.16478" lon="-1.62549">
        <ele>76</ele>
        <time>2021-02-14T14:27:55.000Z</time>
      </trkpt>
      <trkpt lat="47.16489" lon="-1.62552">
        <ele>76</ele>
        <time>2021-02-14T14:27:57.000Z</time>
      </trkpt>
      <trkpt lat="47.165" lon="-1.62556">
        <ele>76</ele>
        <time>2021-02-14T14:27:59.000Z</time>
      </trkpt>
      <trkpt lat="47.16512" lon="-1.6256">
        <ele>76</ele>
        <time>2021-02-14T14:28:01.000Z</time>
      </trkpt>
      <trkpt lat="47.16525" lon="-1.62563">
        <ele>75</ele>
        <time>2021-02-14T14:28:03.000Z</time>
      </trkpt>
      <trkpt lat="47.16537" lon="-1.62563">
        <ele>75</ele>
        <time>2021-02-14T14:28:05.000Z</time>
      </trkpt>
      <trkpt lat="47.16548" lon="-1.62554">
        <ele>75</ele>
        <time>2021-02-14T14:28:07.000Z</time>
      </trkpt>
      <trkpt lat="47.16558" lon="-1.62542">
        <ele>75</ele>
        <time>2021-02-14T14:28:09.000Z</time>
      </trkpt>
      <trkpt lat="47.16567" lon="-1.62529">
        <ele>74</ele>
        <time>2021-02-14T14:28:11.000Z</time>
      </trkpt>
      <trkpt lat="47.16573" lon="-1.62512">
        <ele>74</ele>
        <time>2021-02-14T14:28:13.000Z</time>
      </trkpt>
      <trkpt lat="47.16578" lon="-1.62494">
        <ele>74</ele>
        <time>2021-02-14T14:28:15.000Z</time>
      </trkpt>
      <trkpt lat="47.16584" lon="-1.62477">
        <ele>73</ele>
        <time>2021-02-14T14:28:17.000Z</time>
      </trkpt>
      <trkpt lat="47.16591" lon="-1.62459">
        <ele>73</ele>
        <time>2021-02-14T14:28:19.000Z</time>
      </trkpt>
      <trkpt lat="47.16599" lon="-1.62443">
        <ele>73</ele>
        <time>2021-02-14T14:28:21.000Z</time>
      </trkpt>
      <trkpt lat="47.16607" lon="-1.62426">
        <ele>72</ele>
        <time>2021-02-14T14:28:23.000Z</time>
      </trkpt>
      <trkpt lat="47.16616" lon="-1.62409">
        <ele>72</ele>
        <time>2021-02-14T14:28:25.000Z</time>
      </trkpt>
      <trkpt lat="47.16626" lon="-1.62394">
        <ele>72</ele>
        <time>2021-02-14T14:28:27.000Z</time>
      </trkpt>
      <trkpt lat="47.16636" lon="-1.6238">
        <ele>71</ele>
        <time>2021-02-14T14:28:29.000Z</time>
      </trkpt>
      <trkpt lat="47.16648" lon="-1.62368">
        <ele>71</ele>
        <time>2021-02-14T14:28:31.000Z</time>
      </trkpt>
      <trkpt lat="47.16661" lon="-1.62358">
        <ele>71</ele>
        <time>2021-02-14T14:28:33.000Z</time>
      </trkpt>
      <trkpt lat="47.16673" lon="-1.62353">
        <ele>71</ele>
        <time>2021-02-14T14:28:35.000Z</time>
      </trkpt>
      <trkpt lat="47.16685" lon="-1.62353">
        <ele>71</ele>
        <time>2021-02-14T14:28:37.000Z</time>
      </trkpt>
      <trkpt lat="47.16698" lon="-1.62364">
        <ele>71</ele>
        <time>2021-02-14T14:28:39.000Z</time>
      </trkpt>
      <trkpt lat="47.16709" lon="-1.62379">
        <ele>70</ele>
        <time>2021-02-14T14:28:41.000Z</time>
      </trkpt>
      <trkpt lat="47.16718" lon="-1.62395">
        <ele>69</ele>
        <time>2021-02-14T14:28:43.000Z</time>
      </trkpt>
      <trkpt lat="47.16726" lon="-1.62409">
        <ele>69</ele>
        <time>2021-02-14T14:28:45.000Z</time>
      </trkpt>
      <trkpt lat="47.16728" lon="-1.62438">
        <ele>69</ele>
        <time>2021-02-14T14:28:48.000Z</time>
      </trkpt>
      <trkpt lat="47.16723" lon="-1.62457">
        <ele>68</ele>
        <time>2021-02-14T14:28:50.000Z</time>
      </trkpt>
      <trkpt lat="47.16718" lon="-1.62475">
        <ele>68</ele>
        <time>2021-02-14T14:28:52.000Z</time>
      </trkpt>
      <trkpt lat="47.16717" lon="-1.6249">
        <ele>67</ele>
        <time>2021-02-14T14:28:54.000Z</time>
      </trkpt>
      <trkpt lat="47.16729" lon="-1.62498">
        <ele>68</ele>
        <time>2021-02-14T14:28:56.000Z</time>
      </trkpt>
      <trkpt lat="47.16741" lon="-1.62503">
        <ele>68</ele>
        <time>2021-02-14T14:28:58.000Z</time>
      </trkpt>
      <trkpt lat="47.16752" lon="-1.62508">
        <ele>68</ele>
        <time>2021-02-14T14:29:00.000Z</time>
      </trkpt>
      <trkpt lat="47.16763" lon="-1.62514">
        <ele>68</ele>
        <time>2021-02-14T14:29:02.000Z</time>
      </trkpt>
      <trkpt lat="47.16773" lon="-1.6252">
        <ele>68</ele>
        <time>2021-02-14T14:29:04.000Z</time>
      </trkpt>
      <trkpt lat="47.16783" lon="-1.62528">
        <ele>68</ele>
        <time>2021-02-14T14:29:06.000Z</time>
      </trkpt>
      <trkpt lat="47.16792" lon="-1.62534">
        <ele>68</ele>
        <time>2021-02-14T14:29:08.000Z</time>
      </trkpt>
      <trkpt lat="47.16801" lon="-1.62538">
        <ele>68</ele>
        <time>2021-02-14T14:29:10.000Z</time>
      </trkpt>
      <trkpt lat="47.16811" lon="-1.62545">
        <ele>68</ele>
        <time>2021-02-14T14:29:13.000Z</time>
      </trkpt>
      <trkpt lat="47.16811" lon="-1.62559">
        <ele>67</ele>
        <time>2021-02-14T14:29:24.000Z</time>
      </trkpt>
    </trkseg>
  </trk>
</gpx>